<?xml version="1.0" encoding="UTF-8" standalone="no" ?>
<gpx xmlns="http://www.topografix.com/GPX/1/1" xmlns:xsi="http://www.w3.org/2001/XMLSchema-instance" xsi:schemaLocation="http://www.topografix.com/GPX/1/1 http://www.topografix.com/GPX/1/1/gpx.xsd" version="1.1" creator="VisuGPX - https://www.visugpx.com">
  <metadata>
    <name>sources de volvic</name>
  </metadata>
  <trk>
    <name><![CDATA[sources de volvic_1]]></name>
    <extensions>
      <line xmlns="http://www.topografix.com/GPX/gpx_style/0/2">
        <color>0000FF</color>
        <width>4</width>
      </line>
    </extensions>
    <trkseg>
      <trkpt lat="45.87128" lon="3.02785">
        <ele>576</ele>
        <time>2021-08-10T18:06:48Z</time>
      </trkpt>
      <trkpt lat="45.87128" lon="3.02784">
        <ele>576</ele>
        <time>2021-08-10T18:06:49Z</time>
      </trkpt>
      <trkpt lat="45.87127" lon="3.02783">
        <ele>576</ele>
        <time>2021-08-10T18:06:50Z</time>
      </trkpt>
      <trkpt lat="45.87127" lon="3.02781">
        <ele>576</ele>
        <time>2021-08-10T18:06:52Z</time>
      </trkpt>
      <trkpt lat="45.87128" lon="3.02779">
        <ele>576</ele>
        <time>2021-08-10T18:06:53Z</time>
      </trkpt>
      <trkpt lat="45.87128" lon="3.02777">
        <ele>576</ele>
        <time>2021-08-10T18:06:55Z</time>
      </trkpt>
      <trkpt lat="45.87129" lon="3.0277">
        <ele>576</ele>
        <time>2021-08-10T18:06:56Z</time>
      </trkpt>
      <trkpt lat="45.87129" lon="3.02769">
        <ele>576</ele>
        <time>2021-08-10T18:06:57Z</time>
      </trkpt>
      <trkpt lat="45.87129" lon="3.02768">
        <ele>576</ele>
        <time>2021-08-10T18:06:58Z</time>
      </trkpt>
      <trkpt lat="45.87129" lon="3.02767">
        <ele>576</ele>
        <time>2021-08-10T18:07:00Z</time>
      </trkpt>
      <trkpt lat="45.87129" lon="3.02766">
        <ele>576</ele>
        <time>2021-08-10T18:07:01Z</time>
      </trkpt>
      <trkpt lat="45.87127" lon="3.02761">
        <ele>576</ele>
        <time>2021-08-10T18:07:02Z</time>
      </trkpt>
      <trkpt lat="45.87127" lon="3.02761">
        <ele>576</ele>
        <time>2021-08-10T18:07:03Z</time>
      </trkpt>
      <trkpt lat="45.87127" lon="3.02761">
        <ele>576</ele>
        <time>2021-08-10T18:07:05Z</time>
      </trkpt>
      <trkpt lat="45.87125" lon="3.02759">
        <ele>576</ele>
        <time>2021-08-10T18:07:15Z</time>
      </trkpt>
      <trkpt lat="45.87124" lon="3.02756">
        <ele>576</ele>
        <time>2021-08-10T18:07:16Z</time>
      </trkpt>
      <trkpt lat="45.87124" lon="3.02755">
        <ele>576</ele>
        <time>2021-08-10T18:07:18Z</time>
      </trkpt>
      <trkpt lat="45.87123" lon="3.0275">
        <ele>576</ele>
        <time>2021-08-10T18:07:19Z</time>
      </trkpt>
      <trkpt lat="45.87123" lon="3.0275">
        <ele>576</ele>
        <time>2021-08-10T18:07:20Z</time>
      </trkpt>
      <trkpt lat="45.87124" lon="3.02749">
        <ele>576</ele>
        <time>2021-08-10T18:07:21Z</time>
      </trkpt>
      <trkpt lat="45.87124" lon="3.02748">
        <ele>576</ele>
        <time>2021-08-10T18:07:23Z</time>
      </trkpt>
      <trkpt lat="45.87124" lon="3.02744">
        <ele>576</ele>
        <time>2021-08-10T18:07:24Z</time>
      </trkpt>
      <trkpt lat="45.87124" lon="3.02744">
        <ele>576</ele>
        <time>2021-08-10T18:07:26Z</time>
      </trkpt>
      <trkpt lat="45.87125" lon="3.02745">
        <ele>576</ele>
        <time>2021-08-10T18:07:27Z</time>
      </trkpt>
      <trkpt lat="45.87125" lon="3.02745">
        <ele>576</ele>
        <time>2021-08-10T18:07:30Z</time>
      </trkpt>
      <trkpt lat="45.87125" lon="3.02745">
        <ele>576</ele>
        <time>2021-08-10T18:07:32Z</time>
      </trkpt>
      <trkpt lat="45.87127" lon="3.02742">
        <ele>576</ele>
        <time>2021-08-10T18:07:33Z</time>
      </trkpt>
      <trkpt lat="45.87127" lon="3.02742">
        <ele>576</ele>
        <time>2021-08-10T18:07:34Z</time>
      </trkpt>
      <trkpt lat="45.87127" lon="3.02741">
        <ele>576</ele>
        <time>2021-08-10T18:07:35Z</time>
      </trkpt>
      <trkpt lat="45.87128" lon="3.0274">
        <ele>576</ele>
        <time>2021-08-10T18:07:36Z</time>
      </trkpt>
      <trkpt lat="45.87128" lon="3.02739">
        <ele>576</ele>
        <time>2021-08-10T18:07:37Z</time>
      </trkpt>
      <trkpt lat="45.87128" lon="3.02738">
        <ele>576</ele>
        <time>2021-08-10T18:07:38Z</time>
      </trkpt>
      <trkpt lat="45.87128" lon="3.02736">
        <ele>576</ele>
        <time>2021-08-10T18:07:40Z</time>
      </trkpt>
      <trkpt lat="45.87129" lon="3.0273">
        <ele>576</ele>
        <time>2021-08-10T18:07:41Z</time>
      </trkpt>
      <trkpt lat="45.87129" lon="3.02729">
        <ele>576</ele>
        <time>2021-08-10T18:07:43Z</time>
      </trkpt>
      <trkpt lat="45.87129" lon="3.02725">
        <ele>576</ele>
        <time>2021-08-10T18:07:44Z</time>
      </trkpt>
      <trkpt lat="45.87129" lon="3.02725">
        <ele>576</ele>
        <time>2021-08-10T18:07:45Z</time>
      </trkpt>
      <trkpt lat="45.87129" lon="3.02724">
        <ele>576</ele>
        <time>2021-08-10T18:07:46Z</time>
      </trkpt>
      <trkpt lat="45.87129" lon="3.02723">
        <ele>576</ele>
        <time>2021-08-10T18:07:47Z</time>
      </trkpt>
      <trkpt lat="45.87129" lon="3.02721">
        <ele>576</ele>
        <time>2021-08-10T18:07:48Z</time>
      </trkpt>
      <trkpt lat="45.8713" lon="3.02719">
        <ele>576</ele>
        <time>2021-08-10T18:07:49Z</time>
      </trkpt>
      <trkpt lat="45.8713" lon="3.02718">
        <ele>576</ele>
        <time>2021-08-10T18:07:51Z</time>
      </trkpt>
      <trkpt lat="45.8713" lon="3.02716">
        <ele>576</ele>
        <time>2021-08-10T18:07:52Z</time>
      </trkpt>
      <trkpt lat="45.87133" lon="3.02711">
        <ele>576</ele>
        <time>2021-08-10T18:07:53Z</time>
      </trkpt>
      <trkpt lat="45.87133" lon="3.02711">
        <ele>576</ele>
        <time>2021-08-10T18:07:55Z</time>
      </trkpt>
      <trkpt lat="45.87135" lon="3.02709">
        <ele>576</ele>
        <time>2021-08-10T18:07:56Z</time>
      </trkpt>
      <trkpt lat="45.87135" lon="3.02708">
        <ele>576</ele>
        <time>2021-08-10T18:07:58Z</time>
      </trkpt>
      <trkpt lat="45.87135" lon="3.02708">
        <ele>576</ele>
        <time>2021-08-10T18:07:59Z</time>
      </trkpt>
      <trkpt lat="45.87135" lon="3.02707">
        <ele>576</ele>
        <time>2021-08-10T18:08:00Z</time>
      </trkpt>
      <trkpt lat="45.87135" lon="3.02705">
        <ele>576</ele>
        <time>2021-08-10T18:08:01Z</time>
      </trkpt>
      <trkpt lat="45.87135" lon="3.02699">
        <ele>576</ele>
        <time>2021-08-10T18:08:02Z</time>
      </trkpt>
      <trkpt lat="45.87135" lon="3.02699">
        <ele>576</ele>
        <time>2021-08-10T18:08:03Z</time>
      </trkpt>
      <trkpt lat="45.87135" lon="3.02698">
        <ele>576</ele>
        <time>2021-08-10T18:08:04Z</time>
      </trkpt>
      <trkpt lat="45.87136" lon="3.02697">
        <ele>576</ele>
        <time>2021-08-10T18:08:05Z</time>
      </trkpt>
      <trkpt lat="45.87136" lon="3.02696">
        <ele>576</ele>
        <time>2021-08-10T18:08:07Z</time>
      </trkpt>
      <trkpt lat="45.87138" lon="3.02689">
        <ele>576</ele>
        <time>2021-08-10T18:08:08Z</time>
      </trkpt>
      <trkpt lat="45.87138" lon="3.02688">
        <ele>576</ele>
        <time>2021-08-10T18:08:09Z</time>
      </trkpt>
      <trkpt lat="45.87138" lon="3.02687">
        <ele>576</ele>
        <time>2021-08-10T18:08:10Z</time>
      </trkpt>
      <trkpt lat="45.87139" lon="3.02686">
        <ele>576</ele>
        <time>2021-08-10T18:08:12Z</time>
      </trkpt>
      <trkpt lat="45.87141" lon="3.02678">
        <ele>576</ele>
        <time>2021-08-10T18:08:13Z</time>
      </trkpt>
      <trkpt lat="45.87142" lon="3.02677">
        <ele>576</ele>
        <time>2021-08-10T18:08:15Z</time>
      </trkpt>
      <trkpt lat="45.87143" lon="3.02673">
        <ele>576</ele>
        <time>2021-08-10T18:08:16Z</time>
      </trkpt>
      <trkpt lat="45.87143" lon="3.02673">
        <ele>576</ele>
        <time>2021-08-10T18:08:17Z</time>
      </trkpt>
      <trkpt lat="45.87143" lon="3.02672">
        <ele>576</ele>
        <time>2021-08-10T18:08:18Z</time>
      </trkpt>
      <trkpt lat="45.87143" lon="3.02671">
        <ele>576</ele>
        <time>2021-08-10T18:08:19Z</time>
      </trkpt>
      <trkpt lat="45.87144" lon="3.0267">
        <ele>576</ele>
        <time>2021-08-10T18:08:20Z</time>
      </trkpt>
      <trkpt lat="45.87144" lon="3.02668">
        <ele>576</ele>
        <time>2021-08-10T18:08:21Z</time>
      </trkpt>
      <trkpt lat="45.87145" lon="3.02667">
        <ele>576</ele>
        <time>2021-08-10T18:08:22Z</time>
      </trkpt>
      <trkpt lat="45.87146" lon="3.02665">
        <ele>576</ele>
        <time>2021-08-10T18:08:23Z</time>
      </trkpt>
      <trkpt lat="45.87146" lon="3.02663">
        <ele>576</ele>
        <time>2021-08-10T18:08:25Z</time>
      </trkpt>
      <trkpt lat="45.87148" lon="3.02656">
        <ele>576</ele>
        <time>2021-08-10T18:08:26Z</time>
      </trkpt>
      <trkpt lat="45.87148" lon="3.02655">
        <ele>576</ele>
        <time>2021-08-10T18:08:27Z</time>
      </trkpt>
      <trkpt lat="45.87148" lon="3.02655">
        <ele>576</ele>
        <time>2021-08-10T18:08:28Z</time>
      </trkpt>
      <trkpt lat="45.87148" lon="3.02654">
        <ele>576</ele>
        <time>2021-08-10T18:08:29Z</time>
      </trkpt>
      <trkpt lat="45.87148" lon="3.02653">
        <ele>576</ele>
        <time>2021-08-10T18:08:31Z</time>
      </trkpt>
      <trkpt lat="45.87149" lon="3.02649">
        <ele>576</ele>
        <time>2021-08-10T18:08:32Z</time>
      </trkpt>
      <trkpt lat="45.87149" lon="3.02649">
        <ele>576</ele>
        <time>2021-08-10T18:08:34Z</time>
      </trkpt>
      <trkpt lat="45.8715" lon="3.02644">
        <ele>576</ele>
        <time>2021-08-10T18:08:35Z</time>
      </trkpt>
      <trkpt lat="45.8715" lon="3.02644">
        <ele>576</ele>
        <time>2021-08-10T18:08:36Z</time>
      </trkpt>
      <trkpt lat="45.8715" lon="3.02642">
        <ele>576</ele>
        <time>2021-08-10T18:08:37Z</time>
      </trkpt>
      <trkpt lat="45.87151" lon="3.02641">
        <ele>576</ele>
        <time>2021-08-10T18:08:38Z</time>
      </trkpt>
      <trkpt lat="45.87151" lon="3.02639">
        <ele>576</ele>
        <time>2021-08-10T18:08:40Z</time>
      </trkpt>
      <trkpt lat="45.87153" lon="3.02633">
        <ele>576</ele>
        <time>2021-08-10T18:08:41Z</time>
      </trkpt>
      <trkpt lat="45.87153" lon="3.02633">
        <ele>576</ele>
        <time>2021-08-10T18:08:43Z</time>
      </trkpt>
      <trkpt lat="45.87153" lon="3.02629">
        <ele>576</ele>
        <time>2021-08-10T18:08:44Z</time>
      </trkpt>
      <trkpt lat="45.87153" lon="3.02628">
        <ele>576</ele>
        <time>2021-08-10T18:08:45Z</time>
      </trkpt>
      <trkpt lat="45.87153" lon="3.02627">
        <ele>576</ele>
        <time>2021-08-10T18:08:46Z</time>
      </trkpt>
      <trkpt lat="45.87154" lon="3.02625">
        <ele>576</ele>
        <time>2021-08-10T18:08:47Z</time>
      </trkpt>
      <trkpt lat="45.87154" lon="3.02624">
        <ele>576</ele>
        <time>2021-08-10T18:08:48Z</time>
      </trkpt>
      <trkpt lat="45.87155" lon="3.02622">
        <ele>576</ele>
        <time>2021-08-10T18:08:49Z</time>
      </trkpt>
      <trkpt lat="45.87156" lon="3.02621">
        <ele>576</ele>
        <time>2021-08-10T18:08:51Z</time>
      </trkpt>
      <trkpt lat="45.87158" lon="3.02616">
        <ele>576</ele>
        <time>2021-08-10T18:08:53Z</time>
      </trkpt>
      <trkpt lat="45.87158" lon="3.02616">
        <ele>576</ele>
        <time>2021-08-10T18:08:54Z</time>
      </trkpt>
      <trkpt lat="45.87157" lon="3.02612">
        <ele>576</ele>
        <time>2021-08-10T18:08:55Z</time>
      </trkpt>
      <trkpt lat="45.87157" lon="3.02612">
        <ele>576</ele>
        <time>2021-08-10T18:08:56Z</time>
      </trkpt>
      <trkpt lat="45.87157" lon="3.02611">
        <ele>576</ele>
        <time>2021-08-10T18:08:57Z</time>
      </trkpt>
      <trkpt lat="45.87157" lon="3.02609">
        <ele>576</ele>
        <time>2021-08-10T18:08:59Z</time>
      </trkpt>
      <trkpt lat="45.87158" lon="3.02608">
        <ele>576</ele>
        <time>2021-08-10T18:09:00Z</time>
      </trkpt>
      <trkpt lat="45.87158" lon="3.02605">
        <ele>576</ele>
        <time>2021-08-10T18:09:01Z</time>
      </trkpt>
      <trkpt lat="45.87159" lon="3.02596">
        <ele>576</ele>
        <time>2021-08-10T18:09:02Z</time>
      </trkpt>
      <trkpt lat="45.8716" lon="3.02595">
        <ele>576</ele>
        <time>2021-08-10T18:09:03Z</time>
      </trkpt>
      <trkpt lat="45.8716" lon="3.02594">
        <ele>576</ele>
        <time>2021-08-10T18:09:04Z</time>
      </trkpt>
      <trkpt lat="45.8716" lon="3.02593">
        <ele>576</ele>
        <time>2021-08-10T18:09:06Z</time>
      </trkpt>
      <trkpt lat="45.87161" lon="3.02586">
        <ele>576</ele>
        <time>2021-08-10T18:09:07Z</time>
      </trkpt>
      <trkpt lat="45.87161" lon="3.02586">
        <ele>576</ele>
        <time>2021-08-10T18:09:08Z</time>
      </trkpt>
      <trkpt lat="45.87162" lon="3.02585">
        <ele>576</ele>
        <time>2021-08-10T18:09:09Z</time>
      </trkpt>
      <trkpt lat="45.87162" lon="3.02584">
        <ele>576</ele>
        <time>2021-08-10T18:09:11Z</time>
      </trkpt>
      <trkpt lat="45.87162" lon="3.02577">
        <ele>576</ele>
        <time>2021-08-10T18:09:12Z</time>
      </trkpt>
      <trkpt lat="45.87162" lon="3.02577">
        <ele>576</ele>
        <time>2021-08-10T18:09:13Z</time>
      </trkpt>
      <trkpt lat="45.87162" lon="3.02576">
        <ele>576</ele>
        <time>2021-08-10T18:09:14Z</time>
      </trkpt>
      <trkpt lat="45.87162" lon="3.02574">
        <ele>576</ele>
        <time>2021-08-10T18:09:15Z</time>
      </trkpt>
      <trkpt lat="45.87162" lon="3.02572">
        <ele>576</ele>
        <time>2021-08-10T18:09:17Z</time>
      </trkpt>
      <trkpt lat="45.87162" lon="3.02565">
        <ele>576</ele>
        <time>2021-08-10T18:09:18Z</time>
      </trkpt>
      <trkpt lat="45.87162" lon="3.02564">
        <ele>576</ele>
        <time>2021-08-10T18:09:19Z</time>
      </trkpt>
      <trkpt lat="45.87162" lon="3.02563">
        <ele>576</ele>
        <time>2021-08-10T18:09:20Z</time>
      </trkpt>
      <trkpt lat="45.87162" lon="3.02562">
        <ele>576</ele>
        <time>2021-08-10T18:09:21Z</time>
      </trkpt>
      <trkpt lat="45.87162" lon="3.0256">
        <ele>576</ele>
        <time>2021-08-10T18:09:22Z</time>
      </trkpt>
      <trkpt lat="45.87162" lon="3.02558">
        <ele>576</ele>
        <time>2021-08-10T18:09:23Z</time>
      </trkpt>
      <trkpt lat="45.87162" lon="3.02557">
        <ele>576</ele>
        <time>2021-08-10T18:09:25Z</time>
      </trkpt>
      <trkpt lat="45.87163" lon="3.02549">
        <ele>576</ele>
        <time>2021-08-10T18:09:26Z</time>
      </trkpt>
      <trkpt lat="45.87163" lon="3.02548">
        <ele>576</ele>
        <time>2021-08-10T18:09:28Z</time>
      </trkpt>
      <trkpt lat="45.87163" lon="3.02544">
        <ele>576</ele>
        <time>2021-08-10T18:09:29Z</time>
      </trkpt>
      <trkpt lat="45.87163" lon="3.02544">
        <ele>576</ele>
        <time>2021-08-10T18:09:31Z</time>
      </trkpt>
      <trkpt lat="45.87164" lon="3.0254">
        <ele>576</ele>
        <time>2021-08-10T18:09:32Z</time>
      </trkpt>
      <trkpt lat="45.87164" lon="3.0254">
        <ele>576</ele>
        <time>2021-08-10T18:09:34Z</time>
      </trkpt>
      <trkpt lat="45.87163" lon="3.02534">
        <ele>576</ele>
        <time>2021-08-10T18:09:35Z</time>
      </trkpt>
      <trkpt lat="45.87163" lon="3.02534">
        <ele>576</ele>
        <time>2021-08-10T18:09:37Z</time>
      </trkpt>
      <trkpt lat="45.87163" lon="3.02528">
        <ele>576</ele>
        <time>2021-08-10T18:09:38Z</time>
      </trkpt>
      <trkpt lat="45.87163" lon="3.02527">
        <ele>576</ele>
        <time>2021-08-10T18:09:39Z</time>
      </trkpt>
      <trkpt lat="45.87163" lon="3.02526">
        <ele>576</ele>
        <time>2021-08-10T18:09:41Z</time>
      </trkpt>
      <trkpt lat="45.87163" lon="3.0252">
        <ele>576</ele>
        <time>2021-08-10T18:09:42Z</time>
      </trkpt>
      <trkpt lat="45.87163" lon="3.0252">
        <ele>576</ele>
        <time>2021-08-10T18:09:43Z</time>
      </trkpt>
      <trkpt lat="45.87163" lon="3.02519">
        <ele>576</ele>
        <time>2021-08-10T18:09:44Z</time>
      </trkpt>
      <trkpt lat="45.87162" lon="3.02518">
        <ele>576</ele>
        <time>2021-08-10T18:09:45Z</time>
      </trkpt>
      <trkpt lat="45.87162" lon="3.02516">
        <ele>576</ele>
        <time>2021-08-10T18:09:46Z</time>
      </trkpt>
      <trkpt lat="45.87162" lon="3.02515">
        <ele>576</ele>
        <time>2021-08-10T18:09:47Z</time>
      </trkpt>
      <trkpt lat="45.87161" lon="3.02513">
        <ele>576</ele>
        <time>2021-08-10T18:09:49Z</time>
      </trkpt>
      <trkpt lat="45.87161" lon="3.02505">
        <ele>576</ele>
        <time>2021-08-10T18:09:50Z</time>
      </trkpt>
      <trkpt lat="45.8716" lon="3.02505">
        <ele>576</ele>
        <time>2021-08-10T18:09:52Z</time>
      </trkpt>
      <trkpt lat="45.8716" lon="3.02498">
        <ele>576</ele>
        <time>2021-08-10T18:09:53Z</time>
      </trkpt>
      <trkpt lat="45.8716" lon="3.02497">
        <ele>576</ele>
        <time>2021-08-10T18:09:54Z</time>
      </trkpt>
      <trkpt lat="45.87161" lon="3.02497">
        <ele>576</ele>
        <time>2021-08-10T18:09:55Z</time>
      </trkpt>
      <trkpt lat="45.87161" lon="3.02495">
        <ele>576</ele>
        <time>2021-08-10T18:09:57Z</time>
      </trkpt>
      <trkpt lat="45.87162" lon="3.02491">
        <ele>576</ele>
        <time>2021-08-10T18:09:58Z</time>
      </trkpt>
      <trkpt lat="45.87162" lon="3.0249">
        <ele>576</ele>
        <time>2021-08-10T18:10:00Z</time>
      </trkpt>
      <trkpt lat="45.87162" lon="3.0249">
        <ele>576</ele>
        <time>2021-08-10T18:10:01Z</time>
      </trkpt>
      <trkpt lat="45.87162" lon="3.02485">
        <ele>576</ele>
        <time>2021-08-10T18:10:03Z</time>
      </trkpt>
      <trkpt lat="45.87162" lon="3.02482">
        <ele>576</ele>
        <time>2021-08-10T18:10:05Z</time>
      </trkpt>
      <trkpt lat="45.87162" lon="3.02482">
        <ele>576</ele>
        <time>2021-08-10T18:10:06Z</time>
      </trkpt>
      <trkpt lat="45.87162" lon="3.02478">
        <ele>576</ele>
        <time>2021-08-10T18:10:07Z</time>
      </trkpt>
      <trkpt lat="45.87162" lon="3.02477">
        <ele>576</ele>
        <time>2021-08-10T18:10:09Z</time>
      </trkpt>
      <trkpt lat="45.87163" lon="3.02472">
        <ele>576</ele>
        <time>2021-08-10T18:10:11Z</time>
      </trkpt>
      <trkpt lat="45.87164" lon="3.02467">
        <ele>576</ele>
        <time>2021-08-10T18:10:12Z</time>
      </trkpt>
      <trkpt lat="45.87164" lon="3.02466">
        <ele>576</ele>
        <time>2021-08-10T18:10:13Z</time>
      </trkpt>
      <trkpt lat="45.87164" lon="3.02465">
        <ele>576</ele>
        <time>2021-08-10T18:10:15Z</time>
      </trkpt>
      <trkpt lat="45.87165" lon="3.02457">
        <ele>576</ele>
        <time>2021-08-10T18:10:16Z</time>
      </trkpt>
      <trkpt lat="45.87165" lon="3.02457">
        <ele>576</ele>
        <time>2021-08-10T18:10:18Z</time>
      </trkpt>
      <trkpt lat="45.87164" lon="3.02451">
        <ele>576</ele>
        <time>2021-08-10T18:10:19Z</time>
      </trkpt>
      <trkpt lat="45.87165" lon="3.02451">
        <ele>576</ele>
        <time>2021-08-10T18:10:21Z</time>
      </trkpt>
      <trkpt lat="45.87166" lon="3.02447">
        <ele>576</ele>
        <time>2021-08-10T18:10:22Z</time>
      </trkpt>
      <trkpt lat="45.87167" lon="3.02446">
        <ele>576</ele>
        <time>2021-08-10T18:10:24Z</time>
      </trkpt>
      <trkpt lat="45.8717" lon="3.02444">
        <ele>576</ele>
        <time>2021-08-10T18:10:25Z</time>
      </trkpt>
      <trkpt lat="45.8717" lon="3.02443">
        <ele>576</ele>
        <time>2021-08-10T18:10:27Z</time>
      </trkpt>
      <trkpt lat="45.87174" lon="3.0244">
        <ele>576</ele>
        <time>2021-08-10T18:10:28Z</time>
      </trkpt>
      <trkpt lat="45.87174" lon="3.0244">
        <ele>576</ele>
        <time>2021-08-10T18:10:30Z</time>
      </trkpt>
      <trkpt lat="45.87175" lon="3.02438">
        <ele>576</ele>
        <time>2021-08-10T18:10:31Z</time>
      </trkpt>
      <trkpt lat="45.87175" lon="3.02438">
        <ele>576</ele>
        <time>2021-08-10T18:10:32Z</time>
      </trkpt>
      <trkpt lat="45.87175" lon="3.02437">
        <ele>576</ele>
        <time>2021-08-10T18:10:33Z</time>
      </trkpt>
      <trkpt lat="45.87176" lon="3.02437">
        <ele>576</ele>
        <time>2021-08-10T18:10:35Z</time>
      </trkpt>
      <trkpt lat="45.87177" lon="3.02436">
        <ele>576</ele>
        <time>2021-08-10T18:10:36Z</time>
      </trkpt>
      <trkpt lat="45.8718" lon="3.02434">
        <ele>576</ele>
        <time>2021-08-10T18:10:37Z</time>
      </trkpt>
      <trkpt lat="45.8718" lon="3.02434">
        <ele>576</ele>
        <time>2021-08-10T18:10:39Z</time>
      </trkpt>
      <trkpt lat="45.87183" lon="3.02432">
        <ele>576</ele>
        <time>2021-08-10T18:10:40Z</time>
      </trkpt>
      <trkpt lat="45.87183" lon="3.02431">
        <ele>576</ele>
        <time>2021-08-10T18:10:42Z</time>
      </trkpt>
      <trkpt lat="45.87186" lon="3.02428">
        <ele>576</ele>
        <time>2021-08-10T18:10:43Z</time>
      </trkpt>
      <trkpt lat="45.87186" lon="3.02428">
        <ele>576</ele>
        <time>2021-08-10T18:10:44Z</time>
      </trkpt>
      <trkpt lat="45.87187" lon="3.02428">
        <ele>576</ele>
        <time>2021-08-10T18:10:45Z</time>
      </trkpt>
      <trkpt lat="45.87188" lon="3.02427">
        <ele>576</ele>
        <time>2021-08-10T18:10:47Z</time>
      </trkpt>
      <trkpt lat="45.87193" lon="3.02423">
        <ele>576</ele>
        <time>2021-08-10T18:10:48Z</time>
      </trkpt>
      <trkpt lat="45.87193" lon="3.02422">
        <ele>576</ele>
        <time>2021-08-10T18:10:50Z</time>
      </trkpt>
      <trkpt lat="45.87197" lon="3.02418">
        <ele>576</ele>
        <time>2021-08-10T18:10:51Z</time>
      </trkpt>
      <trkpt lat="45.87197" lon="3.02418">
        <ele>576</ele>
        <time>2021-08-10T18:10:52Z</time>
      </trkpt>
      <trkpt lat="45.87197" lon="3.02418">
        <ele>576</ele>
        <time>2021-08-10T18:10:53Z</time>
      </trkpt>
      <trkpt lat="45.87198" lon="3.02417">
        <ele>576</ele>
        <time>2021-08-10T18:10:54Z</time>
      </trkpt>
      <trkpt lat="45.87199" lon="3.02416">
        <ele>576</ele>
        <time>2021-08-10T18:10:55Z</time>
      </trkpt>
      <trkpt lat="45.87199" lon="3.02415">
        <ele>576</ele>
        <time>2021-08-10T18:10:56Z</time>
      </trkpt>
      <trkpt lat="45.872" lon="3.02413">
        <ele>576</ele>
        <time>2021-08-10T18:10:57Z</time>
      </trkpt>
      <trkpt lat="45.87201" lon="3.02412">
        <ele>576</ele>
        <time>2021-08-10T18:10:59Z</time>
      </trkpt>
      <trkpt lat="45.87202" lon="3.02411">
        <ele>576</ele>
        <time>2021-08-10T18:11:00Z</time>
      </trkpt>
      <trkpt lat="45.87203" lon="3.02409">
        <ele>576</ele>
        <time>2021-08-10T18:11:01Z</time>
      </trkpt>
      <trkpt lat="45.87207" lon="3.02402">
        <ele>576</ele>
        <time>2021-08-10T18:11:02Z</time>
      </trkpt>
      <trkpt lat="45.87208" lon="3.02399">
        <ele>576</ele>
        <time>2021-08-10T18:11:04Z</time>
      </trkpt>
      <trkpt lat="45.8721" lon="3.02395">
        <ele>576</ele>
        <time>2021-08-10T18:11:05Z</time>
      </trkpt>
      <trkpt lat="45.87211" lon="3.02395">
        <ele>576</ele>
        <time>2021-08-10T18:11:06Z</time>
      </trkpt>
      <trkpt lat="45.87211" lon="3.02393">
        <ele>576</ele>
        <time>2021-08-10T18:11:07Z</time>
      </trkpt>
      <trkpt lat="45.87212" lon="3.02392">
        <ele>576</ele>
        <time>2021-08-10T18:11:08Z</time>
      </trkpt>
      <trkpt lat="45.87213" lon="3.0239">
        <ele>576</ele>
        <time>2021-08-10T18:11:10Z</time>
      </trkpt>
      <trkpt lat="45.87218" lon="3.02381">
        <ele>576</ele>
        <time>2021-08-10T18:11:11Z</time>
      </trkpt>
      <trkpt lat="45.87218" lon="3.02381">
        <ele>576</ele>
        <time>2021-08-10T18:11:12Z</time>
      </trkpt>
      <trkpt lat="45.87219" lon="3.0238">
        <ele>576</ele>
        <time>2021-08-10T18:11:13Z</time>
      </trkpt>
      <trkpt lat="45.8722" lon="3.02379">
        <ele>576</ele>
        <time>2021-08-10T18:11:14Z</time>
      </trkpt>
      <trkpt lat="45.8722" lon="3.02378">
        <ele>576</ele>
        <time>2021-08-10T18:11:15Z</time>
      </trkpt>
      <trkpt lat="45.87222" lon="3.02376">
        <ele>576</ele>
        <time>2021-08-10T18:11:16Z</time>
      </trkpt>
      <trkpt lat="45.87223" lon="3.02375">
        <ele>576</ele>
        <time>2021-08-10T18:11:18Z</time>
      </trkpt>
      <trkpt lat="45.87228" lon="3.02367">
        <ele>576</ele>
        <time>2021-08-10T18:11:19Z</time>
      </trkpt>
      <trkpt lat="45.87228" lon="3.02367">
        <ele>576</ele>
        <time>2021-08-10T18:11:20Z</time>
      </trkpt>
      <trkpt lat="45.87228" lon="3.02366">
        <ele>576</ele>
        <time>2021-08-10T18:11:21Z</time>
      </trkpt>
      <trkpt lat="45.87229" lon="3.02364">
        <ele>576</ele>
        <time>2021-08-10T18:11:22Z</time>
      </trkpt>
      <trkpt lat="45.87229" lon="3.02363">
        <ele>576</ele>
        <time>2021-08-10T18:11:24Z</time>
      </trkpt>
      <trkpt lat="45.87233" lon="3.02357">
        <ele>576</ele>
        <time>2021-08-10T18:11:25Z</time>
      </trkpt>
      <trkpt lat="45.87233" lon="3.02357">
        <ele>576</ele>
        <time>2021-08-10T18:11:26Z</time>
      </trkpt>
      <trkpt lat="45.87233" lon="3.02356">
        <ele>576</ele>
        <time>2021-08-10T18:11:27Z</time>
      </trkpt>
      <trkpt lat="45.87233" lon="3.02355">
        <ele>576</ele>
        <time>2021-08-10T18:11:29Z</time>
      </trkpt>
      <trkpt lat="45.87235" lon="3.02349">
        <ele>576</ele>
        <time>2021-08-10T18:11:30Z</time>
      </trkpt>
      <trkpt lat="45.87236" lon="3.02348">
        <ele>576</ele>
        <time>2021-08-10T18:11:32Z</time>
      </trkpt>
      <trkpt lat="45.87236" lon="3.02347">
        <ele>576</ele>
        <time>2021-08-10T18:11:33Z</time>
      </trkpt>
      <trkpt lat="45.87239" lon="3.02341">
        <ele>576</ele>
        <time>2021-08-10T18:11:34Z</time>
      </trkpt>
      <trkpt lat="45.87239" lon="3.02341">
        <ele>576</ele>
        <time>2021-08-10T18:11:35Z</time>
      </trkpt>
      <trkpt lat="45.8724" lon="3.0234">
        <ele>576</ele>
        <time>2021-08-10T18:11:36Z</time>
      </trkpt>
      <trkpt lat="45.87241" lon="3.02339">
        <ele>576</ele>
        <time>2021-08-10T18:11:37Z</time>
      </trkpt>
      <trkpt lat="45.87241" lon="3.02338">
        <ele>576</ele>
        <time>2021-08-10T18:11:38Z</time>
      </trkpt>
      <trkpt lat="45.87243" lon="3.02336">
        <ele>576</ele>
        <time>2021-08-10T18:11:39Z</time>
      </trkpt>
      <trkpt lat="45.87244" lon="3.02335">
        <ele>576</ele>
        <time>2021-08-10T18:11:40Z</time>
      </trkpt>
      <trkpt lat="45.87244" lon="3.02333">
        <ele>576</ele>
        <time>2021-08-10T18:11:41Z</time>
      </trkpt>
      <trkpt lat="45.87246" lon="3.02332">
        <ele>576</ele>
        <time>2021-08-10T18:11:43Z</time>
      </trkpt>
      <trkpt lat="45.87248" lon="3.02325">
        <ele>576</ele>
        <time>2021-08-10T18:11:44Z</time>
      </trkpt>
      <trkpt lat="45.87248" lon="3.02324">
        <ele>576</ele>
        <time>2021-08-10T18:11:46Z</time>
      </trkpt>
      <trkpt lat="45.8725" lon="3.0232">
        <ele>576</ele>
        <time>2021-08-10T18:11:47Z</time>
      </trkpt>
      <trkpt lat="45.87251" lon="3.02319">
        <ele>576</ele>
        <time>2021-08-10T18:11:49Z</time>
      </trkpt>
      <trkpt lat="45.87252" lon="3.02313">
        <ele>576</ele>
        <time>2021-08-10T18:11:50Z</time>
      </trkpt>
      <trkpt lat="45.87252" lon="3.02313">
        <ele>576</ele>
        <time>2021-08-10T18:11:51Z</time>
      </trkpt>
      <trkpt lat="45.87252" lon="3.02311">
        <ele>576</ele>
        <time>2021-08-10T18:11:52Z</time>
      </trkpt>
      <trkpt lat="45.87253" lon="3.02309">
        <ele>576</ele>
        <time>2021-08-10T18:11:53Z</time>
      </trkpt>
      <trkpt lat="45.87253" lon="3.02307">
        <ele>576</ele>
        <time>2021-08-10T18:11:54Z</time>
      </trkpt>
      <trkpt lat="45.87253" lon="3.02305">
        <ele>576</ele>
        <time>2021-08-10T18:11:55Z</time>
      </trkpt>
      <trkpt lat="45.87253" lon="3.02302">
        <ele>576</ele>
        <time>2021-08-10T18:11:56Z</time>
      </trkpt>
      <trkpt lat="45.87253" lon="3.02299">
        <ele>576</ele>
        <time>2021-08-10T18:11:58Z</time>
      </trkpt>
      <trkpt lat="45.87253" lon="3.02296">
        <ele>576</ele>
        <time>2021-08-10T18:11:59Z</time>
      </trkpt>
      <trkpt lat="45.87253" lon="3.02292">
        <ele>576</ele>
        <time>2021-08-10T18:12:00Z</time>
      </trkpt>
      <trkpt lat="45.87252" lon="3.02279">
        <ele>576</ele>
        <time>2021-08-10T18:12:02Z</time>
      </trkpt>
      <trkpt lat="45.87251" lon="3.02274">
        <ele>576</ele>
        <time>2021-08-10T18:12:03Z</time>
      </trkpt>
      <trkpt lat="45.87251" lon="3.02273">
        <ele>576</ele>
        <time>2021-08-10T18:12:05Z</time>
      </trkpt>
      <trkpt lat="45.87251" lon="3.02269">
        <ele>576</ele>
        <time>2021-08-10T18:12:06Z</time>
      </trkpt>
      <trkpt lat="45.87251" lon="3.02269">
        <ele>576</ele>
        <time>2021-08-10T18:12:08Z</time>
      </trkpt>
      <trkpt lat="45.8725" lon="3.02265">
        <ele>576</ele>
        <time>2021-08-10T18:12:09Z</time>
      </trkpt>
      <trkpt lat="45.8725" lon="3.02265">
        <ele>576</ele>
        <time>2021-08-10T18:12:10Z</time>
      </trkpt>
      <trkpt lat="45.8725" lon="3.02264">
        <ele>576</ele>
        <time>2021-08-10T18:12:11Z</time>
      </trkpt>
      <trkpt lat="45.8725" lon="3.02263">
        <ele>576</ele>
        <time>2021-08-10T18:12:12Z</time>
      </trkpt>
      <trkpt lat="45.8725" lon="3.02262">
        <ele>576</ele>
        <time>2021-08-10T18:12:13Z</time>
      </trkpt>
      <trkpt lat="45.8725" lon="3.0226">
        <ele>576</ele>
        <time>2021-08-10T18:12:14Z</time>
      </trkpt>
      <trkpt lat="45.8725" lon="3.02258">
        <ele>576</ele>
        <time>2021-08-10T18:12:15Z</time>
      </trkpt>
      <trkpt lat="45.87249" lon="3.02256">
        <ele>576</ele>
        <time>2021-08-10T18:12:16Z</time>
      </trkpt>
      <trkpt lat="45.87249" lon="3.02253">
        <ele>576</ele>
        <time>2021-08-10T18:12:18Z</time>
      </trkpt>
      <trkpt lat="45.87247" lon="3.0224">
        <ele>576</ele>
        <time>2021-08-10T18:12:19Z</time>
      </trkpt>
      <trkpt lat="45.87247" lon="3.0224">
        <ele>576</ele>
        <time>2021-08-10T18:12:20Z</time>
      </trkpt>
      <trkpt lat="45.87247" lon="3.02239">
        <ele>576</ele>
        <time>2021-08-10T18:12:21Z</time>
      </trkpt>
      <trkpt lat="45.87247" lon="3.02237">
        <ele>576</ele>
        <time>2021-08-10T18:12:22Z</time>
      </trkpt>
      <trkpt lat="45.87247" lon="3.02236">
        <ele>576</ele>
        <time>2021-08-10T18:12:24Z</time>
      </trkpt>
      <trkpt lat="45.87246" lon="3.02228">
        <ele>576</ele>
        <time>2021-08-10T18:12:25Z</time>
      </trkpt>
      <trkpt lat="45.87246" lon="3.02227">
        <ele>576</ele>
        <time>2021-08-10T18:12:26Z</time>
      </trkpt>
      <trkpt lat="45.87246" lon="3.02225">
        <ele>576</ele>
        <time>2021-08-10T18:12:27Z</time>
      </trkpt>
      <trkpt lat="45.87246" lon="3.02223">
        <ele>576</ele>
        <time>2021-08-10T18:12:28Z</time>
      </trkpt>
      <trkpt lat="45.87246" lon="3.0222">
        <ele>576</ele>
        <time>2021-08-10T18:12:29Z</time>
      </trkpt>
      <trkpt lat="45.87246" lon="3.02218">
        <ele>576</ele>
        <time>2021-08-10T18:12:30Z</time>
      </trkpt>
      <trkpt lat="45.87246" lon="3.02216">
        <ele>576</ele>
        <time>2021-08-10T18:12:32Z</time>
      </trkpt>
      <trkpt lat="45.87246" lon="3.02209">
        <ele>576</ele>
        <time>2021-08-10T18:12:33Z</time>
      </trkpt>
      <trkpt lat="45.87246" lon="3.02208">
        <ele>576</ele>
        <time>2021-08-10T18:12:35Z</time>
      </trkpt>
      <trkpt lat="45.87245" lon="3.02205">
        <ele>576</ele>
        <time>2021-08-10T18:12:36Z</time>
      </trkpt>
      <trkpt lat="45.87245" lon="3.02204">
        <ele>576</ele>
        <time>2021-08-10T18:12:37Z</time>
      </trkpt>
      <trkpt lat="45.87244" lon="3.02203">
        <ele>576</ele>
        <time>2021-08-10T18:12:38Z</time>
      </trkpt>
      <trkpt lat="45.87244" lon="3.02201">
        <ele>576</ele>
        <time>2021-08-10T18:12:40Z</time>
      </trkpt>
      <trkpt lat="45.87244" lon="3.02198">
        <ele>576</ele>
        <time>2021-08-10T18:12:41Z</time>
      </trkpt>
      <trkpt lat="45.87241" lon="3.02187">
        <ele>576</ele>
        <time>2021-08-10T18:12:42Z</time>
      </trkpt>
      <trkpt lat="45.87241" lon="3.02187">
        <ele>576</ele>
        <time>2021-08-10T18:12:43Z</time>
      </trkpt>
      <trkpt lat="45.87241" lon="3.02186">
        <ele>576</ele>
        <time>2021-08-10T18:12:44Z</time>
      </trkpt>
      <trkpt lat="45.87241" lon="3.02185">
        <ele>576</ele>
        <time>2021-08-10T18:12:45Z</time>
      </trkpt>
      <trkpt lat="45.87241" lon="3.02184">
        <ele>576</ele>
        <time>2021-08-10T18:12:46Z</time>
      </trkpt>
      <trkpt lat="45.8724" lon="3.02183">
        <ele>576</ele>
        <time>2021-08-10T18:12:47Z</time>
      </trkpt>
      <trkpt lat="45.8724" lon="3.02182">
        <ele>576</ele>
        <time>2021-08-10T18:12:48Z</time>
      </trkpt>
      <trkpt lat="45.8724" lon="3.02181">
        <ele>576</ele>
        <time>2021-08-10T18:12:49Z</time>
      </trkpt>
      <trkpt lat="45.8724" lon="3.02179">
        <ele>576</ele>
        <time>2021-08-10T18:12:50Z</time>
      </trkpt>
      <trkpt lat="45.87239" lon="3.02177">
        <ele>576</ele>
        <time>2021-08-10T18:12:51Z</time>
      </trkpt>
      <trkpt lat="45.87239" lon="3.02175">
        <ele>576</ele>
        <time>2021-08-10T18:12:53Z</time>
      </trkpt>
      <trkpt lat="45.87238" lon="3.02165">
        <ele>576</ele>
        <time>2021-08-10T18:12:54Z</time>
      </trkpt>
      <trkpt lat="45.87238" lon="3.02164">
        <ele>576</ele>
        <time>2021-08-10T18:12:55Z</time>
      </trkpt>
      <trkpt lat="45.87237" lon="3.02163">
        <ele>576</ele>
        <time>2021-08-10T18:12:56Z</time>
      </trkpt>
      <trkpt lat="45.87237" lon="3.02162">
        <ele>576</ele>
        <time>2021-08-10T18:12:58Z</time>
      </trkpt>
      <trkpt lat="45.87236" lon="3.02161">
        <ele>576</ele>
        <time>2021-08-10T18:12:59Z</time>
      </trkpt>
      <trkpt lat="45.87236" lon="3.02159">
        <ele>576</ele>
        <time>2021-08-10T18:13:00Z</time>
      </trkpt>
      <trkpt lat="45.87235" lon="3.02152">
        <ele>576</ele>
        <time>2021-08-10T18:13:02Z</time>
      </trkpt>
      <trkpt lat="45.87235" lon="3.02147">
        <ele>576</ele>
        <time>2021-08-10T18:13:03Z</time>
      </trkpt>
      <trkpt lat="45.87235" lon="3.02146">
        <ele>576</ele>
        <time>2021-08-10T18:13:04Z</time>
      </trkpt>
      <trkpt lat="45.87235" lon="3.02145">
        <ele>576</ele>
        <time>2021-08-10T18:13:06Z</time>
      </trkpt>
      <trkpt lat="45.87234" lon="3.02135">
        <ele>576</ele>
        <time>2021-08-10T18:13:07Z</time>
      </trkpt>
      <trkpt lat="45.87234" lon="3.02135">
        <ele>576</ele>
        <time>2021-08-10T18:13:08Z</time>
      </trkpt>
      <trkpt lat="45.87234" lon="3.02133">
        <ele>576</ele>
        <time>2021-08-10T18:13:09Z</time>
      </trkpt>
      <trkpt lat="45.87234" lon="3.02131">
        <ele>576</ele>
        <time>2021-08-10T18:13:10Z</time>
      </trkpt>
      <trkpt lat="45.87234" lon="3.02129">
        <ele>576</ele>
        <time>2021-08-10T18:13:11Z</time>
      </trkpt>
      <trkpt lat="45.87234" lon="3.02127">
        <ele>576</ele>
        <time>2021-08-10T18:13:12Z</time>
      </trkpt>
      <trkpt lat="45.87234" lon="3.02126">
        <ele>576</ele>
        <time>2021-08-10T18:13:14Z</time>
      </trkpt>
      <trkpt lat="45.87233" lon="3.02119">
        <ele>576</ele>
        <time>2021-08-10T18:13:15Z</time>
      </trkpt>
      <trkpt lat="45.87233" lon="3.02118">
        <ele>576</ele>
        <time>2021-08-10T18:13:17Z</time>
      </trkpt>
      <trkpt lat="45.87232" lon="3.02112">
        <ele>576</ele>
        <time>2021-08-10T18:13:18Z</time>
      </trkpt>
      <trkpt lat="45.87232" lon="3.02111">
        <ele>576</ele>
        <time>2021-08-10T18:13:19Z</time>
      </trkpt>
      <trkpt lat="45.87232" lon="3.0211">
        <ele>576</ele>
        <time>2021-08-10T18:13:20Z</time>
      </trkpt>
      <trkpt lat="45.87232" lon="3.02108">
        <ele>576</ele>
        <time>2021-08-10T18:13:22Z</time>
      </trkpt>
      <trkpt lat="45.87233" lon="3.02097">
        <ele>576</ele>
        <time>2021-08-10T18:13:23Z</time>
      </trkpt>
      <trkpt lat="45.87233" lon="3.02097">
        <ele>576</ele>
        <time>2021-08-10T18:13:25Z</time>
      </trkpt>
      <trkpt lat="45.87232" lon="3.02093">
        <ele>576</ele>
        <time>2021-08-10T18:13:26Z</time>
      </trkpt>
      <trkpt lat="45.87232" lon="3.02092">
        <ele>576</ele>
        <time>2021-08-10T18:13:27Z</time>
      </trkpt>
      <trkpt lat="45.87231" lon="3.02092">
        <ele>576</ele>
        <time>2021-08-10T18:13:28Z</time>
      </trkpt>
      <trkpt lat="45.87231" lon="3.0209">
        <ele>576</ele>
        <time>2021-08-10T18:13:29Z</time>
      </trkpt>
      <trkpt lat="45.8723" lon="3.02088">
        <ele>576</ele>
        <time>2021-08-10T18:13:30Z</time>
      </trkpt>
      <trkpt lat="45.8723" lon="3.02086">
        <ele>576</ele>
        <time>2021-08-10T18:13:31Z</time>
      </trkpt>
      <trkpt lat="45.87229" lon="3.02084">
        <ele>576</ele>
        <time>2021-08-10T18:13:32Z</time>
      </trkpt>
      <trkpt lat="45.87229" lon="3.02081">
        <ele>576</ele>
        <time>2021-08-10T18:13:34Z</time>
      </trkpt>
      <trkpt lat="45.87227" lon="3.02071">
        <ele>576</ele>
        <time>2021-08-10T18:13:35Z</time>
      </trkpt>
      <trkpt lat="45.87227" lon="3.0207">
        <ele>576</ele>
        <time>2021-08-10T18:13:37Z</time>
      </trkpt>
      <trkpt lat="45.87228" lon="3.02067">
        <ele>576</ele>
        <time>2021-08-10T18:13:38Z</time>
      </trkpt>
      <trkpt lat="45.87228" lon="3.02066">
        <ele>576</ele>
        <time>2021-08-10T18:13:40Z</time>
      </trkpt>
      <trkpt lat="45.87228" lon="3.02063">
        <ele>576</ele>
        <time>2021-08-10T18:13:41Z</time>
      </trkpt>
      <trkpt lat="45.87228" lon="3.02062">
        <ele>576</ele>
        <time>2021-08-10T18:13:42Z</time>
      </trkpt>
      <trkpt lat="45.87228" lon="3.02061">
        <ele>576</ele>
        <time>2021-08-10T18:13:43Z</time>
      </trkpt>
      <trkpt lat="45.87227" lon="3.0206">
        <ele>576</ele>
        <time>2021-08-10T18:13:44Z</time>
      </trkpt>
      <trkpt lat="45.87227" lon="3.02058">
        <ele>576</ele>
        <time>2021-08-10T18:13:45Z</time>
      </trkpt>
      <trkpt lat="45.87227" lon="3.02057">
        <ele>576</ele>
        <time>2021-08-10T18:13:46Z</time>
      </trkpt>
      <trkpt lat="45.87226" lon="3.02055">
        <ele>576</ele>
        <time>2021-08-10T18:13:48Z</time>
      </trkpt>
      <trkpt lat="45.87225" lon="3.02046">
        <ele>576</ele>
        <time>2021-08-10T18:13:49Z</time>
      </trkpt>
      <trkpt lat="45.87225" lon="3.02045">
        <ele>576</ele>
        <time>2021-08-10T18:13:51Z</time>
      </trkpt>
      <trkpt lat="45.87224" lon="3.02039">
        <ele>576</ele>
        <time>2021-08-10T18:13:52Z</time>
      </trkpt>
      <trkpt lat="45.87224" lon="3.02039">
        <ele>576</ele>
        <time>2021-08-10T18:13:54Z</time>
      </trkpt>
      <trkpt lat="45.87223" lon="3.02034">
        <ele>576</ele>
        <time>2021-08-10T18:13:55Z</time>
      </trkpt>
      <trkpt lat="45.87223" lon="3.02034">
        <ele>576</ele>
        <time>2021-08-10T18:13:56Z</time>
      </trkpt>
      <trkpt lat="45.87222" lon="3.02033">
        <ele>576</ele>
        <time>2021-08-10T18:13:58Z</time>
      </trkpt>
      <trkpt lat="45.87222" lon="3.02031">
        <ele>576</ele>
        <time>2021-08-10T18:13:59Z</time>
      </trkpt>
      <trkpt lat="45.87222" lon="3.0203">
        <ele>576</ele>
        <time>2021-08-10T18:14:00Z</time>
      </trkpt>
      <trkpt lat="45.87219" lon="3.0202">
        <ele>576</ele>
        <time>2021-08-10T18:14:01Z</time>
      </trkpt>
      <trkpt lat="45.87219" lon="3.02019">
        <ele>576</ele>
        <time>2021-08-10T18:14:02Z</time>
      </trkpt>
      <trkpt lat="45.87218" lon="3.02018">
        <ele>576</ele>
        <time>2021-08-10T18:14:04Z</time>
      </trkpt>
      <trkpt lat="45.87216" lon="3.0201">
        <ele>576</ele>
        <time>2021-08-10T18:14:05Z</time>
      </trkpt>
      <trkpt lat="45.87215" lon="3.0201">
        <ele>576</ele>
        <time>2021-08-10T18:14:07Z</time>
      </trkpt>
      <trkpt lat="45.87214" lon="3.02007">
        <ele>576</ele>
        <time>2021-08-10T18:14:08Z</time>
      </trkpt>
      <trkpt lat="45.87214" lon="3.02006">
        <ele>576</ele>
        <time>2021-08-10T18:14:10Z</time>
      </trkpt>
      <trkpt lat="45.87213" lon="3.02004">
        <ele>576</ele>
        <time>2021-08-10T18:14:12Z</time>
      </trkpt>
      <trkpt lat="45.87211" lon="3.02003">
        <ele>576</ele>
        <time>2021-08-10T18:14:13Z</time>
      </trkpt>
      <trkpt lat="45.87211" lon="3.02003">
        <ele>576</ele>
        <time>2021-08-10T18:14:14Z</time>
      </trkpt>
      <trkpt lat="45.8721" lon="3.02002">
        <ele>576</ele>
        <time>2021-08-10T18:14:15Z</time>
      </trkpt>
      <trkpt lat="45.87209" lon="3.02002">
        <ele>576</ele>
        <time>2021-08-10T18:14:16Z</time>
      </trkpt>
      <trkpt lat="45.87208" lon="3.02002">
        <ele>576</ele>
        <time>2021-08-10T18:14:18Z</time>
      </trkpt>
      <trkpt lat="45.87204" lon="3.02001">
        <ele>576</ele>
        <time>2021-08-10T18:14:19Z</time>
      </trkpt>
      <trkpt lat="45.87204" lon="3.02001">
        <ele>576</ele>
        <time>2021-08-10T18:14:20Z</time>
      </trkpt>
      <trkpt lat="45.87203" lon="3.02001">
        <ele>576</ele>
        <time>2021-08-10T18:14:21Z</time>
      </trkpt>
      <trkpt lat="45.87202" lon="3.02">
        <ele>576</ele>
        <time>2021-08-10T18:14:22Z</time>
      </trkpt>
      <trkpt lat="45.87201" lon="3.02">
        <ele>576</ele>
        <time>2021-08-10T18:14:24Z</time>
      </trkpt>
      <trkpt lat="45.87196" lon="3.01998">
        <ele>576</ele>
        <time>2021-08-10T18:14:25Z</time>
      </trkpt>
      <trkpt lat="45.87196" lon="3.01998">
        <ele>576</ele>
        <time>2021-08-10T18:14:27Z</time>
      </trkpt>
      <trkpt lat="45.87192" lon="3.01996">
        <ele>576</ele>
        <time>2021-08-10T18:14:28Z</time>
      </trkpt>
      <trkpt lat="45.87191" lon="3.01996">
        <ele>576</ele>
        <time>2021-08-10T18:14:29Z</time>
      </trkpt>
      <trkpt lat="45.87191" lon="3.01995">
        <ele>576</ele>
        <time>2021-08-10T18:14:30Z</time>
      </trkpt>
      <trkpt lat="45.87189" lon="3.01995">
        <ele>576</ele>
        <time>2021-08-10T18:14:32Z</time>
      </trkpt>
      <trkpt lat="45.87184" lon="3.01991">
        <ele>576</ele>
        <time>2021-08-10T18:14:33Z</time>
      </trkpt>
      <trkpt lat="45.87184" lon="3.01991">
        <ele>576</ele>
        <time>2021-08-10T18:14:34Z</time>
      </trkpt>
      <trkpt lat="45.87183" lon="3.01991">
        <ele>576</ele>
        <time>2021-08-10T18:14:35Z</time>
      </trkpt>
      <trkpt lat="45.87183" lon="3.0199">
        <ele>576</ele>
        <time>2021-08-10T18:14:36Z</time>
      </trkpt>
      <trkpt lat="45.87182" lon="3.01989">
        <ele>576</ele>
        <time>2021-08-10T18:14:37Z</time>
      </trkpt>
      <trkpt lat="45.87181" lon="3.01988">
        <ele>576</ele>
        <time>2021-08-10T18:14:38Z</time>
      </trkpt>
      <trkpt lat="45.87179" lon="3.01987">
        <ele>576</ele>
        <time>2021-08-10T18:14:39Z</time>
      </trkpt>
      <trkpt lat="45.87178" lon="3.01986">
        <ele>576</ele>
        <time>2021-08-10T18:14:40Z</time>
      </trkpt>
      <trkpt lat="45.87177" lon="3.01985">
        <ele>576</ele>
        <time>2021-08-10T18:14:41Z</time>
      </trkpt>
      <trkpt lat="45.87175" lon="3.01984">
        <ele>576</ele>
        <time>2021-08-10T18:14:42Z</time>
      </trkpt>
      <trkpt lat="45.87174" lon="3.01983">
        <ele>576</ele>
        <time>2021-08-10T18:14:44Z</time>
      </trkpt>
      <trkpt lat="45.8717" lon="3.01978">
        <ele>576</ele>
        <time>2021-08-10T18:14:45Z</time>
      </trkpt>
      <trkpt lat="45.8717" lon="3.01978">
        <ele>576</ele>
        <time>2021-08-10T18:14:47Z</time>
      </trkpt>
      <trkpt lat="45.87168" lon="3.01973">
        <ele>576</ele>
        <time>2021-08-10T18:14:48Z</time>
      </trkpt>
      <trkpt lat="45.87168" lon="3.01973">
        <ele>576</ele>
        <time>2021-08-10T18:14:49Z</time>
      </trkpt>
      <trkpt lat="45.87168" lon="3.01972">
        <ele>576</ele>
        <time>2021-08-10T18:14:50Z</time>
      </trkpt>
      <trkpt lat="45.87167" lon="3.0197">
        <ele>576</ele>
        <time>2021-08-10T18:14:52Z</time>
      </trkpt>
      <trkpt lat="45.87165" lon="3.01964">
        <ele>576</ele>
        <time>2021-08-10T18:14:53Z</time>
      </trkpt>
      <trkpt lat="45.87165" lon="3.01964">
        <ele>576</ele>
        <time>2021-08-10T18:14:55Z</time>
      </trkpt>
      <trkpt lat="45.87163" lon="3.01958">
        <ele>576</ele>
        <time>2021-08-10T18:14:56Z</time>
      </trkpt>
      <trkpt lat="45.87163" lon="3.01958">
        <ele>576</ele>
        <time>2021-08-10T18:14:58Z</time>
      </trkpt>
      <trkpt lat="45.87162" lon="3.01957">
        <ele>576</ele>
        <time>2021-08-10T18:14:59Z</time>
      </trkpt>
      <trkpt lat="45.87162" lon="3.01955">
        <ele>576</ele>
        <time>2021-08-10T18:15:00Z</time>
      </trkpt>
      <trkpt lat="45.87161" lon="3.01948">
        <ele>576</ele>
        <time>2021-08-10T18:15:02Z</time>
      </trkpt>
      <trkpt lat="45.8716" lon="3.01945">
        <ele>576</ele>
        <time>2021-08-10T18:15:03Z</time>
      </trkpt>
      <trkpt lat="45.8716" lon="3.01944">
        <ele>576</ele>
        <time>2021-08-10T18:15:04Z</time>
      </trkpt>
      <trkpt lat="45.87159" lon="3.01944">
        <ele>576</ele>
        <time>2021-08-10T18:15:05Z</time>
      </trkpt>
      <trkpt lat="45.87159" lon="3.01943">
        <ele>576</ele>
        <time>2021-08-10T18:15:06Z</time>
      </trkpt>
      <trkpt lat="45.87159" lon="3.01942">
        <ele>576</ele>
        <time>2021-08-10T18:15:07Z</time>
      </trkpt>
      <trkpt lat="45.87158" lon="3.01941">
        <ele>576</ele>
        <time>2021-08-10T18:15:08Z</time>
      </trkpt>
      <trkpt lat="45.87158" lon="3.0194">
        <ele>576</ele>
        <time>2021-08-10T18:15:10Z</time>
      </trkpt>
      <trkpt lat="45.87156" lon="3.01935">
        <ele>576</ele>
        <time>2021-08-10T18:15:11Z</time>
      </trkpt>
      <trkpt lat="45.87156" lon="3.01935">
        <ele>576</ele>
        <time>2021-08-10T18:15:12Z</time>
      </trkpt>
      <trkpt lat="45.87156" lon="3.01934">
        <ele>576</ele>
        <time>2021-08-10T18:15:13Z</time>
      </trkpt>
      <trkpt lat="45.87156" lon="3.01933">
        <ele>576</ele>
        <time>2021-08-10T18:15:14Z</time>
      </trkpt>
      <trkpt lat="45.87155" lon="3.01933">
        <ele>576</ele>
        <time>2021-08-10T18:15:16Z</time>
      </trkpt>
      <trkpt lat="45.87153" lon="3.01928">
        <ele>576</ele>
        <time>2021-08-10T18:15:16Z</time>
      </trkpt>
      <trkpt lat="45.87153" lon="3.01928">
        <ele>576</ele>
        <time>2021-08-10T18:15:17Z</time>
      </trkpt>
      <trkpt lat="45.87153" lon="3.01927">
        <ele>576</ele>
        <time>2021-08-10T18:15:18Z</time>
      </trkpt>
      <trkpt lat="45.87152" lon="3.01926">
        <ele>576</ele>
        <time>2021-08-10T18:15:19Z</time>
      </trkpt>
      <trkpt lat="45.87151" lon="3.01925">
        <ele>576</ele>
        <time>2021-08-10T18:15:21Z</time>
      </trkpt>
      <trkpt lat="45.87149" lon="3.0192">
        <ele>576</ele>
        <time>2021-08-10T18:15:22Z</time>
      </trkpt>
      <trkpt lat="45.87149" lon="3.0192">
        <ele>576</ele>
        <time>2021-08-10T18:15:23Z</time>
      </trkpt>
      <trkpt lat="45.87148" lon="3.01919">
        <ele>576</ele>
        <time>2021-08-10T18:15:25Z</time>
      </trkpt>
      <trkpt lat="45.87146" lon="3.01914">
        <ele>576</ele>
        <time>2021-08-10T18:15:26Z</time>
      </trkpt>
      <trkpt lat="45.87146" lon="3.01914">
        <ele>576</ele>
        <time>2021-08-10T18:15:27Z</time>
      </trkpt>
      <trkpt lat="45.87145" lon="3.01913">
        <ele>576</ele>
        <time>2021-08-10T18:15:28Z</time>
      </trkpt>
      <trkpt lat="45.87145" lon="3.01912">
        <ele>576</ele>
        <time>2021-08-10T18:15:29Z</time>
      </trkpt>
      <trkpt lat="45.87144" lon="3.0191">
        <ele>576</ele>
        <time>2021-08-10T18:15:30Z</time>
      </trkpt>
      <trkpt lat="45.87144" lon="3.01908">
        <ele>576</ele>
        <time>2021-08-10T18:15:31Z</time>
      </trkpt>
      <trkpt lat="45.87143" lon="3.01907">
        <ele>576</ele>
        <time>2021-08-10T18:15:32Z</time>
      </trkpt>
      <trkpt lat="45.87142" lon="3.01905">
        <ele>576</ele>
        <time>2021-08-10T18:15:33Z</time>
      </trkpt>
      <trkpt lat="45.87141" lon="3.01903">
        <ele>576</ele>
        <time>2021-08-10T18:15:34Z</time>
      </trkpt>
      <trkpt lat="45.8714" lon="3.01901">
        <ele>576</ele>
        <time>2021-08-10T18:15:35Z</time>
      </trkpt>
      <trkpt lat="45.8714" lon="3.01899">
        <ele>576</ele>
        <time>2021-08-10T18:15:37Z</time>
      </trkpt>
      <trkpt lat="45.87137" lon="3.01891">
        <ele>576</ele>
        <time>2021-08-10T18:15:38Z</time>
      </trkpt>
      <trkpt lat="45.87136" lon="3.01891">
        <ele>576</ele>
        <time>2021-08-10T18:15:39Z</time>
      </trkpt>
      <trkpt lat="45.87136" lon="3.0189">
        <ele>576</ele>
        <time>2021-08-10T18:15:40Z</time>
      </trkpt>
      <trkpt lat="45.87135" lon="3.01889">
        <ele>576</ele>
        <time>2021-08-10T18:15:41Z</time>
      </trkpt>
      <trkpt lat="45.87135" lon="3.01888">
        <ele>576</ele>
        <time>2021-08-10T18:15:42Z</time>
      </trkpt>
      <trkpt lat="45.87135" lon="3.01887">
        <ele>576</ele>
        <time>2021-08-10T18:15:43Z</time>
      </trkpt>
      <trkpt lat="45.87134" lon="3.01886">
        <ele>576</ele>
        <time>2021-08-10T18:15:45Z</time>
      </trkpt>
      <trkpt lat="45.87132" lon="3.0188">
        <ele>576</ele>
        <time>2021-08-10T18:15:46Z</time>
      </trkpt>
      <trkpt lat="45.87132" lon="3.0188">
        <ele>576</ele>
        <time>2021-08-10T18:15:47Z</time>
      </trkpt>
      <trkpt lat="45.87132" lon="3.01879">
        <ele>576</ele>
        <time>2021-08-10T18:15:48Z</time>
      </trkpt>
      <trkpt lat="45.87132" lon="3.01878">
        <ele>576</ele>
        <time>2021-08-10T18:15:49Z</time>
      </trkpt>
      <trkpt lat="45.87132" lon="3.01877">
        <ele>576</ele>
        <time>2021-08-10T18:15:50Z</time>
      </trkpt>
      <trkpt lat="45.87132" lon="3.01875">
        <ele>576</ele>
        <time>2021-08-10T18:15:51Z</time>
      </trkpt>
      <trkpt lat="45.87131" lon="3.01873">
        <ele>576</ele>
        <time>2021-08-10T18:15:52Z</time>
      </trkpt>
      <trkpt lat="45.87131" lon="3.01871">
        <ele>576</ele>
        <time>2021-08-10T18:15:53Z</time>
      </trkpt>
      <trkpt lat="45.87131" lon="3.01869">
        <ele>576</ele>
        <time>2021-08-10T18:15:54Z</time>
      </trkpt>
      <trkpt lat="45.87131" lon="3.01867">
        <ele>576</ele>
        <time>2021-08-10T18:15:55Z</time>
      </trkpt>
      <trkpt lat="45.87131" lon="3.01865">
        <ele>576</ele>
        <time>2021-08-10T18:15:57Z</time>
      </trkpt>
      <trkpt lat="45.87132" lon="3.01858">
        <ele>576</ele>
        <time>2021-08-10T18:15:59Z</time>
      </trkpt>
      <trkpt lat="45.87132" lon="3.01855">
        <ele>576</ele>
        <time>2021-08-10T18:16:00Z</time>
      </trkpt>
      <trkpt lat="45.87132" lon="3.01855">
        <ele>576</ele>
        <time>2021-08-10T18:16:01Z</time>
      </trkpt>
      <trkpt lat="45.87132" lon="3.01854">
        <ele>576</ele>
        <time>2021-08-10T18:16:02Z</time>
      </trkpt>
      <trkpt lat="45.87132" lon="3.01852">
        <ele>576</ele>
        <time>2021-08-10T18:16:03Z</time>
      </trkpt>
      <trkpt lat="45.87133" lon="3.01851">
        <ele>576</ele>
        <time>2021-08-10T18:16:05Z</time>
      </trkpt>
      <trkpt lat="45.87134" lon="3.01845">
        <ele>576</ele>
        <time>2021-08-10T18:16:06Z</time>
      </trkpt>
      <trkpt lat="45.87134" lon="3.01845">
        <ele>576</ele>
        <time>2021-08-10T18:16:07Z</time>
      </trkpt>
      <trkpt lat="45.87133" lon="3.01844">
        <ele>576</ele>
        <time>2021-08-10T18:16:08Z</time>
      </trkpt>
      <trkpt lat="45.87133" lon="3.01842">
        <ele>576</ele>
        <time>2021-08-10T18:16:09Z</time>
      </trkpt>
      <trkpt lat="45.87133" lon="3.01841">
        <ele>576</ele>
        <time>2021-08-10T18:16:10Z</time>
      </trkpt>
      <trkpt lat="45.87133" lon="3.0184">
        <ele>576</ele>
        <time>2021-08-10T18:16:11Z</time>
      </trkpt>
      <trkpt lat="45.87132" lon="3.01838">
        <ele>576</ele>
        <time>2021-08-10T18:16:13Z</time>
      </trkpt>
      <trkpt lat="45.87131" lon="3.01832">
        <ele>576</ele>
        <time>2021-08-10T18:16:14Z</time>
      </trkpt>
      <trkpt lat="45.87131" lon="3.01831">
        <ele>576</ele>
        <time>2021-08-10T18:16:16Z</time>
      </trkpt>
      <trkpt lat="45.8713" lon="3.01826">
        <ele>576</ele>
        <time>2021-08-10T18:16:17Z</time>
      </trkpt>
      <trkpt lat="45.8713" lon="3.01826">
        <ele>576</ele>
        <time>2021-08-10T18:16:19Z</time>
      </trkpt>
      <trkpt lat="45.8713" lon="3.01818">
        <ele>576</ele>
        <time>2021-08-10T18:16:20Z</time>
      </trkpt>
      <trkpt lat="45.8713" lon="3.01817">
        <ele>576</ele>
        <time>2021-08-10T18:16:21Z</time>
      </trkpt>
      <trkpt lat="45.8713" lon="3.01816">
        <ele>576</ele>
        <time>2021-08-10T18:16:22Z</time>
      </trkpt>
      <trkpt lat="45.8713" lon="3.01815">
        <ele>576</ele>
        <time>2021-08-10T18:16:23Z</time>
      </trkpt>
      <trkpt lat="45.87131" lon="3.01812">
        <ele>576</ele>
        <time>2021-08-10T18:16:25Z</time>
      </trkpt>
      <trkpt lat="45.87132" lon="3.01803">
        <ele>576</ele>
        <time>2021-08-10T18:16:26Z</time>
      </trkpt>
      <trkpt lat="45.87132" lon="3.01802">
        <ele>576</ele>
        <time>2021-08-10T18:16:27Z</time>
      </trkpt>
      <trkpt lat="45.87132" lon="3.01801">
        <ele>576</ele>
        <time>2021-08-10T18:16:28Z</time>
      </trkpt>
      <trkpt lat="45.87132" lon="3.01799">
        <ele>576</ele>
        <time>2021-08-10T18:16:29Z</time>
      </trkpt>
      <trkpt lat="45.87132" lon="3.01797">
        <ele>576</ele>
        <time>2021-08-10T18:16:30Z</time>
      </trkpt>
      <trkpt lat="45.87132" lon="3.01794">
        <ele>576</ele>
        <time>2021-08-10T18:16:31Z</time>
      </trkpt>
      <trkpt lat="45.87133" lon="3.01792">
        <ele>576</ele>
        <time>2021-08-10T18:16:33Z</time>
      </trkpt>
      <trkpt lat="45.87134" lon="3.01782">
        <ele>576</ele>
        <time>2021-08-10T18:16:34Z</time>
      </trkpt>
      <trkpt lat="45.87134" lon="3.01782">
        <ele>576</ele>
        <time>2021-08-10T18:16:35Z</time>
      </trkpt>
      <trkpt lat="45.87134" lon="3.01781">
        <ele>576</ele>
        <time>2021-08-10T18:16:36Z</time>
      </trkpt>
      <trkpt lat="45.87135" lon="3.0178">
        <ele>576</ele>
        <time>2021-08-10T18:16:37Z</time>
      </trkpt>
      <trkpt lat="45.87135" lon="3.01778">
        <ele>576</ele>
        <time>2021-08-10T18:16:38Z</time>
      </trkpt>
      <trkpt lat="45.87135" lon="3.01776">
        <ele>576</ele>
        <time>2021-08-10T18:16:39Z</time>
      </trkpt>
      <trkpt lat="45.87135" lon="3.01774">
        <ele>576</ele>
        <time>2021-08-10T18:16:40Z</time>
      </trkpt>
      <trkpt lat="45.87136" lon="3.01773">
        <ele>576</ele>
        <time>2021-08-10T18:16:41Z</time>
      </trkpt>
      <trkpt lat="45.87137" lon="3.01771">
        <ele>576</ele>
        <time>2021-08-10T18:16:42Z</time>
      </trkpt>
      <trkpt lat="45.87137" lon="3.01769">
        <ele>576</ele>
        <time>2021-08-10T18:16:43Z</time>
      </trkpt>
      <trkpt lat="45.87138" lon="3.01768">
        <ele>576</ele>
        <time>2021-08-10T18:16:44Z</time>
      </trkpt>
      <trkpt lat="45.87139" lon="3.01767">
        <ele>576</ele>
        <time>2021-08-10T18:16:45Z</time>
      </trkpt>
      <trkpt lat="45.87139" lon="3.01766">
        <ele>576</ele>
        <time>2021-08-10T18:16:47Z</time>
      </trkpt>
      <trkpt lat="45.87141" lon="3.01761">
        <ele>576</ele>
        <time>2021-08-10T18:16:49Z</time>
      </trkpt>
      <trkpt lat="45.87141" lon="3.0176">
        <ele>576</ele>
        <time>2021-08-10T18:16:50Z</time>
      </trkpt>
      <trkpt lat="45.87141" lon="3.01759">
        <ele>576</ele>
        <time>2021-08-10T18:16:51Z</time>
      </trkpt>
      <trkpt lat="45.87142" lon="3.01758">
        <ele>576</ele>
        <time>2021-08-10T18:16:52Z</time>
      </trkpt>
      <trkpt lat="45.87142" lon="3.01756">
        <ele>576</ele>
        <time>2021-08-10T18:16:53Z</time>
      </trkpt>
      <trkpt lat="45.87142" lon="3.01755">
        <ele>576</ele>
        <time>2021-08-10T18:16:55Z</time>
      </trkpt>
      <trkpt lat="45.87144" lon="3.01751">
        <ele>576</ele>
        <time>2021-08-10T18:16:56Z</time>
      </trkpt>
      <trkpt lat="45.87144" lon="3.01751">
        <ele>576</ele>
        <time>2021-08-10T18:16:58Z</time>
      </trkpt>
      <trkpt lat="45.87144" lon="3.0175">
        <ele>576</ele>
        <time>2021-08-10T18:16:59Z</time>
      </trkpt>
      <trkpt lat="45.87145" lon="3.01746">
        <ele>576</ele>
        <time>2021-08-10T18:17:00Z</time>
      </trkpt>
      <trkpt lat="45.87145" lon="3.01746">
        <ele>576</ele>
        <time>2021-08-10T18:17:01Z</time>
      </trkpt>
      <trkpt lat="45.87146" lon="3.01745">
        <ele>576</ele>
        <time>2021-08-10T18:17:02Z</time>
      </trkpt>
      <trkpt lat="45.87146" lon="3.01744">
        <ele>576</ele>
        <time>2021-08-10T18:17:03Z</time>
      </trkpt>
      <trkpt lat="45.87147" lon="3.01743">
        <ele>576</ele>
        <time>2021-08-10T18:17:04Z</time>
      </trkpt>
      <trkpt lat="45.87147" lon="3.01741">
        <ele>576</ele>
        <time>2021-08-10T18:17:05Z</time>
      </trkpt>
      <trkpt lat="45.87148" lon="3.0174">
        <ele>576</ele>
        <time>2021-08-10T18:17:06Z</time>
      </trkpt>
      <trkpt lat="45.87148" lon="3.01738">
        <ele>576</ele>
        <time>2021-08-10T18:17:08Z</time>
      </trkpt>
      <trkpt lat="45.87151" lon="3.01732">
        <ele>576</ele>
        <time>2021-08-10T18:17:09Z</time>
      </trkpt>
      <trkpt lat="45.87151" lon="3.01732">
        <ele>576</ele>
        <time>2021-08-10T18:17:11Z</time>
      </trkpt>
      <trkpt lat="45.87153" lon="3.01727">
        <ele>576</ele>
        <time>2021-08-10T18:17:13Z</time>
      </trkpt>
      <trkpt lat="45.87155" lon="3.01724">
        <ele>576</ele>
        <time>2021-08-10T18:17:14Z</time>
      </trkpt>
      <trkpt lat="45.87155" lon="3.01723">
        <ele>576</ele>
        <time>2021-08-10T18:17:15Z</time>
      </trkpt>
      <trkpt lat="45.87156" lon="3.01722">
        <ele>576</ele>
        <time>2021-08-10T18:17:16Z</time>
      </trkpt>
      <trkpt lat="45.87156" lon="3.01721">
        <ele>576</ele>
        <time>2021-08-10T18:17:17Z</time>
      </trkpt>
      <trkpt lat="45.87157" lon="3.0172">
        <ele>576</ele>
        <time>2021-08-10T18:17:19Z</time>
      </trkpt>
      <trkpt lat="45.8716" lon="3.01715">
        <ele>576</ele>
        <time>2021-08-10T18:17:20Z</time>
      </trkpt>
      <trkpt lat="45.87161" lon="3.01714">
        <ele>576</ele>
        <time>2021-08-10T18:17:22Z</time>
      </trkpt>
      <trkpt lat="45.87163" lon="3.01711">
        <ele>576</ele>
        <time>2021-08-10T18:17:23Z</time>
      </trkpt>
      <trkpt lat="45.87163" lon="3.01711">
        <ele>576</ele>
        <time>2021-08-10T18:17:24Z</time>
      </trkpt>
      <trkpt lat="45.87163" lon="3.0171">
        <ele>576</ele>
        <time>2021-08-10T18:17:25Z</time>
      </trkpt>
      <trkpt lat="45.87164" lon="3.01709">
        <ele>576</ele>
        <time>2021-08-10T18:17:27Z</time>
      </trkpt>
      <trkpt lat="45.87166" lon="3.01703">
        <ele>576</ele>
        <time>2021-08-10T18:17:28Z</time>
      </trkpt>
      <trkpt lat="45.87166" lon="3.01703">
        <ele>576</ele>
        <time>2021-08-10T18:17:30Z</time>
      </trkpt>
      <trkpt lat="45.87168" lon="3.01698">
        <ele>576</ele>
        <time>2021-08-10T18:17:31Z</time>
      </trkpt>
      <trkpt lat="45.87168" lon="3.01697">
        <ele>576</ele>
        <time>2021-08-10T18:17:33Z</time>
      </trkpt>
      <trkpt lat="45.87171" lon="3.01693">
        <ele>576</ele>
        <time>2021-08-10T18:17:34Z</time>
      </trkpt>
      <trkpt lat="45.87171" lon="3.01692">
        <ele>576</ele>
        <time>2021-08-10T18:17:35Z</time>
      </trkpt>
      <trkpt lat="45.87171" lon="3.01692">
        <ele>576</ele>
        <time>2021-08-10T18:17:36Z</time>
      </trkpt>
      <trkpt lat="45.87171" lon="3.0169">
        <ele>576</ele>
        <time>2021-08-10T18:17:37Z</time>
      </trkpt>
      <trkpt lat="45.87172" lon="3.01689">
        <ele>576</ele>
        <time>2021-08-10T18:17:38Z</time>
      </trkpt>
      <trkpt lat="45.87172" lon="3.01687">
        <ele>576</ele>
        <time>2021-08-10T18:17:39Z</time>
      </trkpt>
      <trkpt lat="45.87174" lon="3.01686">
        <ele>576</ele>
        <time>2021-08-10T18:17:41Z</time>
      </trkpt>
      <trkpt lat="45.87175" lon="3.01679">
        <ele>576</ele>
        <time>2021-08-10T18:17:42Z</time>
      </trkpt>
      <trkpt lat="45.87175" lon="3.01678">
        <ele>576</ele>
        <time>2021-08-10T18:17:44Z</time>
      </trkpt>
      <trkpt lat="45.87177" lon="3.01672">
        <ele>576</ele>
        <time>2021-08-10T18:17:45Z</time>
      </trkpt>
      <trkpt lat="45.87177" lon="3.01671">
        <ele>576</ele>
        <time>2021-08-10T18:17:47Z</time>
      </trkpt>
      <trkpt lat="45.87179" lon="3.01666">
        <ele>576</ele>
        <time>2021-08-10T18:17:49Z</time>
      </trkpt>
      <trkpt lat="45.8718" lon="3.01662">
        <ele>576</ele>
        <time>2021-08-10T18:17:50Z</time>
      </trkpt>
      <trkpt lat="45.8718" lon="3.01661">
        <ele>576</ele>
        <time>2021-08-10T18:17:51Z</time>
      </trkpt>
      <trkpt lat="45.87181" lon="3.0166">
        <ele>576</ele>
        <time>2021-08-10T18:17:53Z</time>
      </trkpt>
      <trkpt lat="45.87183" lon="3.01655">
        <ele>576</ele>
        <time>2021-08-10T18:17:54Z</time>
      </trkpt>
      <trkpt lat="45.87184" lon="3.01654">
        <ele>576</ele>
        <time>2021-08-10T18:17:55Z</time>
      </trkpt>
      <trkpt lat="45.87184" lon="3.01653">
        <ele>576</ele>
        <time>2021-08-10T18:17:57Z</time>
      </trkpt>
      <trkpt lat="45.87184" lon="3.01652">
        <ele>576</ele>
        <time>2021-08-10T18:17:58Z</time>
      </trkpt>
      <trkpt lat="45.87185" lon="3.01651">
        <ele>576</ele>
        <time>2021-08-10T18:17:59Z</time>
      </trkpt>
      <trkpt lat="45.87187" lon="3.01645">
        <ele>576</ele>
        <time>2021-08-10T18:18:00Z</time>
      </trkpt>
      <trkpt lat="45.87187" lon="3.01645">
        <ele>576</ele>
        <time>2021-08-10T18:18:02Z</time>
      </trkpt>
      <trkpt lat="45.87189" lon="3.01642">
        <ele>576</ele>
        <time>2021-08-10T18:18:03Z</time>
      </trkpt>
      <trkpt lat="45.87189" lon="3.01641">
        <ele>576</ele>
        <time>2021-08-10T18:18:05Z</time>
      </trkpt>
      <trkpt lat="45.8719" lon="3.01639">
        <ele>576</ele>
        <time>2021-08-10T18:18:06Z</time>
      </trkpt>
      <trkpt lat="45.87191" lon="3.01639">
        <ele>576</ele>
        <time>2021-08-10T18:18:08Z</time>
      </trkpt>
      <trkpt lat="45.87192" lon="3.01637">
        <ele>576</ele>
        <time>2021-08-10T18:18:09Z</time>
      </trkpt>
      <trkpt lat="45.87192" lon="3.01637">
        <ele>576</ele>
        <time>2021-08-10T18:18:10Z</time>
      </trkpt>
      <trkpt lat="45.87193" lon="3.01637">
        <ele>576</ele>
        <time>2021-08-10T18:18:11Z</time>
      </trkpt>
      <trkpt lat="45.87193" lon="3.01636">
        <ele>576</ele>
        <time>2021-08-10T18:18:13Z</time>
      </trkpt>
      <trkpt lat="45.87197" lon="3.01633">
        <ele>576</ele>
        <time>2021-08-10T18:18:14Z</time>
      </trkpt>
      <trkpt lat="45.87197" lon="3.01633">
        <ele>576</ele>
        <time>2021-08-10T18:18:15Z</time>
      </trkpt>
      <trkpt lat="45.87198" lon="3.01632">
        <ele>576</ele>
        <time>2021-08-10T18:18:16Z</time>
      </trkpt>
      <trkpt lat="45.87199" lon="3.01632">
        <ele>576</ele>
        <time>2021-08-10T18:18:17Z</time>
      </trkpt>
      <trkpt lat="45.87199" lon="3.01631">
        <ele>576</ele>
        <time>2021-08-10T18:18:19Z</time>
      </trkpt>
      <trkpt lat="45.87205" lon="3.01627">
        <ele>576</ele>
        <time>2021-08-10T18:18:20Z</time>
      </trkpt>
      <trkpt lat="45.87205" lon="3.01627">
        <ele>576</ele>
        <time>2021-08-10T18:18:21Z</time>
      </trkpt>
      <trkpt lat="45.87206" lon="3.01627">
        <ele>576</ele>
        <time>2021-08-10T18:18:22Z</time>
      </trkpt>
      <trkpt lat="45.87207" lon="3.01626">
        <ele>576</ele>
        <time>2021-08-10T18:18:23Z</time>
      </trkpt>
      <trkpt lat="45.87207" lon="3.01625">
        <ele>576</ele>
        <time>2021-08-10T18:18:25Z</time>
      </trkpt>
      <trkpt lat="45.87211" lon="3.01622">
        <ele>576</ele>
        <time>2021-08-10T18:18:26Z</time>
      </trkpt>
      <trkpt lat="45.87212" lon="3.01622">
        <ele>576</ele>
        <time>2021-08-10T18:18:28Z</time>
      </trkpt>
      <trkpt lat="45.87215" lon="3.01618">
        <ele>576</ele>
        <time>2021-08-10T18:18:29Z</time>
      </trkpt>
      <trkpt lat="45.87216" lon="3.01618">
        <ele>576</ele>
        <time>2021-08-10T18:18:30Z</time>
      </trkpt>
      <trkpt lat="45.87217" lon="3.01617">
        <ele>576</ele>
        <time>2021-08-10T18:18:31Z</time>
      </trkpt>
      <trkpt lat="45.87217" lon="3.01616">
        <ele>576</ele>
        <time>2021-08-10T18:18:32Z</time>
      </trkpt>
      <trkpt lat="45.87218" lon="3.01615">
        <ele>576</ele>
        <time>2021-08-10T18:18:33Z</time>
      </trkpt>
      <trkpt lat="45.87219" lon="3.01614">
        <ele>576</ele>
        <time>2021-08-10T18:18:34Z</time>
      </trkpt>
      <trkpt lat="45.8722" lon="3.01613">
        <ele>576</ele>
        <time>2021-08-10T18:18:36Z</time>
      </trkpt>
      <trkpt lat="45.87223" lon="3.01607">
        <ele>576</ele>
        <time>2021-08-10T18:18:37Z</time>
      </trkpt>
      <trkpt lat="45.87223" lon="3.01606">
        <ele>576</ele>
        <time>2021-08-10T18:18:39Z</time>
      </trkpt>
      <trkpt lat="45.87225" lon="3.01601">
        <ele>576</ele>
        <time>2021-08-10T18:18:40Z</time>
      </trkpt>
      <trkpt lat="45.87225" lon="3.01601">
        <ele>576</ele>
        <time>2021-08-10T18:18:41Z</time>
      </trkpt>
      <trkpt lat="45.87226" lon="3.016">
        <ele>576</ele>
        <time>2021-08-10T18:18:42Z</time>
      </trkpt>
      <trkpt lat="45.87226" lon="3.01598">
        <ele>576</ele>
        <time>2021-08-10T18:18:43Z</time>
      </trkpt>
      <trkpt lat="45.87227" lon="3.01596">
        <ele>576</ele>
        <time>2021-08-10T18:18:45Z</time>
      </trkpt>
      <trkpt lat="45.87231" lon="3.01587">
        <ele>576</ele>
        <time>2021-08-10T18:18:46Z</time>
      </trkpt>
      <trkpt lat="45.87232" lon="3.01587">
        <ele>576</ele>
        <time>2021-08-10T18:18:47Z</time>
      </trkpt>
      <trkpt lat="45.87233" lon="3.01586">
        <ele>576</ele>
        <time>2021-08-10T18:18:48Z</time>
      </trkpt>
      <trkpt lat="45.87233" lon="3.01584">
        <ele>576</ele>
        <time>2021-08-10T18:18:49Z</time>
      </trkpt>
      <trkpt lat="45.87234" lon="3.01582">
        <ele>576</ele>
        <time>2021-08-10T18:18:50Z</time>
      </trkpt>
      <trkpt lat="45.87235" lon="3.0158">
        <ele>576</ele>
        <time>2021-08-10T18:18:51Z</time>
      </trkpt>
      <trkpt lat="45.87236" lon="3.01579">
        <ele>576</ele>
        <time>2021-08-10T18:18:52Z</time>
      </trkpt>
      <trkpt lat="45.87236" lon="3.01577">
        <ele>576</ele>
        <time>2021-08-10T18:18:53Z</time>
      </trkpt>
      <trkpt lat="45.87237" lon="3.01575">
        <ele>576</ele>
        <time>2021-08-10T18:18:54Z</time>
      </trkpt>
      <trkpt lat="45.87238" lon="3.01574">
        <ele>576</ele>
        <time>2021-08-10T18:18:55Z</time>
      </trkpt>
      <trkpt lat="45.87238" lon="3.01572">
        <ele>576</ele>
        <time>2021-08-10T18:18:57Z</time>
      </trkpt>
      <trkpt lat="45.87238" lon="3.0157">
        <ele>576</ele>
        <time>2021-08-10T18:18:58Z</time>
      </trkpt>
      <trkpt lat="45.87238" lon="3.01568">
        <ele>576</ele>
        <time>2021-08-10T18:18:59Z</time>
      </trkpt>
      <trkpt lat="45.87241" lon="3.01561">
        <ele>576</ele>
        <time>2021-08-10T18:19:00Z</time>
      </trkpt>
      <trkpt lat="45.87241" lon="3.01561">
        <ele>576</ele>
        <time>2021-08-10T18:19:01Z</time>
      </trkpt>
      <trkpt lat="45.87241" lon="3.0156">
        <ele>576</ele>
        <time>2021-08-10T18:19:03Z</time>
      </trkpt>
      <trkpt lat="45.87243" lon="3.01554">
        <ele>576</ele>
        <time>2021-08-10T18:19:04Z</time>
      </trkpt>
      <trkpt lat="45.87243" lon="3.01554">
        <ele>576</ele>
        <time>2021-08-10T18:19:05Z</time>
      </trkpt>
      <trkpt lat="45.87243" lon="3.01553">
        <ele>576</ele>
        <time>2021-08-10T18:19:06Z</time>
      </trkpt>
      <trkpt lat="45.87243" lon="3.01552">
        <ele>576</ele>
        <time>2021-08-10T18:19:07Z</time>
      </trkpt>
      <trkpt lat="45.87244" lon="3.01551">
        <ele>576</ele>
        <time>2021-08-10T18:19:08Z</time>
      </trkpt>
      <trkpt lat="45.87244" lon="3.01549">
        <ele>576</ele>
        <time>2021-08-10T18:19:09Z</time>
      </trkpt>
      <trkpt lat="45.87244" lon="3.01547">
        <ele>576</ele>
        <time>2021-08-10T18:19:11Z</time>
      </trkpt>
      <trkpt lat="45.87246" lon="3.01537">
        <ele>576</ele>
        <time>2021-08-10T18:19:12Z</time>
      </trkpt>
      <trkpt lat="45.87246" lon="3.01536">
        <ele>576</ele>
        <time>2021-08-10T18:19:13Z</time>
      </trkpt>
      <trkpt lat="45.87247" lon="3.01535">
        <ele>576</ele>
        <time>2021-08-10T18:19:14Z</time>
      </trkpt>
      <trkpt lat="45.87247" lon="3.01534">
        <ele>576</ele>
        <time>2021-08-10T18:19:15Z</time>
      </trkpt>
      <trkpt lat="45.87247" lon="3.01532">
        <ele>576</ele>
        <time>2021-08-10T18:19:16Z</time>
      </trkpt>
      <trkpt lat="45.87247" lon="3.01531">
        <ele>576</ele>
        <time>2021-08-10T18:19:17Z</time>
      </trkpt>
      <trkpt lat="45.87247" lon="3.01529">
        <ele>576</ele>
        <time>2021-08-10T18:19:19Z</time>
      </trkpt>
      <trkpt lat="45.87248" lon="3.01523">
        <ele>576</ele>
        <time>2021-08-10T18:19:20Z</time>
      </trkpt>
      <trkpt lat="45.87248" lon="3.01522">
        <ele>576</ele>
        <time>2021-08-10T18:19:22Z</time>
      </trkpt>
      <trkpt lat="45.87247" lon="3.01515">
        <ele>576</ele>
        <time>2021-08-10T18:19:23Z</time>
      </trkpt>
      <trkpt lat="45.87247" lon="3.01514">
        <ele>576</ele>
        <time>2021-08-10T18:19:24Z</time>
      </trkpt>
      <trkpt lat="45.87247" lon="3.01512">
        <ele>576</ele>
        <time>2021-08-10T18:19:25Z</time>
      </trkpt>
      <trkpt lat="45.87247" lon="3.0151">
        <ele>576</ele>
        <time>2021-08-10T18:19:27Z</time>
      </trkpt>
      <trkpt lat="45.87247" lon="3.015">
        <ele>576</ele>
        <time>2021-08-10T18:19:28Z</time>
      </trkpt>
      <trkpt lat="45.87247" lon="3.01499">
        <ele>576</ele>
        <time>2021-08-10T18:19:29Z</time>
      </trkpt>
      <trkpt lat="45.87247" lon="3.01498">
        <ele>576</ele>
        <time>2021-08-10T18:19:30Z</time>
      </trkpt>
      <trkpt lat="45.87247" lon="3.01496">
        <ele>576</ele>
        <time>2021-08-10T18:19:31Z</time>
      </trkpt>
      <trkpt lat="45.87247" lon="3.01495">
        <ele>576</ele>
        <time>2021-08-10T18:19:32Z</time>
      </trkpt>
      <trkpt lat="45.87248" lon="3.01488">
        <ele>576</ele>
        <time>2021-08-10T18:19:33Z</time>
      </trkpt>
      <trkpt lat="45.87248" lon="3.01487">
        <ele>576</ele>
        <time>2021-08-10T18:19:34Z</time>
      </trkpt>
      <trkpt lat="45.87248" lon="3.01487">
        <ele>576</ele>
        <time>2021-08-10T18:19:35Z</time>
      </trkpt>
      <trkpt lat="45.87248" lon="3.01485">
        <ele>576</ele>
        <time>2021-08-10T18:19:36Z</time>
      </trkpt>
      <trkpt lat="45.87248" lon="3.01484">
        <ele>576</ele>
        <time>2021-08-10T18:19:37Z</time>
      </trkpt>
      <trkpt lat="45.87248" lon="3.01483">
        <ele>576</ele>
        <time>2021-08-10T18:19:38Z</time>
      </trkpt>
      <trkpt lat="45.87249" lon="3.01481">
        <ele>576</ele>
        <time>2021-08-10T18:19:40Z</time>
      </trkpt>
      <trkpt lat="45.8725" lon="3.01474">
        <ele>576</ele>
        <time>2021-08-10T18:19:41Z</time>
      </trkpt>
      <trkpt lat="45.8725" lon="3.01474">
        <ele>576</ele>
        <time>2021-08-10T18:19:42Z</time>
      </trkpt>
      <trkpt lat="45.8725" lon="3.01473">
        <ele>576</ele>
        <time>2021-08-10T18:19:43Z</time>
      </trkpt>
      <trkpt lat="45.8725" lon="3.01471">
        <ele>576</ele>
        <time>2021-08-10T18:19:44Z</time>
      </trkpt>
      <trkpt lat="45.87251" lon="3.01469">
        <ele>576</ele>
        <time>2021-08-10T18:19:45Z</time>
      </trkpt>
      <trkpt lat="45.87251" lon="3.01466">
        <ele>576</ele>
        <time>2021-08-10T18:19:46Z</time>
      </trkpt>
      <trkpt lat="45.87251" lon="3.01463">
        <ele>576</ele>
        <time>2021-08-10T18:19:47Z</time>
      </trkpt>
      <trkpt lat="45.87251" lon="3.0146">
        <ele>576</ele>
        <time>2021-08-10T18:19:48Z</time>
      </trkpt>
      <trkpt lat="45.87251" lon="3.01458">
        <ele>576</ele>
        <time>2021-08-10T18:19:49Z</time>
      </trkpt>
      <trkpt lat="45.87251" lon="3.01455">
        <ele>576</ele>
        <time>2021-08-10T18:19:51Z</time>
      </trkpt>
      <trkpt lat="45.8725" lon="3.01445">
        <ele>576</ele>
        <time>2021-08-10T18:19:52Z</time>
      </trkpt>
      <trkpt lat="45.8725" lon="3.01444">
        <ele>576</ele>
        <time>2021-08-10T18:19:53Z</time>
      </trkpt>
      <trkpt lat="45.8725" lon="3.01443">
        <ele>576</ele>
        <time>2021-08-10T18:19:54Z</time>
      </trkpt>
      <trkpt lat="45.8725" lon="3.01441">
        <ele>576</ele>
        <time>2021-08-10T18:19:55Z</time>
      </trkpt>
      <trkpt lat="45.8725" lon="3.01439">
        <ele>576</ele>
        <time>2021-08-10T18:19:57Z</time>
      </trkpt>
      <trkpt lat="45.87249" lon="3.01436">
        <ele>576</ele>
        <time>2021-08-10T18:19:58Z</time>
      </trkpt>
      <trkpt lat="45.87247" lon="3.01425">
        <ele>576</ele>
        <time>2021-08-10T18:20:00Z</time>
      </trkpt>
      <trkpt lat="45.87247" lon="3.0142">
        <ele>576</ele>
        <time>2021-08-10T18:20:01Z</time>
      </trkpt>
      <trkpt lat="45.87247" lon="3.01419">
        <ele>576</ele>
        <time>2021-08-10T18:20:02Z</time>
      </trkpt>
      <trkpt lat="45.87246" lon="3.01418">
        <ele>576</ele>
        <time>2021-08-10T18:20:03Z</time>
      </trkpt>
      <trkpt lat="45.87246" lon="3.01417">
        <ele>576</ele>
        <time>2021-08-10T18:20:04Z</time>
      </trkpt>
      <trkpt lat="45.87246" lon="3.01415">
        <ele>576</ele>
        <time>2021-08-10T18:20:05Z</time>
      </trkpt>
      <trkpt lat="45.87246" lon="3.01413">
        <ele>576</ele>
        <time>2021-08-10T18:20:06Z</time>
      </trkpt>
      <trkpt lat="45.87246" lon="3.01411">
        <ele>576</ele>
        <time>2021-08-10T18:20:08Z</time>
      </trkpt>
      <trkpt lat="45.87244" lon="3.01401">
        <ele>576</ele>
        <time>2021-08-10T18:20:09Z</time>
      </trkpt>
      <trkpt lat="45.87244" lon="3.01401">
        <ele>576</ele>
        <time>2021-08-10T18:20:11Z</time>
      </trkpt>
      <trkpt lat="45.87242" lon="3.01394">
        <ele>576</ele>
        <time>2021-08-10T18:20:12Z</time>
      </trkpt>
      <trkpt lat="45.87242" lon="3.01394">
        <ele>576</ele>
        <time>2021-08-10T18:20:13Z</time>
      </trkpt>
      <trkpt lat="45.87241" lon="3.01393">
        <ele>576</ele>
        <time>2021-08-10T18:20:14Z</time>
      </trkpt>
      <trkpt lat="45.87241" lon="3.01391">
        <ele>576</ele>
        <time>2021-08-10T18:20:15Z</time>
      </trkpt>
      <trkpt lat="45.8724" lon="3.01389">
        <ele>576</ele>
        <time>2021-08-10T18:20:16Z</time>
      </trkpt>
      <trkpt lat="45.87239" lon="3.01387">
        <ele>576</ele>
        <time>2021-08-10T18:20:17Z</time>
      </trkpt>
      <trkpt lat="45.87238" lon="3.01385">
        <ele>576</ele>
        <time>2021-08-10T18:20:18Z</time>
      </trkpt>
      <trkpt lat="45.87238" lon="3.01384">
        <ele>576</ele>
        <time>2021-08-10T18:20:20Z</time>
      </trkpt>
      <trkpt lat="45.87234" lon="3.01375">
        <ele>576</ele>
        <time>2021-08-10T18:20:22Z</time>
      </trkpt>
      <trkpt lat="45.87234" lon="3.01375">
        <ele>576</ele>
        <time>2021-08-10T18:20:23Z</time>
      </trkpt>
      <trkpt lat="45.87231" lon="3.01368">
        <ele>576</ele>
        <time>2021-08-10T18:20:24Z</time>
      </trkpt>
      <trkpt lat="45.8723" lon="3.01367">
        <ele>576</ele>
        <time>2021-08-10T18:20:26Z</time>
      </trkpt>
      <trkpt lat="45.87227" lon="3.0136">
        <ele>576</ele>
        <time>2021-08-10T18:20:27Z</time>
      </trkpt>
      <trkpt lat="45.87227" lon="3.0136">
        <ele>576</ele>
        <time>2021-08-10T18:20:28Z</time>
      </trkpt>
      <trkpt lat="45.87227" lon="3.01359">
        <ele>576</ele>
        <time>2021-08-10T18:20:29Z</time>
      </trkpt>
      <trkpt lat="45.87226" lon="3.01357">
        <ele>576</ele>
        <time>2021-08-10T18:20:30Z</time>
      </trkpt>
      <trkpt lat="45.87225" lon="3.01356">
        <ele>576</ele>
        <time>2021-08-10T18:20:31Z</time>
      </trkpt>
      <trkpt lat="45.87225" lon="3.01354">
        <ele>576</ele>
        <time>2021-08-10T18:20:32Z</time>
      </trkpt>
      <trkpt lat="45.87224" lon="3.01352">
        <ele>576</ele>
        <time>2021-08-10T18:20:34Z</time>
      </trkpt>
      <trkpt lat="45.87223" lon="3.0135">
        <ele>576</ele>
        <time>2021-08-10T18:20:35Z</time>
      </trkpt>
      <trkpt lat="45.87223" lon="3.01341">
        <ele>576</ele>
        <time>2021-08-10T18:20:36Z</time>
      </trkpt>
      <trkpt lat="45.87222" lon="3.01341">
        <ele>576</ele>
        <time>2021-08-10T18:20:37Z</time>
      </trkpt>
      <trkpt lat="45.87222" lon="3.01339">
        <ele>576</ele>
        <time>2021-08-10T18:20:38Z</time>
      </trkpt>
      <trkpt lat="45.87221" lon="3.01338">
        <ele>576</ele>
        <time>2021-08-10T18:20:39Z</time>
      </trkpt>
      <trkpt lat="45.8722" lon="3.01336">
        <ele>576</ele>
        <time>2021-08-10T18:20:41Z</time>
      </trkpt>
      <trkpt lat="45.87219" lon="3.01329">
        <ele>576</ele>
        <time>2021-08-10T18:20:42Z</time>
      </trkpt>
      <trkpt lat="45.87219" lon="3.01329">
        <ele>576</ele>
        <time>2021-08-10T18:20:44Z</time>
      </trkpt>
      <trkpt lat="45.87219" lon="3.01325">
        <ele>576</ele>
        <time>2021-08-10T18:20:46Z</time>
      </trkpt>
      <trkpt lat="45.87219" lon="3.01321">
        <ele>576</ele>
        <time>2021-08-10T18:20:47Z</time>
      </trkpt>
      <trkpt lat="45.87219" lon="3.01321">
        <ele>576</ele>
        <time>2021-08-10T18:20:48Z</time>
      </trkpt>
      <trkpt lat="45.87218" lon="3.0132">
        <ele>576</ele>
        <time>2021-08-10T18:20:49Z</time>
      </trkpt>
      <trkpt lat="45.87218" lon="3.01319">
        <ele>576</ele>
        <time>2021-08-10T18:20:50Z</time>
      </trkpt>
      <trkpt lat="45.87218" lon="3.01317">
        <ele>576</ele>
        <time>2021-08-10T18:20:52Z</time>
      </trkpt>
      <trkpt lat="45.87218" lon="3.01309">
        <ele>576</ele>
        <time>2021-08-10T18:20:53Z</time>
      </trkpt>
      <trkpt lat="45.87217" lon="3.01309">
        <ele>576</ele>
        <time>2021-08-10T18:20:54Z</time>
      </trkpt>
      <trkpt lat="45.87217" lon="3.01308">
        <ele>576</ele>
        <time>2021-08-10T18:20:56Z</time>
      </trkpt>
      <trkpt lat="45.87217" lon="3.01306">
        <ele>576</ele>
        <time>2021-08-10T18:20:57Z</time>
      </trkpt>
      <trkpt lat="45.87217" lon="3.01305">
        <ele>576</ele>
        <time>2021-08-10T18:20:58Z</time>
      </trkpt>
      <trkpt lat="45.87217" lon="3.01299">
        <ele>576</ele>
        <time>2021-08-10T18:21:00Z</time>
      </trkpt>
      <trkpt lat="45.87217" lon="3.01295">
        <ele>576</ele>
        <time>2021-08-10T18:21:01Z</time>
      </trkpt>
      <trkpt lat="45.87217" lon="3.01294">
        <ele>576</ele>
        <time>2021-08-10T18:21:02Z</time>
      </trkpt>
      <trkpt lat="45.87217" lon="3.01293">
        <ele>576</ele>
        <time>2021-08-10T18:21:04Z</time>
      </trkpt>
      <trkpt lat="45.87217" lon="3.01287">
        <ele>576</ele>
        <time>2021-08-10T18:21:05Z</time>
      </trkpt>
      <trkpt lat="45.87217" lon="3.01287">
        <ele>576</ele>
        <time>2021-08-10T18:21:06Z</time>
      </trkpt>
      <trkpt lat="45.87217" lon="3.01286">
        <ele>576</ele>
        <time>2021-08-10T18:21:07Z</time>
      </trkpt>
      <trkpt lat="45.87217" lon="3.01284">
        <ele>576</ele>
        <time>2021-08-10T18:21:08Z</time>
      </trkpt>
      <trkpt lat="45.87217" lon="3.01282">
        <ele>576</ele>
        <time>2021-08-10T18:21:10Z</time>
      </trkpt>
      <trkpt lat="45.87217" lon="3.01272">
        <ele>576</ele>
        <time>2021-08-10T18:21:11Z</time>
      </trkpt>
      <trkpt lat="45.87217" lon="3.01271">
        <ele>576</ele>
        <time>2021-08-10T18:21:12Z</time>
      </trkpt>
      <trkpt lat="45.87217" lon="3.0127">
        <ele>576</ele>
        <time>2021-08-10T18:21:13Z</time>
      </trkpt>
      <trkpt lat="45.87217" lon="3.01269">
        <ele>576</ele>
        <time>2021-08-10T18:21:14Z</time>
      </trkpt>
      <trkpt lat="45.87217" lon="3.01267">
        <ele>576</ele>
        <time>2021-08-10T18:21:16Z</time>
      </trkpt>
      <trkpt lat="45.87217" lon="3.01266">
        <ele>576</ele>
        <time>2021-08-10T18:21:17Z</time>
      </trkpt>
      <trkpt lat="45.87215" lon="3.01257">
        <ele>576</ele>
        <time>2021-08-10T18:21:18Z</time>
      </trkpt>
      <trkpt lat="45.87215" lon="3.01256">
        <ele>576</ele>
        <time>2021-08-10T18:21:19Z</time>
      </trkpt>
      <trkpt lat="45.87215" lon="3.01255">
        <ele>576</ele>
        <time>2021-08-10T18:21:20Z</time>
      </trkpt>
      <trkpt lat="45.87215" lon="3.01253">
        <ele>576</ele>
        <time>2021-08-10T18:21:21Z</time>
      </trkpt>
      <trkpt lat="45.87215" lon="3.01252">
        <ele>576</ele>
        <time>2021-08-10T18:21:23Z</time>
      </trkpt>
      <trkpt lat="45.87214" lon="3.01242">
        <ele>576</ele>
        <time>2021-08-10T18:21:24Z</time>
      </trkpt>
      <trkpt lat="45.87214" lon="3.01241">
        <ele>576</ele>
        <time>2021-08-10T18:21:26Z</time>
      </trkpt>
      <trkpt lat="45.87214" lon="3.01233">
        <ele>576</ele>
        <time>2021-08-10T18:21:27Z</time>
      </trkpt>
      <trkpt lat="45.87214" lon="3.01233">
        <ele>576</ele>
        <time>2021-08-10T18:21:28Z</time>
      </trkpt>
      <trkpt lat="45.87214" lon="3.01232">
        <ele>576</ele>
        <time>2021-08-10T18:21:29Z</time>
      </trkpt>
      <trkpt lat="45.87214" lon="3.01231">
        <ele>576</ele>
        <time>2021-08-10T18:21:30Z</time>
      </trkpt>
      <trkpt lat="45.87214" lon="3.01229">
        <ele>576</ele>
        <time>2021-08-10T18:21:32Z</time>
      </trkpt>
      <trkpt lat="45.87214" lon="3.01222">
        <ele>576</ele>
        <time>2021-08-10T18:21:33Z</time>
      </trkpt>
      <trkpt lat="45.87214" lon="3.01222">
        <ele>576</ele>
        <time>2021-08-10T18:21:34Z</time>
      </trkpt>
      <trkpt lat="45.87214" lon="3.01221">
        <ele>576</ele>
        <time>2021-08-10T18:21:36Z</time>
      </trkpt>
      <trkpt lat="45.87212" lon="3.01214">
        <ele>576</ele>
        <time>2021-08-10T18:21:37Z</time>
      </trkpt>
      <trkpt lat="45.87212" lon="3.01213">
        <ele>576</ele>
        <time>2021-08-10T18:21:38Z</time>
      </trkpt>
      <trkpt lat="45.87212" lon="3.01212">
        <ele>576</ele>
        <time>2021-08-10T18:21:39Z</time>
      </trkpt>
      <trkpt lat="45.87212" lon="3.0121">
        <ele>576</ele>
        <time>2021-08-10T18:21:40Z</time>
      </trkpt>
      <trkpt lat="45.87211" lon="3.01208">
        <ele>576</ele>
        <time>2021-08-10T18:21:42Z</time>
      </trkpt>
      <trkpt lat="45.87209" lon="3.012">
        <ele>576</ele>
        <time>2021-08-10T18:21:43Z</time>
      </trkpt>
      <trkpt lat="45.87209" lon="3.012">
        <ele>576</ele>
        <time>2021-08-10T18:21:45Z</time>
      </trkpt>
      <trkpt lat="45.87207" lon="3.01194">
        <ele>576</ele>
        <time>2021-08-10T18:21:46Z</time>
      </trkpt>
      <trkpt lat="45.87207" lon="3.01193">
        <ele>576</ele>
        <time>2021-08-10T18:21:47Z</time>
      </trkpt>
      <trkpt lat="45.87206" lon="3.01193">
        <ele>576</ele>
        <time>2021-08-10T18:21:48Z</time>
      </trkpt>
      <trkpt lat="45.87206" lon="3.01191">
        <ele>576</ele>
        <time>2021-08-10T18:21:50Z</time>
      </trkpt>
      <trkpt lat="45.87205" lon="3.01185">
        <ele>576</ele>
        <time>2021-08-10T18:21:51Z</time>
      </trkpt>
      <trkpt lat="45.87205" lon="3.01185">
        <ele>576</ele>
        <time>2021-08-10T18:21:53Z</time>
      </trkpt>
      <trkpt lat="45.87204" lon="3.01179">
        <ele>576</ele>
        <time>2021-08-10T18:21:54Z</time>
      </trkpt>
      <trkpt lat="45.87204" lon="3.01179">
        <ele>576</ele>
        <time>2021-08-10T18:21:56Z</time>
      </trkpt>
      <trkpt lat="45.87204" lon="3.01178">
        <ele>576</ele>
        <time>2021-08-10T18:21:57Z</time>
      </trkpt>
      <trkpt lat="45.87203" lon="3.01177">
        <ele>576</ele>
        <time>2021-08-10T18:21:58Z</time>
      </trkpt>
      <trkpt lat="45.87198" lon="3.0117">
        <ele>576</ele>
        <time>2021-08-10T18:21:59Z</time>
      </trkpt>
      <trkpt lat="45.87198" lon="3.0117">
        <ele>576</ele>
        <time>2021-08-10T18:22:00Z</time>
      </trkpt>
      <trkpt lat="45.87196" lon="3.01169">
        <ele>576</ele>
        <time>2021-08-10T18:22:02Z</time>
      </trkpt>
      <trkpt lat="45.87191" lon="3.01163">
        <ele>576</ele>
        <time>2021-08-10T18:22:03Z</time>
      </trkpt>
      <trkpt lat="45.87191" lon="3.01162">
        <ele>576</ele>
        <time>2021-08-10T18:22:05Z</time>
      </trkpt>
      <trkpt lat="45.87188" lon="3.01157">
        <ele>576</ele>
        <time>2021-08-10T18:22:06Z</time>
      </trkpt>
      <trkpt lat="45.87188" lon="3.01157">
        <ele>576</ele>
        <time>2021-08-10T18:22:08Z</time>
      </trkpt>
      <trkpt lat="45.87186" lon="3.01152">
        <ele>576</ele>
        <time>2021-08-10T18:22:09Z</time>
      </trkpt>
      <trkpt lat="45.87186" lon="3.01151">
        <ele>576</ele>
        <time>2021-08-10T18:22:11Z</time>
      </trkpt>
      <trkpt lat="45.87186" lon="3.01146">
        <ele>576</ele>
        <time>2021-08-10T18:22:12Z</time>
      </trkpt>
      <trkpt lat="45.87186" lon="3.01146">
        <ele>576</ele>
        <time>2021-08-10T18:22:14Z</time>
      </trkpt>
      <trkpt lat="45.87185" lon="3.01142">
        <ele>576</ele>
        <time>2021-08-10T18:22:15Z</time>
      </trkpt>
      <trkpt lat="45.87185" lon="3.01142">
        <ele>576</ele>
        <time>2021-08-10T18:22:16Z</time>
      </trkpt>
      <trkpt lat="45.87185" lon="3.01141">
        <ele>576</ele>
        <time>2021-08-10T18:22:17Z</time>
      </trkpt>
      <trkpt lat="45.87185" lon="3.0114">
        <ele>576</ele>
        <time>2021-08-10T18:22:18Z</time>
      </trkpt>
      <trkpt lat="45.87184" lon="3.01139">
        <ele>576</ele>
        <time>2021-08-10T18:22:19Z</time>
      </trkpt>
      <trkpt lat="45.87184" lon="3.01138">
        <ele>576</ele>
        <time>2021-08-10T18:22:20Z</time>
      </trkpt>
      <trkpt lat="45.87185" lon="3.01137">
        <ele>576</ele>
        <time>2021-08-10T18:22:22Z</time>
      </trkpt>
      <trkpt lat="45.87185" lon="3.01133">
        <ele>576</ele>
        <time>2021-08-10T18:22:23Z</time>
      </trkpt>
      <trkpt lat="45.87185" lon="3.01133">
        <ele>576</ele>
        <time>2021-08-10T18:22:24Z</time>
      </trkpt>
      <trkpt lat="45.87185" lon="3.01133">
        <ele>576</ele>
        <time>2021-08-10T18:22:25Z</time>
      </trkpt>
      <trkpt lat="45.87185" lon="3.01132">
        <ele>576</ele>
        <time>2021-08-10T18:22:26Z</time>
      </trkpt>
      <trkpt lat="45.87185" lon="3.0113">
        <ele>576</ele>
        <time>2021-08-10T18:22:28Z</time>
      </trkpt>
      <trkpt lat="45.87184" lon="3.01123">
        <ele>576</ele>
        <time>2021-08-10T18:22:29Z</time>
      </trkpt>
      <trkpt lat="45.87184" lon="3.01123">
        <ele>576</ele>
        <time>2021-08-10T18:22:31Z</time>
      </trkpt>
      <trkpt lat="45.87182" lon="3.01118">
        <ele>576</ele>
        <time>2021-08-10T18:22:32Z</time>
      </trkpt>
      <trkpt lat="45.87182" lon="3.01117">
        <ele>576</ele>
        <time>2021-08-10T18:22:34Z</time>
      </trkpt>
      <trkpt lat="45.87181" lon="3.01113">
        <ele>576</ele>
        <time>2021-08-10T18:22:35Z</time>
      </trkpt>
      <trkpt lat="45.87181" lon="3.01112">
        <ele>576</ele>
        <time>2021-08-10T18:22:36Z</time>
      </trkpt>
      <trkpt lat="45.8718" lon="3.01111">
        <ele>576</ele>
        <time>2021-08-10T18:22:37Z</time>
      </trkpt>
      <trkpt lat="45.8718" lon="3.0111">
        <ele>576</ele>
        <time>2021-08-10T18:22:38Z</time>
      </trkpt>
      <trkpt lat="45.87179" lon="3.01109">
        <ele>576</ele>
        <time>2021-08-10T18:22:39Z</time>
      </trkpt>
      <trkpt lat="45.87178" lon="3.01108">
        <ele>576</ele>
        <time>2021-08-10T18:22:40Z</time>
      </trkpt>
      <trkpt lat="45.87178" lon="3.01106">
        <ele>576</ele>
        <time>2021-08-10T18:22:42Z</time>
      </trkpt>
      <trkpt lat="45.87177" lon="3.01105">
        <ele>576</ele>
        <time>2021-08-10T18:22:43Z</time>
      </trkpt>
      <trkpt lat="45.87174" lon="3.01099">
        <ele>576</ele>
        <time>2021-08-10T18:22:44Z</time>
      </trkpt>
      <trkpt lat="45.87174" lon="3.01099">
        <ele>576</ele>
        <time>2021-08-10T18:22:45Z</time>
      </trkpt>
      <trkpt lat="45.87174" lon="3.01098">
        <ele>576</ele>
        <time>2021-08-10T18:22:46Z</time>
      </trkpt>
      <trkpt lat="45.87173" lon="3.01096">
        <ele>576</ele>
        <time>2021-08-10T18:22:48Z</time>
      </trkpt>
      <trkpt lat="45.87171" lon="3.01087">
        <ele>576</ele>
        <time>2021-08-10T18:22:49Z</time>
      </trkpt>
      <trkpt lat="45.87171" lon="3.01086">
        <ele>576</ele>
        <time>2021-08-10T18:22:51Z</time>
      </trkpt>
      <trkpt lat="45.87168" lon="3.01079">
        <ele>576</ele>
        <time>2021-08-10T18:22:52Z</time>
      </trkpt>
      <trkpt lat="45.87168" lon="3.01078">
        <ele>576</ele>
        <time>2021-08-10T18:22:53Z</time>
      </trkpt>
      <trkpt lat="45.87167" lon="3.01077">
        <ele>576</ele>
        <time>2021-08-10T18:22:54Z</time>
      </trkpt>
      <trkpt lat="45.87167" lon="3.01075">
        <ele>576</ele>
        <time>2021-08-10T18:22:56Z</time>
      </trkpt>
      <trkpt lat="45.87167" lon="3.01073">
        <ele>576</ele>
        <time>2021-08-10T18:22:57Z</time>
      </trkpt>
      <trkpt lat="45.87166" lon="3.01071">
        <ele>576</ele>
        <time>2021-08-10T18:22:58Z</time>
      </trkpt>
      <trkpt lat="45.87164" lon="3.01063">
        <ele>576</ele>
        <time>2021-08-10T18:22:59Z</time>
      </trkpt>
      <trkpt lat="45.87164" lon="3.01062">
        <ele>576</ele>
        <time>2021-08-10T18:23:01Z</time>
      </trkpt>
      <trkpt lat="45.87164" lon="3.01057">
        <ele>576</ele>
        <time>2021-08-10T18:23:02Z</time>
      </trkpt>
      <trkpt lat="45.87164" lon="3.01057">
        <ele>576</ele>
        <time>2021-08-10T18:23:04Z</time>
      </trkpt>
      <trkpt lat="45.87164" lon="3.01053">
        <ele>576</ele>
        <time>2021-08-10T18:23:05Z</time>
      </trkpt>
      <trkpt lat="45.87164" lon="3.01053">
        <ele>576</ele>
        <time>2021-08-10T18:23:07Z</time>
      </trkpt>
      <trkpt lat="45.87164" lon="3.01048">
        <ele>576</ele>
        <time>2021-08-10T18:23:08Z</time>
      </trkpt>
      <trkpt lat="45.87164" lon="3.01048">
        <ele>576</ele>
        <time>2021-08-10T18:23:09Z</time>
      </trkpt>
      <trkpt lat="45.87164" lon="3.01047">
        <ele>576</ele>
        <time>2021-08-10T18:23:10Z</time>
      </trkpt>
      <trkpt lat="45.87164" lon="3.01046">
        <ele>576</ele>
        <time>2021-08-10T18:23:12Z</time>
      </trkpt>
      <trkpt lat="45.87164" lon="3.0104">
        <ele>576</ele>
        <time>2021-08-10T18:23:13Z</time>
      </trkpt>
      <trkpt lat="45.87164" lon="3.0104">
        <ele>576</ele>
        <time>2021-08-10T18:23:14Z</time>
      </trkpt>
      <trkpt lat="45.87164" lon="3.01039">
        <ele>576</ele>
        <time>2021-08-10T18:23:15Z</time>
      </trkpt>
      <trkpt lat="45.87164" lon="3.01038">
        <ele>576</ele>
        <time>2021-08-10T18:23:16Z</time>
      </trkpt>
      <trkpt lat="45.87164" lon="3.01036">
        <ele>576</ele>
        <time>2021-08-10T18:23:18Z</time>
      </trkpt>
      <trkpt lat="45.87164" lon="3.01027">
        <ele>576</ele>
        <time>2021-08-10T18:23:19Z</time>
      </trkpt>
      <trkpt lat="45.87164" lon="3.01026">
        <ele>576</ele>
        <time>2021-08-10T18:23:20Z</time>
      </trkpt>
      <trkpt lat="45.87164" lon="3.01025">
        <ele>576</ele>
        <time>2021-08-10T18:23:21Z</time>
      </trkpt>
      <trkpt lat="45.87164" lon="3.01023">
        <ele>576</ele>
        <time>2021-08-10T18:23:22Z</time>
      </trkpt>
      <trkpt lat="45.87164" lon="3.01021">
        <ele>576</ele>
        <time>2021-08-10T18:23:23Z</time>
      </trkpt>
      <trkpt lat="45.87164" lon="3.0102">
        <ele>576</ele>
        <time>2021-08-10T18:23:24Z</time>
      </trkpt>
      <trkpt lat="45.87163" lon="3.01018">
        <ele>576</ele>
        <time>2021-08-10T18:23:26Z</time>
      </trkpt>
      <trkpt lat="45.87163" lon="3.01011">
        <ele>576</ele>
        <time>2021-08-10T18:23:27Z</time>
      </trkpt>
      <trkpt lat="45.87163" lon="3.01011">
        <ele>576</ele>
        <time>2021-08-10T18:23:29Z</time>
      </trkpt>
      <trkpt lat="45.87164" lon="3.01005">
        <ele>576</ele>
        <time>2021-08-10T18:23:30Z</time>
      </trkpt>
      <trkpt lat="45.87164" lon="3.01005">
        <ele>576</ele>
        <time>2021-08-10T18:23:32Z</time>
      </trkpt>
      <trkpt lat="45.87164" lon="3.00998">
        <ele>576</ele>
        <time>2021-08-10T18:23:33Z</time>
      </trkpt>
      <trkpt lat="45.87164" lon="3.00998">
        <ele>576</ele>
        <time>2021-08-10T18:23:35Z</time>
      </trkpt>
      <trkpt lat="45.87161" lon="3.0099">
        <ele>576</ele>
        <time>2021-08-10T18:23:36Z</time>
      </trkpt>
      <trkpt lat="45.87161" lon="3.00989">
        <ele>576</ele>
        <time>2021-08-10T18:23:37Z</time>
      </trkpt>
      <trkpt lat="45.87161" lon="3.00988">
        <ele>576</ele>
        <time>2021-08-10T18:23:38Z</time>
      </trkpt>
      <trkpt lat="45.8716" lon="3.00986">
        <ele>576</ele>
        <time>2021-08-10T18:23:40Z</time>
      </trkpt>
      <trkpt lat="45.87159" lon="3.00979">
        <ele>576</ele>
        <time>2021-08-10T18:23:41Z</time>
      </trkpt>
      <trkpt lat="45.87159" lon="3.00979">
        <ele>576</ele>
        <time>2021-08-10T18:23:42Z</time>
      </trkpt>
      <trkpt lat="45.87159" lon="3.00977">
        <ele>576</ele>
        <time>2021-08-10T18:23:43Z</time>
      </trkpt>
      <trkpt lat="45.87159" lon="3.00976">
        <ele>576</ele>
        <time>2021-08-10T18:23:44Z</time>
      </trkpt>
      <trkpt lat="45.87159" lon="3.00973">
        <ele>576</ele>
        <time>2021-08-10T18:23:45Z</time>
      </trkpt>
      <trkpt lat="45.87159" lon="3.00971">
        <ele>576</ele>
        <time>2021-08-10T18:23:46Z</time>
      </trkpt>
      <trkpt lat="45.87159" lon="3.00968">
        <ele>576</ele>
        <time>2021-08-10T18:23:46Z</time>
      </trkpt>
      <trkpt lat="45.87159" lon="3.00965">
        <ele>576</ele>
        <time>2021-08-10T18:23:47Z</time>
      </trkpt>
      <trkpt lat="45.87159" lon="3.00962">
        <ele>576</ele>
        <time>2021-08-10T18:23:48Z</time>
      </trkpt>
      <trkpt lat="45.87159" lon="3.00959">
        <ele>576</ele>
        <time>2021-08-10T18:23:49Z</time>
      </trkpt>
      <trkpt lat="45.87159" lon="3.00956">
        <ele>576</ele>
        <time>2021-08-10T18:23:50Z</time>
      </trkpt>
      <trkpt lat="45.87159" lon="3.00954">
        <ele>576</ele>
        <time>2021-08-10T18:23:51Z</time>
      </trkpt>
      <trkpt lat="45.87159" lon="3.00952">
        <ele>576</ele>
        <time>2021-08-10T18:23:53Z</time>
      </trkpt>
      <trkpt lat="45.87159" lon="3.00944">
        <ele>576</ele>
        <time>2021-08-10T18:23:54Z</time>
      </trkpt>
      <trkpt lat="45.87159" lon="3.00944">
        <ele>576</ele>
        <time>2021-08-10T18:23:56Z</time>
      </trkpt>
      <trkpt lat="45.87159" lon="3.00942">
        <ele>576</ele>
        <time>2021-08-10T18:23:57Z</time>
      </trkpt>
      <trkpt lat="45.8716" lon="3.00933">
        <ele>576</ele>
        <time>2021-08-10T18:23:58Z</time>
      </trkpt>
      <trkpt lat="45.8716" lon="3.00933">
        <ele>576</ele>
        <time>2021-08-10T18:23:59Z</time>
      </trkpt>
      <trkpt lat="45.8716" lon="3.00931">
        <ele>576</ele>
        <time>2021-08-10T18:24:01Z</time>
      </trkpt>
      <trkpt lat="45.87159" lon="3.00923">
        <ele>576</ele>
        <time>2021-08-10T18:24:02Z</time>
      </trkpt>
      <trkpt lat="45.87159" lon="3.00922">
        <ele>576</ele>
        <time>2021-08-10T18:24:03Z</time>
      </trkpt>
      <trkpt lat="45.87159" lon="3.00921">
        <ele>576</ele>
        <time>2021-08-10T18:24:04Z</time>
      </trkpt>
      <trkpt lat="45.87159" lon="3.0092">
        <ele>576</ele>
        <time>2021-08-10T18:24:06Z</time>
      </trkpt>
      <trkpt lat="45.87158" lon="3.00918">
        <ele>576</ele>
        <time>2021-08-10T18:24:07Z</time>
      </trkpt>
      <trkpt lat="45.87156" lon="3.0091">
        <ele>576</ele>
        <time>2021-08-10T18:24:08Z</time>
      </trkpt>
      <trkpt lat="45.87155" lon="3.00909">
        <ele>576</ele>
        <time>2021-08-10T18:24:09Z</time>
      </trkpt>
      <trkpt lat="45.87155" lon="3.00908">
        <ele>576</ele>
        <time>2021-08-10T18:24:10Z</time>
      </trkpt>
      <trkpt lat="45.87154" lon="3.00907">
        <ele>576</ele>
        <time>2021-08-10T18:24:11Z</time>
      </trkpt>
      <trkpt lat="45.87154" lon="3.00906">
        <ele>576</ele>
        <time>2021-08-10T18:24:12Z</time>
      </trkpt>
      <trkpt lat="45.87154" lon="3.00904">
        <ele>576</ele>
        <time>2021-08-10T18:24:13Z</time>
      </trkpt>
      <trkpt lat="45.87153" lon="3.00902">
        <ele>576</ele>
        <time>2021-08-10T18:24:14Z</time>
      </trkpt>
      <trkpt lat="45.87153" lon="3.009">
        <ele>576</ele>
        <time>2021-08-10T18:24:16Z</time>
      </trkpt>
      <trkpt lat="45.87151" lon="3.0089">
        <ele>576</ele>
        <time>2021-08-10T18:24:17Z</time>
      </trkpt>
      <trkpt lat="45.87151" lon="3.0089">
        <ele>576</ele>
        <time>2021-08-10T18:24:18Z</time>
      </trkpt>
      <trkpt lat="45.87151" lon="3.00889">
        <ele>576</ele>
        <time>2021-08-10T18:24:19Z</time>
      </trkpt>
      <trkpt lat="45.87151" lon="3.00887">
        <ele>576</ele>
        <time>2021-08-10T18:24:21Z</time>
      </trkpt>
      <trkpt lat="45.87149" lon="3.00882">
        <ele>576</ele>
        <time>2021-08-10T18:24:22Z</time>
      </trkpt>
      <trkpt lat="45.87149" lon="3.00881">
        <ele>576</ele>
        <time>2021-08-10T18:24:24Z</time>
      </trkpt>
      <trkpt lat="45.87149" lon="3.00877">
        <ele>576</ele>
        <time>2021-08-10T18:24:25Z</time>
      </trkpt>
      <trkpt lat="45.87149" lon="3.00877">
        <ele>576</ele>
        <time>2021-08-10T18:24:26Z</time>
      </trkpt>
      <trkpt lat="45.87148" lon="3.00876">
        <ele>576</ele>
        <time>2021-08-10T18:24:27Z</time>
      </trkpt>
      <trkpt lat="45.87148" lon="3.00874">
        <ele>576</ele>
        <time>2021-08-10T18:24:29Z</time>
      </trkpt>
      <trkpt lat="45.87146" lon="3.00866">
        <ele>576</ele>
        <time>2021-08-10T18:24:30Z</time>
      </trkpt>
      <trkpt lat="45.87146" lon="3.00866">
        <ele>576</ele>
        <time>2021-08-10T18:24:31Z</time>
      </trkpt>
      <trkpt lat="45.87145" lon="3.00864">
        <ele>576</ele>
        <time>2021-08-10T18:24:32Z</time>
      </trkpt>
      <trkpt lat="45.87145" lon="3.00863">
        <ele>576</ele>
        <time>2021-08-10T18:24:33Z</time>
      </trkpt>
      <trkpt lat="45.87144" lon="3.0086">
        <ele>576</ele>
        <time>2021-08-10T18:24:35Z</time>
      </trkpt>
      <trkpt lat="45.8714" lon="3.00851">
        <ele>576</ele>
        <time>2021-08-10T18:24:36Z</time>
      </trkpt>
      <trkpt lat="45.8714" lon="3.0085">
        <ele>576</ele>
        <time>2021-08-10T18:24:37Z</time>
      </trkpt>
      <trkpt lat="45.87139" lon="3.00849">
        <ele>576</ele>
        <time>2021-08-10T18:24:38Z</time>
      </trkpt>
      <trkpt lat="45.87139" lon="3.00848">
        <ele>576</ele>
        <time>2021-08-10T18:24:39Z</time>
      </trkpt>
      <trkpt lat="45.87138" lon="3.00847">
        <ele>576</ele>
        <time>2021-08-10T18:24:40Z</time>
      </trkpt>
      <trkpt lat="45.87138" lon="3.00845">
        <ele>576</ele>
        <time>2021-08-10T18:24:41Z</time>
      </trkpt>
      <trkpt lat="45.87138" lon="3.00844">
        <ele>576</ele>
        <time>2021-08-10T18:24:43Z</time>
      </trkpt>
      <trkpt lat="45.87137" lon="3.00835">
        <ele>576</ele>
        <time>2021-08-10T18:24:44Z</time>
      </trkpt>
      <trkpt lat="45.87137" lon="3.00834">
        <ele>576</ele>
        <time>2021-08-10T18:24:46Z</time>
      </trkpt>
      <trkpt lat="45.87135" lon="3.00827">
        <ele>576</ele>
        <time>2021-08-10T18:24:47Z</time>
      </trkpt>
      <trkpt lat="45.87135" lon="3.00827">
        <ele>576</ele>
        <time>2021-08-10T18:24:49Z</time>
      </trkpt>
      <trkpt lat="45.87135" lon="3.0082">
        <ele>576</ele>
        <time>2021-08-10T18:24:50Z</time>
      </trkpt>
      <trkpt lat="45.87135" lon="3.0082">
        <ele>576</ele>
        <time>2021-08-10T18:24:51Z</time>
      </trkpt>
      <trkpt lat="45.87135" lon="3.00819">
        <ele>576</ele>
        <time>2021-08-10T18:24:52Z</time>
      </trkpt>
      <trkpt lat="45.87135" lon="3.00818">
        <ele>576</ele>
        <time>2021-08-10T18:24:53Z</time>
      </trkpt>
      <trkpt lat="45.87135" lon="3.00817">
        <ele>576</ele>
        <time>2021-08-10T18:24:55Z</time>
      </trkpt>
      <trkpt lat="45.87135" lon="3.00815">
        <ele>576</ele>
        <time>2021-08-10T18:24:56Z</time>
      </trkpt>
      <trkpt lat="45.87135" lon="3.00814">
        <ele>576</ele>
        <time>2021-08-10T18:24:57Z</time>
      </trkpt>
      <trkpt lat="45.87135" lon="3.00809">
        <ele>576</ele>
        <time>2021-08-10T18:24:59Z</time>
      </trkpt>
      <trkpt lat="45.87135" lon="3.00806">
        <ele>576</ele>
        <time>2021-08-10T18:25:00Z</time>
      </trkpt>
      <trkpt lat="45.87135" lon="3.00805">
        <ele>576</ele>
        <time>2021-08-10T18:25:01Z</time>
      </trkpt>
      <trkpt lat="45.87135" lon="3.00804">
        <ele>576</ele>
        <time>2021-08-10T18:25:02Z</time>
      </trkpt>
      <trkpt lat="45.87135" lon="3.00803">
        <ele>576</ele>
        <time>2021-08-10T18:25:03Z</time>
      </trkpt>
      <trkpt lat="45.87134" lon="3.008">
        <ele>576</ele>
        <time>2021-08-10T18:25:04Z</time>
      </trkpt>
      <trkpt lat="45.87133" lon="3.00798">
        <ele>576</ele>
        <time>2021-08-10T18:25:05Z</time>
      </trkpt>
      <trkpt lat="45.87132" lon="3.00795">
        <ele>576</ele>
        <time>2021-08-10T18:25:07Z</time>
      </trkpt>
      <trkpt lat="45.87128" lon="3.00786">
        <ele>576</ele>
        <time>2021-08-10T18:25:08Z</time>
      </trkpt>
      <trkpt lat="45.87128" lon="3.00785">
        <ele>576</ele>
        <time>2021-08-10T18:25:10Z</time>
      </trkpt>
      <trkpt lat="45.87123" lon="3.00781">
        <ele>576</ele>
        <time>2021-08-10T18:25:11Z</time>
      </trkpt>
      <trkpt lat="45.87123" lon="3.00781">
        <ele>576</ele>
        <time>2021-08-10T18:25:13Z</time>
      </trkpt>
      <trkpt lat="45.87121" lon="3.00779">
        <ele>576</ele>
        <time>2021-08-10T18:25:14Z</time>
      </trkpt>
      <trkpt lat="45.87121" lon="3.00779">
        <ele>576</ele>
        <time>2021-08-10T18:25:16Z</time>
      </trkpt>
      <trkpt lat="45.8712" lon="3.00777">
        <ele>576</ele>
        <time>2021-08-10T18:25:17Z</time>
      </trkpt>
      <trkpt lat="45.8712" lon="3.00776">
        <ele>576</ele>
        <time>2021-08-10T18:25:19Z</time>
      </trkpt>
      <trkpt lat="45.87116" lon="3.00775">
        <ele>576</ele>
        <time>2021-08-10T18:25:20Z</time>
      </trkpt>
      <trkpt lat="45.87116" lon="3.00775">
        <ele>576</ele>
        <time>2021-08-10T18:25:21Z</time>
      </trkpt>
      <trkpt lat="45.87115" lon="3.00774">
        <ele>576</ele>
        <time>2021-08-10T18:25:22Z</time>
      </trkpt>
      <trkpt lat="45.87114" lon="3.00773">
        <ele>576</ele>
        <time>2021-08-10T18:25:23Z</time>
      </trkpt>
      <trkpt lat="45.87112" lon="3.00773">
        <ele>576</ele>
        <time>2021-08-10T18:25:25Z</time>
      </trkpt>
      <trkpt lat="45.87108" lon="3.00771">
        <ele>576</ele>
        <time>2021-08-10T18:25:26Z</time>
      </trkpt>
      <trkpt lat="45.87108" lon="3.0077">
        <ele>576</ele>
        <time>2021-08-10T18:25:27Z</time>
      </trkpt>
      <trkpt lat="45.87107" lon="3.0077">
        <ele>576</ele>
        <time>2021-08-10T18:25:28Z</time>
      </trkpt>
      <trkpt lat="45.87106" lon="3.0077">
        <ele>576</ele>
        <time>2021-08-10T18:25:29Z</time>
      </trkpt>
      <trkpt lat="45.87105" lon="3.0077">
        <ele>576</ele>
        <time>2021-08-10T18:25:31Z</time>
      </trkpt>
      <trkpt lat="45.87099" lon="3.00768">
        <ele>576</ele>
        <time>2021-08-10T18:25:32Z</time>
      </trkpt>
      <trkpt lat="45.87098" lon="3.00768">
        <ele>576</ele>
        <time>2021-08-10T18:25:33Z</time>
      </trkpt>
      <trkpt lat="45.87097" lon="3.00768">
        <ele>576</ele>
        <time>2021-08-10T18:25:35Z</time>
      </trkpt>
      <trkpt lat="45.87093" lon="3.00766">
        <ele>576</ele>
        <time>2021-08-10T18:25:37Z</time>
      </trkpt>
      <trkpt lat="45.8709" lon="3.00765">
        <ele>576</ele>
        <time>2021-08-10T18:25:38Z</time>
      </trkpt>
      <trkpt lat="45.8709" lon="3.00765">
        <ele>576</ele>
        <time>2021-08-10T18:25:39Z</time>
      </trkpt>
      <trkpt lat="45.87089" lon="3.00765">
        <ele>576</ele>
        <time>2021-08-10T18:25:40Z</time>
      </trkpt>
      <trkpt lat="45.87088" lon="3.00765">
        <ele>576</ele>
        <time>2021-08-10T18:25:41Z</time>
      </trkpt>
      <trkpt lat="45.87087" lon="3.00764">
        <ele>576</ele>
        <time>2021-08-10T18:25:43Z</time>
      </trkpt>
      <trkpt lat="45.87081" lon="3.00763">
        <ele>576</ele>
        <time>2021-08-10T18:25:44Z</time>
      </trkpt>
      <trkpt lat="45.87081" lon="3.00763">
        <ele>576</ele>
        <time>2021-08-10T18:25:45Z</time>
      </trkpt>
      <trkpt lat="45.8708" lon="3.00763">
        <ele>576</ele>
        <time>2021-08-10T18:25:46Z</time>
      </trkpt>
      <trkpt lat="45.8708" lon="3.00763">
        <ele>576</ele>
        <time>2021-08-10T18:25:47Z</time>
      </trkpt>
      <trkpt lat="45.87079" lon="3.00763">
        <ele>576</ele>
        <time>2021-08-10T18:25:49Z</time>
      </trkpt>
      <trkpt lat="45.87074" lon="3.00762">
        <ele>576</ele>
        <time>2021-08-10T18:25:50Z</time>
      </trkpt>
      <trkpt lat="45.87074" lon="3.00762">
        <ele>576</ele>
        <time>2021-08-10T18:25:51Z</time>
      </trkpt>
      <trkpt lat="45.87074" lon="3.00762">
        <ele>576</ele>
        <time>2021-08-10T18:25:52Z</time>
      </trkpt>
      <trkpt lat="45.87072" lon="3.00762">
        <ele>576</ele>
        <time>2021-08-10T18:25:53Z</time>
      </trkpt>
      <trkpt lat="45.87072" lon="3.00762">
        <ele>576</ele>
        <time>2021-08-10T18:25:55Z</time>
      </trkpt>
      <trkpt lat="45.87071" lon="3.00762">
        <ele>576</ele>
        <time>2021-08-10T18:25:56Z</time>
      </trkpt>
      <trkpt lat="45.87069" lon="3.00762">
        <ele>576</ele>
        <time>2021-08-10T18:25:57Z</time>
      </trkpt>
      <trkpt lat="45.87066" lon="3.00761">
        <ele>576</ele>
        <time>2021-08-10T18:25:59Z</time>
      </trkpt>
      <trkpt lat="45.87064" lon="3.00759">
        <ele>576</ele>
        <time>2021-08-10T18:26:00Z</time>
      </trkpt>
      <trkpt lat="45.87063" lon="3.00759">
        <ele>576</ele>
        <time>2021-08-10T18:26:01Z</time>
      </trkpt>
      <trkpt lat="45.87063" lon="3.00758">
        <ele>576</ele>
        <time>2021-08-10T18:26:02Z</time>
      </trkpt>
      <trkpt lat="45.87063" lon="3.00757">
        <ele>576</ele>
        <time>2021-08-10T18:26:03Z</time>
      </trkpt>
      <trkpt lat="45.87063" lon="3.00756">
        <ele>576</ele>
        <time>2021-08-10T18:26:05Z</time>
      </trkpt>
      <trkpt lat="45.87062" lon="3.00751">
        <ele>576</ele>
        <time>2021-08-10T18:26:06Z</time>
      </trkpt>
      <trkpt lat="45.87062" lon="3.0075">
        <ele>576</ele>
        <time>2021-08-10T18:26:08Z</time>
      </trkpt>
      <trkpt lat="45.87061" lon="3.00746">
        <ele>576</ele>
        <time>2021-08-10T18:26:09Z</time>
      </trkpt>
      <trkpt lat="45.87061" lon="3.00746">
        <ele>576</ele>
        <time>2021-08-10T18:26:11Z</time>
      </trkpt>
      <trkpt lat="45.8706" lon="3.00741">
        <ele>576</ele>
        <time>2021-08-10T18:26:12Z</time>
      </trkpt>
      <trkpt lat="45.8706" lon="3.0074">
        <ele>576</ele>
        <time>2021-08-10T18:26:14Z</time>
      </trkpt>
      <trkpt lat="45.87059" lon="3.00735">
        <ele>576</ele>
        <time>2021-08-10T18:26:15Z</time>
      </trkpt>
      <trkpt lat="45.87059" lon="3.00734">
        <ele>576</ele>
        <time>2021-08-10T18:26:17Z</time>
      </trkpt>
      <trkpt lat="45.87058" lon="3.00728">
        <ele>576</ele>
        <time>2021-08-10T18:26:18Z</time>
      </trkpt>
      <trkpt lat="45.87058" lon="3.00727">
        <ele>576</ele>
        <time>2021-08-10T18:26:20Z</time>
      </trkpt>
      <trkpt lat="45.87056" lon="3.00722">
        <ele>576</ele>
        <time>2021-08-10T18:26:21Z</time>
      </trkpt>
      <trkpt lat="45.87056" lon="3.00721">
        <ele>576</ele>
        <time>2021-08-10T18:26:22Z</time>
      </trkpt>
      <trkpt lat="45.87056" lon="3.0072">
        <ele>576</ele>
        <time>2021-08-10T18:26:23Z</time>
      </trkpt>
      <trkpt lat="45.87055" lon="3.00719">
        <ele>576</ele>
        <time>2021-08-10T18:26:25Z</time>
      </trkpt>
      <trkpt lat="45.87054" lon="3.00712">
        <ele>576</ele>
        <time>2021-08-10T18:26:26Z</time>
      </trkpt>
      <trkpt lat="45.87054" lon="3.00711">
        <ele>576</ele>
        <time>2021-08-10T18:26:27Z</time>
      </trkpt>
      <trkpt lat="45.87054" lon="3.0071">
        <ele>576</ele>
        <time>2021-08-10T18:26:28Z</time>
      </trkpt>
      <trkpt lat="45.87054" lon="3.00708">
        <ele>576</ele>
        <time>2021-08-10T18:26:29Z</time>
      </trkpt>
      <trkpt lat="45.87054" lon="3.00707">
        <ele>576</ele>
        <time>2021-08-10T18:26:31Z</time>
      </trkpt>
      <trkpt lat="45.87054" lon="3.00699">
        <ele>576</ele>
        <time>2021-08-10T18:26:32Z</time>
      </trkpt>
      <trkpt lat="45.87054" lon="3.00698">
        <ele>576</ele>
        <time>2021-08-10T18:26:33Z</time>
      </trkpt>
      <trkpt lat="45.87054" lon="3.00698">
        <ele>576</ele>
        <time>2021-08-10T18:26:34Z</time>
      </trkpt>
      <trkpt lat="45.87054" lon="3.00696">
        <ele>576</ele>
        <time>2021-08-10T18:26:35Z</time>
      </trkpt>
      <trkpt lat="45.87054" lon="3.00695">
        <ele>576</ele>
        <time>2021-08-10T18:26:37Z</time>
      </trkpt>
      <trkpt lat="45.87056" lon="3.00688">
        <ele>576</ele>
        <time>2021-08-10T18:26:38Z</time>
      </trkpt>
      <trkpt lat="45.87056" lon="3.00688">
        <ele>576</ele>
        <time>2021-08-10T18:26:39Z</time>
      </trkpt>
      <trkpt lat="45.87056" lon="3.00687">
        <ele>576</ele>
        <time>2021-08-10T18:26:40Z</time>
      </trkpt>
      <trkpt lat="45.87056" lon="3.00685">
        <ele>576</ele>
        <time>2021-08-10T18:26:41Z</time>
      </trkpt>
      <trkpt lat="45.87056" lon="3.00684">
        <ele>576</ele>
        <time>2021-08-10T18:26:42Z</time>
      </trkpt>
      <trkpt lat="45.87056" lon="3.00682">
        <ele>576</ele>
        <time>2021-08-10T18:26:43Z</time>
      </trkpt>
      <trkpt lat="45.87056" lon="3.0068">
        <ele>576</ele>
        <time>2021-08-10T18:26:45Z</time>
      </trkpt>
      <trkpt lat="45.87056" lon="3.00674">
        <ele>576</ele>
        <time>2021-08-10T18:26:46Z</time>
      </trkpt>
      <trkpt lat="45.87056" lon="3.00673">
        <ele>576</ele>
        <time>2021-08-10T18:26:47Z</time>
      </trkpt>
      <trkpt lat="45.87056" lon="3.00673">
        <ele>576</ele>
        <time>2021-08-10T18:26:48Z</time>
      </trkpt>
      <trkpt lat="45.87056" lon="3.00672">
        <ele>576</ele>
        <time>2021-08-10T18:26:50Z</time>
      </trkpt>
      <trkpt lat="45.87056" lon="3.00667">
        <ele>576</ele>
        <time>2021-08-10T18:26:51Z</time>
      </trkpt>
      <trkpt lat="45.87055" lon="3.00666">
        <ele>576</ele>
        <time>2021-08-10T18:26:53Z</time>
      </trkpt>
      <trkpt lat="45.87055" lon="3.00662">
        <ele>576</ele>
        <time>2021-08-10T18:26:56Z</time>
      </trkpt>
      <trkpt lat="45.87056" lon="3.00659">
        <ele>576</ele>
        <time>2021-08-10T18:26:57Z</time>
      </trkpt>
      <trkpt lat="45.87056" lon="3.00655">
        <ele>576</ele>
        <time>2021-08-10T18:26:58Z</time>
      </trkpt>
      <trkpt lat="45.87056" lon="3.00654">
        <ele>576</ele>
        <time>2021-08-10T18:26:59Z</time>
      </trkpt>
      <trkpt lat="45.87056" lon="3.00653">
        <ele>576</ele>
        <time>2021-08-10T18:27:01Z</time>
      </trkpt>
      <trkpt lat="45.87056" lon="3.00647">
        <ele>576</ele>
        <time>2021-08-10T18:27:02Z</time>
      </trkpt>
      <trkpt lat="45.87056" lon="3.00647">
        <ele>576</ele>
        <time>2021-08-10T18:27:03Z</time>
      </trkpt>
      <trkpt lat="45.87057" lon="3.00646">
        <ele>576</ele>
        <time>2021-08-10T18:27:04Z</time>
      </trkpt>
      <trkpt lat="45.87057" lon="3.00644">
        <ele>576</ele>
        <time>2021-08-10T18:27:05Z</time>
      </trkpt>
      <trkpt lat="45.87057" lon="3.00643">
        <ele>576</ele>
        <time>2021-08-10T18:27:07Z</time>
      </trkpt>
      <trkpt lat="45.87059" lon="3.00637">
        <ele>576</ele>
        <time>2021-08-10T18:27:09Z</time>
      </trkpt>
      <trkpt lat="45.87059" lon="3.00634">
        <ele>576</ele>
        <time>2021-08-10T18:27:10Z</time>
      </trkpt>
      <trkpt lat="45.87059" lon="3.00634">
        <ele>576</ele>
        <time>2021-08-10T18:27:11Z</time>
      </trkpt>
      <trkpt lat="45.8706" lon="3.00633">
        <ele>576</ele>
        <time>2021-08-10T18:27:12Z</time>
      </trkpt>
      <trkpt lat="45.8706" lon="3.00632">
        <ele>576</ele>
        <time>2021-08-10T18:27:13Z</time>
      </trkpt>
      <trkpt lat="45.8706" lon="3.0063">
        <ele>576</ele>
        <time>2021-08-10T18:27:15Z</time>
      </trkpt>
      <trkpt lat="45.87061" lon="3.00624">
        <ele>576</ele>
        <time>2021-08-10T18:27:16Z</time>
      </trkpt>
      <trkpt lat="45.87061" lon="3.00624">
        <ele>576</ele>
        <time>2021-08-10T18:27:17Z</time>
      </trkpt>
      <trkpt lat="45.87061" lon="3.00624">
        <ele>576</ele>
        <time>2021-08-10T18:27:18Z</time>
      </trkpt>
      <trkpt lat="45.87062" lon="3.00623">
        <ele>576</ele>
        <time>2021-08-10T18:27:19Z</time>
      </trkpt>
      <trkpt lat="45.87063" lon="3.00622">
        <ele>576</ele>
        <time>2021-08-10T18:27:20Z</time>
      </trkpt>
      <trkpt lat="45.87063" lon="3.00621">
        <ele>576</ele>
        <time>2021-08-10T18:27:21Z</time>
      </trkpt>
      <trkpt lat="45.87063" lon="3.0062">
        <ele>576</ele>
        <time>2021-08-10T18:27:23Z</time>
      </trkpt>
      <trkpt lat="45.87064" lon="3.00615">
        <ele>576</ele>
        <time>2021-08-10T18:27:24Z</time>
      </trkpt>
      <trkpt lat="45.87064" lon="3.00615">
        <ele>576</ele>
        <time>2021-08-10T18:27:25Z</time>
      </trkpt>
      <trkpt lat="45.87064" lon="3.00615">
        <ele>576</ele>
        <time>2021-08-10T18:27:26Z</time>
      </trkpt>
      <trkpt lat="45.87065" lon="3.00614">
        <ele>576</ele>
        <time>2021-08-10T18:27:27Z</time>
      </trkpt>
      <trkpt lat="45.87066" lon="3.00613">
        <ele>576</ele>
        <time>2021-08-10T18:27:28Z</time>
      </trkpt>
      <trkpt lat="45.87066" lon="3.00613">
        <ele>576</ele>
        <time>2021-08-10T18:27:30Z</time>
      </trkpt>
      <trkpt lat="45.87071" lon="3.00609">
        <ele>576</ele>
        <time>2021-08-10T18:27:31Z</time>
      </trkpt>
      <trkpt lat="45.87071" lon="3.00608">
        <ele>576</ele>
        <time>2021-08-10T18:27:32Z</time>
      </trkpt>
      <trkpt lat="45.87072" lon="3.00608">
        <ele>576</ele>
        <time>2021-08-10T18:27:33Z</time>
      </trkpt>
      <trkpt lat="45.87072" lon="3.00607">
        <ele>576</ele>
        <time>2021-08-10T18:27:34Z</time>
      </trkpt>
      <trkpt lat="45.87072" lon="3.00606">
        <ele>576</ele>
        <time>2021-08-10T18:27:35Z</time>
      </trkpt>
      <trkpt lat="45.87072" lon="3.00605">
        <ele>576</ele>
        <time>2021-08-10T18:27:37Z</time>
      </trkpt>
      <trkpt lat="45.87075" lon="3.00601">
        <ele>576</ele>
        <time>2021-08-10T18:27:38Z</time>
      </trkpt>
      <trkpt lat="45.87075" lon="3.00601">
        <ele>576</ele>
        <time>2021-08-10T18:27:40Z</time>
      </trkpt>
      <trkpt lat="45.87075" lon="3.00598">
        <ele>576</ele>
        <time>2021-08-10T18:27:41Z</time>
      </trkpt>
      <trkpt lat="45.87075" lon="3.00598">
        <ele>576</ele>
        <time>2021-08-10T18:27:43Z</time>
      </trkpt>
      <trkpt lat="45.87078" lon="3.00597">
        <ele>576</ele>
        <time>2021-08-10T18:27:44Z</time>
      </trkpt>
      <trkpt lat="45.87078" lon="3.00597">
        <ele>576</ele>
        <time>2021-08-10T18:27:46Z</time>
      </trkpt>
      <trkpt lat="45.8708" lon="3.00598">
        <ele>576</ele>
        <time>2021-08-10T18:27:47Z</time>
      </trkpt>
      <trkpt lat="45.8708" lon="3.00598">
        <ele>576</ele>
        <time>2021-08-10T18:27:49Z</time>
      </trkpt>
      <trkpt lat="45.87082" lon="3.00598">
        <ele>576</ele>
        <time>2021-08-10T18:27:50Z</time>
      </trkpt>
      <trkpt lat="45.87082" lon="3.00598">
        <ele>576</ele>
        <time>2021-08-10T18:27:52Z</time>
      </trkpt>
      <trkpt lat="45.87084" lon="3.00596">
        <ele>576</ele>
        <time>2021-08-10T18:27:53Z</time>
      </trkpt>
      <trkpt lat="45.87084" lon="3.00596">
        <ele>576</ele>
        <time>2021-08-10T18:27:55Z</time>
      </trkpt>
      <trkpt lat="45.87085" lon="3.00595">
        <ele>576</ele>
        <time>2021-08-10T18:27:56Z</time>
      </trkpt>
      <trkpt lat="45.87085" lon="3.00594">
        <ele>576</ele>
        <time>2021-08-10T18:27:57Z</time>
      </trkpt>
      <trkpt lat="45.8709" lon="3.0059">
        <ele>576</ele>
        <time>2021-08-10T18:27:59Z</time>
      </trkpt>
      <trkpt lat="45.87092" lon="3.00588">
        <ele>576</ele>
        <time>2021-08-10T18:28:00Z</time>
      </trkpt>
      <trkpt lat="45.87093" lon="3.00588">
        <ele>576</ele>
        <time>2021-08-10T18:28:01Z</time>
      </trkpt>
      <trkpt lat="45.87093" lon="3.00587">
        <ele>576</ele>
        <time>2021-08-10T18:28:01Z</time>
      </trkpt>
      <trkpt lat="45.87093" lon="3.00586">
        <ele>576</ele>
        <time>2021-08-10T18:28:02Z</time>
      </trkpt>
      <trkpt lat="45.87094" lon="3.00584">
        <ele>576</ele>
        <time>2021-08-10T18:28:04Z</time>
      </trkpt>
      <trkpt lat="45.87095" lon="3.00576">
        <ele>576</ele>
        <time>2021-08-10T18:28:05Z</time>
      </trkpt>
      <trkpt lat="45.87095" lon="3.00575">
        <ele>576</ele>
        <time>2021-08-10T18:28:06Z</time>
      </trkpt>
      <trkpt lat="45.87095" lon="3.00574">
        <ele>576</ele>
        <time>2021-08-10T18:28:07Z</time>
      </trkpt>
      <trkpt lat="45.87095" lon="3.00572">
        <ele>576</ele>
        <time>2021-08-10T18:28:08Z</time>
      </trkpt>
      <trkpt lat="45.87095" lon="3.0057">
        <ele>576</ele>
        <time>2021-08-10T18:28:09Z</time>
      </trkpt>
      <trkpt lat="45.87095" lon="3.00568">
        <ele>576</ele>
        <time>2021-08-10T18:28:10Z</time>
      </trkpt>
      <trkpt lat="45.87095" lon="3.00565">
        <ele>576</ele>
        <time>2021-08-10T18:28:12Z</time>
      </trkpt>
      <trkpt lat="45.87093" lon="3.00556">
        <ele>576</ele>
        <time>2021-08-10T18:28:13Z</time>
      </trkpt>
      <trkpt lat="45.87093" lon="3.00556">
        <ele>576</ele>
        <time>2021-08-10T18:28:14Z</time>
      </trkpt>
      <trkpt lat="45.87093" lon="3.00555">
        <ele>576</ele>
        <time>2021-08-10T18:28:15Z</time>
      </trkpt>
      <trkpt lat="45.87093" lon="3.00553">
        <ele>576</ele>
        <time>2021-08-10T18:28:16Z</time>
      </trkpt>
      <trkpt lat="45.87093" lon="3.00552">
        <ele>576</ele>
        <time>2021-08-10T18:28:18Z</time>
      </trkpt>
      <trkpt lat="45.87093" lon="3.00545">
        <ele>576</ele>
        <time>2021-08-10T18:28:19Z</time>
      </trkpt>
      <trkpt lat="45.87093" lon="3.00544">
        <ele>576</ele>
        <time>2021-08-10T18:28:20Z</time>
      </trkpt>
      <trkpt lat="45.87093" lon="3.00543">
        <ele>576</ele>
        <time>2021-08-10T18:28:21Z</time>
      </trkpt>
      <trkpt lat="45.87094" lon="3.00542">
        <ele>576</ele>
        <time>2021-08-10T18:28:22Z</time>
      </trkpt>
      <trkpt lat="45.87095" lon="3.00541">
        <ele>576</ele>
        <time>2021-08-10T18:28:24Z</time>
      </trkpt>
      <trkpt lat="45.87096" lon="3.00533">
        <ele>576</ele>
        <time>2021-08-10T18:28:25Z</time>
      </trkpt>
      <trkpt lat="45.87097" lon="3.00533">
        <ele>576</ele>
        <time>2021-08-10T18:28:26Z</time>
      </trkpt>
      <trkpt lat="45.87097" lon="3.00532">
        <ele>576</ele>
        <time>2021-08-10T18:28:27Z</time>
      </trkpt>
      <trkpt lat="45.87098" lon="3.00531">
        <ele>576</ele>
        <time>2021-08-10T18:28:28Z</time>
      </trkpt>
      <trkpt lat="45.87098" lon="3.0053">
        <ele>576</ele>
        <time>2021-08-10T18:28:29Z</time>
      </trkpt>
      <trkpt lat="45.87098" lon="3.00528">
        <ele>576</ele>
        <time>2021-08-10T18:28:30Z</time>
      </trkpt>
      <trkpt lat="45.87098" lon="3.00527">
        <ele>576</ele>
        <time>2021-08-10T18:28:32Z</time>
      </trkpt>
      <trkpt lat="45.87099" lon="3.0052">
        <ele>576</ele>
        <time>2021-08-10T18:28:33Z</time>
      </trkpt>
      <trkpt lat="45.87099" lon="3.0052">
        <ele>576</ele>
        <time>2021-08-10T18:28:34Z</time>
      </trkpt>
      <trkpt lat="45.87099" lon="3.00519">
        <ele>576</ele>
        <time>2021-08-10T18:28:35Z</time>
      </trkpt>
      <trkpt lat="45.87099" lon="3.00517">
        <ele>576</ele>
        <time>2021-08-10T18:28:36Z</time>
      </trkpt>
      <trkpt lat="45.871" lon="3.00516">
        <ele>576</ele>
        <time>2021-08-10T18:28:37Z</time>
      </trkpt>
      <trkpt lat="45.871" lon="3.00514">
        <ele>576</ele>
        <time>2021-08-10T18:28:38Z</time>
      </trkpt>
      <trkpt lat="45.871" lon="3.00512">
        <ele>576</ele>
        <time>2021-08-10T18:28:40Z</time>
      </trkpt>
      <trkpt lat="45.871" lon="3.0051">
        <ele>576</ele>
        <time>2021-08-10T18:28:41Z</time>
      </trkpt>
      <trkpt lat="45.871" lon="3.00502">
        <ele>576</ele>
        <time>2021-08-10T18:28:42Z</time>
      </trkpt>
      <trkpt lat="45.871" lon="3.00501">
        <ele>576</ele>
        <time>2021-08-10T18:28:43Z</time>
      </trkpt>
      <trkpt lat="45.871" lon="3.005">
        <ele>576</ele>
        <time>2021-08-10T18:28:44Z</time>
      </trkpt>
      <trkpt lat="45.871" lon="3.00498">
        <ele>576</ele>
        <time>2021-08-10T18:28:46Z</time>
      </trkpt>
      <trkpt lat="45.871" lon="3.0049">
        <ele>576</ele>
        <time>2021-08-10T18:28:47Z</time>
      </trkpt>
      <trkpt lat="45.871" lon="3.00489">
        <ele>576</ele>
        <time>2021-08-10T18:28:49Z</time>
      </trkpt>
      <trkpt lat="45.87101" lon="3.00484">
        <ele>576</ele>
        <time>2021-08-10T18:28:50Z</time>
      </trkpt>
      <trkpt lat="45.871" lon="3.00483">
        <ele>576</ele>
        <time>2021-08-10T18:28:51Z</time>
      </trkpt>
      <trkpt lat="45.871" lon="3.00482">
        <ele>576</ele>
        <time>2021-08-10T18:28:52Z</time>
      </trkpt>
      <trkpt lat="45.87101" lon="3.00481">
        <ele>576</ele>
        <time>2021-08-10T18:28:54Z</time>
      </trkpt>
      <trkpt lat="45.87101" lon="3.00479">
        <ele>576</ele>
        <time>2021-08-10T18:28:55Z</time>
      </trkpt>
      <trkpt lat="45.87101" lon="3.00478">
        <ele>576</ele>
        <time>2021-08-10T18:28:56Z</time>
      </trkpt>
      <trkpt lat="45.87101" lon="3.00476">
        <ele>576</ele>
        <time>2021-08-10T18:28:57Z</time>
      </trkpt>
      <trkpt lat="45.87101" lon="3.0047">
        <ele>576</ele>
        <time>2021-08-10T18:28:58Z</time>
      </trkpt>
      <trkpt lat="45.87101" lon="3.00469">
        <ele>576</ele>
        <time>2021-08-10T18:28:59Z</time>
      </trkpt>
      <trkpt lat="45.87101" lon="3.00469">
        <ele>576</ele>
        <time>2021-08-10T18:29:00Z</time>
      </trkpt>
      <trkpt lat="45.87101" lon="3.00468">
        <ele>576</ele>
        <time>2021-08-10T18:29:01Z</time>
      </trkpt>
      <trkpt lat="45.87101" lon="3.00466">
        <ele>576</ele>
        <time>2021-08-10T18:29:03Z</time>
      </trkpt>
      <trkpt lat="45.871" lon="3.00461">
        <ele>576</ele>
        <time>2021-08-10T18:29:04Z</time>
      </trkpt>
      <trkpt lat="45.871" lon="3.0046">
        <ele>576</ele>
        <time>2021-08-10T18:29:05Z</time>
      </trkpt>
      <trkpt lat="45.871" lon="3.00459">
        <ele>576</ele>
        <time>2021-08-10T18:29:06Z</time>
      </trkpt>
      <trkpt lat="45.871" lon="3.00458">
        <ele>576</ele>
        <time>2021-08-10T18:29:08Z</time>
      </trkpt>
      <trkpt lat="45.871" lon="3.00451">
        <ele>576</ele>
        <time>2021-08-10T18:29:09Z</time>
      </trkpt>
      <trkpt lat="45.87099" lon="3.0045">
        <ele>576</ele>
        <time>2021-08-10T18:29:10Z</time>
      </trkpt>
      <trkpt lat="45.87099" lon="3.00449">
        <ele>576</ele>
        <time>2021-08-10T18:29:12Z</time>
      </trkpt>
      <trkpt lat="45.87099" lon="3.00441">
        <ele>576</ele>
        <time>2021-08-10T18:29:13Z</time>
      </trkpt>
      <trkpt lat="45.87099" lon="3.0044">
        <ele>576</ele>
        <time>2021-08-10T18:29:15Z</time>
      </trkpt>
      <trkpt lat="45.87098" lon="3.00433">
        <ele>576</ele>
        <time>2021-08-10T18:29:16Z</time>
      </trkpt>
      <trkpt lat="45.87098" lon="3.00433">
        <ele>576</ele>
        <time>2021-08-10T18:29:18Z</time>
      </trkpt>
      <trkpt lat="45.87098" lon="3.00426">
        <ele>576</ele>
        <time>2021-08-10T18:29:19Z</time>
      </trkpt>
      <trkpt lat="45.87098" lon="3.00425">
        <ele>576</ele>
        <time>2021-08-10T18:29:21Z</time>
      </trkpt>
      <trkpt lat="45.87097" lon="3.0042">
        <ele>576</ele>
        <time>2021-08-10T18:29:22Z</time>
      </trkpt>
      <trkpt lat="45.87097" lon="3.0042">
        <ele>576</ele>
        <time>2021-08-10T18:29:23Z</time>
      </trkpt>
      <trkpt lat="45.87097" lon="3.00419">
        <ele>576</ele>
        <time>2021-08-10T18:29:24Z</time>
      </trkpt>
      <trkpt lat="45.87097" lon="3.00418">
        <ele>576</ele>
        <time>2021-08-10T18:29:25Z</time>
      </trkpt>
      <trkpt lat="45.87097" lon="3.00416">
        <ele>576</ele>
        <time>2021-08-10T18:29:27Z</time>
      </trkpt>
      <trkpt lat="45.87096" lon="3.00409">
        <ele>576</ele>
        <time>2021-08-10T18:29:28Z</time>
      </trkpt>
      <trkpt lat="45.87096" lon="3.00409">
        <ele>576</ele>
        <time>2021-08-10T18:29:29Z</time>
      </trkpt>
      <trkpt lat="45.87096" lon="3.00408">
        <ele>576</ele>
        <time>2021-08-10T18:29:30Z</time>
      </trkpt>
      <trkpt lat="45.87096" lon="3.00406">
        <ele>576</ele>
        <time>2021-08-10T18:29:32Z</time>
      </trkpt>
      <trkpt lat="45.87096" lon="3.00399">
        <ele>576</ele>
        <time>2021-08-10T18:29:33Z</time>
      </trkpt>
      <trkpt lat="45.87096" lon="3.00399">
        <ele>576</ele>
        <time>2021-08-10T18:29:34Z</time>
      </trkpt>
      <trkpt lat="45.87096" lon="3.00398">
        <ele>576</ele>
        <time>2021-08-10T18:29:35Z</time>
      </trkpt>
      <trkpt lat="45.87096" lon="3.00396">
        <ele>576</ele>
        <time>2021-08-10T18:29:36Z</time>
      </trkpt>
      <trkpt lat="45.87096" lon="3.00394">
        <ele>576</ele>
        <time>2021-08-10T18:29:37Z</time>
      </trkpt>
      <trkpt lat="45.87096" lon="3.00392">
        <ele>576</ele>
        <time>2021-08-10T18:29:38Z</time>
      </trkpt>
      <trkpt lat="45.87096" lon="3.00389">
        <ele>576</ele>
        <time>2021-08-10T18:29:40Z</time>
      </trkpt>
      <trkpt lat="45.87095" lon="3.0038">
        <ele>576</ele>
        <time>2021-08-10T18:29:41Z</time>
      </trkpt>
      <trkpt lat="45.87095" lon="3.00379">
        <ele>576</ele>
        <time>2021-08-10T18:29:42Z</time>
      </trkpt>
      <trkpt lat="45.87095" lon="3.00378">
        <ele>576</ele>
        <time>2021-08-10T18:29:43Z</time>
      </trkpt>
      <trkpt lat="45.87095" lon="3.00377">
        <ele>576</ele>
        <time>2021-08-10T18:29:44Z</time>
      </trkpt>
      <trkpt lat="45.87095" lon="3.00375">
        <ele>576</ele>
        <time>2021-08-10T18:29:46Z</time>
      </trkpt>
      <trkpt lat="45.87096" lon="3.00369">
        <ele>576</ele>
        <time>2021-08-10T18:29:47Z</time>
      </trkpt>
      <trkpt lat="45.87095" lon="3.00368">
        <ele>576</ele>
        <time>2021-08-10T18:29:48Z</time>
      </trkpt>
      <trkpt lat="45.87095" lon="3.00367">
        <ele>576</ele>
        <time>2021-08-10T18:29:49Z</time>
      </trkpt>
      <trkpt lat="45.87095" lon="3.00366">
        <ele>576</ele>
        <time>2021-08-10T18:29:50Z</time>
      </trkpt>
      <trkpt lat="45.87094" lon="3.00364">
        <ele>576</ele>
        <time>2021-08-10T18:29:51Z</time>
      </trkpt>
      <trkpt lat="45.87094" lon="3.00363">
        <ele>576</ele>
        <time>2021-08-10T18:29:52Z</time>
      </trkpt>
      <trkpt lat="45.87093" lon="3.00361">
        <ele>576</ele>
        <time>2021-08-10T18:29:54Z</time>
      </trkpt>
      <trkpt lat="45.87093" lon="3.0036">
        <ele>576</ele>
        <time>2021-08-10T18:29:55Z</time>
      </trkpt>
      <trkpt lat="45.87093" lon="3.00358">
        <ele>576</ele>
        <time>2021-08-10T18:29:56Z</time>
      </trkpt>
      <trkpt lat="45.87094" lon="3.00349">
        <ele>576</ele>
        <time>2021-08-10T18:29:57Z</time>
      </trkpt>
      <trkpt lat="45.87094" lon="3.00349">
        <ele>576</ele>
        <time>2021-08-10T18:29:58Z</time>
      </trkpt>
      <trkpt lat="45.87094" lon="3.00347">
        <ele>576</ele>
        <time>2021-08-10T18:30:00Z</time>
      </trkpt>
      <trkpt lat="45.87095" lon="3.00339">
        <ele>576</ele>
        <time>2021-08-10T18:30:01Z</time>
      </trkpt>
      <trkpt lat="45.87095" lon="3.00338">
        <ele>576</ele>
        <time>2021-08-10T18:30:03Z</time>
      </trkpt>
      <trkpt lat="45.87096" lon="3.0033">
        <ele>576</ele>
        <time>2021-08-10T18:30:04Z</time>
      </trkpt>
      <trkpt lat="45.87096" lon="3.0033">
        <ele>576</ele>
        <time>2021-08-10T18:30:06Z</time>
      </trkpt>
      <trkpt lat="45.87096" lon="3.00323">
        <ele>576</ele>
        <time>2021-08-10T18:30:07Z</time>
      </trkpt>
      <trkpt lat="45.87096" lon="3.00323">
        <ele>576</ele>
        <time>2021-08-10T18:30:09Z</time>
      </trkpt>
      <trkpt lat="45.87096" lon="3.00317">
        <ele>576</ele>
        <time>2021-08-10T18:30:10Z</time>
      </trkpt>
      <trkpt lat="45.87096" lon="3.00317">
        <ele>576</ele>
        <time>2021-08-10T18:30:11Z</time>
      </trkpt>
      <trkpt lat="45.87097" lon="3.00316">
        <ele>576</ele>
        <time>2021-08-10T18:30:12Z</time>
      </trkpt>
      <trkpt lat="45.87098" lon="3.00315">
        <ele>576</ele>
        <time>2021-08-10T18:30:14Z</time>
      </trkpt>
      <trkpt lat="45.87098" lon="3.00313">
        <ele>576</ele>
        <time>2021-08-10T18:30:15Z</time>
      </trkpt>
      <trkpt lat="45.87099" lon="3.00305">
        <ele>576</ele>
        <time>2021-08-10T18:30:16Z</time>
      </trkpt>
      <trkpt lat="45.87099" lon="3.00305">
        <ele>576</ele>
        <time>2021-08-10T18:30:17Z</time>
      </trkpt>
      <trkpt lat="45.87099" lon="3.00304">
        <ele>576</ele>
        <time>2021-08-10T18:30:18Z</time>
      </trkpt>
      <trkpt lat="45.87099" lon="3.00302">
        <ele>576</ele>
        <time>2021-08-10T18:30:20Z</time>
      </trkpt>
      <trkpt lat="45.87098" lon="3.00292">
        <ele>576</ele>
        <time>2021-08-10T18:30:21Z</time>
      </trkpt>
      <trkpt lat="45.87097" lon="3.00291">
        <ele>576</ele>
        <time>2021-08-10T18:30:22Z</time>
      </trkpt>
      <trkpt lat="45.87097" lon="3.0029">
        <ele>576</ele>
        <time>2021-08-10T18:30:23Z</time>
      </trkpt>
      <trkpt lat="45.87096" lon="3.00288">
        <ele>576</ele>
        <time>2021-08-10T18:30:24Z</time>
      </trkpt>
      <trkpt lat="45.87096" lon="3.00286">
        <ele>576</ele>
        <time>2021-08-10T18:30:25Z</time>
      </trkpt>
      <trkpt lat="45.87096" lon="3.00285">
        <ele>576</ele>
        <time>2021-08-10T18:30:26Z</time>
      </trkpt>
      <trkpt lat="45.87096" lon="3.00283">
        <ele>576</ele>
        <time>2021-08-10T18:30:28Z</time>
      </trkpt>
      <trkpt lat="45.87096" lon="3.00277">
        <ele>576</ele>
        <time>2021-08-10T18:30:29Z</time>
      </trkpt>
      <trkpt lat="45.87096" lon="3.00277">
        <ele>576</ele>
        <time>2021-08-10T18:30:30Z</time>
      </trkpt>
      <trkpt lat="45.87096" lon="3.00276">
        <ele>576</ele>
        <time>2021-08-10T18:30:32Z</time>
      </trkpt>
      <trkpt lat="45.87095" lon="3.00269">
        <ele>576</ele>
        <time>2021-08-10T18:30:33Z</time>
      </trkpt>
      <trkpt lat="45.87095" lon="3.00269">
        <ele>576</ele>
        <time>2021-08-10T18:30:34Z</time>
      </trkpt>
      <trkpt lat="45.87095" lon="3.00268">
        <ele>576</ele>
        <time>2021-08-10T18:30:35Z</time>
      </trkpt>
      <trkpt lat="45.87094" lon="3.00266">
        <ele>576</ele>
        <time>2021-08-10T18:30:36Z</time>
      </trkpt>
      <trkpt lat="45.87094" lon="3.00265">
        <ele>576</ele>
        <time>2021-08-10T18:30:37Z</time>
      </trkpt>
      <trkpt lat="45.87094" lon="3.00263">
        <ele>576</ele>
        <time>2021-08-10T18:30:38Z</time>
      </trkpt>
      <trkpt lat="45.87093" lon="3.0026">
        <ele>576</ele>
        <time>2021-08-10T18:30:40Z</time>
      </trkpt>
      <trkpt lat="45.87093" lon="3.00252">
        <ele>576</ele>
        <time>2021-08-10T18:30:41Z</time>
      </trkpt>
      <trkpt lat="45.87093" lon="3.00251">
        <ele>576</ele>
        <time>2021-08-10T18:30:43Z</time>
      </trkpt>
      <trkpt lat="45.87095" lon="3.00245">
        <ele>576</ele>
        <time>2021-08-10T18:30:44Z</time>
      </trkpt>
      <trkpt lat="45.87095" lon="3.00244">
        <ele>576</ele>
        <time>2021-08-10T18:30:45Z</time>
      </trkpt>
      <trkpt lat="45.87095" lon="3.00243">
        <ele>576</ele>
        <time>2021-08-10T18:30:46Z</time>
      </trkpt>
      <trkpt lat="45.87095" lon="3.00242">
        <ele>576</ele>
        <time>2021-08-10T18:30:48Z</time>
      </trkpt>
      <trkpt lat="45.87096" lon="3.00236">
        <ele>576</ele>
        <time>2021-08-10T18:30:49Z</time>
      </trkpt>
      <trkpt lat="45.87096" lon="3.00235">
        <ele>576</ele>
        <time>2021-08-10T18:30:50Z</time>
      </trkpt>
      <trkpt lat="45.87096" lon="3.00234">
        <ele>576</ele>
        <time>2021-08-10T18:30:51Z</time>
      </trkpt>
      <trkpt lat="45.87096" lon="3.00233">
        <ele>576</ele>
        <time>2021-08-10T18:30:52Z</time>
      </trkpt>
      <trkpt lat="45.87096" lon="3.00231">
        <ele>576</ele>
        <time>2021-08-10T18:30:54Z</time>
      </trkpt>
      <trkpt lat="45.87096" lon="3.00229">
        <ele>576</ele>
        <time>2021-08-10T18:30:55Z</time>
      </trkpt>
      <trkpt lat="45.87096" lon="3.00227">
        <ele>576</ele>
        <time>2021-08-10T18:30:56Z</time>
      </trkpt>
      <trkpt lat="45.87096" lon="3.00217">
        <ele>576</ele>
        <time>2021-08-10T18:30:57Z</time>
      </trkpt>
      <trkpt lat="45.87096" lon="3.00217">
        <ele>576</ele>
        <time>2021-08-10T18:30:59Z</time>
      </trkpt>
      <trkpt lat="45.87095" lon="3.00211">
        <ele>576</ele>
        <time>2021-08-10T18:31:00Z</time>
      </trkpt>
      <trkpt lat="45.87095" lon="3.00211">
        <ele>576</ele>
        <time>2021-08-10T18:31:01Z</time>
      </trkpt>
      <trkpt lat="45.87095" lon="3.0021">
        <ele>576</ele>
        <time>2021-08-10T18:31:02Z</time>
      </trkpt>
      <trkpt lat="45.87095" lon="3.00208">
        <ele>576</ele>
        <time>2021-08-10T18:31:04Z</time>
      </trkpt>
      <trkpt lat="45.87095" lon="3.00201">
        <ele>576</ele>
        <time>2021-08-10T18:31:05Z</time>
      </trkpt>
      <trkpt lat="45.87095" lon="3.00201">
        <ele>576</ele>
        <time>2021-08-10T18:31:06Z</time>
      </trkpt>
      <trkpt lat="45.87095" lon="3.002">
        <ele>576</ele>
        <time>2021-08-10T18:31:07Z</time>
      </trkpt>
      <trkpt lat="45.87095" lon="3.00199">
        <ele>576</ele>
        <time>2021-08-10T18:31:08Z</time>
      </trkpt>
      <trkpt lat="45.87095" lon="3.00197">
        <ele>576</ele>
        <time>2021-08-10T18:31:09Z</time>
      </trkpt>
      <trkpt lat="45.87095" lon="3.00195">
        <ele>576</ele>
        <time>2021-08-10T18:31:11Z</time>
      </trkpt>
      <trkpt lat="45.87096" lon="3.00187">
        <ele>576</ele>
        <time>2021-08-10T18:31:12Z</time>
      </trkpt>
      <trkpt lat="45.87096" lon="3.00186">
        <ele>576</ele>
        <time>2021-08-10T18:31:13Z</time>
      </trkpt>
      <trkpt lat="45.87096" lon="3.00186">
        <ele>576</ele>
        <time>2021-08-10T18:31:14Z</time>
      </trkpt>
      <trkpt lat="45.87096" lon="3.00184">
        <ele>576</ele>
        <time>2021-08-10T18:31:16Z</time>
      </trkpt>
      <trkpt lat="45.87096" lon="3.00178">
        <ele>576</ele>
        <time>2021-08-10T18:31:17Z</time>
      </trkpt>
      <trkpt lat="45.87096" lon="3.00178">
        <ele>576</ele>
        <time>2021-08-10T18:31:18Z</time>
      </trkpt>
      <trkpt lat="45.87096" lon="3.00177">
        <ele>576</ele>
        <time>2021-08-10T18:31:19Z</time>
      </trkpt>
      <trkpt lat="45.87096" lon="3.00175">
        <ele>576</ele>
        <time>2021-08-10T18:31:20Z</time>
      </trkpt>
      <trkpt lat="45.87096" lon="3.00174">
        <ele>576</ele>
        <time>2021-08-10T18:31:21Z</time>
      </trkpt>
      <trkpt lat="45.87096" lon="3.00172">
        <ele>576</ele>
        <time>2021-08-10T18:31:22Z</time>
      </trkpt>
      <trkpt lat="45.87095" lon="3.0017">
        <ele>576</ele>
        <time>2021-08-10T18:31:24Z</time>
      </trkpt>
      <trkpt lat="45.87092" lon="3.00159">
        <ele>576</ele>
        <time>2021-08-10T18:31:25Z</time>
      </trkpt>
      <trkpt lat="45.87091" lon="3.00159">
        <ele>576</ele>
        <time>2021-08-10T18:31:26Z</time>
      </trkpt>
      <trkpt lat="45.87091" lon="3.00157">
        <ele>576</ele>
        <time>2021-08-10T18:31:27Z</time>
      </trkpt>
      <trkpt lat="45.8709" lon="3.00156">
        <ele>576</ele>
        <time>2021-08-10T18:31:28Z</time>
      </trkpt>
      <trkpt lat="45.8709" lon="3.00153">
        <ele>576</ele>
        <time>2021-08-10T18:31:30Z</time>
      </trkpt>
      <trkpt lat="45.8709" lon="3.00151">
        <ele>576</ele>
        <time>2021-08-10T18:31:31Z</time>
      </trkpt>
      <trkpt lat="45.87087" lon="3.00143">
        <ele>576</ele>
        <time>2021-08-10T18:31:32Z</time>
      </trkpt>
      <trkpt lat="45.87087" lon="3.00142">
        <ele>576</ele>
        <time>2021-08-10T18:31:34Z</time>
      </trkpt>
      <trkpt lat="45.87087" lon="3.00136">
        <ele>576</ele>
        <time>2021-08-10T18:31:35Z</time>
      </trkpt>
      <trkpt lat="45.87087" lon="3.00136">
        <ele>576</ele>
        <time>2021-08-10T18:31:36Z</time>
      </trkpt>
      <trkpt lat="45.87087" lon="3.00135">
        <ele>576</ele>
        <time>2021-08-10T18:31:37Z</time>
      </trkpt>
      <trkpt lat="45.87087" lon="3.00133">
        <ele>576</ele>
        <time>2021-08-10T18:31:38Z</time>
      </trkpt>
      <trkpt lat="45.87088" lon="3.00132">
        <ele>576</ele>
        <time>2021-08-10T18:31:40Z</time>
      </trkpt>
      <trkpt lat="45.87088" lon="3.00125">
        <ele>576</ele>
        <time>2021-08-10T18:31:41Z</time>
      </trkpt>
      <trkpt lat="45.87088" lon="3.00124">
        <ele>576</ele>
        <time>2021-08-10T18:31:43Z</time>
      </trkpt>
      <trkpt lat="45.87088" lon="3.00119">
        <ele>576</ele>
        <time>2021-08-10T18:31:44Z</time>
      </trkpt>
      <trkpt lat="45.87089" lon="3.00118">
        <ele>576</ele>
        <time>2021-08-10T18:31:45Z</time>
      </trkpt>
      <trkpt lat="45.87089" lon="3.00117">
        <ele>576</ele>
        <time>2021-08-10T18:31:46Z</time>
      </trkpt>
      <trkpt lat="45.8709" lon="3.00115">
        <ele>576</ele>
        <time>2021-08-10T18:31:47Z</time>
      </trkpt>
      <trkpt lat="45.8709" lon="3.00113">
        <ele>576</ele>
        <time>2021-08-10T18:31:48Z</time>
      </trkpt>
      <trkpt lat="45.8709" lon="3.0011">
        <ele>576</ele>
        <time>2021-08-10T18:31:49Z</time>
      </trkpt>
      <trkpt lat="45.87091" lon="3.00108">
        <ele>576</ele>
        <time>2021-08-10T18:31:50Z</time>
      </trkpt>
      <trkpt lat="45.87091" lon="3.00105">
        <ele>576</ele>
        <time>2021-08-10T18:31:51Z</time>
      </trkpt>
      <trkpt lat="45.87092" lon="3.00102">
        <ele>576</ele>
        <time>2021-08-10T18:31:52Z</time>
      </trkpt>
      <trkpt lat="45.87093" lon="3.001">
        <ele>576</ele>
        <time>2021-08-10T18:31:54Z</time>
      </trkpt>
      <trkpt lat="45.87093" lon="3.00097">
        <ele>576</ele>
        <time>2021-08-10T18:31:55Z</time>
      </trkpt>
      <trkpt lat="45.87093" lon="3.00095">
        <ele>576</ele>
        <time>2021-08-10T18:31:56Z</time>
      </trkpt>
      <trkpt lat="45.87094" lon="3.00088">
        <ele>576</ele>
        <time>2021-08-10T18:31:57Z</time>
      </trkpt>
      <trkpt lat="45.87094" lon="3.00087">
        <ele>576</ele>
        <time>2021-08-10T18:31:58Z</time>
      </trkpt>
      <trkpt lat="45.87094" lon="3.00087">
        <ele>576</ele>
        <time>2021-08-10T18:32:00Z</time>
      </trkpt>
      <trkpt lat="45.87094" lon="3.00083">
        <ele>576</ele>
        <time>2021-08-10T18:32:01Z</time>
      </trkpt>
      <trkpt lat="45.87094" lon="3.00083">
        <ele>576</ele>
        <time>2021-08-10T18:32:02Z</time>
      </trkpt>
      <trkpt lat="45.87094" lon="3.00082">
        <ele>576</ele>
        <time>2021-08-10T18:32:03Z</time>
      </trkpt>
      <trkpt lat="45.87094" lon="3.00081">
        <ele>576</ele>
        <time>2021-08-10T18:32:04Z</time>
      </trkpt>
      <trkpt lat="45.87093" lon="3.0008">
        <ele>576</ele>
        <time>2021-08-10T18:32:06Z</time>
      </trkpt>
      <trkpt lat="45.87093" lon="3.00074">
        <ele>576</ele>
        <time>2021-08-10T18:32:07Z</time>
      </trkpt>
      <trkpt lat="45.87093" lon="3.00073">
        <ele>576</ele>
        <time>2021-08-10T18:32:09Z</time>
      </trkpt>
      <trkpt lat="45.87094" lon="3.00067">
        <ele>576</ele>
        <time>2021-08-10T18:32:10Z</time>
      </trkpt>
      <trkpt lat="45.87094" lon="3.00066">
        <ele>576</ele>
        <time>2021-08-10T18:32:11Z</time>
      </trkpt>
      <trkpt lat="45.87093" lon="3.00065">
        <ele>576</ele>
        <time>2021-08-10T18:32:12Z</time>
      </trkpt>
      <trkpt lat="45.87093" lon="3.00063">
        <ele>576</ele>
        <time>2021-08-10T18:32:14Z</time>
      </trkpt>
      <trkpt lat="45.87093" lon="3.00054">
        <ele>576</ele>
        <time>2021-08-10T18:32:15Z</time>
      </trkpt>
      <trkpt lat="45.87093" lon="3.00054">
        <ele>576</ele>
        <time>2021-08-10T18:32:16Z</time>
      </trkpt>
      <trkpt lat="45.87093" lon="3.00052">
        <ele>576</ele>
        <time>2021-08-10T18:32:16Z</time>
      </trkpt>
      <trkpt lat="45.87093" lon="3.00051">
        <ele>576</ele>
        <time>2021-08-10T18:32:17Z</time>
      </trkpt>
      <trkpt lat="45.87093" lon="3.00048">
        <ele>576</ele>
        <time>2021-08-10T18:32:19Z</time>
      </trkpt>
      <trkpt lat="45.87093" lon="3.00039">
        <ele>576</ele>
        <time>2021-08-10T18:32:20Z</time>
      </trkpt>
      <trkpt lat="45.87093" lon="3.00038">
        <ele>576</ele>
        <time>2021-08-10T18:32:21Z</time>
      </trkpt>
      <trkpt lat="45.87093" lon="3.00037">
        <ele>576</ele>
        <time>2021-08-10T18:32:22Z</time>
      </trkpt>
      <trkpt lat="45.87093" lon="3.00035">
        <ele>576</ele>
        <time>2021-08-10T18:32:23Z</time>
      </trkpt>
      <trkpt lat="45.87092" lon="3.00033">
        <ele>576</ele>
        <time>2021-08-10T18:32:24Z</time>
      </trkpt>
      <trkpt lat="45.87092" lon="3.00031">
        <ele>576</ele>
        <time>2021-08-10T18:32:25Z</time>
      </trkpt>
      <trkpt lat="45.87092" lon="3.00029">
        <ele>576</ele>
        <time>2021-08-10T18:32:26Z</time>
      </trkpt>
      <trkpt lat="45.87091" lon="3.00027">
        <ele>576</ele>
        <time>2021-08-10T18:32:28Z</time>
      </trkpt>
      <trkpt lat="45.87091" lon="3.0002">
        <ele>576</ele>
        <time>2021-08-10T18:32:29Z</time>
      </trkpt>
      <trkpt lat="45.87091" lon="3.00019">
        <ele>576</ele>
        <time>2021-08-10T18:32:30Z</time>
      </trkpt>
      <trkpt lat="45.87092" lon="3.00019">
        <ele>576</ele>
        <time>2021-08-10T18:32:31Z</time>
      </trkpt>
      <trkpt lat="45.87092" lon="3.00018">
        <ele>576</ele>
        <time>2021-08-10T18:32:33Z</time>
      </trkpt>
      <trkpt lat="45.8709" lon="3.00013">
        <ele>576</ele>
        <time>2021-08-10T18:32:34Z</time>
      </trkpt>
      <trkpt lat="45.8709" lon="3.00012">
        <ele>576</ele>
        <time>2021-08-10T18:32:35Z</time>
      </trkpt>
      <trkpt lat="45.8709" lon="3.00011">
        <ele>576</ele>
        <time>2021-08-10T18:32:36Z</time>
      </trkpt>
      <trkpt lat="45.8709" lon="3.0001">
        <ele>576</ele>
        <time>2021-08-10T18:32:37Z</time>
      </trkpt>
      <trkpt lat="45.8709" lon="3.00009">
        <ele>576</ele>
        <time>2021-08-10T18:32:39Z</time>
      </trkpt>
      <trkpt lat="45.87088" lon="3.00002">
        <ele>576</ele>
        <time>2021-08-10T18:32:40Z</time>
      </trkpt>
      <trkpt lat="45.87088" lon="3.00001">
        <ele>576</ele>
        <time>2021-08-10T18:32:41Z</time>
      </trkpt>
      <trkpt lat="45.87089" lon="3">
        <ele>576</ele>
        <time>2021-08-10T18:32:42Z</time>
      </trkpt>
      <trkpt lat="45.87089" lon="2.99999">
        <ele>576</ele>
        <time>2021-08-10T18:32:43Z</time>
      </trkpt>
      <trkpt lat="45.87089" lon="2.99998">
        <ele>576</ele>
        <time>2021-08-10T18:32:44Z</time>
      </trkpt>
      <trkpt lat="45.87089" lon="2.99996">
        <ele>576</ele>
        <time>2021-08-10T18:32:45Z</time>
      </trkpt>
      <trkpt lat="45.87089" lon="2.99994">
        <ele>576</ele>
        <time>2021-08-10T18:32:47Z</time>
      </trkpt>
      <trkpt lat="45.87089" lon="2.99987">
        <ele>576</ele>
        <time>2021-08-10T18:32:48Z</time>
      </trkpt>
      <trkpt lat="45.87089" lon="2.99986">
        <ele>576</ele>
        <time>2021-08-10T18:32:50Z</time>
      </trkpt>
      <trkpt lat="45.8709" lon="2.9998">
        <ele>576</ele>
        <time>2021-08-10T18:32:51Z</time>
      </trkpt>
      <trkpt lat="45.8709" lon="2.99979">
        <ele>576</ele>
        <time>2021-08-10T18:32:53Z</time>
      </trkpt>
      <trkpt lat="45.8709" lon="2.99978">
        <ele>576</ele>
        <time>2021-08-10T18:32:54Z</time>
      </trkpt>
      <trkpt lat="45.87091" lon="2.99976">
        <ele>576</ele>
        <time>2021-08-10T18:32:55Z</time>
      </trkpt>
      <trkpt lat="45.87092" lon="2.99968">
        <ele>576</ele>
        <time>2021-08-10T18:32:56Z</time>
      </trkpt>
      <trkpt lat="45.87092" lon="2.99967">
        <ele>576</ele>
        <time>2021-08-10T18:32:57Z</time>
      </trkpt>
      <trkpt lat="45.87093" lon="2.99966">
        <ele>576</ele>
        <time>2021-08-10T18:32:59Z</time>
      </trkpt>
      <trkpt lat="45.87093" lon="2.99958">
        <ele>576</ele>
        <time>2021-08-10T18:33:00Z</time>
      </trkpt>
      <trkpt lat="45.87093" lon="2.99957">
        <ele>576</ele>
        <time>2021-08-10T18:33:01Z</time>
      </trkpt>
      <trkpt lat="45.87093" lon="2.99956">
        <ele>576</ele>
        <time>2021-08-10T18:33:02Z</time>
      </trkpt>
      <trkpt lat="45.87093" lon="2.99955">
        <ele>576</ele>
        <time>2021-08-10T18:33:03Z</time>
      </trkpt>
      <trkpt lat="45.87093" lon="2.99953">
        <ele>576</ele>
        <time>2021-08-10T18:33:05Z</time>
      </trkpt>
      <trkpt lat="45.87091" lon="2.99945">
        <ele>576</ele>
        <time>2021-08-10T18:33:06Z</time>
      </trkpt>
      <trkpt lat="45.87091" lon="2.99945">
        <ele>576</ele>
        <time>2021-08-10T18:33:07Z</time>
      </trkpt>
      <trkpt lat="45.87091" lon="2.99943">
        <ele>576</ele>
        <time>2021-08-10T18:33:08Z</time>
      </trkpt>
      <trkpt lat="45.8709" lon="2.99942">
        <ele>576</ele>
        <time>2021-08-10T18:33:09Z</time>
      </trkpt>
      <trkpt lat="45.8709" lon="2.9994">
        <ele>576</ele>
        <time>2021-08-10T18:33:10Z</time>
      </trkpt>
      <trkpt lat="45.8709" lon="2.99938">
        <ele>576</ele>
        <time>2021-08-10T18:33:11Z</time>
      </trkpt>
      <trkpt lat="45.8709" lon="2.99936">
        <ele>576</ele>
        <time>2021-08-10T18:33:13Z</time>
      </trkpt>
      <trkpt lat="45.8709" lon="2.99928">
        <ele>576</ele>
        <time>2021-08-10T18:33:14Z</time>
      </trkpt>
      <trkpt lat="45.8709" lon="2.99928">
        <ele>576</ele>
        <time>2021-08-10T18:33:15Z</time>
      </trkpt>
      <trkpt lat="45.8709" lon="2.99927">
        <ele>576</ele>
        <time>2021-08-10T18:33:16Z</time>
      </trkpt>
      <trkpt lat="45.8709" lon="2.99926">
        <ele>576</ele>
        <time>2021-08-10T18:33:17Z</time>
      </trkpt>
      <trkpt lat="45.8709" lon="2.99924">
        <ele>576</ele>
        <time>2021-08-10T18:33:19Z</time>
      </trkpt>
      <trkpt lat="45.8709" lon="2.99918">
        <ele>576</ele>
        <time>2021-08-10T18:33:20Z</time>
      </trkpt>
      <trkpt lat="45.8709" lon="2.99917">
        <ele>576</ele>
        <time>2021-08-10T18:33:21Z</time>
      </trkpt>
      <trkpt lat="45.87091" lon="2.99917">
        <ele>576</ele>
        <time>2021-08-10T18:33:22Z</time>
      </trkpt>
      <trkpt lat="45.87091" lon="2.99916">
        <ele>576</ele>
        <time>2021-08-10T18:33:23Z</time>
      </trkpt>
      <trkpt lat="45.87091" lon="2.99914">
        <ele>576</ele>
        <time>2021-08-10T18:33:24Z</time>
      </trkpt>
      <trkpt lat="45.87091" lon="2.99912">
        <ele>576</ele>
        <time>2021-08-10T18:33:25Z</time>
      </trkpt>
      <trkpt lat="45.87091" lon="2.9991">
        <ele>576</ele>
        <time>2021-08-10T18:33:27Z</time>
      </trkpt>
      <trkpt lat="45.87092" lon="2.99903">
        <ele>576</ele>
        <time>2021-08-10T18:33:28Z</time>
      </trkpt>
      <trkpt lat="45.87092" lon="2.99902">
        <ele>576</ele>
        <time>2021-08-10T18:33:29Z</time>
      </trkpt>
      <trkpt lat="45.87092" lon="2.99901">
        <ele>576</ele>
        <time>2021-08-10T18:33:30Z</time>
      </trkpt>
      <trkpt lat="45.87093" lon="2.999">
        <ele>576</ele>
        <time>2021-08-10T18:33:31Z</time>
      </trkpt>
      <trkpt lat="45.87093" lon="2.99898">
        <ele>576</ele>
        <time>2021-08-10T18:33:32Z</time>
      </trkpt>
      <trkpt lat="45.87093" lon="2.99896">
        <ele>576</ele>
        <time>2021-08-10T18:33:33Z</time>
      </trkpt>
      <trkpt lat="45.87093" lon="2.99894">
        <ele>576</ele>
        <time>2021-08-10T18:33:35Z</time>
      </trkpt>
      <trkpt lat="45.87093" lon="2.99884">
        <ele>576</ele>
        <time>2021-08-10T18:33:36Z</time>
      </trkpt>
      <trkpt lat="45.87093" lon="2.99883">
        <ele>576</ele>
        <time>2021-08-10T18:33:37Z</time>
      </trkpt>
      <trkpt lat="45.87093" lon="2.99882">
        <ele>576</ele>
        <time>2021-08-10T18:33:38Z</time>
      </trkpt>
      <trkpt lat="45.87093" lon="2.9988">
        <ele>576</ele>
        <time>2021-08-10T18:33:39Z</time>
      </trkpt>
      <trkpt lat="45.87093" lon="2.99878">
        <ele>576</ele>
        <time>2021-08-10T18:33:41Z</time>
      </trkpt>
      <trkpt lat="45.87092" lon="2.99871">
        <ele>576</ele>
        <time>2021-08-10T18:33:42Z</time>
      </trkpt>
      <trkpt lat="45.87092" lon="2.9987">
        <ele>576</ele>
        <time>2021-08-10T18:33:44Z</time>
      </trkpt>
      <trkpt lat="45.87093" lon="2.99864">
        <ele>576</ele>
        <time>2021-08-10T18:33:45Z</time>
      </trkpt>
      <trkpt lat="45.87093" lon="2.99864">
        <ele>576</ele>
        <time>2021-08-10T18:33:47Z</time>
      </trkpt>
      <trkpt lat="45.87093" lon="2.99862">
        <ele>576</ele>
        <time>2021-08-10T18:33:48Z</time>
      </trkpt>
      <trkpt lat="45.87091" lon="2.99855">
        <ele>576</ele>
        <time>2021-08-10T18:33:49Z</time>
      </trkpt>
      <trkpt lat="45.87091" lon="2.99854">
        <ele>576</ele>
        <time>2021-08-10T18:33:50Z</time>
      </trkpt>
      <trkpt lat="45.87091" lon="2.99853">
        <ele>576</ele>
        <time>2021-08-10T18:33:51Z</time>
      </trkpt>
      <trkpt lat="45.87091" lon="2.99851">
        <ele>576</ele>
        <time>2021-08-10T18:33:53Z</time>
      </trkpt>
      <trkpt lat="45.87091" lon="2.9985">
        <ele>576</ele>
        <time>2021-08-10T18:33:54Z</time>
      </trkpt>
      <trkpt lat="45.8709" lon="2.99848">
        <ele>576</ele>
        <time>2021-08-10T18:33:55Z</time>
      </trkpt>
      <trkpt lat="45.87088" lon="2.99841">
        <ele>576</ele>
        <time>2021-08-10T18:33:57Z</time>
      </trkpt>
      <trkpt lat="45.87087" lon="2.99836">
        <ele>576</ele>
        <time>2021-08-10T18:33:58Z</time>
      </trkpt>
      <trkpt lat="45.87087" lon="2.99836">
        <ele>576</ele>
        <time>2021-08-10T18:33:59Z</time>
      </trkpt>
      <trkpt lat="45.87087" lon="2.99835">
        <ele>576</ele>
        <time>2021-08-10T18:34:00Z</time>
      </trkpt>
      <trkpt lat="45.87086" lon="2.99833">
        <ele>576</ele>
        <time>2021-08-10T18:34:01Z</time>
      </trkpt>
      <trkpt lat="45.87086" lon="2.99832">
        <ele>576</ele>
        <time>2021-08-10T18:34:03Z</time>
      </trkpt>
      <trkpt lat="45.87087" lon="2.99826">
        <ele>576</ele>
        <time>2021-08-10T18:34:05Z</time>
      </trkpt>
      <trkpt lat="45.87087" lon="2.99825">
        <ele>576</ele>
        <time>2021-08-10T18:34:06Z</time>
      </trkpt>
      <trkpt lat="45.87087" lon="2.9982">
        <ele>576</ele>
        <time>2021-08-10T18:34:07Z</time>
      </trkpt>
      <trkpt lat="45.87087" lon="2.9982">
        <ele>576</ele>
        <time>2021-08-10T18:34:09Z</time>
      </trkpt>
      <trkpt lat="45.87087" lon="2.99814">
        <ele>576</ele>
        <time>2021-08-10T18:34:11Z</time>
      </trkpt>
      <trkpt lat="45.87087" lon="2.9981">
        <ele>576</ele>
        <time>2021-08-10T18:34:12Z</time>
      </trkpt>
      <trkpt lat="45.87087" lon="2.9981">
        <ele>576</ele>
        <time>2021-08-10T18:34:13Z</time>
      </trkpt>
      <trkpt lat="45.87087" lon="2.99809">
        <ele>576</ele>
        <time>2021-08-10T18:34:14Z</time>
      </trkpt>
      <trkpt lat="45.87087" lon="2.99807">
        <ele>576</ele>
        <time>2021-08-10T18:34:15Z</time>
      </trkpt>
      <trkpt lat="45.87087" lon="2.99805">
        <ele>576</ele>
        <time>2021-08-10T18:34:17Z</time>
      </trkpt>
      <trkpt lat="45.87085" lon="2.99795">
        <ele>576</ele>
        <time>2021-08-10T18:34:18Z</time>
      </trkpt>
      <trkpt lat="45.87085" lon="2.99795">
        <ele>576</ele>
        <time>2021-08-10T18:34:20Z</time>
      </trkpt>
      <trkpt lat="45.87084" lon="2.99789">
        <ele>576</ele>
        <time>2021-08-10T18:34:21Z</time>
      </trkpt>
      <trkpt lat="45.87084" lon="2.99788">
        <ele>576</ele>
        <time>2021-08-10T18:34:22Z</time>
      </trkpt>
      <trkpt lat="45.87085" lon="2.99787">
        <ele>576</ele>
        <time>2021-08-10T18:34:23Z</time>
      </trkpt>
      <trkpt lat="45.87085" lon="2.99786">
        <ele>576</ele>
        <time>2021-08-10T18:34:25Z</time>
      </trkpt>
      <trkpt lat="45.87085" lon="2.99784">
        <ele>576</ele>
        <time>2021-08-10T18:34:26Z</time>
      </trkpt>
      <trkpt lat="45.87086" lon="2.99777">
        <ele>576</ele>
        <time>2021-08-10T18:34:27Z</time>
      </trkpt>
      <trkpt lat="45.87086" lon="2.99777">
        <ele>576</ele>
        <time>2021-08-10T18:34:28Z</time>
      </trkpt>
      <trkpt lat="45.87085" lon="2.99775">
        <ele>576</ele>
        <time>2021-08-10T18:34:29Z</time>
      </trkpt>
      <trkpt lat="45.87085" lon="2.99774">
        <ele>576</ele>
        <time>2021-08-10T18:34:31Z</time>
      </trkpt>
      <trkpt lat="45.87085" lon="2.99765">
        <ele>576</ele>
        <time>2021-08-10T18:34:32Z</time>
      </trkpt>
      <trkpt lat="45.87084" lon="2.99765">
        <ele>576</ele>
        <time>2021-08-10T18:34:33Z</time>
      </trkpt>
      <trkpt lat="45.87084" lon="2.99764">
        <ele>576</ele>
        <time>2021-08-10T18:34:34Z</time>
      </trkpt>
      <trkpt lat="45.87084" lon="2.99762">
        <ele>576</ele>
        <time>2021-08-10T18:34:35Z</time>
      </trkpt>
      <trkpt lat="45.87085" lon="2.99761">
        <ele>576</ele>
        <time>2021-08-10T18:34:37Z</time>
      </trkpt>
      <trkpt lat="45.87085" lon="2.99755">
        <ele>576</ele>
        <time>2021-08-10T18:34:38Z</time>
      </trkpt>
      <trkpt lat="45.87085" lon="2.99754">
        <ele>576</ele>
        <time>2021-08-10T18:34:39Z</time>
      </trkpt>
      <trkpt lat="45.87085" lon="2.99753">
        <ele>576</ele>
        <time>2021-08-10T18:34:40Z</time>
      </trkpt>
      <trkpt lat="45.87086" lon="2.99752">
        <ele>576</ele>
        <time>2021-08-10T18:34:41Z</time>
      </trkpt>
      <trkpt lat="45.87086" lon="2.99751">
        <ele>576</ele>
        <time>2021-08-10T18:34:42Z</time>
      </trkpt>
      <trkpt lat="45.87087" lon="2.99749">
        <ele>576</ele>
        <time>2021-08-10T18:34:43Z</time>
      </trkpt>
      <trkpt lat="45.87087" lon="2.99747">
        <ele>576</ele>
        <time>2021-08-10T18:34:45Z</time>
      </trkpt>
      <trkpt lat="45.87086" lon="2.99739">
        <ele>576</ele>
        <time>2021-08-10T18:34:47Z</time>
      </trkpt>
      <trkpt lat="45.87087" lon="2.99734">
        <ele>576</ele>
        <time>2021-08-10T18:34:48Z</time>
      </trkpt>
      <trkpt lat="45.87087" lon="2.99734">
        <ele>576</ele>
        <time>2021-08-10T18:34:49Z</time>
      </trkpt>
      <trkpt lat="45.87087" lon="2.99733">
        <ele>576</ele>
        <time>2021-08-10T18:34:50Z</time>
      </trkpt>
      <trkpt lat="45.87087" lon="2.99731">
        <ele>576</ele>
        <time>2021-08-10T18:34:51Z</time>
      </trkpt>
      <trkpt lat="45.87087" lon="2.9973">
        <ele>576</ele>
        <time>2021-08-10T18:34:53Z</time>
      </trkpt>
      <trkpt lat="45.87087" lon="2.99728">
        <ele>576</ele>
        <time>2021-08-10T18:34:54Z</time>
      </trkpt>
      <trkpt lat="45.87087" lon="2.99726">
        <ele>576</ele>
        <time>2021-08-10T18:34:55Z</time>
      </trkpt>
      <trkpt lat="45.87087" lon="2.99716">
        <ele>576</ele>
        <time>2021-08-10T18:34:56Z</time>
      </trkpt>
      <trkpt lat="45.87087" lon="2.99716">
        <ele>576</ele>
        <time>2021-08-10T18:34:57Z</time>
      </trkpt>
      <trkpt lat="45.87087" lon="2.99715">
        <ele>576</ele>
        <time>2021-08-10T18:34:58Z</time>
      </trkpt>
      <trkpt lat="45.87087" lon="2.99713">
        <ele>576</ele>
        <time>2021-08-10T18:34:59Z</time>
      </trkpt>
      <trkpt lat="45.87087" lon="2.99711">
        <ele>576</ele>
        <time>2021-08-10T18:35:00Z</time>
      </trkpt>
      <trkpt lat="45.87088" lon="2.99709">
        <ele>576</ele>
        <time>2021-08-10T18:35:01Z</time>
      </trkpt>
      <trkpt lat="45.87088" lon="2.99707">
        <ele>576</ele>
        <time>2021-08-10T18:35:03Z</time>
      </trkpt>
      <trkpt lat="45.8709" lon="2.99699">
        <ele>576</ele>
        <time>2021-08-10T18:35:04Z</time>
      </trkpt>
      <trkpt lat="45.8709" lon="2.99699">
        <ele>576</ele>
        <time>2021-08-10T18:35:05Z</time>
      </trkpt>
      <trkpt lat="45.8709" lon="2.99698">
        <ele>576</ele>
        <time>2021-08-10T18:35:06Z</time>
      </trkpt>
      <trkpt lat="45.8709" lon="2.99697">
        <ele>576</ele>
        <time>2021-08-10T18:35:07Z</time>
      </trkpt>
      <trkpt lat="45.87091" lon="2.99695">
        <ele>576</ele>
        <time>2021-08-10T18:35:08Z</time>
      </trkpt>
      <trkpt lat="45.87091" lon="2.99694">
        <ele>576</ele>
        <time>2021-08-10T18:35:09Z</time>
      </trkpt>
      <trkpt lat="45.87091" lon="2.99693">
        <ele>576</ele>
        <time>2021-08-10T18:35:11Z</time>
      </trkpt>
      <trkpt lat="45.87093" lon="2.99686">
        <ele>576</ele>
        <time>2021-08-10T18:35:12Z</time>
      </trkpt>
      <trkpt lat="45.87093" lon="2.99686">
        <ele>576</ele>
        <time>2021-08-10T18:35:14Z</time>
      </trkpt>
      <trkpt lat="45.87094" lon="2.99681">
        <ele>576</ele>
        <time>2021-08-10T18:35:15Z</time>
      </trkpt>
      <trkpt lat="45.87094" lon="2.9968">
        <ele>576</ele>
        <time>2021-08-10T18:35:16Z</time>
      </trkpt>
      <trkpt lat="45.87095" lon="2.99679">
        <ele>576</ele>
        <time>2021-08-10T18:35:17Z</time>
      </trkpt>
      <trkpt lat="45.87095" lon="2.99678">
        <ele>576</ele>
        <time>2021-08-10T18:35:19Z</time>
      </trkpt>
      <trkpt lat="45.87096" lon="2.9967">
        <ele>576</ele>
        <time>2021-08-10T18:35:20Z</time>
      </trkpt>
      <trkpt lat="45.87097" lon="2.9967">
        <ele>576</ele>
        <time>2021-08-10T18:35:21Z</time>
      </trkpt>
      <trkpt lat="45.87097" lon="2.99669">
        <ele>576</ele>
        <time>2021-08-10T18:35:22Z</time>
      </trkpt>
      <trkpt lat="45.87098" lon="2.99668">
        <ele>576</ele>
        <time>2021-08-10T18:35:23Z</time>
      </trkpt>
      <trkpt lat="45.87098" lon="2.99666">
        <ele>576</ele>
        <time>2021-08-10T18:35:24Z</time>
      </trkpt>
      <trkpt lat="45.87098" lon="2.99664">
        <ele>576</ele>
        <time>2021-08-10T18:35:25Z</time>
      </trkpt>
      <trkpt lat="45.87099" lon="2.99661">
        <ele>576</ele>
        <time>2021-08-10T18:35:27Z</time>
      </trkpt>
      <trkpt lat="45.87098" lon="2.99652">
        <ele>576</ele>
        <time>2021-08-10T18:35:28Z</time>
      </trkpt>
      <trkpt lat="45.87097" lon="2.99651">
        <ele>576</ele>
        <time>2021-08-10T18:35:29Z</time>
      </trkpt>
      <trkpt lat="45.87097" lon="2.9965">
        <ele>576</ele>
        <time>2021-08-10T18:35:30Z</time>
      </trkpt>
      <trkpt lat="45.87096" lon="2.99648">
        <ele>576</ele>
        <time>2021-08-10T18:35:31Z</time>
      </trkpt>
      <trkpt lat="45.87096" lon="2.99646">
        <ele>576</ele>
        <time>2021-08-10T18:35:33Z</time>
      </trkpt>
      <trkpt lat="45.87095" lon="2.99637">
        <ele>576</ele>
        <time>2021-08-10T18:35:34Z</time>
      </trkpt>
      <trkpt lat="45.87095" lon="2.99636">
        <ele>576</ele>
        <time>2021-08-10T18:35:35Z</time>
      </trkpt>
      <trkpt lat="45.87095" lon="2.99635">
        <ele>576</ele>
        <time>2021-08-10T18:35:36Z</time>
      </trkpt>
      <trkpt lat="45.87095" lon="2.99634">
        <ele>576</ele>
        <time>2021-08-10T18:35:37Z</time>
      </trkpt>
      <trkpt lat="45.87095" lon="2.99632">
        <ele>576</ele>
        <time>2021-08-10T18:35:39Z</time>
      </trkpt>
      <trkpt lat="45.87096" lon="2.99624">
        <ele>576</ele>
        <time>2021-08-10T18:35:40Z</time>
      </trkpt>
      <trkpt lat="45.87096" lon="2.99623">
        <ele>576</ele>
        <time>2021-08-10T18:35:41Z</time>
      </trkpt>
      <trkpt lat="45.87096" lon="2.99622">
        <ele>576</ele>
        <time>2021-08-10T18:35:42Z</time>
      </trkpt>
      <trkpt lat="45.87096" lon="2.99621">
        <ele>576</ele>
        <time>2021-08-10T18:35:43Z</time>
      </trkpt>
      <trkpt lat="45.87096" lon="2.99619">
        <ele>576</ele>
        <time>2021-08-10T18:35:44Z</time>
      </trkpt>
      <trkpt lat="45.87095" lon="2.99618">
        <ele>576</ele>
        <time>2021-08-10T18:35:45Z</time>
      </trkpt>
      <trkpt lat="45.87095" lon="2.99616">
        <ele>576</ele>
        <time>2021-08-10T18:35:47Z</time>
      </trkpt>
      <trkpt lat="45.87096" lon="2.99608">
        <ele>576</ele>
        <time>2021-08-10T18:35:48Z</time>
      </trkpt>
      <trkpt lat="45.87096" lon="2.99608">
        <ele>576</ele>
        <time>2021-08-10T18:35:50Z</time>
      </trkpt>
      <trkpt lat="45.87096" lon="2.99602">
        <ele>576</ele>
        <time>2021-08-10T18:35:51Z</time>
      </trkpt>
      <trkpt lat="45.87096" lon="2.99602">
        <ele>576</ele>
        <time>2021-08-10T18:35:53Z</time>
      </trkpt>
      <trkpt lat="45.87095" lon="2.99601">
        <ele>576</ele>
        <time>2021-08-10T18:35:54Z</time>
      </trkpt>
      <trkpt lat="45.87095" lon="2.996">
        <ele>576</ele>
        <time>2021-08-10T18:35:55Z</time>
      </trkpt>
      <trkpt lat="45.87093" lon="2.99594">
        <ele>576</ele>
        <time>2021-08-10T18:35:57Z</time>
      </trkpt>
      <trkpt lat="45.87093" lon="2.9959">
        <ele>576</ele>
        <time>2021-08-10T18:35:58Z</time>
      </trkpt>
      <trkpt lat="45.87093" lon="2.9959">
        <ele>576</ele>
        <time>2021-08-10T18:36:00Z</time>
      </trkpt>
      <trkpt lat="45.87093" lon="2.99583">
        <ele>576</ele>
        <time>2021-08-10T18:36:01Z</time>
      </trkpt>
      <trkpt lat="45.87093" lon="2.99582">
        <ele>576</ele>
        <time>2021-08-10T18:36:03Z</time>
      </trkpt>
      <trkpt lat="45.87092" lon="2.99575">
        <ele>576</ele>
        <time>2021-08-10T18:36:04Z</time>
      </trkpt>
      <trkpt lat="45.87092" lon="2.99575">
        <ele>576</ele>
        <time>2021-08-10T18:36:05Z</time>
      </trkpt>
      <trkpt lat="45.87092" lon="2.99573">
        <ele>576</ele>
        <time>2021-08-10T18:36:06Z</time>
      </trkpt>
      <trkpt lat="45.87093" lon="2.99572">
        <ele>576</ele>
        <time>2021-08-10T18:36:07Z</time>
      </trkpt>
      <trkpt lat="45.87093" lon="2.9957">
        <ele>576</ele>
        <time>2021-08-10T18:36:08Z</time>
      </trkpt>
      <trkpt lat="45.87093" lon="2.99568">
        <ele>576</ele>
        <time>2021-08-10T18:36:09Z</time>
      </trkpt>
      <trkpt lat="45.87093" lon="2.99566">
        <ele>576</ele>
        <time>2021-08-10T18:36:10Z</time>
      </trkpt>
      <trkpt lat="45.87093" lon="2.99565">
        <ele>576</ele>
        <time>2021-08-10T18:36:11Z</time>
      </trkpt>
      <trkpt lat="45.87093" lon="2.99563">
        <ele>576</ele>
        <time>2021-08-10T18:36:12Z</time>
      </trkpt>
      <trkpt lat="45.87093" lon="2.99561">
        <ele>576</ele>
        <time>2021-08-10T18:36:13Z</time>
      </trkpt>
      <trkpt lat="45.87093" lon="2.9956">
        <ele>576</ele>
        <time>2021-08-10T18:36:14Z</time>
      </trkpt>
      <trkpt lat="45.87093" lon="2.99559">
        <ele>576</ele>
        <time>2021-08-10T18:36:15Z</time>
      </trkpt>
      <trkpt lat="45.87094" lon="2.99558">
        <ele>576</ele>
        <time>2021-08-10T18:36:17Z</time>
      </trkpt>
      <trkpt lat="45.87096" lon="2.99551">
        <ele>576</ele>
        <time>2021-08-10T18:36:18Z</time>
      </trkpt>
      <trkpt lat="45.87096" lon="2.9955">
        <ele>576</ele>
        <time>2021-08-10T18:36:19Z</time>
      </trkpt>
      <trkpt lat="45.87096" lon="2.99549">
        <ele>576</ele>
        <time>2021-08-10T18:36:20Z</time>
      </trkpt>
      <trkpt lat="45.87096" lon="2.99548">
        <ele>576</ele>
        <time>2021-08-10T18:36:21Z</time>
      </trkpt>
      <trkpt lat="45.87096" lon="2.99547">
        <ele>576</ele>
        <time>2021-08-10T18:36:23Z</time>
      </trkpt>
      <trkpt lat="45.87098" lon="2.99543">
        <ele>576</ele>
        <time>2021-08-10T18:36:24Z</time>
      </trkpt>
      <trkpt lat="45.87098" lon="2.99543">
        <ele>576</ele>
        <time>2021-08-10T18:36:26Z</time>
      </trkpt>
      <trkpt lat="45.87098" lon="2.99545">
        <ele>576</ele>
        <time>2021-08-10T18:36:27Z</time>
      </trkpt>
      <trkpt lat="45.87098" lon="2.99545">
        <ele>576</ele>
        <time>2021-08-10T18:36:29Z</time>
      </trkpt>
      <trkpt lat="45.871" lon="2.99547">
        <ele>576</ele>
        <time>2021-08-10T18:36:30Z</time>
      </trkpt>
      <trkpt lat="45.871" lon="2.99547">
        <ele>576</ele>
        <time>2021-08-10T18:36:31Z</time>
      </trkpt>
      <trkpt lat="45.87103" lon="2.99551">
        <ele>576</ele>
        <time>2021-08-10T18:36:32Z</time>
      </trkpt>
      <trkpt lat="45.87104" lon="2.99551">
        <ele>576</ele>
        <time>2021-08-10T18:36:33Z</time>
      </trkpt>
      <trkpt lat="45.87104" lon="2.99551">
        <ele>576</ele>
        <time>2021-08-10T18:36:34Z</time>
      </trkpt>
      <trkpt lat="45.87105" lon="2.99552">
        <ele>576</ele>
        <time>2021-08-10T18:36:36Z</time>
      </trkpt>
      <trkpt lat="45.87111" lon="2.99556">
        <ele>576</ele>
        <time>2021-08-10T18:36:37Z</time>
      </trkpt>
      <trkpt lat="45.87111" lon="2.99556">
        <ele>576</ele>
        <time>2021-08-10T18:36:38Z</time>
      </trkpt>
      <trkpt lat="45.87112" lon="2.99557">
        <ele>576</ele>
        <time>2021-08-10T18:36:39Z</time>
      </trkpt>
      <trkpt lat="45.87114" lon="2.99558">
        <ele>576</ele>
        <time>2021-08-10T18:36:40Z</time>
      </trkpt>
      <trkpt lat="45.87116" lon="2.99559">
        <ele>576</ele>
        <time>2021-08-10T18:36:42Z</time>
      </trkpt>
      <trkpt lat="45.87125" lon="2.99563">
        <ele>576</ele>
        <time>2021-08-10T18:36:43Z</time>
      </trkpt>
      <trkpt lat="45.87125" lon="2.99564">
        <ele>576</ele>
        <time>2021-08-10T18:36:45Z</time>
      </trkpt>
      <trkpt lat="45.87129" lon="2.99566">
        <ele>576</ele>
        <time>2021-08-10T18:36:46Z</time>
      </trkpt>
      <trkpt lat="45.87129" lon="2.99566">
        <ele>576</ele>
        <time>2021-08-10T18:36:48Z</time>
      </trkpt>
      <trkpt lat="45.87132" lon="2.99567">
        <ele>576</ele>
        <time>2021-08-10T18:36:49Z</time>
      </trkpt>
      <trkpt lat="45.87133" lon="2.99567">
        <ele>576</ele>
        <time>2021-08-10T18:36:50Z</time>
      </trkpt>
      <trkpt lat="45.87134" lon="2.99567">
        <ele>576</ele>
        <time>2021-08-10T18:36:52Z</time>
      </trkpt>
      <trkpt lat="45.87135" lon="2.99567">
        <ele>576</ele>
        <time>2021-08-10T18:36:53Z</time>
      </trkpt>
      <trkpt lat="45.87136" lon="2.99566">
        <ele>576</ele>
        <time>2021-08-10T18:36:54Z</time>
      </trkpt>
      <trkpt lat="45.87142" lon="2.99567">
        <ele>576</ele>
        <time>2021-08-10T18:36:55Z</time>
      </trkpt>
      <trkpt lat="45.87142" lon="2.99567">
        <ele>576</ele>
        <time>2021-08-10T18:36:56Z</time>
      </trkpt>
      <trkpt lat="45.87143" lon="2.99567">
        <ele>576</ele>
        <time>2021-08-10T18:36:58Z</time>
      </trkpt>
      <trkpt lat="45.87147" lon="2.99566">
        <ele>576</ele>
        <time>2021-08-10T18:36:59Z</time>
      </trkpt>
      <trkpt lat="45.87148" lon="2.99566">
        <ele>576</ele>
        <time>2021-08-10T18:37:00Z</time>
      </trkpt>
      <trkpt lat="45.87148" lon="2.99566">
        <ele>576</ele>
        <time>2021-08-10T18:37:02Z</time>
      </trkpt>
      <trkpt lat="45.87152" lon="2.99565">
        <ele>576</ele>
        <time>2021-08-10T18:37:03Z</time>
      </trkpt>
      <trkpt lat="45.87152" lon="2.99565">
        <ele>576</ele>
        <time>2021-08-10T18:37:04Z</time>
      </trkpt>
      <trkpt lat="45.87153" lon="2.99565">
        <ele>576</ele>
        <time>2021-08-10T18:37:05Z</time>
      </trkpt>
      <trkpt lat="45.87153" lon="2.99565">
        <ele>576</ele>
        <time>2021-08-10T18:37:06Z</time>
      </trkpt>
      <trkpt lat="45.87154" lon="2.99564">
        <ele>576</ele>
        <time>2021-08-10T18:37:07Z</time>
      </trkpt>
      <trkpt lat="45.87154" lon="2.99564">
        <ele>576</ele>
        <time>2021-08-10T18:37:08Z</time>
      </trkpt>
      <trkpt lat="45.87155" lon="2.99563">
        <ele>576</ele>
        <time>2021-08-10T18:37:10Z</time>
      </trkpt>
      <trkpt lat="45.87157" lon="2.99561">
        <ele>576</ele>
        <time>2021-08-10T18:37:11Z</time>
      </trkpt>
      <trkpt lat="45.87157" lon="2.9956">
        <ele>576</ele>
        <time>2021-08-10T18:37:13Z</time>
      </trkpt>
      <trkpt lat="45.87159" lon="2.99558">
        <ele>576</ele>
        <time>2021-08-10T18:37:14Z</time>
      </trkpt>
      <trkpt lat="45.8716" lon="2.99558">
        <ele>576</ele>
        <time>2021-08-10T18:37:16Z</time>
      </trkpt>
      <trkpt lat="45.87162" lon="2.99556">
        <ele>576</ele>
        <time>2021-08-10T18:37:17Z</time>
      </trkpt>
      <trkpt lat="45.87162" lon="2.99556">
        <ele>576</ele>
        <time>2021-08-10T18:37:19Z</time>
      </trkpt>
      <trkpt lat="45.87165" lon="2.99554">
        <ele>576</ele>
        <time>2021-08-10T18:37:20Z</time>
      </trkpt>
      <trkpt lat="45.87166" lon="2.99554">
        <ele>576</ele>
        <time>2021-08-10T18:37:22Z</time>
      </trkpt>
      <trkpt lat="45.87169" lon="2.99552">
        <ele>576</ele>
        <time>2021-08-10T18:37:23Z</time>
      </trkpt>
      <trkpt lat="45.8717" lon="2.99552">
        <ele>576</ele>
        <time>2021-08-10T18:37:25Z</time>
      </trkpt>
      <trkpt lat="45.87174" lon="2.99551">
        <ele>576</ele>
        <time>2021-08-10T18:37:26Z</time>
      </trkpt>
      <trkpt lat="45.87174" lon="2.99551">
        <ele>576</ele>
        <time>2021-08-10T18:37:27Z</time>
      </trkpt>
      <trkpt lat="45.87175" lon="2.99551">
        <ele>576</ele>
        <time>2021-08-10T18:37:28Z</time>
      </trkpt>
      <trkpt lat="45.87176" lon="2.99551">
        <ele>576</ele>
        <time>2021-08-10T18:37:30Z</time>
      </trkpt>
      <trkpt lat="45.87183" lon="2.9955">
        <ele>576</ele>
        <time>2021-08-10T18:37:31Z</time>
      </trkpt>
      <trkpt lat="45.87183" lon="2.9955">
        <ele>576</ele>
        <time>2021-08-10T18:37:32Z</time>
      </trkpt>
      <trkpt lat="45.87184" lon="2.9955">
        <ele>576</ele>
        <time>2021-08-10T18:37:33Z</time>
      </trkpt>
      <trkpt lat="45.87185" lon="2.99549">
        <ele>576</ele>
        <time>2021-08-10T18:37:34Z</time>
      </trkpt>
      <trkpt lat="45.87186" lon="2.99549">
        <ele>576</ele>
        <time>2021-08-10T18:37:36Z</time>
      </trkpt>
      <trkpt lat="45.8719" lon="2.99548">
        <ele>576</ele>
        <time>2021-08-10T18:37:37Z</time>
      </trkpt>
      <trkpt lat="45.87191" lon="2.99548">
        <ele>576</ele>
        <time>2021-08-10T18:37:38Z</time>
      </trkpt>
      <trkpt lat="45.87191" lon="2.99548">
        <ele>576</ele>
        <time>2021-08-10T18:37:39Z</time>
      </trkpt>
      <trkpt lat="45.87191" lon="2.99548">
        <ele>576</ele>
        <time>2021-08-10T18:37:40Z</time>
      </trkpt>
      <trkpt lat="45.87192" lon="2.99548">
        <ele>576</ele>
        <time>2021-08-10T18:37:41Z</time>
      </trkpt>
      <trkpt lat="45.87193" lon="2.99547">
        <ele>576</ele>
        <time>2021-08-10T18:37:42Z</time>
      </trkpt>
      <trkpt lat="45.87194" lon="2.99547">
        <ele>576</ele>
        <time>2021-08-10T18:37:44Z</time>
      </trkpt>
      <trkpt lat="45.87198" lon="2.99546">
        <ele>576</ele>
        <time>2021-08-10T18:37:45Z</time>
      </trkpt>
      <trkpt lat="45.87198" lon="2.99546">
        <ele>576</ele>
        <time>2021-08-10T18:37:46Z</time>
      </trkpt>
      <trkpt lat="45.87199" lon="2.99546">
        <ele>576</ele>
        <time>2021-08-10T18:37:47Z</time>
      </trkpt>
      <trkpt lat="45.87199" lon="2.99546">
        <ele>576</ele>
        <time>2021-08-10T18:37:48Z</time>
      </trkpt>
      <trkpt lat="45.87201" lon="2.99546">
        <ele>576</ele>
        <time>2021-08-10T18:37:49Z</time>
      </trkpt>
      <trkpt lat="45.87202" lon="2.99546">
        <ele>576</ele>
        <time>2021-08-10T18:37:50Z</time>
      </trkpt>
      <trkpt lat="45.87203" lon="2.99545">
        <ele>576</ele>
        <time>2021-08-10T18:37:52Z</time>
      </trkpt>
      <trkpt lat="45.87205" lon="2.99545">
        <ele>576</ele>
        <time>2021-08-10T18:37:54Z</time>
      </trkpt>
      <trkpt lat="45.87213" lon="2.99541">
        <ele>576</ele>
        <time>2021-08-10T18:37:56Z</time>
      </trkpt>
      <trkpt lat="45.87217" lon="2.9954">
        <ele>576</ele>
        <time>2021-08-10T18:37:57Z</time>
      </trkpt>
      <trkpt lat="45.87217" lon="2.99539">
        <ele>576</ele>
        <time>2021-08-10T18:37:59Z</time>
      </trkpt>
      <trkpt lat="45.87222" lon="2.99537">
        <ele>576</ele>
        <time>2021-08-10T18:38:00Z</time>
      </trkpt>
      <trkpt lat="45.87222" lon="2.99537">
        <ele>576</ele>
        <time>2021-08-10T18:38:01Z</time>
      </trkpt>
      <trkpt lat="45.87223" lon="2.99537">
        <ele>576</ele>
        <time>2021-08-10T18:38:02Z</time>
      </trkpt>
      <trkpt lat="45.87225" lon="2.99536">
        <ele>576</ele>
        <time>2021-08-10T18:38:03Z</time>
      </trkpt>
      <trkpt lat="45.87226" lon="2.99536">
        <ele>576</ele>
        <time>2021-08-10T18:38:05Z</time>
      </trkpt>
      <trkpt lat="45.87233" lon="2.99534">
        <ele>576</ele>
        <time>2021-08-10T18:38:06Z</time>
      </trkpt>
      <trkpt lat="45.87233" lon="2.99534">
        <ele>576</ele>
        <time>2021-08-10T18:38:08Z</time>
      </trkpt>
      <trkpt lat="45.87237" lon="2.99532">
        <ele>576</ele>
        <time>2021-08-10T18:38:09Z</time>
      </trkpt>
      <trkpt lat="45.87238" lon="2.99532">
        <ele>576</ele>
        <time>2021-08-10T18:38:11Z</time>
      </trkpt>
      <trkpt lat="45.87241" lon="2.9953">
        <ele>576</ele>
        <time>2021-08-10T18:38:12Z</time>
      </trkpt>
      <trkpt lat="45.87241" lon="2.9953">
        <ele>576</ele>
        <time>2021-08-10T18:38:13Z</time>
      </trkpt>
      <trkpt lat="45.87243" lon="2.9953">
        <ele>576</ele>
        <time>2021-08-10T18:38:14Z</time>
      </trkpt>
      <trkpt lat="45.87243" lon="2.99529">
        <ele>576</ele>
        <time>2021-08-10T18:38:16Z</time>
      </trkpt>
      <trkpt lat="45.87246" lon="2.99527">
        <ele>576</ele>
        <time>2021-08-10T18:38:17Z</time>
      </trkpt>
      <trkpt lat="45.87246" lon="2.99526">
        <ele>576</ele>
        <time>2021-08-10T18:38:18Z</time>
      </trkpt>
      <trkpt lat="45.87246" lon="2.99526">
        <ele>576</ele>
        <time>2021-08-10T18:38:19Z</time>
      </trkpt>
      <trkpt lat="45.87247" lon="2.99526">
        <ele>576</ele>
        <time>2021-08-10T18:38:20Z</time>
      </trkpt>
      <trkpt lat="45.87248" lon="2.99525">
        <ele>576</ele>
        <time>2021-08-10T18:38:22Z</time>
      </trkpt>
      <trkpt lat="45.87252" lon="2.99521">
        <ele>576</ele>
        <time>2021-08-10T18:38:23Z</time>
      </trkpt>
      <trkpt lat="45.87253" lon="2.99521">
        <ele>576</ele>
        <time>2021-08-10T18:38:24Z</time>
      </trkpt>
      <trkpt lat="45.87253" lon="2.9952">
        <ele>576</ele>
        <time>2021-08-10T18:38:25Z</time>
      </trkpt>
      <trkpt lat="45.87254" lon="2.99519">
        <ele>576</ele>
        <time>2021-08-10T18:38:26Z</time>
      </trkpt>
      <trkpt lat="45.87256" lon="2.99517">
        <ele>576</ele>
        <time>2021-08-10T18:38:27Z</time>
      </trkpt>
      <trkpt lat="45.87257" lon="2.99516">
        <ele>576</ele>
        <time>2021-08-10T18:38:28Z</time>
      </trkpt>
      <trkpt lat="45.87258" lon="2.99514">
        <ele>576</ele>
        <time>2021-08-10T18:38:30Z</time>
      </trkpt>
      <trkpt lat="45.87264" lon="2.99506">
        <ele>576</ele>
        <time>2021-08-10T18:38:31Z</time>
      </trkpt>
      <trkpt lat="45.87265" lon="2.99505">
        <ele>576</ele>
        <time>2021-08-10T18:38:33Z</time>
      </trkpt>
      <trkpt lat="45.87268" lon="2.995">
        <ele>576</ele>
        <time>2021-08-10T18:38:34Z</time>
      </trkpt>
      <trkpt lat="45.87268" lon="2.99499">
        <ele>576</ele>
        <time>2021-08-10T18:38:36Z</time>
      </trkpt>
      <trkpt lat="45.87271" lon="2.99496">
        <ele>576</ele>
        <time>2021-08-10T18:38:37Z</time>
      </trkpt>
      <trkpt lat="45.87271" lon="2.99496">
        <ele>576</ele>
        <time>2021-08-10T18:38:38Z</time>
      </trkpt>
      <trkpt lat="45.87271" lon="2.99495">
        <ele>576</ele>
        <time>2021-08-10T18:38:39Z</time>
      </trkpt>
      <trkpt lat="45.87272" lon="2.99494">
        <ele>576</ele>
        <time>2021-08-10T18:38:40Z</time>
      </trkpt>
      <trkpt lat="45.87272" lon="2.99493">
        <ele>576</ele>
        <time>2021-08-10T18:38:42Z</time>
      </trkpt>
      <trkpt lat="45.87275" lon="2.99489">
        <ele>576</ele>
        <time>2021-08-10T18:38:43Z</time>
      </trkpt>
      <trkpt lat="45.87275" lon="2.99488">
        <ele>576</ele>
        <time>2021-08-10T18:38:45Z</time>
      </trkpt>
      <trkpt lat="45.87277" lon="2.99484">
        <ele>576</ele>
        <time>2021-08-10T18:38:46Z</time>
      </trkpt>
      <trkpt lat="45.87277" lon="2.99484">
        <ele>576</ele>
        <time>2021-08-10T18:38:47Z</time>
      </trkpt>
      <trkpt lat="45.87278" lon="2.99483">
        <ele>576</ele>
        <time>2021-08-10T18:38:48Z</time>
      </trkpt>
      <trkpt lat="45.87279" lon="2.99482">
        <ele>576</ele>
        <time>2021-08-10T18:38:50Z</time>
      </trkpt>
      <trkpt lat="45.87283" lon="2.99476">
        <ele>576</ele>
        <time>2021-08-10T18:38:52Z</time>
      </trkpt>
      <trkpt lat="45.87283" lon="2.99476">
        <ele>576</ele>
        <time>2021-08-10T18:38:53Z</time>
      </trkpt>
      <trkpt lat="45.87284" lon="2.99475">
        <ele>576</ele>
        <time>2021-08-10T18:38:54Z</time>
      </trkpt>
      <trkpt lat="45.87289" lon="2.99467">
        <ele>576</ele>
        <time>2021-08-10T18:38:56Z</time>
      </trkpt>
      <trkpt lat="45.87292" lon="2.99464">
        <ele>576</ele>
        <time>2021-08-10T18:38:57Z</time>
      </trkpt>
      <trkpt lat="45.87293" lon="2.99463">
        <ele>576</ele>
        <time>2021-08-10T18:38:58Z</time>
      </trkpt>
      <trkpt lat="45.87293" lon="2.99462">
        <ele>576</ele>
        <time>2021-08-10T18:38:59Z</time>
      </trkpt>
      <trkpt lat="45.87295" lon="2.99461">
        <ele>576</ele>
        <time>2021-08-10T18:39:00Z</time>
      </trkpt>
      <trkpt lat="45.87296" lon="2.9946">
        <ele>576</ele>
        <time>2021-08-10T18:39:01Z</time>
      </trkpt>
      <trkpt lat="45.87297" lon="2.99459">
        <ele>576</ele>
        <time>2021-08-10T18:39:02Z</time>
      </trkpt>
      <trkpt lat="45.87298" lon="2.99458">
        <ele>576</ele>
        <time>2021-08-10T18:39:04Z</time>
      </trkpt>
      <trkpt lat="45.87301" lon="2.99453">
        <ele>576</ele>
        <time>2021-08-10T18:39:05Z</time>
      </trkpt>
      <trkpt lat="45.87301" lon="2.99453">
        <ele>576</ele>
        <time>2021-08-10T18:39:07Z</time>
      </trkpt>
      <trkpt lat="45.87304" lon="2.99449">
        <ele>576</ele>
        <time>2021-08-10T18:39:08Z</time>
      </trkpt>
      <trkpt lat="45.87304" lon="2.99449">
        <ele>576</ele>
        <time>2021-08-10T18:39:09Z</time>
      </trkpt>
      <trkpt lat="45.87304" lon="2.99448">
        <ele>576</ele>
        <time>2021-08-10T18:39:10Z</time>
      </trkpt>
      <trkpt lat="45.87304" lon="2.99447">
        <ele>576</ele>
        <time>2021-08-10T18:39:11Z</time>
      </trkpt>
      <trkpt lat="45.87304" lon="2.99445">
        <ele>576</ele>
        <time>2021-08-10T18:39:12Z</time>
      </trkpt>
      <trkpt lat="45.87304" lon="2.99444">
        <ele>576</ele>
        <time>2021-08-10T18:39:14Z</time>
      </trkpt>
      <trkpt lat="45.87306" lon="2.99438">
        <ele>576</ele>
        <time>2021-08-10T18:39:15Z</time>
      </trkpt>
      <trkpt lat="45.87306" lon="2.99438">
        <ele>576</ele>
        <time>2021-08-10T18:39:16Z</time>
      </trkpt>
      <trkpt lat="45.87307" lon="2.99437">
        <ele>576</ele>
        <time>2021-08-10T18:39:17Z</time>
      </trkpt>
      <trkpt lat="45.87307" lon="2.99436">
        <ele>576</ele>
        <time>2021-08-10T18:39:18Z</time>
      </trkpt>
      <trkpt lat="45.87307" lon="2.99434">
        <ele>576</ele>
        <time>2021-08-10T18:39:20Z</time>
      </trkpt>
      <trkpt lat="45.87309" lon="2.99427">
        <ele>576</ele>
        <time>2021-08-10T18:39:21Z</time>
      </trkpt>
      <trkpt lat="45.87309" lon="2.99426">
        <ele>576</ele>
        <time>2021-08-10T18:39:23Z</time>
      </trkpt>
      <trkpt lat="45.87311" lon="2.9942">
        <ele>576</ele>
        <time>2021-08-10T18:39:24Z</time>
      </trkpt>
      <trkpt lat="45.87311" lon="2.99419">
        <ele>576</ele>
        <time>2021-08-10T18:39:26Z</time>
      </trkpt>
      <trkpt lat="45.87313" lon="2.99413">
        <ele>576</ele>
        <time>2021-08-10T18:39:27Z</time>
      </trkpt>
      <trkpt lat="45.87313" lon="2.99412">
        <ele>576</ele>
        <time>2021-08-10T18:39:28Z</time>
      </trkpt>
      <trkpt lat="45.87313" lon="2.9941">
        <ele>576</ele>
        <time>2021-08-10T18:39:29Z</time>
      </trkpt>
      <trkpt lat="45.87313" lon="2.99409">
        <ele>576</ele>
        <time>2021-08-10T18:39:30Z</time>
      </trkpt>
      <trkpt lat="45.87314" lon="2.99407">
        <ele>576</ele>
        <time>2021-08-10T18:39:31Z</time>
      </trkpt>
      <trkpt lat="45.87314" lon="2.99405">
        <ele>576</ele>
        <time>2021-08-10T18:39:32Z</time>
      </trkpt>
      <trkpt lat="45.87315" lon="2.99403">
        <ele>576</ele>
        <time>2021-08-10T18:39:34Z</time>
      </trkpt>
      <trkpt lat="45.87315" lon="2.99395">
        <ele>576</ele>
        <time>2021-08-10T18:39:35Z</time>
      </trkpt>
      <trkpt lat="45.87315" lon="2.99395">
        <ele>576</ele>
        <time>2021-08-10T18:39:37Z</time>
      </trkpt>
      <trkpt lat="45.87314" lon="2.9939">
        <ele>576</ele>
        <time>2021-08-10T18:39:38Z</time>
      </trkpt>
      <trkpt lat="45.87314" lon="2.9939">
        <ele>576</ele>
        <time>2021-08-10T18:39:39Z</time>
      </trkpt>
      <trkpt lat="45.87314" lon="2.99389">
        <ele>576</ele>
        <time>2021-08-10T18:39:40Z</time>
      </trkpt>
      <trkpt lat="45.87314" lon="2.99387">
        <ele>576</ele>
        <time>2021-08-10T18:39:42Z</time>
      </trkpt>
      <trkpt lat="45.87314" lon="2.99379">
        <ele>576</ele>
        <time>2021-08-10T18:39:43Z</time>
      </trkpt>
      <trkpt lat="45.87314" lon="2.99379">
        <ele>576</ele>
        <time>2021-08-10T18:39:44Z</time>
      </trkpt>
      <trkpt lat="45.87314" lon="2.99378">
        <ele>576</ele>
        <time>2021-08-10T18:39:46Z</time>
      </trkpt>
      <trkpt lat="45.87314" lon="2.9937">
        <ele>576</ele>
        <time>2021-08-10T18:39:48Z</time>
      </trkpt>
      <trkpt lat="45.87315" lon="2.99365">
        <ele>576</ele>
        <time>2021-08-10T18:39:49Z</time>
      </trkpt>
      <trkpt lat="45.87315" lon="2.99365">
        <ele>576</ele>
        <time>2021-08-10T18:39:50Z</time>
      </trkpt>
      <trkpt lat="45.87316" lon="2.99364">
        <ele>576</ele>
        <time>2021-08-10T18:39:52Z</time>
      </trkpt>
      <trkpt lat="45.87316" lon="2.99362">
        <ele>576</ele>
        <time>2021-08-10T18:39:53Z</time>
      </trkpt>
      <trkpt lat="45.87317" lon="2.9936">
        <ele>576</ele>
        <time>2021-08-10T18:39:54Z</time>
      </trkpt>
      <trkpt lat="45.87318" lon="2.9935">
        <ele>576</ele>
        <time>2021-08-10T18:39:55Z</time>
      </trkpt>
      <trkpt lat="45.87318" lon="2.99349">
        <ele>576</ele>
        <time>2021-08-10T18:39:56Z</time>
      </trkpt>
      <trkpt lat="45.87318" lon="2.99348">
        <ele>576</ele>
        <time>2021-08-10T18:39:58Z</time>
      </trkpt>
      <trkpt lat="45.87318" lon="2.99339">
        <ele>576</ele>
        <time>2021-08-10T18:39:59Z</time>
      </trkpt>
      <trkpt lat="45.87318" lon="2.99338">
        <ele>576</ele>
        <time>2021-08-10T18:40:00Z</time>
      </trkpt>
      <trkpt lat="45.87319" lon="2.99337">
        <ele>576</ele>
        <time>2021-08-10T18:40:01Z</time>
      </trkpt>
      <trkpt lat="45.87319" lon="2.99336">
        <ele>576</ele>
        <time>2021-08-10T18:40:02Z</time>
      </trkpt>
      <trkpt lat="45.87319" lon="2.99334">
        <ele>576</ele>
        <time>2021-08-10T18:40:03Z</time>
      </trkpt>
      <trkpt lat="45.87319" lon="2.99332">
        <ele>576</ele>
        <time>2021-08-10T18:40:04Z</time>
      </trkpt>
      <trkpt lat="45.8732" lon="2.9933">
        <ele>576</ele>
        <time>2021-08-10T18:40:06Z</time>
      </trkpt>
      <trkpt lat="45.8732" lon="2.99323">
        <ele>576</ele>
        <time>2021-08-10T18:40:07Z</time>
      </trkpt>
      <trkpt lat="45.8732" lon="2.99323">
        <ele>576</ele>
        <time>2021-08-10T18:40:09Z</time>
      </trkpt>
      <trkpt lat="45.8732" lon="2.99319">
        <ele>576</ele>
        <time>2021-08-10T18:40:10Z</time>
      </trkpt>
      <trkpt lat="45.8732" lon="2.99319">
        <ele>576</ele>
        <time>2021-08-10T18:40:12Z</time>
      </trkpt>
      <trkpt lat="45.87321" lon="2.99315">
        <ele>576</ele>
        <time>2021-08-10T18:40:13Z</time>
      </trkpt>
      <trkpt lat="45.8732" lon="2.99314">
        <ele>576</ele>
        <time>2021-08-10T18:40:15Z</time>
      </trkpt>
      <trkpt lat="45.87321" lon="2.99311">
        <ele>576</ele>
        <time>2021-08-10T18:40:16Z</time>
      </trkpt>
      <trkpt lat="45.87321" lon="2.9931">
        <ele>576</ele>
        <time>2021-08-10T18:40:17Z</time>
      </trkpt>
      <trkpt lat="45.87321" lon="2.9931">
        <ele>576</ele>
        <time>2021-08-10T18:40:18Z</time>
      </trkpt>
      <trkpt lat="45.87321" lon="2.99309">
        <ele>576</ele>
        <time>2021-08-10T18:40:20Z</time>
      </trkpt>
      <trkpt lat="45.87322" lon="2.99304">
        <ele>576</ele>
        <time>2021-08-10T18:40:21Z</time>
      </trkpt>
      <trkpt lat="45.87322" lon="2.99304">
        <ele>576</ele>
        <time>2021-08-10T18:40:22Z</time>
      </trkpt>
      <trkpt lat="45.87322" lon="2.99304">
        <ele>576</ele>
        <time>2021-08-10T18:40:23Z</time>
      </trkpt>
      <trkpt lat="45.87323" lon="2.99303">
        <ele>576</ele>
        <time>2021-08-10T18:40:24Z</time>
      </trkpt>
      <trkpt lat="45.87323" lon="2.99302">
        <ele>576</ele>
        <time>2021-08-10T18:40:26Z</time>
      </trkpt>
      <trkpt lat="45.87328" lon="2.99296">
        <ele>576</ele>
        <time>2021-08-10T18:40:27Z</time>
      </trkpt>
      <trkpt lat="45.87328" lon="2.99296">
        <ele>576</ele>
        <time>2021-08-10T18:40:28Z</time>
      </trkpt>
      <trkpt lat="45.87328" lon="2.99295">
        <ele>576</ele>
        <time>2021-08-10T18:40:29Z</time>
      </trkpt>
      <trkpt lat="45.87329" lon="2.99294">
        <ele>576</ele>
        <time>2021-08-10T18:40:30Z</time>
      </trkpt>
      <trkpt lat="45.8733" lon="2.99292">
        <ele>576</ele>
        <time>2021-08-10T18:40:31Z</time>
      </trkpt>
      <trkpt lat="45.87331" lon="2.99291">
        <ele>576</ele>
        <time>2021-08-10T18:40:32Z</time>
      </trkpt>
      <trkpt lat="45.87332" lon="2.9929">
        <ele>576</ele>
        <time>2021-08-10T18:40:34Z</time>
      </trkpt>
      <trkpt lat="45.87334" lon="2.99288">
        <ele>576</ele>
        <time>2021-08-10T18:40:35Z</time>
      </trkpt>
      <trkpt lat="45.87335" lon="2.99287">
        <ele>576</ele>
        <time>2021-08-10T18:40:36Z</time>
      </trkpt>
      <trkpt lat="45.87341" lon="2.99281">
        <ele>576</ele>
        <time>2021-08-10T18:40:37Z</time>
      </trkpt>
      <trkpt lat="45.87341" lon="2.99281">
        <ele>576</ele>
        <time>2021-08-10T18:40:38Z</time>
      </trkpt>
      <trkpt lat="45.87343" lon="2.9928">
        <ele>576</ele>
        <time>2021-08-10T18:40:39Z</time>
      </trkpt>
      <trkpt lat="45.87343" lon="2.99278">
        <ele>576</ele>
        <time>2021-08-10T18:40:40Z</time>
      </trkpt>
      <trkpt lat="45.87344" lon="2.99277">
        <ele>576</ele>
        <time>2021-08-10T18:40:41Z</time>
      </trkpt>
      <trkpt lat="45.87345" lon="2.99275">
        <ele>576</ele>
        <time>2021-08-10T18:40:43Z</time>
      </trkpt>
      <trkpt lat="45.87347" lon="2.99269">
        <ele>576</ele>
        <time>2021-08-10T18:40:44Z</time>
      </trkpt>
      <trkpt lat="45.87347" lon="2.99268">
        <ele>576</ele>
        <time>2021-08-10T18:40:45Z</time>
      </trkpt>
      <trkpt lat="45.87347" lon="2.99267">
        <ele>576</ele>
        <time>2021-08-10T18:40:46Z</time>
      </trkpt>
      <trkpt lat="45.87348" lon="2.99266">
        <ele>576</ele>
        <time>2021-08-10T18:40:47Z</time>
      </trkpt>
      <trkpt lat="45.87349" lon="2.99261">
        <ele>576</ele>
        <time>2021-08-10T18:40:48Z</time>
      </trkpt>
      <trkpt lat="45.87349" lon="2.99261">
        <ele>576</ele>
        <time>2021-08-10T18:40:49Z</time>
      </trkpt>
      <trkpt lat="45.87349" lon="2.9926">
        <ele>576</ele>
        <time>2021-08-10T18:40:51Z</time>
      </trkpt>
      <trkpt lat="45.87349" lon="2.99259">
        <ele>576</ele>
        <time>2021-08-10T18:40:52Z</time>
      </trkpt>
      <trkpt lat="45.8735" lon="2.99258">
        <ele>576</ele>
        <time>2021-08-10T18:40:53Z</time>
      </trkpt>
      <trkpt lat="45.87353" lon="2.99252">
        <ele>576</ele>
        <time>2021-08-10T18:40:55Z</time>
      </trkpt>
      <trkpt lat="45.87356" lon="2.99247">
        <ele>576</ele>
        <time>2021-08-10T18:40:56Z</time>
      </trkpt>
      <trkpt lat="45.87356" lon="2.99247">
        <ele>576</ele>
        <time>2021-08-10T18:40:57Z</time>
      </trkpt>
      <trkpt lat="45.87357" lon="2.99246">
        <ele>576</ele>
        <time>2021-08-10T18:40:58Z</time>
      </trkpt>
      <trkpt lat="45.87358" lon="2.99244">
        <ele>576</ele>
        <time>2021-08-10T18:40:59Z</time>
      </trkpt>
      <trkpt lat="45.87359" lon="2.99242">
        <ele>576</ele>
        <time>2021-08-10T18:41:01Z</time>
      </trkpt>
      <trkpt lat="45.87363" lon="2.99232">
        <ele>576</ele>
        <time>2021-08-10T18:41:02Z</time>
      </trkpt>
      <trkpt lat="45.87364" lon="2.99232">
        <ele>576</ele>
        <time>2021-08-10T18:41:03Z</time>
      </trkpt>
      <trkpt lat="45.87364" lon="2.9923">
        <ele>576</ele>
        <time>2021-08-10T18:41:04Z</time>
      </trkpt>
      <trkpt lat="45.87364" lon="2.99229">
        <ele>576</ele>
        <time>2021-08-10T18:41:05Z</time>
      </trkpt>
      <trkpt lat="45.87365" lon="2.99227">
        <ele>576</ele>
        <time>2021-08-10T18:41:06Z</time>
      </trkpt>
      <trkpt lat="45.87366" lon="2.99225">
        <ele>576</ele>
        <time>2021-08-10T18:41:07Z</time>
      </trkpt>
      <trkpt lat="45.87367" lon="2.99223">
        <ele>576</ele>
        <time>2021-08-10T18:41:08Z</time>
      </trkpt>
      <trkpt lat="45.87367" lon="2.99221">
        <ele>576</ele>
        <time>2021-08-10T18:41:09Z</time>
      </trkpt>
      <trkpt lat="45.87368" lon="2.99219">
        <ele>576</ele>
        <time>2021-08-10T18:41:11Z</time>
      </trkpt>
      <trkpt lat="45.8737" lon="2.99211">
        <ele>576</ele>
        <time>2021-08-10T18:41:13Z</time>
      </trkpt>
      <trkpt lat="45.8737" lon="2.99208">
        <ele>576</ele>
        <time>2021-08-10T18:41:14Z</time>
      </trkpt>
      <trkpt lat="45.8737" lon="2.99208">
        <ele>576</ele>
        <time>2021-08-10T18:41:15Z</time>
      </trkpt>
      <trkpt lat="45.87371" lon="2.99207">
        <ele>576</ele>
        <time>2021-08-10T18:41:16Z</time>
      </trkpt>
      <trkpt lat="45.87371" lon="2.99206">
        <ele>576</ele>
        <time>2021-08-10T18:41:17Z</time>
      </trkpt>
      <trkpt lat="45.87371" lon="2.99205">
        <ele>576</ele>
        <time>2021-08-10T18:41:19Z</time>
      </trkpt>
      <trkpt lat="45.87373" lon="2.992">
        <ele>576</ele>
        <time>2021-08-10T18:41:20Z</time>
      </trkpt>
      <trkpt lat="45.87374" lon="2.99199">
        <ele>576</ele>
        <time>2021-08-10T18:41:21Z</time>
      </trkpt>
      <trkpt lat="45.87374" lon="2.99198">
        <ele>576</ele>
        <time>2021-08-10T18:41:22Z</time>
      </trkpt>
      <trkpt lat="45.87374" lon="2.99197">
        <ele>576</ele>
        <time>2021-08-10T18:41:23Z</time>
      </trkpt>
      <trkpt lat="45.87374" lon="2.99196">
        <ele>576</ele>
        <time>2021-08-10T18:41:24Z</time>
      </trkpt>
      <trkpt lat="45.87374" lon="2.99195">
        <ele>576</ele>
        <time>2021-08-10T18:41:25Z</time>
      </trkpt>
      <trkpt lat="45.87374" lon="2.99194">
        <ele>576</ele>
        <time>2021-08-10T18:41:27Z</time>
      </trkpt>
      <trkpt lat="45.87377" lon="2.99188">
        <ele>576</ele>
        <time>2021-08-10T18:41:28Z</time>
      </trkpt>
      <trkpt lat="45.87377" lon="2.99188">
        <ele>576</ele>
        <time>2021-08-10T18:41:30Z</time>
      </trkpt>
      <trkpt lat="45.87379" lon="2.99183">
        <ele>576</ele>
        <time>2021-08-10T18:41:31Z</time>
      </trkpt>
      <trkpt lat="45.8738" lon="2.99183">
        <ele>576</ele>
        <time>2021-08-10T18:41:32Z</time>
      </trkpt>
      <trkpt lat="45.8738" lon="2.99182">
        <ele>576</ele>
        <time>2021-08-10T18:41:33Z</time>
      </trkpt>
      <trkpt lat="45.8738" lon="2.99181">
        <ele>576</ele>
        <time>2021-08-10T18:41:35Z</time>
      </trkpt>
      <trkpt lat="45.87383" lon="2.99174">
        <ele>576</ele>
        <time>2021-08-10T18:41:36Z</time>
      </trkpt>
      <trkpt lat="45.87383" lon="2.99174">
        <ele>576</ele>
        <time>2021-08-10T18:41:37Z</time>
      </trkpt>
      <trkpt lat="45.87384" lon="2.99173">
        <ele>576</ele>
        <time>2021-08-10T18:41:39Z</time>
      </trkpt>
      <trkpt lat="45.87387" lon="2.99165">
        <ele>576</ele>
        <time>2021-08-10T18:41:40Z</time>
      </trkpt>
      <trkpt lat="45.87388" lon="2.99165">
        <ele>576</ele>
        <time>2021-08-10T18:41:41Z</time>
      </trkpt>
      <trkpt lat="45.87388" lon="2.99164">
        <ele>576</ele>
        <time>2021-08-10T18:41:42Z</time>
      </trkpt>
      <trkpt lat="45.87388" lon="2.99162">
        <ele>576</ele>
        <time>2021-08-10T18:41:43Z</time>
      </trkpt>
      <trkpt lat="45.87389" lon="2.99161">
        <ele>576</ele>
        <time>2021-08-10T18:41:44Z</time>
      </trkpt>
      <trkpt lat="45.8739" lon="2.99159">
        <ele>576</ele>
        <time>2021-08-10T18:41:45Z</time>
      </trkpt>
      <trkpt lat="45.87391" lon="2.99157">
        <ele>576</ele>
        <time>2021-08-10T18:41:47Z</time>
      </trkpt>
      <trkpt lat="45.87392" lon="2.99148">
        <ele>576</ele>
        <time>2021-08-10T18:41:48Z</time>
      </trkpt>
      <trkpt lat="45.87392" lon="2.99147">
        <ele>576</ele>
        <time>2021-08-10T18:41:49Z</time>
      </trkpt>
      <trkpt lat="45.87392" lon="2.99147">
        <ele>576</ele>
        <time>2021-08-10T18:41:51Z</time>
      </trkpt>
      <trkpt lat="45.87393" lon="2.99145">
        <ele>576</ele>
        <time>2021-08-10T18:41:52Z</time>
      </trkpt>
      <trkpt lat="45.87394" lon="2.99144">
        <ele>576</ele>
        <time>2021-08-10T18:41:53Z</time>
      </trkpt>
      <trkpt lat="45.87396" lon="2.99137">
        <ele>576</ele>
        <time>2021-08-10T18:41:54Z</time>
      </trkpt>
      <trkpt lat="45.87396" lon="2.99136">
        <ele>576</ele>
        <time>2021-08-10T18:41:56Z</time>
      </trkpt>
      <trkpt lat="45.87396" lon="2.99132">
        <ele>576</ele>
        <time>2021-08-10T18:41:57Z</time>
      </trkpt>
      <trkpt lat="45.87396" lon="2.99132">
        <ele>576</ele>
        <time>2021-08-10T18:41:59Z</time>
      </trkpt>
      <trkpt lat="45.87396" lon="2.99126">
        <ele>576</ele>
        <time>2021-08-10T18:42:00Z</time>
      </trkpt>
      <trkpt lat="45.87396" lon="2.99126">
        <ele>576</ele>
        <time>2021-08-10T18:42:01Z</time>
      </trkpt>
      <trkpt lat="45.87397" lon="2.99125">
        <ele>576</ele>
        <time>2021-08-10T18:42:02Z</time>
      </trkpt>
      <trkpt lat="45.87397" lon="2.99123">
        <ele>576</ele>
        <time>2021-08-10T18:42:03Z</time>
      </trkpt>
      <trkpt lat="45.87398" lon="2.99122">
        <ele>576</ele>
        <time>2021-08-10T18:42:04Z</time>
      </trkpt>
      <trkpt lat="45.87399" lon="2.9912">
        <ele>576</ele>
        <time>2021-08-10T18:42:05Z</time>
      </trkpt>
      <trkpt lat="45.87399" lon="2.99119">
        <ele>576</ele>
        <time>2021-08-10T18:42:07Z</time>
      </trkpt>
      <trkpt lat="45.87402" lon="2.99111">
        <ele>576</ele>
        <time>2021-08-10T18:42:08Z</time>
      </trkpt>
      <trkpt lat="45.87402" lon="2.99111">
        <ele>576</ele>
        <time>2021-08-10T18:42:10Z</time>
      </trkpt>
      <trkpt lat="45.87404" lon="2.99105">
        <ele>576</ele>
        <time>2021-08-10T18:42:11Z</time>
      </trkpt>
      <trkpt lat="45.87404" lon="2.99104">
        <ele>576</ele>
        <time>2021-08-10T18:42:12Z</time>
      </trkpt>
      <trkpt lat="45.87404" lon="2.99103">
        <ele>576</ele>
        <time>2021-08-10T18:42:13Z</time>
      </trkpt>
      <trkpt lat="45.87405" lon="2.99101">
        <ele>576</ele>
        <time>2021-08-10T18:42:15Z</time>
      </trkpt>
      <trkpt lat="45.87407" lon="2.99095">
        <ele>576</ele>
        <time>2021-08-10T18:42:16Z</time>
      </trkpt>
      <trkpt lat="45.87408" lon="2.99094">
        <ele>576</ele>
        <time>2021-08-10T18:42:17Z</time>
      </trkpt>
      <trkpt lat="45.87408" lon="2.99093">
        <ele>576</ele>
        <time>2021-08-10T18:42:18Z</time>
      </trkpt>
      <trkpt lat="45.87409" lon="2.99091">
        <ele>576</ele>
        <time>2021-08-10T18:42:19Z</time>
      </trkpt>
      <trkpt lat="45.8741" lon="2.9909">
        <ele>576</ele>
        <time>2021-08-10T18:42:21Z</time>
      </trkpt>
      <trkpt lat="45.87413" lon="2.99082">
        <ele>576</ele>
        <time>2021-08-10T18:42:22Z</time>
      </trkpt>
      <trkpt lat="45.87413" lon="2.99081">
        <ele>576</ele>
        <time>2021-08-10T18:42:23Z</time>
      </trkpt>
      <trkpt lat="45.87413" lon="2.9908">
        <ele>576</ele>
        <time>2021-08-10T18:42:24Z</time>
      </trkpt>
      <trkpt lat="45.87414" lon="2.99078">
        <ele>576</ele>
        <time>2021-08-10T18:42:25Z</time>
      </trkpt>
      <trkpt lat="45.87415" lon="2.99077">
        <ele>576</ele>
        <time>2021-08-10T18:42:27Z</time>
      </trkpt>
      <trkpt lat="45.87419" lon="2.99069">
        <ele>576</ele>
        <time>2021-08-10T18:42:28Z</time>
      </trkpt>
      <trkpt lat="45.87419" lon="2.99068">
        <ele>576</ele>
        <time>2021-08-10T18:42:30Z</time>
      </trkpt>
      <trkpt lat="45.8742" lon="2.99063">
        <ele>576</ele>
        <time>2021-08-10T18:42:31Z</time>
      </trkpt>
      <trkpt lat="45.8742" lon="2.99063">
        <ele>576</ele>
        <time>2021-08-10T18:42:33Z</time>
      </trkpt>
      <trkpt lat="45.8742" lon="2.99058">
        <ele>576</ele>
        <time>2021-08-10T18:42:34Z</time>
      </trkpt>
      <trkpt lat="45.8742" lon="2.99057">
        <ele>576</ele>
        <time>2021-08-10T18:42:36Z</time>
      </trkpt>
      <trkpt lat="45.87421" lon="2.99052">
        <ele>576</ele>
        <time>2021-08-10T18:42:37Z</time>
      </trkpt>
      <trkpt lat="45.87421" lon="2.99052">
        <ele>576</ele>
        <time>2021-08-10T18:42:39Z</time>
      </trkpt>
      <trkpt lat="45.87422" lon="2.99044">
        <ele>576</ele>
        <time>2021-08-10T18:42:40Z</time>
      </trkpt>
      <trkpt lat="45.87423" lon="2.99044">
        <ele>576</ele>
        <time>2021-08-10T18:42:41Z</time>
      </trkpt>
      <trkpt lat="45.87423" lon="2.99042">
        <ele>576</ele>
        <time>2021-08-10T18:42:42Z</time>
      </trkpt>
      <trkpt lat="45.87423" lon="2.99041">
        <ele>576</ele>
        <time>2021-08-10T18:42:43Z</time>
      </trkpt>
      <trkpt lat="45.87424" lon="2.99038">
        <ele>576</ele>
        <time>2021-08-10T18:42:44Z</time>
      </trkpt>
      <trkpt lat="45.87424" lon="2.99036">
        <ele>576</ele>
        <time>2021-08-10T18:42:45Z</time>
      </trkpt>
      <trkpt lat="45.87425" lon="2.99034">
        <ele>576</ele>
        <time>2021-08-10T18:42:47Z</time>
      </trkpt>
      <trkpt lat="45.87428" lon="2.99025">
        <ele>576</ele>
        <time>2021-08-10T18:42:48Z</time>
      </trkpt>
      <trkpt lat="45.87428" lon="2.99025">
        <ele>576</ele>
        <time>2021-08-10T18:42:50Z</time>
      </trkpt>
      <trkpt lat="45.87431" lon="2.99019">
        <ele>576</ele>
        <time>2021-08-10T18:42:52Z</time>
      </trkpt>
      <trkpt lat="45.87431" lon="2.99019">
        <ele>576</ele>
        <time>2021-08-10T18:42:53Z</time>
      </trkpt>
      <trkpt lat="45.87432" lon="2.99014">
        <ele>576</ele>
        <time>2021-08-10T18:42:54Z</time>
      </trkpt>
      <trkpt lat="45.87432" lon="2.99013">
        <ele>576</ele>
        <time>2021-08-10T18:42:55Z</time>
      </trkpt>
      <trkpt lat="45.87432" lon="2.99012">
        <ele>576</ele>
        <time>2021-08-10T18:42:57Z</time>
      </trkpt>
      <trkpt lat="45.87433" lon="2.99007">
        <ele>576</ele>
        <time>2021-08-10T18:42:58Z</time>
      </trkpt>
      <trkpt lat="45.87433" lon="2.99007">
        <ele>576</ele>
        <time>2021-08-10T18:42:59Z</time>
      </trkpt>
      <trkpt lat="45.87434" lon="2.99006">
        <ele>576</ele>
        <time>2021-08-10T18:43:01Z</time>
      </trkpt>
      <trkpt lat="45.87434" lon="2.99">
        <ele>576</ele>
        <time>2021-08-10T18:43:02Z</time>
      </trkpt>
      <trkpt lat="45.87435" lon="2.99">
        <ele>576</ele>
        <time>2021-08-10T18:43:03Z</time>
      </trkpt>
      <trkpt lat="45.87435" lon="2.98999">
        <ele>576</ele>
        <time>2021-08-10T18:43:04Z</time>
      </trkpt>
      <trkpt lat="45.87436" lon="2.98998">
        <ele>576</ele>
        <time>2021-08-10T18:43:05Z</time>
      </trkpt>
      <trkpt lat="45.87436" lon="2.98997">
        <ele>576</ele>
        <time>2021-08-10T18:43:07Z</time>
      </trkpt>
      <trkpt lat="45.87439" lon="2.98993">
        <ele>576</ele>
        <time>2021-08-10T18:43:08Z</time>
      </trkpt>
      <trkpt lat="45.87439" lon="2.98993">
        <ele>576</ele>
        <time>2021-08-10T18:43:09Z</time>
      </trkpt>
      <trkpt lat="45.87439" lon="2.98993">
        <ele>576</ele>
        <time>2021-08-10T18:43:10Z</time>
      </trkpt>
      <trkpt lat="45.8744" lon="2.98992">
        <ele>576</ele>
        <time>2021-08-10T18:43:11Z</time>
      </trkpt>
      <trkpt lat="45.8744" lon="2.98991">
        <ele>576</ele>
        <time>2021-08-10T18:43:12Z</time>
      </trkpt>
      <trkpt lat="45.87441" lon="2.9899">
        <ele>576</ele>
        <time>2021-08-10T18:43:13Z</time>
      </trkpt>
      <trkpt lat="45.87441" lon="2.98989">
        <ele>576</ele>
        <time>2021-08-10T18:43:15Z</time>
      </trkpt>
      <trkpt lat="45.87444" lon="2.98986">
        <ele>576</ele>
        <time>2021-08-10T18:43:16Z</time>
      </trkpt>
      <trkpt lat="45.87444" lon="2.98986">
        <ele>576</ele>
        <time>2021-08-10T18:43:18Z</time>
      </trkpt>
      <trkpt lat="45.87447" lon="2.98984">
        <ele>576</ele>
        <time>2021-08-10T18:43:19Z</time>
      </trkpt>
      <trkpt lat="45.87447" lon="2.98984">
        <ele>576</ele>
        <time>2021-08-10T18:43:20Z</time>
      </trkpt>
      <trkpt lat="45.87448" lon="2.98984">
        <ele>576</ele>
        <time>2021-08-10T18:43:21Z</time>
      </trkpt>
      <trkpt lat="45.87449" lon="2.98983">
        <ele>576</ele>
        <time>2021-08-10T18:43:23Z</time>
      </trkpt>
      <trkpt lat="45.87451" lon="2.98981">
        <ele>576</ele>
        <time>2021-08-10T18:43:24Z</time>
      </trkpt>
      <trkpt lat="45.87452" lon="2.98981">
        <ele>576</ele>
        <time>2021-08-10T18:43:26Z</time>
      </trkpt>
      <trkpt lat="45.87454" lon="2.9898">
        <ele>576</ele>
        <time>2021-08-10T18:43:27Z</time>
      </trkpt>
      <trkpt lat="45.87454" lon="2.9898">
        <ele>576</ele>
        <time>2021-08-10T18:43:29Z</time>
      </trkpt>
      <trkpt lat="45.87458" lon="2.98977">
        <ele>576</ele>
        <time>2021-08-10T18:43:31Z</time>
      </trkpt>
      <trkpt lat="45.87461" lon="2.98975">
        <ele>576</ele>
        <time>2021-08-10T18:43:32Z</time>
      </trkpt>
      <trkpt lat="45.87462" lon="2.98975">
        <ele>576</ele>
        <time>2021-08-10T18:43:33Z</time>
      </trkpt>
      <trkpt lat="45.87462" lon="2.98974">
        <ele>576</ele>
        <time>2021-08-10T18:43:34Z</time>
      </trkpt>
      <trkpt lat="45.87463" lon="2.98974">
        <ele>576</ele>
        <time>2021-08-10T18:43:35Z</time>
      </trkpt>
      <trkpt lat="45.87464" lon="2.98973">
        <ele>576</ele>
        <time>2021-08-10T18:43:37Z</time>
      </trkpt>
      <trkpt lat="45.87467" lon="2.9897">
        <ele>576</ele>
        <time>2021-08-10T18:43:38Z</time>
      </trkpt>
      <trkpt lat="45.87468" lon="2.98969">
        <ele>576</ele>
        <time>2021-08-10T18:43:39Z</time>
      </trkpt>
      <trkpt lat="45.8747" lon="2.98968">
        <ele>576</ele>
        <time>2021-08-10T18:43:40Z</time>
      </trkpt>
      <trkpt lat="45.8747" lon="2.98966">
        <ele>576</ele>
        <time>2021-08-10T18:43:41Z</time>
      </trkpt>
      <trkpt lat="45.87472" lon="2.98965">
        <ele>576</ele>
        <time>2021-08-10T18:43:43Z</time>
      </trkpt>
      <trkpt lat="45.87476" lon="2.98959">
        <ele>576</ele>
        <time>2021-08-10T18:43:44Z</time>
      </trkpt>
      <trkpt lat="45.87477" lon="2.98959">
        <ele>576</ele>
        <time>2021-08-10T18:43:45Z</time>
      </trkpt>
      <trkpt lat="45.87477" lon="2.98958">
        <ele>576</ele>
        <time>2021-08-10T18:43:46Z</time>
      </trkpt>
      <trkpt lat="45.87478" lon="2.98957">
        <ele>576</ele>
        <time>2021-08-10T18:43:47Z</time>
      </trkpt>
      <trkpt lat="45.87478" lon="2.98955">
        <ele>576</ele>
        <time>2021-08-10T18:43:48Z</time>
      </trkpt>
      <trkpt lat="45.87479" lon="2.98954">
        <ele>576</ele>
        <time>2021-08-10T18:43:49Z</time>
      </trkpt>
      <trkpt lat="45.87479" lon="2.98952">
        <ele>576</ele>
        <time>2021-08-10T18:43:51Z</time>
      </trkpt>
      <trkpt lat="45.87483" lon="2.98944">
        <ele>576</ele>
        <time>2021-08-10T18:43:53Z</time>
      </trkpt>
      <trkpt lat="45.87486" lon="2.9894">
        <ele>576</ele>
        <time>2021-08-10T18:43:54Z</time>
      </trkpt>
      <trkpt lat="45.87486" lon="2.9894">
        <ele>576</ele>
        <time>2021-08-10T18:43:55Z</time>
      </trkpt>
      <trkpt lat="45.87486" lon="2.98938">
        <ele>576</ele>
        <time>2021-08-10T18:43:57Z</time>
      </trkpt>
      <trkpt lat="45.87489" lon="2.98929">
        <ele>576</ele>
        <time>2021-08-10T18:43:58Z</time>
      </trkpt>
      <trkpt lat="45.87489" lon="2.98929">
        <ele>576</ele>
        <time>2021-08-10T18:43:59Z</time>
      </trkpt>
      <trkpt lat="45.87491" lon="2.98927">
        <ele>576</ele>
        <time>2021-08-10T18:44:01Z</time>
      </trkpt>
      <trkpt lat="45.87493" lon="2.98919">
        <ele>576</ele>
        <time>2021-08-10T18:44:02Z</time>
      </trkpt>
      <trkpt lat="45.87493" lon="2.98919">
        <ele>576</ele>
        <time>2021-08-10T18:44:03Z</time>
      </trkpt>
      <trkpt lat="45.87494" lon="2.98918">
        <ele>576</ele>
        <time>2021-08-10T18:44:05Z</time>
      </trkpt>
      <trkpt lat="45.87495" lon="2.98912">
        <ele>576</ele>
        <time>2021-08-10T18:44:06Z</time>
      </trkpt>
      <trkpt lat="45.87495" lon="2.98912">
        <ele>576</ele>
        <time>2021-08-10T18:44:08Z</time>
      </trkpt>
      <trkpt lat="45.87497" lon="2.98906">
        <ele>576</ele>
        <time>2021-08-10T18:44:09Z</time>
      </trkpt>
      <trkpt lat="45.87497" lon="2.98906">
        <ele>576</ele>
        <time>2021-08-10T18:44:11Z</time>
      </trkpt>
      <trkpt lat="45.87497" lon="2.98898">
        <ele>576</ele>
        <time>2021-08-10T18:44:12Z</time>
      </trkpt>
      <trkpt lat="45.87498" lon="2.98897">
        <ele>576</ele>
        <time>2021-08-10T18:44:14Z</time>
      </trkpt>
      <trkpt lat="45.875" lon="2.98889">
        <ele>576</ele>
        <time>2021-08-10T18:44:15Z</time>
      </trkpt>
      <trkpt lat="45.875" lon="2.98889">
        <ele>576</ele>
        <time>2021-08-10T18:44:16Z</time>
      </trkpt>
      <trkpt lat="45.875" lon="2.98888">
        <ele>576</ele>
        <time>2021-08-10T18:44:17Z</time>
      </trkpt>
      <trkpt lat="45.875" lon="2.98886">
        <ele>576</ele>
        <time>2021-08-10T18:44:19Z</time>
      </trkpt>
      <trkpt lat="45.87503" lon="2.98879">
        <ele>576</ele>
        <time>2021-08-10T18:44:20Z</time>
      </trkpt>
      <trkpt lat="45.87503" lon="2.98878">
        <ele>576</ele>
        <time>2021-08-10T18:44:21Z</time>
      </trkpt>
      <trkpt lat="45.87504" lon="2.98877">
        <ele>576</ele>
        <time>2021-08-10T18:44:22Z</time>
      </trkpt>
      <trkpt lat="45.87504" lon="2.98876">
        <ele>576</ele>
        <time>2021-08-10T18:44:23Z</time>
      </trkpt>
      <trkpt lat="45.87505" lon="2.98875">
        <ele>576</ele>
        <time>2021-08-10T18:44:24Z</time>
      </trkpt>
      <trkpt lat="45.87505" lon="2.98873">
        <ele>576</ele>
        <time>2021-08-10T18:44:25Z</time>
      </trkpt>
      <trkpt lat="45.87506" lon="2.98871">
        <ele>576</ele>
        <time>2021-08-10T18:44:26Z</time>
      </trkpt>
      <trkpt lat="45.87506" lon="2.9887">
        <ele>576</ele>
        <time>2021-08-10T18:44:28Z</time>
      </trkpt>
      <trkpt lat="45.87508" lon="2.98863">
        <ele>576</ele>
        <time>2021-08-10T18:44:29Z</time>
      </trkpt>
      <trkpt lat="45.87508" lon="2.98863">
        <ele>576</ele>
        <time>2021-08-10T18:44:30Z</time>
      </trkpt>
      <trkpt lat="45.87509" lon="2.98862">
        <ele>576</ele>
        <time>2021-08-10T18:44:31Z</time>
      </trkpt>
      <trkpt lat="45.87509" lon="2.98861">
        <ele>576</ele>
        <time>2021-08-10T18:44:33Z</time>
      </trkpt>
      <trkpt lat="45.87509" lon="2.98857">
        <ele>576</ele>
        <time>2021-08-10T18:44:34Z</time>
      </trkpt>
      <trkpt lat="45.87509" lon="2.98856">
        <ele>576</ele>
        <time>2021-08-10T18:44:35Z</time>
      </trkpt>
      <trkpt lat="45.8751" lon="2.98855">
        <ele>576</ele>
        <time>2021-08-10T18:44:37Z</time>
      </trkpt>
      <trkpt lat="45.87511" lon="2.98849">
        <ele>576</ele>
        <time>2021-08-10T18:44:39Z</time>
      </trkpt>
      <trkpt lat="45.87513" lon="2.98844">
        <ele>576</ele>
        <time>2021-08-10T18:44:40Z</time>
      </trkpt>
      <trkpt lat="45.87513" lon="2.98844">
        <ele>576</ele>
        <time>2021-08-10T18:44:41Z</time>
      </trkpt>
      <trkpt lat="45.87513" lon="2.98843">
        <ele>576</ele>
        <time>2021-08-10T18:44:42Z</time>
      </trkpt>
      <trkpt lat="45.87514" lon="2.98841">
        <ele>576</ele>
        <time>2021-08-10T18:44:43Z</time>
      </trkpt>
      <trkpt lat="45.87515" lon="2.98839">
        <ele>576</ele>
        <time>2021-08-10T18:44:45Z</time>
      </trkpt>
      <trkpt lat="45.87518" lon="2.98829">
        <ele>576</ele>
        <time>2021-08-10T18:44:46Z</time>
      </trkpt>
      <trkpt lat="45.87518" lon="2.98828">
        <ele>576</ele>
        <time>2021-08-10T18:44:48Z</time>
      </trkpt>
      <trkpt lat="45.87521" lon="2.98822">
        <ele>576</ele>
        <time>2021-08-10T18:44:49Z</time>
      </trkpt>
      <trkpt lat="45.87521" lon="2.98822">
        <ele>576</ele>
        <time>2021-08-10T18:44:51Z</time>
      </trkpt>
      <trkpt lat="45.87521" lon="2.98821">
        <ele>576</ele>
        <time>2021-08-10T18:44:52Z</time>
      </trkpt>
      <trkpt lat="45.87521" lon="2.9882">
        <ele>576</ele>
        <time>2021-08-10T18:44:53Z</time>
      </trkpt>
      <trkpt lat="45.87522" lon="2.98814">
        <ele>576</ele>
        <time>2021-08-10T18:44:54Z</time>
      </trkpt>
      <trkpt lat="45.87522" lon="2.98813">
        <ele>576</ele>
        <time>2021-08-10T18:44:55Z</time>
      </trkpt>
      <trkpt lat="45.87522" lon="2.98812">
        <ele>576</ele>
        <time>2021-08-10T18:44:57Z</time>
      </trkpt>
      <trkpt lat="45.87521" lon="2.98808">
        <ele>576</ele>
        <time>2021-08-10T18:44:58Z</time>
      </trkpt>
      <trkpt lat="45.87521" lon="2.98807">
        <ele>576</ele>
        <time>2021-08-10T18:45:00Z</time>
      </trkpt>
      <trkpt lat="45.87523" lon="2.98802">
        <ele>576</ele>
        <time>2021-08-10T18:45:01Z</time>
      </trkpt>
      <trkpt lat="45.87523" lon="2.98802">
        <ele>576</ele>
        <time>2021-08-10T18:45:01Z</time>
      </trkpt>
      <trkpt lat="45.87523" lon="2.98801">
        <ele>576</ele>
        <time>2021-08-10T18:45:02Z</time>
      </trkpt>
      <trkpt lat="45.87523" lon="2.98799">
        <ele>576</ele>
        <time>2021-08-10T18:45:04Z</time>
      </trkpt>
      <trkpt lat="45.87524" lon="2.98791">
        <ele>576</ele>
        <time>2021-08-10T18:45:05Z</time>
      </trkpt>
      <trkpt lat="45.87524" lon="2.9879">
        <ele>576</ele>
        <time>2021-08-10T18:45:06Z</time>
      </trkpt>
      <trkpt lat="45.87525" lon="2.98789">
        <ele>576</ele>
        <time>2021-08-10T18:45:07Z</time>
      </trkpt>
      <trkpt lat="45.87526" lon="2.98787">
        <ele>576</ele>
        <time>2021-08-10T18:45:08Z</time>
      </trkpt>
      <trkpt lat="45.87526" lon="2.98785">
        <ele>576</ele>
        <time>2021-08-10T18:45:10Z</time>
      </trkpt>
      <trkpt lat="45.87531" lon="2.98774">
        <ele>576</ele>
        <time>2021-08-10T18:45:11Z</time>
      </trkpt>
      <trkpt lat="45.87531" lon="2.98773">
        <ele>576</ele>
        <time>2021-08-10T18:45:12Z</time>
      </trkpt>
      <trkpt lat="45.87531" lon="2.98772">
        <ele>576</ele>
        <time>2021-08-10T18:45:13Z</time>
      </trkpt>
      <trkpt lat="45.87532" lon="2.98771">
        <ele>576</ele>
        <time>2021-08-10T18:45:14Z</time>
      </trkpt>
      <trkpt lat="45.87533" lon="2.98769">
        <ele>576</ele>
        <time>2021-08-10T18:45:16Z</time>
      </trkpt>
      <trkpt lat="45.87537" lon="2.98761">
        <ele>576</ele>
        <time>2021-08-10T18:45:17Z</time>
      </trkpt>
      <trkpt lat="45.87537" lon="2.9876">
        <ele>576</ele>
        <time>2021-08-10T18:45:18Z</time>
      </trkpt>
      <trkpt lat="45.87537" lon="2.98759">
        <ele>576</ele>
        <time>2021-08-10T18:45:19Z</time>
      </trkpt>
      <trkpt lat="45.87537" lon="2.98758">
        <ele>576</ele>
        <time>2021-08-10T18:45:20Z</time>
      </trkpt>
      <trkpt lat="45.87538" lon="2.98757">
        <ele>576</ele>
        <time>2021-08-10T18:45:21Z</time>
      </trkpt>
      <trkpt lat="45.87539" lon="2.98755">
        <ele>576</ele>
        <time>2021-08-10T18:45:22Z</time>
      </trkpt>
      <trkpt lat="45.87539" lon="2.98754">
        <ele>576</ele>
        <time>2021-08-10T18:45:24Z</time>
      </trkpt>
      <trkpt lat="45.87542" lon="2.98753">
        <ele>576</ele>
        <time>2021-08-10T18:45:27Z</time>
      </trkpt>
      <trkpt lat="45.87542" lon="2.98754">
        <ele>576</ele>
        <time>2021-08-10T18:45:28Z</time>
      </trkpt>
      <trkpt lat="45.87542" lon="2.98755">
        <ele>576</ele>
        <time>2021-08-10T18:45:30Z</time>
      </trkpt>
      <trkpt lat="45.87545" lon="2.98758">
        <ele>576</ele>
        <time>2021-08-10T18:45:32Z</time>
      </trkpt>
      <trkpt lat="45.87546" lon="2.98761">
        <ele>576</ele>
        <time>2021-08-10T18:45:33Z</time>
      </trkpt>
      <trkpt lat="45.87546" lon="2.98761">
        <ele>576</ele>
        <time>2021-08-10T18:45:34Z</time>
      </trkpt>
      <trkpt lat="45.87547" lon="2.98761">
        <ele>576</ele>
        <time>2021-08-10T18:45:35Z</time>
      </trkpt>
      <trkpt lat="45.87547" lon="2.98762">
        <ele>576</ele>
        <time>2021-08-10T18:45:36Z</time>
      </trkpt>
      <trkpt lat="45.87548" lon="2.98763">
        <ele>576</ele>
        <time>2021-08-10T18:45:38Z</time>
      </trkpt>
      <trkpt lat="45.8755" lon="2.98768">
        <ele>576</ele>
        <time>2021-08-10T18:45:39Z</time>
      </trkpt>
      <trkpt lat="45.8755" lon="2.98769">
        <ele>576</ele>
        <time>2021-08-10T18:45:41Z</time>
      </trkpt>
      <trkpt lat="45.87552" lon="2.98772">
        <ele>576</ele>
        <time>2021-08-10T18:45:42Z</time>
      </trkpt>
      <trkpt lat="45.87552" lon="2.98773">
        <ele>576</ele>
        <time>2021-08-10T18:45:43Z</time>
      </trkpt>
      <trkpt lat="45.87553" lon="2.98773">
        <ele>576</ele>
        <time>2021-08-10T18:45:44Z</time>
      </trkpt>
      <trkpt lat="45.87553" lon="2.98774">
        <ele>576</ele>
        <time>2021-08-10T18:45:45Z</time>
      </trkpt>
      <trkpt lat="45.87553" lon="2.98775">
        <ele>576</ele>
        <time>2021-08-10T18:45:46Z</time>
      </trkpt>
      <trkpt lat="45.87554" lon="2.98776">
        <ele>576</ele>
        <time>2021-08-10T18:45:47Z</time>
      </trkpt>
      <trkpt lat="45.87555" lon="2.98777">
        <ele>576</ele>
        <time>2021-08-10T18:45:49Z</time>
      </trkpt>
      <trkpt lat="45.87555" lon="2.98778">
        <ele>576</ele>
        <time>2021-08-10T18:45:50Z</time>
      </trkpt>
      <trkpt lat="45.87557" lon="2.98779">
        <ele>576</ele>
        <time>2021-08-10T18:45:51Z</time>
      </trkpt>
      <trkpt lat="45.87557" lon="2.9878">
        <ele>576</ele>
        <time>2021-08-10T18:45:52Z</time>
      </trkpt>
      <trkpt lat="45.8756" lon="2.98785">
        <ele>576</ele>
        <time>2021-08-10T18:45:53Z</time>
      </trkpt>
      <trkpt lat="45.87561" lon="2.98786">
        <ele>576</ele>
        <time>2021-08-10T18:45:54Z</time>
      </trkpt>
      <trkpt lat="45.87561" lon="2.98786">
        <ele>576</ele>
        <time>2021-08-10T18:45:56Z</time>
      </trkpt>
      <trkpt lat="45.87565" lon="2.98792">
        <ele>576</ele>
        <time>2021-08-10T18:45:57Z</time>
      </trkpt>
      <trkpt lat="45.87565" lon="2.98792">
        <ele>576</ele>
        <time>2021-08-10T18:45:59Z</time>
      </trkpt>
      <trkpt lat="45.87569" lon="2.98798">
        <ele>576</ele>
        <time>2021-08-10T18:46:00Z</time>
      </trkpt>
      <trkpt lat="45.87569" lon="2.98799">
        <ele>576</ele>
        <time>2021-08-10T18:46:01Z</time>
      </trkpt>
      <trkpt lat="45.8757" lon="2.988">
        <ele>576</ele>
        <time>2021-08-10T18:46:02Z</time>
      </trkpt>
      <trkpt lat="45.87571" lon="2.98801">
        <ele>576</ele>
        <time>2021-08-10T18:46:04Z</time>
      </trkpt>
      <trkpt lat="45.87574" lon="2.98808">
        <ele>576</ele>
        <time>2021-08-10T18:46:05Z</time>
      </trkpt>
      <trkpt lat="45.87575" lon="2.98809">
        <ele>576</ele>
        <time>2021-08-10T18:46:06Z</time>
      </trkpt>
      <trkpt lat="45.87575" lon="2.9881">
        <ele>576</ele>
        <time>2021-08-10T18:46:07Z</time>
      </trkpt>
      <trkpt lat="45.87576" lon="2.98811">
        <ele>576</ele>
        <time>2021-08-10T18:46:08Z</time>
      </trkpt>
      <trkpt lat="45.87577" lon="2.98812">
        <ele>576</ele>
        <time>2021-08-10T18:46:10Z</time>
      </trkpt>
      <trkpt lat="45.87582" lon="2.98818">
        <ele>576</ele>
        <time>2021-08-10T18:46:12Z</time>
      </trkpt>
      <trkpt lat="45.87585" lon="2.98821">
        <ele>576</ele>
        <time>2021-08-10T18:46:13Z</time>
      </trkpt>
      <trkpt lat="45.87585" lon="2.98821">
        <ele>576</ele>
        <time>2021-08-10T18:46:14Z</time>
      </trkpt>
      <trkpt lat="45.87585" lon="2.98822">
        <ele>576</ele>
        <time>2021-08-10T18:46:15Z</time>
      </trkpt>
      <trkpt lat="45.87586" lon="2.98823">
        <ele>576</ele>
        <time>2021-08-10T18:46:16Z</time>
      </trkpt>
      <trkpt lat="45.87587" lon="2.98824">
        <ele>576</ele>
        <time>2021-08-10T18:46:18Z</time>
      </trkpt>
      <trkpt lat="45.87591" lon="2.98831">
        <ele>576</ele>
        <time>2021-08-10T18:46:19Z</time>
      </trkpt>
      <trkpt lat="45.87591" lon="2.98831">
        <ele>576</ele>
        <time>2021-08-10T18:46:20Z</time>
      </trkpt>
      <trkpt lat="45.87592" lon="2.98832">
        <ele>576</ele>
        <time>2021-08-10T18:46:21Z</time>
      </trkpt>
      <trkpt lat="45.87593" lon="2.98833">
        <ele>576</ele>
        <time>2021-08-10T18:46:22Z</time>
      </trkpt>
      <trkpt lat="45.87594" lon="2.98834">
        <ele>576</ele>
        <time>2021-08-10T18:46:23Z</time>
      </trkpt>
      <trkpt lat="45.87595" lon="2.98835">
        <ele>576</ele>
        <time>2021-08-10T18:46:24Z</time>
      </trkpt>
      <trkpt lat="45.87596" lon="2.98836">
        <ele>576</ele>
        <time>2021-08-10T18:46:26Z</time>
      </trkpt>
      <trkpt lat="45.87599" lon="2.9884">
        <ele>576</ele>
        <time>2021-08-10T18:46:27Z</time>
      </trkpt>
      <trkpt lat="45.876" lon="2.98841">
        <ele>576</ele>
        <time>2021-08-10T18:46:29Z</time>
      </trkpt>
      <trkpt lat="45.87602" lon="2.98843">
        <ele>576</ele>
        <time>2021-08-10T18:46:30Z</time>
      </trkpt>
      <trkpt lat="45.87602" lon="2.98843">
        <ele>576</ele>
        <time>2021-08-10T18:46:31Z</time>
      </trkpt>
      <trkpt lat="45.87602" lon="2.98844">
        <ele>576</ele>
        <time>2021-08-10T18:46:32Z</time>
      </trkpt>
      <trkpt lat="45.87602" lon="2.98844">
        <ele>576</ele>
        <time>2021-08-10T18:46:33Z</time>
      </trkpt>
      <trkpt lat="45.87603" lon="2.98845">
        <ele>576</ele>
        <time>2021-08-10T18:46:34Z</time>
      </trkpt>
      <trkpt lat="45.87603" lon="2.98846">
        <ele>576</ele>
        <time>2021-08-10T18:46:35Z</time>
      </trkpt>
      <trkpt lat="45.87603" lon="2.98847">
        <ele>576</ele>
        <time>2021-08-10T18:46:36Z</time>
      </trkpt>
      <trkpt lat="45.87605" lon="2.98849">
        <ele>576</ele>
        <time>2021-08-10T18:46:37Z</time>
      </trkpt>
      <trkpt lat="45.87605" lon="2.9885">
        <ele>576</ele>
        <time>2021-08-10T18:46:38Z</time>
      </trkpt>
      <trkpt lat="45.87606" lon="2.98852">
        <ele>576</ele>
        <time>2021-08-10T18:46:40Z</time>
      </trkpt>
      <trkpt lat="45.87611" lon="2.98857">
        <ele>576</ele>
        <time>2021-08-10T18:46:41Z</time>
      </trkpt>
      <trkpt lat="45.87611" lon="2.98857">
        <ele>576</ele>
        <time>2021-08-10T18:46:42Z</time>
      </trkpt>
      <trkpt lat="45.87612" lon="2.98858">
        <ele>576</ele>
        <time>2021-08-10T18:46:43Z</time>
      </trkpt>
      <trkpt lat="45.87613" lon="2.9886">
        <ele>576</ele>
        <time>2021-08-10T18:46:44Z</time>
      </trkpt>
      <trkpt lat="45.87614" lon="2.98862">
        <ele>576</ele>
        <time>2021-08-10T18:46:45Z</time>
      </trkpt>
      <trkpt lat="45.87615" lon="2.98864">
        <ele>576</ele>
        <time>2021-08-10T18:46:46Z</time>
      </trkpt>
      <trkpt lat="45.87616" lon="2.98866">
        <ele>576</ele>
        <time>2021-08-10T18:46:48Z</time>
      </trkpt>
      <trkpt lat="45.87623" lon="2.98876">
        <ele>576</ele>
        <time>2021-08-10T18:46:50Z</time>
      </trkpt>
      <trkpt lat="45.87623" lon="2.98877">
        <ele>576</ele>
        <time>2021-08-10T18:46:51Z</time>
      </trkpt>
      <trkpt lat="45.87624" lon="2.98878">
        <ele>576</ele>
        <time>2021-08-10T18:46:52Z</time>
      </trkpt>
      <trkpt lat="45.87629" lon="2.98884">
        <ele>576</ele>
        <time>2021-08-10T18:46:53Z</time>
      </trkpt>
      <trkpt lat="45.87629" lon="2.98885">
        <ele>576</ele>
        <time>2021-08-10T18:46:54Z</time>
      </trkpt>
      <trkpt lat="45.87629" lon="2.98885">
        <ele>576</ele>
        <time>2021-08-10T18:46:55Z</time>
      </trkpt>
      <trkpt lat="45.87629" lon="2.98886">
        <ele>576</ele>
        <time>2021-08-10T18:46:56Z</time>
      </trkpt>
      <trkpt lat="45.8763" lon="2.98886">
        <ele>576</ele>
        <time>2021-08-10T18:46:58Z</time>
      </trkpt>
      <trkpt lat="45.87632" lon="2.98889">
        <ele>576</ele>
        <time>2021-08-10T18:46:59Z</time>
      </trkpt>
      <trkpt lat="45.87632" lon="2.9889">
        <ele>576</ele>
        <time>2021-08-10T18:47:00Z</time>
      </trkpt>
      <trkpt lat="45.87632" lon="2.9889">
        <ele>576</ele>
        <time>2021-08-10T18:47:01Z</time>
      </trkpt>
      <trkpt lat="45.87633" lon="2.98891">
        <ele>576</ele>
        <time>2021-08-10T18:47:02Z</time>
      </trkpt>
      <trkpt lat="45.87633" lon="2.98893">
        <ele>576</ele>
        <time>2021-08-10T18:47:03Z</time>
      </trkpt>
      <trkpt lat="45.87634" lon="2.98894">
        <ele>576</ele>
        <time>2021-08-10T18:47:04Z</time>
      </trkpt>
      <trkpt lat="45.87635" lon="2.98896">
        <ele>576</ele>
        <time>2021-08-10T18:47:06Z</time>
      </trkpt>
      <trkpt lat="45.8764" lon="2.98906">
        <ele>576</ele>
        <time>2021-08-10T18:47:07Z</time>
      </trkpt>
      <trkpt lat="45.87641" lon="2.98907">
        <ele>576</ele>
        <time>2021-08-10T18:47:09Z</time>
      </trkpt>
      <trkpt lat="45.87645" lon="2.98913">
        <ele>576</ele>
        <time>2021-08-10T18:47:10Z</time>
      </trkpt>
      <trkpt lat="45.87646" lon="2.98914">
        <ele>576</ele>
        <time>2021-08-10T18:47:11Z</time>
      </trkpt>
      <trkpt lat="45.87647" lon="2.98915">
        <ele>576</ele>
        <time>2021-08-10T18:47:12Z</time>
      </trkpt>
      <trkpt lat="45.87647" lon="2.98916">
        <ele>576</ele>
        <time>2021-08-10T18:47:14Z</time>
      </trkpt>
      <trkpt lat="45.8765" lon="2.9892">
        <ele>576</ele>
        <time>2021-08-10T18:47:15Z</time>
      </trkpt>
      <trkpt lat="45.8765" lon="2.98921">
        <ele>576</ele>
        <time>2021-08-10T18:47:17Z</time>
      </trkpt>
      <trkpt lat="45.87651" lon="2.98923">
        <ele>576</ele>
        <time>2021-08-10T18:47:18Z</time>
      </trkpt>
      <trkpt lat="45.87651" lon="2.98923">
        <ele>576</ele>
        <time>2021-08-10T18:47:19Z</time>
      </trkpt>
      <trkpt lat="45.87652" lon="2.98923">
        <ele>576</ele>
        <time>2021-08-10T18:47:20Z</time>
      </trkpt>
      <trkpt lat="45.87653" lon="2.98924">
        <ele>576</ele>
        <time>2021-08-10T18:47:22Z</time>
      </trkpt>
      <trkpt lat="45.87656" lon="2.98931">
        <ele>576</ele>
        <time>2021-08-10T18:47:23Z</time>
      </trkpt>
      <trkpt lat="45.87656" lon="2.98932">
        <ele>576</ele>
        <time>2021-08-10T18:47:24Z</time>
      </trkpt>
      <trkpt lat="45.87657" lon="2.98933">
        <ele>576</ele>
        <time>2021-08-10T18:47:25Z</time>
      </trkpt>
      <trkpt lat="45.87658" lon="2.98935">
        <ele>576</ele>
        <time>2021-08-10T18:47:26Z</time>
      </trkpt>
      <trkpt lat="45.8766" lon="2.98936">
        <ele>576</ele>
        <time>2021-08-10T18:47:28Z</time>
      </trkpt>
      <trkpt lat="45.87666" lon="2.98945">
        <ele>576</ele>
        <time>2021-08-10T18:47:30Z</time>
      </trkpt>
      <trkpt lat="45.87668" lon="2.98949">
        <ele>576</ele>
        <time>2021-08-10T18:47:31Z</time>
      </trkpt>
      <trkpt lat="45.87669" lon="2.9895">
        <ele>576</ele>
        <time>2021-08-10T18:47:32Z</time>
      </trkpt>
      <trkpt lat="45.87669" lon="2.98951">
        <ele>576</ele>
        <time>2021-08-10T18:47:33Z</time>
      </trkpt>
      <trkpt lat="45.87669" lon="2.98952">
        <ele>576</ele>
        <time>2021-08-10T18:47:34Z</time>
      </trkpt>
      <trkpt lat="45.87671" lon="2.98953">
        <ele>576</ele>
        <time>2021-08-10T18:47:36Z</time>
      </trkpt>
      <trkpt lat="45.87674" lon="2.98958">
        <ele>576</ele>
        <time>2021-08-10T18:47:37Z</time>
      </trkpt>
      <trkpt lat="45.87674" lon="2.98959">
        <ele>576</ele>
        <time>2021-08-10T18:47:39Z</time>
      </trkpt>
      <trkpt lat="45.87676" lon="2.98961">
        <ele>576</ele>
        <time>2021-08-10T18:47:40Z</time>
      </trkpt>
      <trkpt lat="45.87676" lon="2.98961">
        <ele>576</ele>
        <time>2021-08-10T18:47:41Z</time>
      </trkpt>
      <trkpt lat="45.87676" lon="2.98962">
        <ele>576</ele>
        <time>2021-08-10T18:47:42Z</time>
      </trkpt>
      <trkpt lat="45.87676" lon="2.98962">
        <ele>576</ele>
        <time>2021-08-10T18:47:44Z</time>
      </trkpt>
      <trkpt lat="45.87681" lon="2.98969">
        <ele>576</ele>
        <time>2021-08-10T18:47:45Z</time>
      </trkpt>
      <trkpt lat="45.87681" lon="2.98969">
        <ele>576</ele>
        <time>2021-08-10T18:47:47Z</time>
      </trkpt>
      <trkpt lat="45.87687" lon="2.98976">
        <ele>576</ele>
        <time>2021-08-10T18:47:48Z</time>
      </trkpt>
      <trkpt lat="45.87687" lon="2.98976">
        <ele>576</ele>
        <time>2021-08-10T18:47:50Z</time>
      </trkpt>
      <trkpt lat="45.87688" lon="2.98978">
        <ele>576</ele>
        <time>2021-08-10T18:47:51Z</time>
      </trkpt>
      <trkpt lat="45.87689" lon="2.98979">
        <ele>576</ele>
        <time>2021-08-10T18:47:52Z</time>
      </trkpt>
      <trkpt lat="45.87693" lon="2.98985">
        <ele>576</ele>
        <time>2021-08-10T18:47:53Z</time>
      </trkpt>
      <trkpt lat="45.87693" lon="2.98986">
        <ele>576</ele>
        <time>2021-08-10T18:47:54Z</time>
      </trkpt>
      <trkpt lat="45.87694" lon="2.98986">
        <ele>576</ele>
        <time>2021-08-10T18:47:55Z</time>
      </trkpt>
      <trkpt lat="45.87695" lon="2.98987">
        <ele>576</ele>
        <time>2021-08-10T18:47:56Z</time>
      </trkpt>
      <trkpt lat="45.87695" lon="2.98988">
        <ele>576</ele>
        <time>2021-08-10T18:47:57Z</time>
      </trkpt>
      <trkpt lat="45.87696" lon="2.9899">
        <ele>576</ele>
        <time>2021-08-10T18:47:58Z</time>
      </trkpt>
      <trkpt lat="45.87696" lon="2.98991">
        <ele>576</ele>
        <time>2021-08-10T18:48:00Z</time>
      </trkpt>
      <trkpt lat="45.87698" lon="2.98997">
        <ele>576</ele>
        <time>2021-08-10T18:48:01Z</time>
      </trkpt>
      <trkpt lat="45.87699" lon="2.98997">
        <ele>576</ele>
        <time>2021-08-10T18:48:03Z</time>
      </trkpt>
      <trkpt lat="45.87701" lon="2.99005">
        <ele>576</ele>
        <time>2021-08-10T18:48:04Z</time>
      </trkpt>
      <trkpt lat="45.87701" lon="2.99006">
        <ele>576</ele>
        <time>2021-08-10T18:48:06Z</time>
      </trkpt>
      <trkpt lat="45.87704" lon="2.99011">
        <ele>576</ele>
        <time>2021-08-10T18:48:08Z</time>
      </trkpt>
      <trkpt lat="45.87705" lon="2.99014">
        <ele>576</ele>
        <time>2021-08-10T18:48:09Z</time>
      </trkpt>
      <trkpt lat="45.87705" lon="2.99015">
        <ele>576</ele>
        <time>2021-08-10T18:48:10Z</time>
      </trkpt>
      <trkpt lat="45.87706" lon="2.99015">
        <ele>576</ele>
        <time>2021-08-10T18:48:11Z</time>
      </trkpt>
      <trkpt lat="45.87706" lon="2.99016">
        <ele>576</ele>
        <time>2021-08-10T18:48:12Z</time>
      </trkpt>
      <trkpt lat="45.87706" lon="2.99017">
        <ele>576</ele>
        <time>2021-08-10T18:48:14Z</time>
      </trkpt>
      <trkpt lat="45.87708" lon="2.99023">
        <ele>576</ele>
        <time>2021-08-10T18:48:15Z</time>
      </trkpt>
      <trkpt lat="45.87708" lon="2.99023">
        <ele>576</ele>
        <time>2021-08-10T18:48:16Z</time>
      </trkpt>
      <trkpt lat="45.87709" lon="2.99024">
        <ele>576</ele>
        <time>2021-08-10T18:48:17Z</time>
      </trkpt>
      <trkpt lat="45.87709" lon="2.99025">
        <ele>576</ele>
        <time>2021-08-10T18:48:18Z</time>
      </trkpt>
      <trkpt lat="45.87709" lon="2.99027">
        <ele>576</ele>
        <time>2021-08-10T18:48:20Z</time>
      </trkpt>
      <trkpt lat="45.87713" lon="2.99036">
        <ele>576</ele>
        <time>2021-08-10T18:48:22Z</time>
      </trkpt>
      <trkpt lat="45.87715" lon="2.99041">
        <ele>576</ele>
        <time>2021-08-10T18:48:23Z</time>
      </trkpt>
      <trkpt lat="45.87715" lon="2.99042">
        <ele>576</ele>
        <time>2021-08-10T18:48:24Z</time>
      </trkpt>
      <trkpt lat="45.87716" lon="2.99042">
        <ele>576</ele>
        <time>2021-08-10T18:48:25Z</time>
      </trkpt>
      <trkpt lat="45.87716" lon="2.99044">
        <ele>576</ele>
        <time>2021-08-10T18:48:26Z</time>
      </trkpt>
      <trkpt lat="45.87717" lon="2.99045">
        <ele>576</ele>
        <time>2021-08-10T18:48:27Z</time>
      </trkpt>
      <trkpt lat="45.87717" lon="2.99047">
        <ele>576</ele>
        <time>2021-08-10T18:48:29Z</time>
      </trkpt>
      <trkpt lat="45.8772" lon="2.99052">
        <ele>576</ele>
        <time>2021-08-10T18:48:30Z</time>
      </trkpt>
      <trkpt lat="45.8772" lon="2.99052">
        <ele>576</ele>
        <time>2021-08-10T18:48:32Z</time>
      </trkpt>
      <trkpt lat="45.87722" lon="2.99057">
        <ele>576</ele>
        <time>2021-08-10T18:48:33Z</time>
      </trkpt>
      <trkpt lat="45.87722" lon="2.99058">
        <ele>576</ele>
        <time>2021-08-10T18:48:35Z</time>
      </trkpt>
      <trkpt lat="45.87725" lon="2.99066">
        <ele>576</ele>
        <time>2021-08-10T18:48:36Z</time>
      </trkpt>
      <trkpt lat="45.87725" lon="2.99066">
        <ele>576</ele>
        <time>2021-08-10T18:48:37Z</time>
      </trkpt>
      <trkpt lat="45.87725" lon="2.99068">
        <ele>576</ele>
        <time>2021-08-10T18:48:38Z</time>
      </trkpt>
      <trkpt lat="45.87726" lon="2.9907">
        <ele>576</ele>
        <time>2021-08-10T18:48:40Z</time>
      </trkpt>
      <trkpt lat="45.8773" lon="2.99081">
        <ele>576</ele>
        <time>2021-08-10T18:48:41Z</time>
      </trkpt>
      <trkpt lat="45.8773" lon="2.99082">
        <ele>576</ele>
        <time>2021-08-10T18:48:42Z</time>
      </trkpt>
      <trkpt lat="45.87731" lon="2.99082">
        <ele>576</ele>
        <time>2021-08-10T18:48:43Z</time>
      </trkpt>
      <trkpt lat="45.87731" lon="2.99083">
        <ele>576</ele>
        <time>2021-08-10T18:48:44Z</time>
      </trkpt>
      <trkpt lat="45.87732" lon="2.99084">
        <ele>576</ele>
        <time>2021-08-10T18:48:46Z</time>
      </trkpt>
      <trkpt lat="45.87734" lon="2.99088">
        <ele>576</ele>
        <time>2021-08-10T18:48:48Z</time>
      </trkpt>
      <trkpt lat="45.87735" lon="2.99092">
        <ele>576</ele>
        <time>2021-08-10T18:48:49Z</time>
      </trkpt>
      <trkpt lat="45.87735" lon="2.99092">
        <ele>576</ele>
        <time>2021-08-10T18:48:51Z</time>
      </trkpt>
      <trkpt lat="45.87735" lon="2.99093">
        <ele>576</ele>
        <time>2021-08-10T18:48:52Z</time>
      </trkpt>
      <trkpt lat="45.87739" lon="2.99098">
        <ele>576</ele>
        <time>2021-08-10T18:48:54Z</time>
      </trkpt>
      <trkpt lat="45.87741" lon="2.99102">
        <ele>576</ele>
        <time>2021-08-10T18:48:55Z</time>
      </trkpt>
      <trkpt lat="45.87742" lon="2.99103">
        <ele>576</ele>
        <time>2021-08-10T18:48:56Z</time>
      </trkpt>
      <trkpt lat="45.87742" lon="2.99104">
        <ele>576</ele>
        <time>2021-08-10T18:48:58Z</time>
      </trkpt>
      <trkpt lat="45.87745" lon="2.9911">
        <ele>576</ele>
        <time>2021-08-10T18:48:59Z</time>
      </trkpt>
      <trkpt lat="45.87745" lon="2.99111">
        <ele>576</ele>
        <time>2021-08-10T18:49:01Z</time>
      </trkpt>
      <trkpt lat="45.87747" lon="2.99116">
        <ele>576</ele>
        <time>2021-08-10T18:49:02Z</time>
      </trkpt>
      <trkpt lat="45.87747" lon="2.99117">
        <ele>576</ele>
        <time>2021-08-10T18:49:04Z</time>
      </trkpt>
      <trkpt lat="45.8775" lon="2.99124">
        <ele>576</ele>
        <time>2021-08-10T18:49:05Z</time>
      </trkpt>
      <trkpt lat="45.87751" lon="2.99124">
        <ele>576</ele>
        <time>2021-08-10T18:49:06Z</time>
      </trkpt>
      <trkpt lat="45.87751" lon="2.99125">
        <ele>576</ele>
        <time>2021-08-10T18:49:07Z</time>
      </trkpt>
      <trkpt lat="45.87753" lon="2.99127">
        <ele>576</ele>
        <time>2021-08-10T18:49:08Z</time>
      </trkpt>
      <trkpt lat="45.87753" lon="2.99128">
        <ele>576</ele>
        <time>2021-08-10T18:49:10Z</time>
      </trkpt>
      <trkpt lat="45.87757" lon="2.99134">
        <ele>576</ele>
        <time>2021-08-10T18:49:11Z</time>
      </trkpt>
      <trkpt lat="45.87757" lon="2.99134">
        <ele>576</ele>
        <time>2021-08-10T18:49:13Z</time>
      </trkpt>
      <trkpt lat="45.8776" lon="2.99139">
        <ele>576</ele>
        <time>2021-08-10T18:49:14Z</time>
      </trkpt>
      <trkpt lat="45.8776" lon="2.99139">
        <ele>576</ele>
        <time>2021-08-10T18:49:16Z</time>
      </trkpt>
      <trkpt lat="45.87764" lon="2.99146">
        <ele>576</ele>
        <time>2021-08-10T18:49:16Z</time>
      </trkpt>
      <trkpt lat="45.87764" lon="2.99146">
        <ele>576</ele>
        <time>2021-08-10T18:49:18Z</time>
      </trkpt>
      <trkpt lat="45.87768" lon="2.99152">
        <ele>576</ele>
        <time>2021-08-10T18:49:19Z</time>
      </trkpt>
      <trkpt lat="45.87768" lon="2.99153">
        <ele>576</ele>
        <time>2021-08-10T18:49:21Z</time>
      </trkpt>
      <trkpt lat="45.87771" lon="2.99157">
        <ele>576</ele>
        <time>2021-08-10T18:49:22Z</time>
      </trkpt>
      <trkpt lat="45.87771" lon="2.99158">
        <ele>576</ele>
        <time>2021-08-10T18:49:24Z</time>
      </trkpt>
      <trkpt lat="45.87773" lon="2.99162">
        <ele>576</ele>
        <time>2021-08-10T18:49:25Z</time>
      </trkpt>
      <trkpt lat="45.87773" lon="2.99162">
        <ele>576</ele>
        <time>2021-08-10T18:49:26Z</time>
      </trkpt>
      <trkpt lat="45.87773" lon="2.99163">
        <ele>576</ele>
        <time>2021-08-10T18:49:27Z</time>
      </trkpt>
      <trkpt lat="45.87774" lon="2.99165">
        <ele>576</ele>
        <time>2021-08-10T18:49:29Z</time>
      </trkpt>
      <trkpt lat="45.87778" lon="2.99173">
        <ele>576</ele>
        <time>2021-08-10T18:49:30Z</time>
      </trkpt>
      <trkpt lat="45.87778" lon="2.99173">
        <ele>576</ele>
        <time>2021-08-10T18:49:31Z</time>
      </trkpt>
      <trkpt lat="45.87779" lon="2.99174">
        <ele>576</ele>
        <time>2021-08-10T18:49:32Z</time>
      </trkpt>
      <trkpt lat="45.8778" lon="2.99176">
        <ele>576</ele>
        <time>2021-08-10T18:49:33Z</time>
      </trkpt>
      <trkpt lat="45.87781" lon="2.99178">
        <ele>576</ele>
        <time>2021-08-10T18:49:34Z</time>
      </trkpt>
      <trkpt lat="45.87782" lon="2.9918">
        <ele>576</ele>
        <time>2021-08-10T18:49:35Z</time>
      </trkpt>
      <trkpt lat="45.87783" lon="2.99182">
        <ele>576</ele>
        <time>2021-08-10T18:49:36Z</time>
      </trkpt>
      <trkpt lat="45.87784" lon="2.99183">
        <ele>576</ele>
        <time>2021-08-10T18:49:37Z</time>
      </trkpt>
      <trkpt lat="45.87785" lon="2.99185">
        <ele>576</ele>
        <time>2021-08-10T18:49:38Z</time>
      </trkpt>
      <trkpt lat="45.87786" lon="2.99186">
        <ele>576</ele>
        <time>2021-08-10T18:49:39Z</time>
      </trkpt>
      <trkpt lat="45.87787" lon="2.99187">
        <ele>576</ele>
        <time>2021-08-10T18:49:41Z</time>
      </trkpt>
      <trkpt lat="45.87791" lon="2.99193">
        <ele>576</ele>
        <time>2021-08-10T18:49:42Z</time>
      </trkpt>
      <trkpt lat="45.87791" lon="2.99194">
        <ele>576</ele>
        <time>2021-08-10T18:49:43Z</time>
      </trkpt>
      <trkpt lat="45.87792" lon="2.99195">
        <ele>576</ele>
        <time>2021-08-10T18:49:44Z</time>
      </trkpt>
      <trkpt lat="45.87793" lon="2.99197">
        <ele>576</ele>
        <time>2021-08-10T18:49:45Z</time>
      </trkpt>
      <trkpt lat="45.87795" lon="2.99199">
        <ele>576</ele>
        <time>2021-08-10T18:49:46Z</time>
      </trkpt>
      <trkpt lat="45.87796" lon="2.99201">
        <ele>576</ele>
        <time>2021-08-10T18:49:47Z</time>
      </trkpt>
      <trkpt lat="45.87796" lon="2.99203">
        <ele>576</ele>
        <time>2021-08-10T18:49:49Z</time>
      </trkpt>
      <trkpt lat="45.87798" lon="2.99205">
        <ele>576</ele>
        <time>2021-08-10T18:49:50Z</time>
      </trkpt>
      <trkpt lat="45.87799" lon="2.99207">
        <ele>576</ele>
        <time>2021-08-10T18:49:51Z</time>
      </trkpt>
      <trkpt lat="45.87802" lon="2.99212">
        <ele>576</ele>
        <time>2021-08-10T18:49:52Z</time>
      </trkpt>
      <trkpt lat="45.87802" lon="2.99212">
        <ele>576</ele>
        <time>2021-08-10T18:49:53Z</time>
      </trkpt>
      <trkpt lat="45.87802" lon="2.99213">
        <ele>576</ele>
        <time>2021-08-10T18:49:55Z</time>
      </trkpt>
      <trkpt lat="45.87805" lon="2.99217">
        <ele>576</ele>
        <time>2021-08-10T18:49:57Z</time>
      </trkpt>
      <trkpt lat="45.87807" lon="2.99221">
        <ele>576</ele>
        <time>2021-08-10T18:49:58Z</time>
      </trkpt>
      <trkpt lat="45.87807" lon="2.99221">
        <ele>576</ele>
        <time>2021-08-10T18:49:59Z</time>
      </trkpt>
      <trkpt lat="45.87808" lon="2.99223">
        <ele>576</ele>
        <time>2021-08-10T18:50:00Z</time>
      </trkpt>
      <trkpt lat="45.87808" lon="2.99225">
        <ele>576</ele>
        <time>2021-08-10T18:50:01Z</time>
      </trkpt>
      <trkpt lat="45.87809" lon="2.99227">
        <ele>576</ele>
        <time>2021-08-10T18:50:03Z</time>
      </trkpt>
      <trkpt lat="45.87814" lon="2.99236">
        <ele>576</ele>
        <time>2021-08-10T18:50:04Z</time>
      </trkpt>
      <trkpt lat="45.87814" lon="2.99236">
        <ele>576</ele>
        <time>2021-08-10T18:50:06Z</time>
      </trkpt>
      <trkpt lat="45.87817" lon="2.9924">
        <ele>576</ele>
        <time>2021-08-10T18:50:07Z</time>
      </trkpt>
      <trkpt lat="45.87817" lon="2.9924">
        <ele>576</ele>
        <time>2021-08-10T18:50:08Z</time>
      </trkpt>
      <trkpt lat="45.87817" lon="2.99241">
        <ele>576</ele>
        <time>2021-08-10T18:50:09Z</time>
      </trkpt>
      <trkpt lat="45.87817" lon="2.99241">
        <ele>576</ele>
        <time>2021-08-10T18:50:11Z</time>
      </trkpt>
      <trkpt lat="45.8782" lon="2.99245">
        <ele>576</ele>
        <time>2021-08-10T18:50:12Z</time>
      </trkpt>
      <trkpt lat="45.8782" lon="2.99245">
        <ele>576</ele>
        <time>2021-08-10T18:50:13Z</time>
      </trkpt>
      <trkpt lat="45.8782" lon="2.99246">
        <ele>576</ele>
        <time>2021-08-10T18:50:15Z</time>
      </trkpt>
      <trkpt lat="45.87823" lon="2.99253">
        <ele>576</ele>
        <time>2021-08-10T18:50:16Z</time>
      </trkpt>
      <trkpt lat="45.87823" lon="2.99254">
        <ele>576</ele>
        <time>2021-08-10T18:50:17Z</time>
      </trkpt>
      <trkpt lat="45.87824" lon="2.99255">
        <ele>576</ele>
        <time>2021-08-10T18:50:18Z</time>
      </trkpt>
      <trkpt lat="45.87825" lon="2.99257">
        <ele>576</ele>
        <time>2021-08-10T18:50:19Z</time>
      </trkpt>
      <trkpt lat="45.87826" lon="2.99259">
        <ele>576</ele>
        <time>2021-08-10T18:50:20Z</time>
      </trkpt>
      <trkpt lat="45.87827" lon="2.99261">
        <ele>576</ele>
        <time>2021-08-10T18:50:21Z</time>
      </trkpt>
      <trkpt lat="45.87829" lon="2.99263">
        <ele>576</ele>
        <time>2021-08-10T18:50:22Z</time>
      </trkpt>
      <trkpt lat="45.8783" lon="2.99265">
        <ele>576</ele>
        <time>2021-08-10T18:50:24Z</time>
      </trkpt>
      <trkpt lat="45.87835" lon="2.99272">
        <ele>576</ele>
        <time>2021-08-10T18:50:25Z</time>
      </trkpt>
      <trkpt lat="45.87835" lon="2.99272">
        <ele>576</ele>
        <time>2021-08-10T18:50:27Z</time>
      </trkpt>
      <trkpt lat="45.87838" lon="2.99276">
        <ele>576</ele>
        <time>2021-08-10T18:50:28Z</time>
      </trkpt>
      <trkpt lat="45.87838" lon="2.99276">
        <ele>576</ele>
        <time>2021-08-10T18:50:30Z</time>
      </trkpt>
      <trkpt lat="45.87841" lon="2.99281">
        <ele>576</ele>
        <time>2021-08-10T18:50:31Z</time>
      </trkpt>
      <trkpt lat="45.87841" lon="2.99281">
        <ele>576</ele>
        <time>2021-08-10T18:50:32Z</time>
      </trkpt>
      <trkpt lat="45.87841" lon="2.99283">
        <ele>576</ele>
        <time>2021-08-10T18:50:33Z</time>
      </trkpt>
      <trkpt lat="45.87842" lon="2.99285">
        <ele>576</ele>
        <time>2021-08-10T18:50:35Z</time>
      </trkpt>
      <trkpt lat="45.87847" lon="2.99294">
        <ele>576</ele>
        <time>2021-08-10T18:50:36Z</time>
      </trkpt>
      <trkpt lat="45.87848" lon="2.99295">
        <ele>576</ele>
        <time>2021-08-10T18:50:37Z</time>
      </trkpt>
      <trkpt lat="45.87848" lon="2.99296">
        <ele>576</ele>
        <time>2021-08-10T18:50:38Z</time>
      </trkpt>
      <trkpt lat="45.87849" lon="2.99297">
        <ele>576</ele>
        <time>2021-08-10T18:50:39Z</time>
      </trkpt>
      <trkpt lat="45.8785" lon="2.99299">
        <ele>576</ele>
        <time>2021-08-10T18:50:41Z</time>
      </trkpt>
      <trkpt lat="45.87853" lon="2.99305">
        <ele>576</ele>
        <time>2021-08-10T18:50:43Z</time>
      </trkpt>
      <trkpt lat="45.87854" lon="2.99306">
        <ele>576</ele>
        <time>2021-08-10T18:50:44Z</time>
      </trkpt>
      <trkpt lat="45.87856" lon="2.99309">
        <ele>576</ele>
        <time>2021-08-10T18:50:45Z</time>
      </trkpt>
      <trkpt lat="45.87856" lon="2.99309">
        <ele>576</ele>
        <time>2021-08-10T18:50:47Z</time>
      </trkpt>
      <trkpt lat="45.87859" lon="2.99311">
        <ele>576</ele>
        <time>2021-08-10T18:50:48Z</time>
      </trkpt>
      <trkpt lat="45.87859" lon="2.99311">
        <ele>576</ele>
        <time>2021-08-10T18:50:50Z</time>
      </trkpt>
      <trkpt lat="45.87859" lon="2.99312">
        <ele>576</ele>
        <time>2021-08-10T18:50:51Z</time>
      </trkpt>
      <trkpt lat="45.87862" lon="2.99319">
        <ele>576</ele>
        <time>2021-08-10T18:50:53Z</time>
      </trkpt>
      <trkpt lat="45.87865" lon="2.99324">
        <ele>576</ele>
        <time>2021-08-10T18:50:55Z</time>
      </trkpt>
      <trkpt lat="45.87869" lon="2.99329">
        <ele>576</ele>
        <time>2021-08-10T18:50:56Z</time>
      </trkpt>
      <trkpt lat="45.8787" lon="2.9933">
        <ele>576</ele>
        <time>2021-08-10T18:50:57Z</time>
      </trkpt>
      <trkpt lat="45.87871" lon="2.99331">
        <ele>576</ele>
        <time>2021-08-10T18:50:58Z</time>
      </trkpt>
      <trkpt lat="45.87872" lon="2.99333">
        <ele>576</ele>
        <time>2021-08-10T18:50:59Z</time>
      </trkpt>
      <trkpt lat="45.87873" lon="2.99334">
        <ele>576</ele>
        <time>2021-08-10T18:51:01Z</time>
      </trkpt>
      <trkpt lat="45.87877" lon="2.99341">
        <ele>576</ele>
        <time>2021-08-10T18:51:03Z</time>
      </trkpt>
      <trkpt lat="45.87877" lon="2.99341">
        <ele>576</ele>
        <time>2021-08-10T18:51:04Z</time>
      </trkpt>
      <trkpt lat="45.87878" lon="2.99344">
        <ele>576</ele>
        <time>2021-08-10T18:51:05Z</time>
      </trkpt>
      <trkpt lat="45.87878" lon="2.99344">
        <ele>576</ele>
        <time>2021-08-10T18:51:07Z</time>
      </trkpt>
      <trkpt lat="45.8788" lon="2.99346">
        <ele>576</ele>
        <time>2021-08-10T18:51:09Z</time>
      </trkpt>
      <trkpt lat="45.87881" lon="2.99347">
        <ele>576</ele>
        <time>2021-08-10T18:51:10Z</time>
      </trkpt>
      <trkpt lat="45.87882" lon="2.99347">
        <ele>576</ele>
        <time>2021-08-10T18:51:11Z</time>
      </trkpt>
      <trkpt lat="45.87882" lon="2.99348">
        <ele>576</ele>
        <time>2021-08-10T18:51:12Z</time>
      </trkpt>
      <trkpt lat="45.87883" lon="2.99349">
        <ele>576</ele>
        <time>2021-08-10T18:51:13Z</time>
      </trkpt>
      <trkpt lat="45.87884" lon="2.9935">
        <ele>576</ele>
        <time>2021-08-10T18:51:15Z</time>
      </trkpt>
      <trkpt lat="45.8789" lon="2.99358">
        <ele>576</ele>
        <time>2021-08-10T18:51:16Z</time>
      </trkpt>
      <trkpt lat="45.87891" lon="2.99359">
        <ele>576</ele>
        <time>2021-08-10T18:51:18Z</time>
      </trkpt>
      <trkpt lat="45.87896" lon="2.99364">
        <ele>576</ele>
        <time>2021-08-10T18:51:19Z</time>
      </trkpt>
      <trkpt lat="45.87897" lon="2.99364">
        <ele>576</ele>
        <time>2021-08-10T18:51:20Z</time>
      </trkpt>
      <trkpt lat="45.87898" lon="2.99365">
        <ele>576</ele>
        <time>2021-08-10T18:51:21Z</time>
      </trkpt>
      <trkpt lat="45.87898" lon="2.99366">
        <ele>576</ele>
        <time>2021-08-10T18:51:23Z</time>
      </trkpt>
      <trkpt lat="45.87902" lon="2.99368">
        <ele>576</ele>
        <time>2021-08-10T18:51:24Z</time>
      </trkpt>
      <trkpt lat="45.87902" lon="2.99368">
        <ele>576</ele>
        <time>2021-08-10T18:51:25Z</time>
      </trkpt>
      <trkpt lat="45.87903" lon="2.99369">
        <ele>576</ele>
        <time>2021-08-10T18:51:26Z</time>
      </trkpt>
      <trkpt lat="45.87903" lon="2.99369">
        <ele>576</ele>
        <time>2021-08-10T18:51:27Z</time>
      </trkpt>
      <trkpt lat="45.87904" lon="2.9937">
        <ele>576</ele>
        <time>2021-08-10T18:51:29Z</time>
      </trkpt>
      <trkpt lat="45.87906" lon="2.99373">
        <ele>576</ele>
        <time>2021-08-10T18:51:30Z</time>
      </trkpt>
      <trkpt lat="45.87907" lon="2.99373">
        <ele>576</ele>
        <time>2021-08-10T18:51:32Z</time>
      </trkpt>
      <trkpt lat="45.87911" lon="2.99377">
        <ele>576</ele>
        <time>2021-08-10T18:51:33Z</time>
      </trkpt>
      <trkpt lat="45.87912" lon="2.99378">
        <ele>576</ele>
        <time>2021-08-10T18:51:35Z</time>
      </trkpt>
      <trkpt lat="45.87917" lon="2.99383">
        <ele>576</ele>
        <time>2021-08-10T18:51:36Z</time>
      </trkpt>
      <trkpt lat="45.87918" lon="2.99384">
        <ele>576</ele>
        <time>2021-08-10T18:51:37Z</time>
      </trkpt>
      <trkpt lat="45.87919" lon="2.99384">
        <ele>576</ele>
        <time>2021-08-10T18:51:38Z</time>
      </trkpt>
      <trkpt lat="45.8792" lon="2.99385">
        <ele>576</ele>
        <time>2021-08-10T18:51:39Z</time>
      </trkpt>
      <trkpt lat="45.87921" lon="2.99386">
        <ele>576</ele>
        <time>2021-08-10T18:51:40Z</time>
      </trkpt>
      <trkpt lat="45.87922" lon="2.99388">
        <ele>576</ele>
        <time>2021-08-10T18:51:41Z</time>
      </trkpt>
      <trkpt lat="45.87923" lon="2.99389">
        <ele>576</ele>
        <time>2021-08-10T18:51:43Z</time>
      </trkpt>
      <trkpt lat="45.87927" lon="2.99394">
        <ele>576</ele>
        <time>2021-08-10T18:51:45Z</time>
      </trkpt>
      <trkpt lat="45.87927" lon="2.99397">
        <ele>576</ele>
        <time>2021-08-10T18:51:46Z</time>
      </trkpt>
      <trkpt lat="45.87927" lon="2.99398">
        <ele>576</ele>
        <time>2021-08-10T18:51:47Z</time>
      </trkpt>
      <trkpt lat="45.87927" lon="2.99398">
        <ele>576</ele>
        <time>2021-08-10T18:51:49Z</time>
      </trkpt>
      <trkpt lat="45.87926" lon="2.99399">
        <ele>576</ele>
        <time>2021-08-10T18:51:50Z</time>
      </trkpt>
      <trkpt lat="45.87926" lon="2.994">
        <ele>576</ele>
        <time>2021-08-10T18:51:51Z</time>
      </trkpt>
      <trkpt lat="45.87925" lon="2.99405">
        <ele>576</ele>
        <time>2021-08-10T18:51:53Z</time>
      </trkpt>
      <trkpt lat="45.87925" lon="2.99408">
        <ele>576</ele>
        <time>2021-08-10T18:51:54Z</time>
      </trkpt>
      <trkpt lat="45.87925" lon="2.99408">
        <ele>576</ele>
        <time>2021-08-10T18:51:55Z</time>
      </trkpt>
      <trkpt lat="45.87925" lon="2.99409">
        <ele>576</ele>
        <time>2021-08-10T18:51:56Z</time>
      </trkpt>
      <trkpt lat="45.87925" lon="2.9941">
        <ele>576</ele>
        <time>2021-08-10T18:51:57Z</time>
      </trkpt>
      <trkpt lat="45.87925" lon="2.99411">
        <ele>576</ele>
        <time>2021-08-10T18:51:59Z</time>
      </trkpt>
      <trkpt lat="45.87923" lon="2.99418">
        <ele>576</ele>
        <time>2021-08-10T18:52:00Z</time>
      </trkpt>
      <trkpt lat="45.87924" lon="2.99419">
        <ele>576</ele>
        <time>2021-08-10T18:52:02Z</time>
      </trkpt>
      <trkpt lat="45.87924" lon="2.99425">
        <ele>576</ele>
        <time>2021-08-10T18:52:03Z</time>
      </trkpt>
      <trkpt lat="45.87925" lon="2.99426">
        <ele>576</ele>
        <time>2021-08-10T18:52:05Z</time>
      </trkpt>
      <trkpt lat="45.87925" lon="2.99431">
        <ele>576</ele>
        <time>2021-08-10T18:52:07Z</time>
      </trkpt>
      <trkpt lat="45.87925" lon="2.99431">
        <ele>576</ele>
        <time>2021-08-10T18:52:08Z</time>
      </trkpt>
      <trkpt lat="45.87925" lon="2.99438">
        <ele>576</ele>
        <time>2021-08-10T18:52:09Z</time>
      </trkpt>
      <trkpt lat="45.87925" lon="2.99439">
        <ele>576</ele>
        <time>2021-08-10T18:52:11Z</time>
      </trkpt>
      <trkpt lat="45.87925" lon="2.99441">
        <ele>576</ele>
        <time>2021-08-10T18:52:12Z</time>
      </trkpt>
      <trkpt lat="45.87925" lon="2.99453">
        <ele>576</ele>
        <time>2021-08-10T18:52:13Z</time>
      </trkpt>
      <trkpt lat="45.87925" lon="2.99454">
        <ele>576</ele>
        <time>2021-08-10T18:52:14Z</time>
      </trkpt>
      <trkpt lat="45.87925" lon="2.99455">
        <ele>576</ele>
        <time>2021-08-10T18:52:15Z</time>
      </trkpt>
      <trkpt lat="45.87925" lon="2.99457">
        <ele>576</ele>
        <time>2021-08-10T18:52:17Z</time>
      </trkpt>
      <trkpt lat="45.87927" lon="2.99464">
        <ele>576</ele>
        <time>2021-08-10T18:52:18Z</time>
      </trkpt>
      <trkpt lat="45.87927" lon="2.99464">
        <ele>576</ele>
        <time>2021-08-10T18:52:19Z</time>
      </trkpt>
      <trkpt lat="45.87927" lon="2.99466">
        <ele>576</ele>
        <time>2021-08-10T18:52:20Z</time>
      </trkpt>
      <trkpt lat="45.87927" lon="2.99467">
        <ele>576</ele>
        <time>2021-08-10T18:52:21Z</time>
      </trkpt>
      <trkpt lat="45.87927" lon="2.99469">
        <ele>576</ele>
        <time>2021-08-10T18:52:23Z</time>
      </trkpt>
      <trkpt lat="45.87928" lon="2.99478">
        <ele>576</ele>
        <time>2021-08-10T18:52:25Z</time>
      </trkpt>
      <trkpt lat="45.87928" lon="2.99483">
        <ele>576</ele>
        <time>2021-08-10T18:52:26Z</time>
      </trkpt>
      <trkpt lat="45.87928" lon="2.99484">
        <ele>576</ele>
        <time>2021-08-10T18:52:27Z</time>
      </trkpt>
      <trkpt lat="45.87928" lon="2.99485">
        <ele>576</ele>
        <time>2021-08-10T18:52:28Z</time>
      </trkpt>
      <trkpt lat="45.87928" lon="2.99487">
        <ele>576</ele>
        <time>2021-08-10T18:52:29Z</time>
      </trkpt>
      <trkpt lat="45.87928" lon="2.99489">
        <ele>576</ele>
        <time>2021-08-10T18:52:31Z</time>
      </trkpt>
      <trkpt lat="45.87931" lon="2.995">
        <ele>576</ele>
        <time>2021-08-10T18:52:33Z</time>
      </trkpt>
      <trkpt lat="45.87931" lon="2.995">
        <ele>576</ele>
        <time>2021-08-10T18:52:34Z</time>
      </trkpt>
      <trkpt lat="45.87932" lon="2.99506">
        <ele>576</ele>
        <time>2021-08-10T18:52:35Z</time>
      </trkpt>
      <trkpt lat="45.87932" lon="2.99507">
        <ele>576</ele>
        <time>2021-08-10T18:52:36Z</time>
      </trkpt>
      <trkpt lat="45.87932" lon="2.99508">
        <ele>576</ele>
        <time>2021-08-10T18:52:37Z</time>
      </trkpt>
      <trkpt lat="45.87933" lon="2.99509">
        <ele>576</ele>
        <time>2021-08-10T18:52:39Z</time>
      </trkpt>
      <trkpt lat="45.87933" lon="2.9951">
        <ele>576</ele>
        <time>2021-08-10T18:52:40Z</time>
      </trkpt>
      <trkpt lat="45.87935" lon="2.99516">
        <ele>576</ele>
        <time>2021-08-10T18:52:41Z</time>
      </trkpt>
      <trkpt lat="45.87935" lon="2.99516">
        <ele>576</ele>
        <time>2021-08-10T18:52:42Z</time>
      </trkpt>
      <trkpt lat="45.87935" lon="2.99517">
        <ele>576</ele>
        <time>2021-08-10T18:52:43Z</time>
      </trkpt>
      <trkpt lat="45.87935" lon="2.99518">
        <ele>576</ele>
        <time>2021-08-10T18:52:45Z</time>
      </trkpt>
      <trkpt lat="45.87938" lon="2.99525">
        <ele>576</ele>
        <time>2021-08-10T18:52:46Z</time>
      </trkpt>
      <trkpt lat="45.87938" lon="2.99526">
        <ele>576</ele>
        <time>2021-08-10T18:52:47Z</time>
      </trkpt>
      <trkpt lat="45.87938" lon="2.99527">
        <ele>576</ele>
        <time>2021-08-10T18:52:49Z</time>
      </trkpt>
      <trkpt lat="45.87939" lon="2.99529">
        <ele>576</ele>
        <time>2021-08-10T18:52:50Z</time>
      </trkpt>
      <trkpt lat="45.87939" lon="2.99531">
        <ele>576</ele>
        <time>2021-08-10T18:52:51Z</time>
      </trkpt>
      <trkpt lat="45.87941" lon="2.99542">
        <ele>576</ele>
        <time>2021-08-10T18:52:52Z</time>
      </trkpt>
      <trkpt lat="45.87941" lon="2.99543">
        <ele>576</ele>
        <time>2021-08-10T18:52:53Z</time>
      </trkpt>
      <trkpt lat="45.87941" lon="2.99544">
        <ele>576</ele>
        <time>2021-08-10T18:52:54Z</time>
      </trkpt>
      <trkpt lat="45.87942" lon="2.99546">
        <ele>576</ele>
        <time>2021-08-10T18:52:55Z</time>
      </trkpt>
      <trkpt lat="45.87942" lon="2.99547">
        <ele>576</ele>
        <time>2021-08-10T18:52:57Z</time>
      </trkpt>
      <trkpt lat="45.87944" lon="2.99556">
        <ele>576</ele>
        <time>2021-08-10T18:52:58Z</time>
      </trkpt>
      <trkpt lat="45.87944" lon="2.99556">
        <ele>576</ele>
        <time>2021-08-10T18:53:00Z</time>
      </trkpt>
      <trkpt lat="45.87947" lon="2.9956">
        <ele>576</ele>
        <time>2021-08-10T18:53:01Z</time>
      </trkpt>
      <trkpt lat="45.87947" lon="2.9956">
        <ele>576</ele>
        <time>2021-08-10T18:53:03Z</time>
      </trkpt>
      <trkpt lat="45.87948" lon="2.99563">
        <ele>576</ele>
        <time>2021-08-10T18:53:04Z</time>
      </trkpt>
      <trkpt lat="45.87948" lon="2.99564">
        <ele>576</ele>
        <time>2021-08-10T18:53:06Z</time>
      </trkpt>
      <trkpt lat="45.8795" lon="2.99569">
        <ele>576</ele>
        <time>2021-08-10T18:53:07Z</time>
      </trkpt>
      <trkpt lat="45.8795" lon="2.9957">
        <ele>576</ele>
        <time>2021-08-10T18:53:09Z</time>
      </trkpt>
      <trkpt lat="45.87952" lon="2.99578">
        <ele>576</ele>
        <time>2021-08-10T18:53:10Z</time>
      </trkpt>
      <trkpt lat="45.87952" lon="2.99579">
        <ele>576</ele>
        <time>2021-08-10T18:53:11Z</time>
      </trkpt>
      <trkpt lat="45.87953" lon="2.9958">
        <ele>576</ele>
        <time>2021-08-10T18:53:12Z</time>
      </trkpt>
      <trkpt lat="45.87953" lon="2.99582">
        <ele>576</ele>
        <time>2021-08-10T18:53:14Z</time>
      </trkpt>
      <trkpt lat="45.87954" lon="2.99589">
        <ele>576</ele>
        <time>2021-08-10T18:53:15Z</time>
      </trkpt>
      <trkpt lat="45.87954" lon="2.9959">
        <ele>576</ele>
        <time>2021-08-10T18:53:17Z</time>
      </trkpt>
      <trkpt lat="45.87955" lon="2.99594">
        <ele>576</ele>
        <time>2021-08-10T18:53:18Z</time>
      </trkpt>
      <trkpt lat="45.87955" lon="2.99594">
        <ele>576</ele>
        <time>2021-08-10T18:53:19Z</time>
      </trkpt>
      <trkpt lat="45.87956" lon="2.99595">
        <ele>576</ele>
        <time>2021-08-10T18:53:20Z</time>
      </trkpt>
      <trkpt lat="45.87956" lon="2.99596">
        <ele>576</ele>
        <time>2021-08-10T18:53:21Z</time>
      </trkpt>
      <trkpt lat="45.87957" lon="2.99597">
        <ele>576</ele>
        <time>2021-08-10T18:53:23Z</time>
      </trkpt>
      <trkpt lat="45.87959" lon="2.99602">
        <ele>576</ele>
        <time>2021-08-10T18:53:24Z</time>
      </trkpt>
      <trkpt lat="45.87959" lon="2.99603">
        <ele>576</ele>
        <time>2021-08-10T18:53:25Z</time>
      </trkpt>
      <trkpt lat="45.87959" lon="2.99603">
        <ele>576</ele>
        <time>2021-08-10T18:53:26Z</time>
      </trkpt>
      <trkpt lat="45.87959" lon="2.99605">
        <ele>576</ele>
        <time>2021-08-10T18:53:27Z</time>
      </trkpt>
      <trkpt lat="45.8796" lon="2.99606">
        <ele>576</ele>
        <time>2021-08-10T18:53:29Z</time>
      </trkpt>
      <trkpt lat="45.87961" lon="2.99614">
        <ele>576</ele>
        <time>2021-08-10T18:53:30Z</time>
      </trkpt>
      <trkpt lat="45.87961" lon="2.99615">
        <ele>576</ele>
        <time>2021-08-10T18:53:31Z</time>
      </trkpt>
      <trkpt lat="45.87961" lon="2.99616">
        <ele>576</ele>
        <time>2021-08-10T18:53:31Z</time>
      </trkpt>
      <trkpt lat="45.8796" lon="2.99618">
        <ele>576</ele>
        <time>2021-08-10T18:53:32Z</time>
      </trkpt>
      <trkpt lat="45.8796" lon="2.9962">
        <ele>576</ele>
        <time>2021-08-10T18:53:34Z</time>
      </trkpt>
      <trkpt lat="45.87961" lon="2.9963">
        <ele>576</ele>
        <time>2021-08-10T18:53:35Z</time>
      </trkpt>
      <trkpt lat="45.87962" lon="2.99631">
        <ele>576</ele>
        <time>2021-08-10T18:53:37Z</time>
      </trkpt>
      <trkpt lat="45.87963" lon="2.99634">
        <ele>576</ele>
        <time>2021-08-10T18:53:38Z</time>
      </trkpt>
      <trkpt lat="45.87964" lon="2.99635">
        <ele>576</ele>
        <time>2021-08-10T18:53:40Z</time>
      </trkpt>
      <trkpt lat="45.87967" lon="2.99638">
        <ele>576</ele>
        <time>2021-08-10T18:53:41Z</time>
      </trkpt>
      <trkpt lat="45.87967" lon="2.99639">
        <ele>576</ele>
        <time>2021-08-10T18:53:42Z</time>
      </trkpt>
      <trkpt lat="45.87968" lon="2.99639">
        <ele>576</ele>
        <time>2021-08-10T18:53:43Z</time>
      </trkpt>
      <trkpt lat="45.87969" lon="2.9964">
        <ele>576</ele>
        <time>2021-08-10T18:53:44Z</time>
      </trkpt>
      <trkpt lat="45.8797" lon="2.99642">
        <ele>576</ele>
        <time>2021-08-10T18:53:46Z</time>
      </trkpt>
      <trkpt lat="45.87974" lon="2.99647">
        <ele>576</ele>
        <time>2021-08-10T18:53:48Z</time>
      </trkpt>
      <trkpt lat="45.87975" lon="2.99647">
        <ele>576</ele>
        <time>2021-08-10T18:53:49Z</time>
      </trkpt>
      <trkpt lat="45.87975" lon="2.99648">
        <ele>576</ele>
        <time>2021-08-10T18:53:50Z</time>
      </trkpt>
      <trkpt lat="45.87978" lon="2.99653">
        <ele>576</ele>
        <time>2021-08-10T18:53:51Z</time>
      </trkpt>
      <trkpt lat="45.87979" lon="2.99653">
        <ele>576</ele>
        <time>2021-08-10T18:53:52Z</time>
      </trkpt>
      <trkpt lat="45.87979" lon="2.99654">
        <ele>576</ele>
        <time>2021-08-10T18:53:53Z</time>
      </trkpt>
      <trkpt lat="45.8798" lon="2.99655">
        <ele>576</ele>
        <time>2021-08-10T18:53:54Z</time>
      </trkpt>
      <trkpt lat="45.87981" lon="2.99656">
        <ele>576</ele>
        <time>2021-08-10T18:53:55Z</time>
      </trkpt>
      <trkpt lat="45.87982" lon="2.99657">
        <ele>576</ele>
        <time>2021-08-10T18:53:56Z</time>
      </trkpt>
      <trkpt lat="45.87983" lon="2.99658">
        <ele>576</ele>
        <time>2021-08-10T18:53:58Z</time>
      </trkpt>
      <trkpt lat="45.87987" lon="2.99664">
        <ele>576</ele>
        <time>2021-08-10T18:53:59Z</time>
      </trkpt>
      <trkpt lat="45.87988" lon="2.99664">
        <ele>576</ele>
        <time>2021-08-10T18:54:00Z</time>
      </trkpt>
      <trkpt lat="45.87988" lon="2.99665">
        <ele>576</ele>
        <time>2021-08-10T18:54:01Z</time>
      </trkpt>
      <trkpt lat="45.87989" lon="2.99665">
        <ele>576</ele>
        <time>2021-08-10T18:54:02Z</time>
      </trkpt>
      <trkpt lat="45.87989" lon="2.99666">
        <ele>576</ele>
        <time>2021-08-10T18:54:04Z</time>
      </trkpt>
      <trkpt lat="45.87993" lon="2.9967">
        <ele>576</ele>
        <time>2021-08-10T18:54:05Z</time>
      </trkpt>
      <trkpt lat="45.87994" lon="2.9967">
        <ele>576</ele>
        <time>2021-08-10T18:54:07Z</time>
      </trkpt>
      <trkpt lat="45.87997" lon="2.99673">
        <ele>576</ele>
        <time>2021-08-10T18:54:08Z</time>
      </trkpt>
      <trkpt lat="45.87997" lon="2.99674">
        <ele>576</ele>
        <time>2021-08-10T18:54:09Z</time>
      </trkpt>
      <trkpt lat="45.87998" lon="2.99674">
        <ele>576</ele>
        <time>2021-08-10T18:54:10Z</time>
      </trkpt>
      <trkpt lat="45.87999" lon="2.99676">
        <ele>576</ele>
        <time>2021-08-10T18:54:12Z</time>
      </trkpt>
      <trkpt lat="45.88003" lon="2.99684">
        <ele>576</ele>
        <time>2021-08-10T18:54:13Z</time>
      </trkpt>
      <trkpt lat="45.88003" lon="2.99684">
        <ele>576</ele>
        <time>2021-08-10T18:54:15Z</time>
      </trkpt>
      <trkpt lat="45.88006" lon="2.99689">
        <ele>576</ele>
        <time>2021-08-10T18:54:16Z</time>
      </trkpt>
      <trkpt lat="45.88006" lon="2.99689">
        <ele>576</ele>
        <time>2021-08-10T18:54:17Z</time>
      </trkpt>
      <trkpt lat="45.88007" lon="2.9969">
        <ele>576</ele>
        <time>2021-08-10T18:54:18Z</time>
      </trkpt>
      <trkpt lat="45.88007" lon="2.99691">
        <ele>576</ele>
        <time>2021-08-10T18:54:20Z</time>
      </trkpt>
      <trkpt lat="45.88011" lon="2.99697">
        <ele>576</ele>
        <time>2021-08-10T18:54:21Z</time>
      </trkpt>
      <trkpt lat="45.88012" lon="2.99697">
        <ele>576</ele>
        <time>2021-08-10T18:54:23Z</time>
      </trkpt>
      <trkpt lat="45.88014" lon="2.99699">
        <ele>576</ele>
        <time>2021-08-10T18:54:24Z</time>
      </trkpt>
      <trkpt lat="45.88015" lon="2.997">
        <ele>576</ele>
        <time>2021-08-10T18:54:26Z</time>
      </trkpt>
      <trkpt lat="45.88017" lon="2.99701">
        <ele>576</ele>
        <time>2021-08-10T18:54:27Z</time>
      </trkpt>
      <trkpt lat="45.88017" lon="2.99702">
        <ele>576</ele>
        <time>2021-08-10T18:54:28Z</time>
      </trkpt>
      <trkpt lat="45.88017" lon="2.99702">
        <ele>576</ele>
        <time>2021-08-10T18:54:29Z</time>
      </trkpt>
      <trkpt lat="45.88018" lon="2.99702">
        <ele>576</ele>
        <time>2021-08-10T18:54:30Z</time>
      </trkpt>
      <trkpt lat="45.88021" lon="2.99705">
        <ele>576</ele>
        <time>2021-08-10T18:54:48Z</time>
      </trkpt>
      <trkpt lat="45.88021" lon="2.99705">
        <ele>576</ele>
        <time>2021-08-10T18:54:49Z</time>
      </trkpt>
      <trkpt lat="45.88022" lon="2.99705">
        <ele>576</ele>
        <time>2021-08-10T18:54:50Z</time>
      </trkpt>
      <trkpt lat="45.88027" lon="2.99707">
        <ele>576</ele>
        <time>2021-08-10T18:54:51Z</time>
      </trkpt>
      <trkpt lat="45.88028" lon="2.99707">
        <ele>576</ele>
        <time>2021-08-10T18:54:52Z</time>
      </trkpt>
      <trkpt lat="45.88028" lon="2.99707">
        <ele>576</ele>
        <time>2021-08-10T18:54:53Z</time>
      </trkpt>
      <trkpt lat="45.8803" lon="2.99707">
        <ele>576</ele>
        <time>2021-08-10T18:54:54Z</time>
      </trkpt>
      <trkpt lat="45.88032" lon="2.99708">
        <ele>576</ele>
        <time>2021-08-10T18:54:55Z</time>
      </trkpt>
      <trkpt lat="45.88034" lon="2.99708">
        <ele>576</ele>
        <time>2021-08-10T18:54:56Z</time>
      </trkpt>
      <trkpt lat="45.88036" lon="2.99708">
        <ele>576</ele>
        <time>2021-08-10T18:54:58Z</time>
      </trkpt>
      <trkpt lat="45.88037" lon="2.99708">
        <ele>576</ele>
        <time>2021-08-10T18:54:59Z</time>
      </trkpt>
      <trkpt lat="45.88043" lon="2.99708">
        <ele>576</ele>
        <time>2021-08-10T18:55:00Z</time>
      </trkpt>
      <trkpt lat="45.88044" lon="2.99708">
        <ele>576</ele>
        <time>2021-08-10T18:55:01Z</time>
      </trkpt>
      <trkpt lat="45.88044" lon="2.99708">
        <ele>576</ele>
        <time>2021-08-10T18:55:02Z</time>
      </trkpt>
      <trkpt lat="45.88046" lon="2.99708">
        <ele>576</ele>
        <time>2021-08-10T18:55:04Z</time>
      </trkpt>
      <trkpt lat="45.88052" lon="2.99708">
        <ele>576</ele>
        <time>2021-08-10T18:55:05Z</time>
      </trkpt>
      <trkpt lat="45.88053" lon="2.99708">
        <ele>576</ele>
        <time>2021-08-10T18:55:06Z</time>
      </trkpt>
      <trkpt lat="45.88054" lon="2.99708">
        <ele>576</ele>
        <time>2021-08-10T18:55:08Z</time>
      </trkpt>
      <trkpt lat="45.88058" lon="2.99708">
        <ele>576</ele>
        <time>2021-08-10T18:55:09Z</time>
      </trkpt>
      <trkpt lat="45.88059" lon="2.99708">
        <ele>576</ele>
        <time>2021-08-10T18:55:10Z</time>
      </trkpt>
      <trkpt lat="45.88059" lon="2.99708">
        <ele>576</ele>
        <time>2021-08-10T18:55:11Z</time>
      </trkpt>
      <trkpt lat="45.8806" lon="2.99708">
        <ele>576</ele>
        <time>2021-08-10T18:55:12Z</time>
      </trkpt>
      <trkpt lat="45.88061" lon="2.99708">
        <ele>576</ele>
        <time>2021-08-10T18:55:13Z</time>
      </trkpt>
      <trkpt lat="45.88062" lon="2.99708">
        <ele>576</ele>
        <time>2021-08-10T18:55:14Z</time>
      </trkpt>
      <trkpt lat="45.88063" lon="2.99708">
        <ele>576</ele>
        <time>2021-08-10T18:55:16Z</time>
      </trkpt>
      <trkpt lat="45.8807" lon="2.9971">
        <ele>576</ele>
        <time>2021-08-10T18:55:18Z</time>
      </trkpt>
      <trkpt lat="45.88071" lon="2.9971">
        <ele>576</ele>
        <time>2021-08-10T18:55:19Z</time>
      </trkpt>
      <trkpt lat="45.88076" lon="2.9971">
        <ele>576</ele>
        <time>2021-08-10T18:55:20Z</time>
      </trkpt>
      <trkpt lat="45.88076" lon="2.9971">
        <ele>576</ele>
        <time>2021-08-10T18:55:21Z</time>
      </trkpt>
      <trkpt lat="45.88076" lon="2.99711">
        <ele>576</ele>
        <time>2021-08-10T18:55:22Z</time>
      </trkpt>
      <trkpt lat="45.88078" lon="2.99711">
        <ele>576</ele>
        <time>2021-08-10T18:55:24Z</time>
      </trkpt>
      <trkpt lat="45.88082" lon="2.9971">
        <ele>576</ele>
        <time>2021-08-10T18:55:25Z</time>
      </trkpt>
      <trkpt lat="45.88083" lon="2.9971">
        <ele>576</ele>
        <time>2021-08-10T18:55:27Z</time>
      </trkpt>
      <trkpt lat="45.88086" lon="2.9971">
        <ele>576</ele>
        <time>2021-08-10T18:55:28Z</time>
      </trkpt>
      <trkpt lat="45.88087" lon="2.9971">
        <ele>576</ele>
        <time>2021-08-10T18:55:29Z</time>
      </trkpt>
      <trkpt lat="45.88088" lon="2.9971">
        <ele>576</ele>
        <time>2021-08-10T18:55:30Z</time>
      </trkpt>
      <trkpt lat="45.88088" lon="2.99711">
        <ele>576</ele>
        <time>2021-08-10T18:55:32Z</time>
      </trkpt>
      <trkpt lat="45.88094" lon="2.99712">
        <ele>576</ele>
        <time>2021-08-10T18:55:33Z</time>
      </trkpt>
      <trkpt lat="45.88094" lon="2.99712">
        <ele>576</ele>
        <time>2021-08-10T18:55:34Z</time>
      </trkpt>
      <trkpt lat="45.88094" lon="2.99712">
        <ele>576</ele>
        <time>2021-08-10T18:55:35Z</time>
      </trkpt>
      <trkpt lat="45.88095" lon="2.99712">
        <ele>576</ele>
        <time>2021-08-10T18:55:36Z</time>
      </trkpt>
      <trkpt lat="45.88096" lon="2.99712">
        <ele>576</ele>
        <time>2021-08-10T18:55:38Z</time>
      </trkpt>
      <trkpt lat="45.88102" lon="2.99715">
        <ele>576</ele>
        <time>2021-08-10T18:55:39Z</time>
      </trkpt>
      <trkpt lat="45.88102" lon="2.99715">
        <ele>576</ele>
        <time>2021-08-10T18:55:40Z</time>
      </trkpt>
      <trkpt lat="45.88103" lon="2.99715">
        <ele>576</ele>
        <time>2021-08-10T18:55:41Z</time>
      </trkpt>
      <trkpt lat="45.88104" lon="2.99716">
        <ele>576</ele>
        <time>2021-08-10T18:55:42Z</time>
      </trkpt>
      <trkpt lat="45.88105" lon="2.99716">
        <ele>576</ele>
        <time>2021-08-10T18:55:43Z</time>
      </trkpt>
      <trkpt lat="45.88106" lon="2.99717">
        <ele>576</ele>
        <time>2021-08-10T18:55:44Z</time>
      </trkpt>
      <trkpt lat="45.88108" lon="2.99718">
        <ele>576</ele>
        <time>2021-08-10T18:55:46Z</time>
      </trkpt>
      <trkpt lat="45.88114" lon="2.99723">
        <ele>576</ele>
        <time>2021-08-10T18:55:48Z</time>
      </trkpt>
      <trkpt lat="45.88114" lon="2.99723">
        <ele>576</ele>
        <time>2021-08-10T18:55:49Z</time>
      </trkpt>
      <trkpt lat="45.88115" lon="2.99724">
        <ele>576</ele>
        <time>2021-08-10T18:55:50Z</time>
      </trkpt>
      <trkpt lat="45.88119" lon="2.99727">
        <ele>576</ele>
        <time>2021-08-10T18:55:51Z</time>
      </trkpt>
      <trkpt lat="45.88119" lon="2.99728">
        <ele>576</ele>
        <time>2021-08-10T18:55:52Z</time>
      </trkpt>
      <trkpt lat="45.8812" lon="2.99728">
        <ele>576</ele>
        <time>2021-08-10T18:55:54Z</time>
      </trkpt>
      <trkpt lat="45.88125" lon="2.99734">
        <ele>576</ele>
        <time>2021-08-10T18:55:55Z</time>
      </trkpt>
      <trkpt lat="45.88126" lon="2.99734">
        <ele>576</ele>
        <time>2021-08-10T18:55:57Z</time>
      </trkpt>
      <trkpt lat="45.88129" lon="2.99737">
        <ele>576</ele>
        <time>2021-08-10T18:55:58Z</time>
      </trkpt>
      <trkpt lat="45.8813" lon="2.99737">
        <ele>576</ele>
        <time>2021-08-10T18:56:00Z</time>
      </trkpt>
      <trkpt lat="45.88133" lon="2.99741">
        <ele>576</ele>
        <time>2021-08-10T18:56:01Z</time>
      </trkpt>
      <trkpt lat="45.88133" lon="2.99742">
        <ele>576</ele>
        <time>2021-08-10T18:56:02Z</time>
      </trkpt>
      <trkpt lat="45.88134" lon="2.99743">
        <ele>576</ele>
        <time>2021-08-10T18:56:03Z</time>
      </trkpt>
      <trkpt lat="45.88136" lon="2.99744">
        <ele>576</ele>
        <time>2021-08-10T18:56:04Z</time>
      </trkpt>
      <trkpt lat="45.88136" lon="2.99745">
        <ele>576</ele>
        <time>2021-08-10T18:56:05Z</time>
      </trkpt>
      <trkpt lat="45.88138" lon="2.99746">
        <ele>576</ele>
        <time>2021-08-10T18:56:06Z</time>
      </trkpt>
      <trkpt lat="45.88139" lon="2.99747">
        <ele>576</ele>
        <time>2021-08-10T18:56:08Z</time>
      </trkpt>
      <trkpt lat="45.88145" lon="2.9975">
        <ele>576</ele>
        <time>2021-08-10T18:56:09Z</time>
      </trkpt>
      <trkpt lat="45.88145" lon="2.99751">
        <ele>576</ele>
        <time>2021-08-10T18:56:10Z</time>
      </trkpt>
      <trkpt lat="45.88146" lon="2.99751">
        <ele>576</ele>
        <time>2021-08-10T18:56:11Z</time>
      </trkpt>
      <trkpt lat="45.88147" lon="2.99752">
        <ele>576</ele>
        <time>2021-08-10T18:56:12Z</time>
      </trkpt>
      <trkpt lat="45.88148" lon="2.99754">
        <ele>576</ele>
        <time>2021-08-10T18:56:14Z</time>
      </trkpt>
      <trkpt lat="45.88154" lon="2.9976">
        <ele>576</ele>
        <time>2021-08-10T18:56:15Z</time>
      </trkpt>
      <trkpt lat="45.88154" lon="2.99761">
        <ele>576</ele>
        <time>2021-08-10T18:56:16Z</time>
      </trkpt>
      <trkpt lat="45.88155" lon="2.99761">
        <ele>576</ele>
        <time>2021-08-10T18:56:17Z</time>
      </trkpt>
      <trkpt lat="45.88156" lon="2.99762">
        <ele>576</ele>
        <time>2021-08-10T18:56:18Z</time>
      </trkpt>
      <trkpt lat="45.88157" lon="2.99763">
        <ele>576</ele>
        <time>2021-08-10T18:56:20Z</time>
      </trkpt>
      <trkpt lat="45.88164" lon="2.99768">
        <ele>576</ele>
        <time>2021-08-10T18:56:22Z</time>
      </trkpt>
      <trkpt lat="45.88166" lon="2.99772">
        <ele>576</ele>
        <time>2021-08-10T18:56:23Z</time>
      </trkpt>
      <trkpt lat="45.88167" lon="2.99772">
        <ele>576</ele>
        <time>2021-08-10T18:56:24Z</time>
      </trkpt>
      <trkpt lat="45.88167" lon="2.99773">
        <ele>576</ele>
        <time>2021-08-10T18:56:25Z</time>
      </trkpt>
      <trkpt lat="45.88168" lon="2.99774">
        <ele>576</ele>
        <time>2021-08-10T18:56:26Z</time>
      </trkpt>
      <trkpt lat="45.88169" lon="2.99775">
        <ele>576</ele>
        <time>2021-08-10T18:56:27Z</time>
      </trkpt>
      <trkpt lat="45.8817" lon="2.99776">
        <ele>576</ele>
        <time>2021-08-10T18:56:28Z</time>
      </trkpt>
      <trkpt lat="45.88172" lon="2.99777">
        <ele>576</ele>
        <time>2021-08-10T18:56:29Z</time>
      </trkpt>
      <trkpt lat="45.88173" lon="2.99779">
        <ele>576</ele>
        <time>2021-08-10T18:56:30Z</time>
      </trkpt>
      <trkpt lat="45.88175" lon="2.9978">
        <ele>576</ele>
        <time>2021-08-10T18:56:31Z</time>
      </trkpt>
      <trkpt lat="45.88176" lon="2.99782">
        <ele>576</ele>
        <time>2021-08-10T18:56:32Z</time>
      </trkpt>
      <trkpt lat="45.88178" lon="2.99783">
        <ele>576</ele>
        <time>2021-08-10T18:56:34Z</time>
      </trkpt>
      <trkpt lat="45.88183" lon="2.99788">
        <ele>576</ele>
        <time>2021-08-10T18:56:35Z</time>
      </trkpt>
      <trkpt lat="45.88183" lon="2.99788">
        <ele>576</ele>
        <time>2021-08-10T18:56:37Z</time>
      </trkpt>
      <trkpt lat="45.88186" lon="2.9979">
        <ele>576</ele>
        <time>2021-08-10T18:56:38Z</time>
      </trkpt>
      <trkpt lat="45.88186" lon="2.99791">
        <ele>576</ele>
        <time>2021-08-10T18:56:40Z</time>
      </trkpt>
      <trkpt lat="45.8819" lon="2.99796">
        <ele>576</ele>
        <time>2021-08-10T18:56:41Z</time>
      </trkpt>
      <trkpt lat="45.8819" lon="2.99797">
        <ele>576</ele>
        <time>2021-08-10T18:56:43Z</time>
      </trkpt>
      <trkpt lat="45.88194" lon="2.99801">
        <ele>576</ele>
        <time>2021-08-10T18:56:44Z</time>
      </trkpt>
      <trkpt lat="45.88194" lon="2.99801">
        <ele>576</ele>
        <time>2021-08-10T18:56:45Z</time>
      </trkpt>
      <trkpt lat="45.88195" lon="2.99801">
        <ele>576</ele>
        <time>2021-08-10T18:56:46Z</time>
      </trkpt>
      <trkpt lat="45.88196" lon="2.99802">
        <ele>576</ele>
        <time>2021-08-10T18:56:48Z</time>
      </trkpt>
      <trkpt lat="45.88197" lon="2.99803">
        <ele>576</ele>
        <time>2021-08-10T18:56:50Z</time>
      </trkpt>
      <trkpt lat="45.88204" lon="2.99808">
        <ele>576</ele>
        <time>2021-08-10T18:56:52Z</time>
      </trkpt>
      <trkpt lat="45.88207" lon="2.99811">
        <ele>576</ele>
        <time>2021-08-10T18:56:53Z</time>
      </trkpt>
      <trkpt lat="45.88207" lon="2.99811">
        <ele>576</ele>
        <time>2021-08-10T18:56:55Z</time>
      </trkpt>
      <trkpt lat="45.88211" lon="2.99814">
        <ele>576</ele>
        <time>2021-08-10T18:56:56Z</time>
      </trkpt>
      <trkpt lat="45.88211" lon="2.99814">
        <ele>576</ele>
        <time>2021-08-10T18:56:57Z</time>
      </trkpt>
      <trkpt lat="45.88212" lon="2.99815">
        <ele>576</ele>
        <time>2021-08-10T18:56:58Z</time>
      </trkpt>
      <trkpt lat="45.88213" lon="2.99816">
        <ele>576</ele>
        <time>2021-08-10T18:57:00Z</time>
      </trkpt>
      <trkpt lat="45.88218" lon="2.99821">
        <ele>576</ele>
        <time>2021-08-10T18:57:01Z</time>
      </trkpt>
      <trkpt lat="45.88219" lon="2.99821">
        <ele>576</ele>
        <time>2021-08-10T18:57:02Z</time>
      </trkpt>
      <trkpt lat="45.8822" lon="2.99822">
        <ele>576</ele>
        <time>2021-08-10T18:57:03Z</time>
      </trkpt>
      <trkpt lat="45.88221" lon="2.99823">
        <ele>576</ele>
        <time>2021-08-10T18:57:04Z</time>
      </trkpt>
      <trkpt lat="45.88221" lon="2.99824">
        <ele>576</ele>
        <time>2021-08-10T18:57:06Z</time>
      </trkpt>
      <trkpt lat="45.88226" lon="2.99829">
        <ele>576</ele>
        <time>2021-08-10T18:57:07Z</time>
      </trkpt>
      <trkpt lat="45.88226" lon="2.99829">
        <ele>576</ele>
        <time>2021-08-10T18:57:09Z</time>
      </trkpt>
      <trkpt lat="45.88231" lon="2.99833">
        <ele>576</ele>
        <time>2021-08-10T18:57:10Z</time>
      </trkpt>
      <trkpt lat="45.88232" lon="2.99834">
        <ele>576</ele>
        <time>2021-08-10T18:57:12Z</time>
      </trkpt>
      <trkpt lat="45.88236" lon="2.99838">
        <ele>576</ele>
        <time>2021-08-10T18:57:13Z</time>
      </trkpt>
      <trkpt lat="45.88236" lon="2.99838">
        <ele>576</ele>
        <time>2021-08-10T18:57:14Z</time>
      </trkpt>
      <trkpt lat="45.88237" lon="2.99839">
        <ele>576</ele>
        <time>2021-08-10T18:57:15Z</time>
      </trkpt>
      <trkpt lat="45.88237" lon="2.99839">
        <ele>576</ele>
        <time>2021-08-10T18:57:16Z</time>
      </trkpt>
      <trkpt lat="45.88239" lon="2.9984">
        <ele>576</ele>
        <time>2021-08-10T18:57:17Z</time>
      </trkpt>
      <trkpt lat="45.88239" lon="2.99841">
        <ele>576</ele>
        <time>2021-08-10T18:57:18Z</time>
      </trkpt>
      <trkpt lat="45.88241" lon="2.99842">
        <ele>576</ele>
        <time>2021-08-10T18:57:20Z</time>
      </trkpt>
      <trkpt lat="45.88247" lon="2.99847">
        <ele>576</ele>
        <time>2021-08-10T18:57:21Z</time>
      </trkpt>
      <trkpt lat="45.88247" lon="2.99847">
        <ele>576</ele>
        <time>2021-08-10T18:57:23Z</time>
      </trkpt>
      <trkpt lat="45.8825" lon="2.9985">
        <ele>576</ele>
        <time>2021-08-10T18:57:24Z</time>
      </trkpt>
      <trkpt lat="45.8825" lon="2.9985">
        <ele>576</ele>
        <time>2021-08-10T18:57:26Z</time>
      </trkpt>
      <trkpt lat="45.88254" lon="2.99854">
        <ele>576</ele>
        <time>2021-08-10T18:57:27Z</time>
      </trkpt>
      <trkpt lat="45.88254" lon="2.99855">
        <ele>576</ele>
        <time>2021-08-10T18:57:28Z</time>
      </trkpt>
      <trkpt lat="45.88255" lon="2.99856">
        <ele>576</ele>
        <time>2021-08-10T18:57:29Z</time>
      </trkpt>
      <trkpt lat="45.88256" lon="2.99857">
        <ele>576</ele>
        <time>2021-08-10T18:57:30Z</time>
      </trkpt>
      <trkpt lat="45.88257" lon="2.99858">
        <ele>576</ele>
        <time>2021-08-10T18:57:32Z</time>
      </trkpt>
      <trkpt lat="45.88262" lon="2.99861">
        <ele>576</ele>
        <time>2021-08-10T18:57:33Z</time>
      </trkpt>
      <trkpt lat="45.88262" lon="2.99862">
        <ele>576</ele>
        <time>2021-08-10T18:57:35Z</time>
      </trkpt>
      <trkpt lat="45.88264" lon="2.99867">
        <ele>576</ele>
        <time>2021-08-10T18:57:36Z</time>
      </trkpt>
      <trkpt lat="45.88265" lon="2.99867">
        <ele>576</ele>
        <time>2021-08-10T18:57:38Z</time>
      </trkpt>
      <trkpt lat="45.88269" lon="2.99875">
        <ele>576</ele>
        <time>2021-08-10T18:57:39Z</time>
      </trkpt>
      <trkpt lat="45.88269" lon="2.99875">
        <ele>576</ele>
        <time>2021-08-10T18:57:40Z</time>
      </trkpt>
      <trkpt lat="45.88269" lon="2.99876">
        <ele>576</ele>
        <time>2021-08-10T18:57:41Z</time>
      </trkpt>
      <trkpt lat="45.8827" lon="2.99877">
        <ele>576</ele>
        <time>2021-08-10T18:57:42Z</time>
      </trkpt>
      <trkpt lat="45.88271" lon="2.99879">
        <ele>576</ele>
        <time>2021-08-10T18:57:43Z</time>
      </trkpt>
      <trkpt lat="45.88271" lon="2.9988">
        <ele>576</ele>
        <time>2021-08-10T18:57:44Z</time>
      </trkpt>
      <trkpt lat="45.88272" lon="2.99881">
        <ele>576</ele>
        <time>2021-08-10T18:57:45Z</time>
      </trkpt>
      <trkpt lat="45.88272" lon="2.99883">
        <ele>576</ele>
        <time>2021-08-10T18:57:46Z</time>
      </trkpt>
      <trkpt lat="45.88273" lon="2.99885">
        <ele>576</ele>
        <time>2021-08-10T18:57:47Z</time>
      </trkpt>
      <trkpt lat="45.88277" lon="2.99894">
        <ele>576</ele>
        <time>2021-08-10T18:57:49Z</time>
      </trkpt>
      <trkpt lat="45.88278" lon="2.99898">
        <ele>576</ele>
        <time>2021-08-10T18:57:50Z</time>
      </trkpt>
      <trkpt lat="45.88278" lon="2.99899">
        <ele>576</ele>
        <time>2021-08-10T18:57:51Z</time>
      </trkpt>
      <trkpt lat="45.88279" lon="2.99899">
        <ele>576</ele>
        <time>2021-08-10T18:57:52Z</time>
      </trkpt>
      <trkpt lat="45.88279" lon="2.999">
        <ele>576</ele>
        <time>2021-08-10T18:57:53Z</time>
      </trkpt>
      <trkpt lat="45.88279" lon="2.99901">
        <ele>576</ele>
        <time>2021-08-10T18:57:55Z</time>
      </trkpt>
      <trkpt lat="45.88281" lon="2.99909">
        <ele>576</ele>
        <time>2021-08-10T18:57:56Z</time>
      </trkpt>
      <trkpt lat="45.88281" lon="2.99909">
        <ele>576</ele>
        <time>2021-08-10T18:57:57Z</time>
      </trkpt>
      <trkpt lat="45.88282" lon="2.99911">
        <ele>576</ele>
        <time>2021-08-10T18:57:58Z</time>
      </trkpt>
      <trkpt lat="45.88282" lon="2.99913">
        <ele>576</ele>
        <time>2021-08-10T18:57:59Z</time>
      </trkpt>
      <trkpt lat="45.88283" lon="2.99915">
        <ele>576</ele>
        <time>2021-08-10T18:58:01Z</time>
      </trkpt>
      <trkpt lat="45.88287" lon="2.99922">
        <ele>576</ele>
        <time>2021-08-10T18:58:02Z</time>
      </trkpt>
      <trkpt lat="45.88287" lon="2.99922">
        <ele>576</ele>
        <time>2021-08-10T18:58:03Z</time>
      </trkpt>
      <trkpt lat="45.88287" lon="2.99923">
        <ele>576</ele>
        <time>2021-08-10T18:58:04Z</time>
      </trkpt>
      <trkpt lat="45.88288" lon="2.99924">
        <ele>576</ele>
        <time>2021-08-10T18:58:05Z</time>
      </trkpt>
      <trkpt lat="45.88289" lon="2.99926">
        <ele>576</ele>
        <time>2021-08-10T18:58:06Z</time>
      </trkpt>
      <trkpt lat="45.8829" lon="2.99927">
        <ele>576</ele>
        <time>2021-08-10T18:58:07Z</time>
      </trkpt>
      <trkpt lat="45.8829" lon="2.99929">
        <ele>576</ele>
        <time>2021-08-10T18:58:09Z</time>
      </trkpt>
      <trkpt lat="45.88295" lon="2.99938">
        <ele>576</ele>
        <time>2021-08-10T18:58:10Z</time>
      </trkpt>
      <trkpt lat="45.88295" lon="2.99939">
        <ele>576</ele>
        <time>2021-08-10T18:58:12Z</time>
      </trkpt>
      <trkpt lat="45.88297" lon="2.99943">
        <ele>576</ele>
        <time>2021-08-10T18:58:13Z</time>
      </trkpt>
      <trkpt lat="45.88297" lon="2.99943">
        <ele>576</ele>
        <time>2021-08-10T18:58:15Z</time>
      </trkpt>
      <trkpt lat="45.88299" lon="2.99948">
        <ele>576</ele>
        <time>2021-08-10T18:58:16Z</time>
      </trkpt>
      <trkpt lat="45.88299" lon="2.99948">
        <ele>576</ele>
        <time>2021-08-10T18:58:17Z</time>
      </trkpt>
      <trkpt lat="45.88299" lon="2.99949">
        <ele>576</ele>
        <time>2021-08-10T18:58:18Z</time>
      </trkpt>
      <trkpt lat="45.883" lon="2.99951">
        <ele>576</ele>
        <time>2021-08-10T18:58:19Z</time>
      </trkpt>
      <trkpt lat="45.88301" lon="2.99953">
        <ele>576</ele>
        <time>2021-08-10T18:58:21Z</time>
      </trkpt>
      <trkpt lat="45.88303" lon="2.99962">
        <ele>576</ele>
        <time>2021-08-10T18:58:23Z</time>
      </trkpt>
      <trkpt lat="45.88305" lon="2.99965">
        <ele>576</ele>
        <time>2021-08-10T18:58:24Z</time>
      </trkpt>
      <trkpt lat="45.88305" lon="2.99965">
        <ele>576</ele>
        <time>2021-08-10T18:58:25Z</time>
      </trkpt>
      <trkpt lat="45.88305" lon="2.99966">
        <ele>576</ele>
        <time>2021-08-10T18:58:26Z</time>
      </trkpt>
      <trkpt lat="45.88305" lon="2.99967">
        <ele>576</ele>
        <time>2021-08-10T18:58:27Z</time>
      </trkpt>
      <trkpt lat="45.88306" lon="2.99969">
        <ele>576</ele>
        <time>2021-08-10T18:58:29Z</time>
      </trkpt>
      <trkpt lat="45.88311" lon="2.99978">
        <ele>576</ele>
        <time>2021-08-10T18:58:30Z</time>
      </trkpt>
      <trkpt lat="45.88311" lon="2.99978">
        <ele>576</ele>
        <time>2021-08-10T18:58:32Z</time>
      </trkpt>
      <trkpt lat="45.88314" lon="2.99983">
        <ele>576</ele>
        <time>2021-08-10T18:58:33Z</time>
      </trkpt>
      <trkpt lat="45.88314" lon="2.99984">
        <ele>576</ele>
        <time>2021-08-10T18:58:34Z</time>
      </trkpt>
      <trkpt lat="45.88314" lon="2.99984">
        <ele>576</ele>
        <time>2021-08-10T18:58:35Z</time>
      </trkpt>
      <trkpt lat="45.88314" lon="2.99985">
        <ele>576</ele>
        <time>2021-08-10T18:58:36Z</time>
      </trkpt>
      <trkpt lat="45.88316" lon="2.99986">
        <ele>576</ele>
        <time>2021-08-10T18:58:38Z</time>
      </trkpt>
      <trkpt lat="45.8832" lon="2.99992">
        <ele>576</ele>
        <time>2021-08-10T18:58:39Z</time>
      </trkpt>
      <trkpt lat="45.88321" lon="2.99993">
        <ele>576</ele>
        <time>2021-08-10T18:58:40Z</time>
      </trkpt>
      <trkpt lat="45.88321" lon="2.99993">
        <ele>576</ele>
        <time>2021-08-10T18:58:41Z</time>
      </trkpt>
      <trkpt lat="45.88323" lon="2.99995">
        <ele>576</ele>
        <time>2021-08-10T18:58:43Z</time>
      </trkpt>
      <trkpt lat="45.88328" lon="2.99999">
        <ele>576</ele>
        <time>2021-08-10T18:58:44Z</time>
      </trkpt>
      <trkpt lat="45.88328" lon="3">
        <ele>576</ele>
        <time>2021-08-10T18:58:46Z</time>
      </trkpt>
      <trkpt lat="45.88332" lon="3.00003">
        <ele>576</ele>
        <time>2021-08-10T18:58:48Z</time>
      </trkpt>
      <trkpt lat="45.88332" lon="3.00003">
        <ele>576</ele>
        <time>2021-08-10T18:58:49Z</time>
      </trkpt>
      <trkpt lat="45.88338" lon="3.00008">
        <ele>576</ele>
        <time>2021-08-10T18:58:51Z</time>
      </trkpt>
      <trkpt lat="45.88341" lon="3.00011">
        <ele>576</ele>
        <time>2021-08-10T18:58:53Z</time>
      </trkpt>
      <trkpt lat="45.88345" lon="3.00013">
        <ele>576</ele>
        <time>2021-08-10T18:58:54Z</time>
      </trkpt>
      <trkpt lat="45.88345" lon="3.00013">
        <ele>576</ele>
        <time>2021-08-10T18:58:55Z</time>
      </trkpt>
      <trkpt lat="45.88346" lon="3.00014">
        <ele>576</ele>
        <time>2021-08-10T18:58:57Z</time>
      </trkpt>
      <trkpt lat="45.88351" lon="3.00018">
        <ele>576</ele>
        <time>2021-08-10T18:58:59Z</time>
      </trkpt>
      <trkpt lat="45.88354" lon="3.00021">
        <ele>576</ele>
        <time>2021-08-10T18:59:00Z</time>
      </trkpt>
      <trkpt lat="45.88355" lon="3.00022">
        <ele>576</ele>
        <time>2021-08-10T18:59:01Z</time>
      </trkpt>
      <trkpt lat="45.88355" lon="3.00022">
        <ele>576</ele>
        <time>2021-08-10T18:59:03Z</time>
      </trkpt>
      <trkpt lat="45.88358" lon="3.00026">
        <ele>576</ele>
        <time>2021-08-10T18:59:05Z</time>
      </trkpt>
      <trkpt lat="45.88362" lon="3.0003">
        <ele>576</ele>
        <time>2021-08-10T18:59:06Z</time>
      </trkpt>
      <trkpt lat="45.88362" lon="3.0003">
        <ele>576</ele>
        <time>2021-08-10T18:59:07Z</time>
      </trkpt>
      <trkpt lat="45.88363" lon="3.00031">
        <ele>576</ele>
        <time>2021-08-10T18:59:08Z</time>
      </trkpt>
      <trkpt lat="45.88364" lon="3.00032">
        <ele>576</ele>
        <time>2021-08-10T18:59:09Z</time>
      </trkpt>
      <trkpt lat="45.88365" lon="3.00033">
        <ele>576</ele>
        <time>2021-08-10T18:59:11Z</time>
      </trkpt>
      <trkpt lat="45.8837" lon="3.00035">
        <ele>576</ele>
        <time>2021-08-10T18:59:12Z</time>
      </trkpt>
      <trkpt lat="45.88371" lon="3.00035">
        <ele>576</ele>
        <time>2021-08-10T18:59:14Z</time>
      </trkpt>
      <trkpt lat="45.88375" lon="3.0004">
        <ele>576</ele>
        <time>2021-08-10T18:59:15Z</time>
      </trkpt>
      <trkpt lat="45.88375" lon="3.0004">
        <ele>576</ele>
        <time>2021-08-10T18:59:17Z</time>
      </trkpt>
      <trkpt lat="45.8838" lon="3.00044">
        <ele>576</ele>
        <time>2021-08-10T18:59:18Z</time>
      </trkpt>
      <trkpt lat="45.8838" lon="3.00044">
        <ele>576</ele>
        <time>2021-08-10T18:59:19Z</time>
      </trkpt>
      <trkpt lat="45.8838" lon="3.00044">
        <ele>576</ele>
        <time>2021-08-10T18:59:20Z</time>
      </trkpt>
      <trkpt lat="45.88381" lon="3.00045">
        <ele>576</ele>
        <time>2021-08-10T18:59:21Z</time>
      </trkpt>
      <trkpt lat="45.88382" lon="3.00046">
        <ele>576</ele>
        <time>2021-08-10T18:59:22Z</time>
      </trkpt>
      <trkpt lat="45.88383" lon="3.00046">
        <ele>576</ele>
        <time>2021-08-10T18:59:23Z</time>
      </trkpt>
      <trkpt lat="45.88384" lon="3.00047">
        <ele>576</ele>
        <time>2021-08-10T18:59:25Z</time>
      </trkpt>
      <trkpt lat="45.88389" lon="3.00052">
        <ele>576</ele>
        <time>2021-08-10T18:59:26Z</time>
      </trkpt>
      <trkpt lat="45.8839" lon="3.00053">
        <ele>576</ele>
        <time>2021-08-10T18:59:28Z</time>
      </trkpt>
      <trkpt lat="45.88395" lon="3.00057">
        <ele>576</ele>
        <time>2021-08-10T18:59:29Z</time>
      </trkpt>
      <trkpt lat="45.88395" lon="3.00057">
        <ele>576</ele>
        <time>2021-08-10T18:59:30Z</time>
      </trkpt>
      <trkpt lat="45.88396" lon="3.00058">
        <ele>576</ele>
        <time>2021-08-10T18:59:31Z</time>
      </trkpt>
      <trkpt lat="45.88397" lon="3.00059">
        <ele>576</ele>
        <time>2021-08-10T18:59:33Z</time>
      </trkpt>
      <trkpt lat="45.88402" lon="3.0006">
        <ele>576</ele>
        <time>2021-08-10T18:59:34Z</time>
      </trkpt>
      <trkpt lat="45.88402" lon="3.00061">
        <ele>576</ele>
        <time>2021-08-10T18:59:35Z</time>
      </trkpt>
      <trkpt lat="45.88402" lon="3.00061">
        <ele>576</ele>
        <time>2021-08-10T18:59:36Z</time>
      </trkpt>
      <trkpt lat="45.88403" lon="3.00062">
        <ele>576</ele>
        <time>2021-08-10T18:59:37Z</time>
      </trkpt>
      <trkpt lat="45.88405" lon="3.00063">
        <ele>576</ele>
        <time>2021-08-10T18:59:39Z</time>
      </trkpt>
      <trkpt lat="45.8841" lon="3.00067">
        <ele>576</ele>
        <time>2021-08-10T18:59:40Z</time>
      </trkpt>
      <trkpt lat="45.8841" lon="3.00068">
        <ele>576</ele>
        <time>2021-08-10T18:59:41Z</time>
      </trkpt>
      <trkpt lat="45.88411" lon="3.00068">
        <ele>576</ele>
        <time>2021-08-10T18:59:42Z</time>
      </trkpt>
      <trkpt lat="45.88412" lon="3.00069">
        <ele>576</ele>
        <time>2021-08-10T18:59:43Z</time>
      </trkpt>
      <trkpt lat="45.88414" lon="3.0007">
        <ele>576</ele>
        <time>2021-08-10T18:59:44Z</time>
      </trkpt>
      <trkpt lat="45.88415" lon="3.00071">
        <ele>576</ele>
        <time>2021-08-10T18:59:46Z</time>
      </trkpt>
      <trkpt lat="45.88417" lon="3.00072">
        <ele>576</ele>
        <time>2021-08-10T18:59:47Z</time>
      </trkpt>
      <trkpt lat="45.88419" lon="3.00073">
        <ele>576</ele>
        <time>2021-08-10T18:59:48Z</time>
      </trkpt>
      <trkpt lat="45.88421" lon="3.00075">
        <ele>576</ele>
        <time>2021-08-10T18:59:49Z</time>
      </trkpt>
      <trkpt lat="45.88422" lon="3.00076">
        <ele>576</ele>
        <time>2021-08-10T18:59:50Z</time>
      </trkpt>
      <trkpt lat="45.88427" lon="3.00081">
        <ele>576</ele>
        <time>2021-08-10T18:59:51Z</time>
      </trkpt>
      <trkpt lat="45.88427" lon="3.00081">
        <ele>576</ele>
        <time>2021-08-10T18:59:53Z</time>
      </trkpt>
      <trkpt lat="45.88432" lon="3.00085">
        <ele>576</ele>
        <time>2021-08-10T18:59:54Z</time>
      </trkpt>
      <trkpt lat="45.88432" lon="3.00085">
        <ele>576</ele>
        <time>2021-08-10T18:59:55Z</time>
      </trkpt>
      <trkpt lat="45.88433" lon="3.00086">
        <ele>576</ele>
        <time>2021-08-10T18:59:56Z</time>
      </trkpt>
      <trkpt lat="45.88434" lon="3.00087">
        <ele>576</ele>
        <time>2021-08-10T18:59:57Z</time>
      </trkpt>
      <trkpt lat="45.88435" lon="3.00087">
        <ele>576</ele>
        <time>2021-08-10T18:59:58Z</time>
      </trkpt>
      <trkpt lat="45.88437" lon="3.00088">
        <ele>576</ele>
        <time>2021-08-10T18:59:59Z</time>
      </trkpt>
      <trkpt lat="45.88438" lon="3.0009">
        <ele>576</ele>
        <time>2021-08-10T19:00:01Z</time>
      </trkpt>
      <trkpt lat="45.88444" lon="3.00096">
        <ele>576</ele>
        <time>2021-08-10T19:00:02Z</time>
      </trkpt>
      <trkpt lat="45.88444" lon="3.00096">
        <ele>576</ele>
        <time>2021-08-10T19:00:03Z</time>
      </trkpt>
      <trkpt lat="45.88445" lon="3.00097">
        <ele>576</ele>
        <time>2021-08-10T19:00:04Z</time>
      </trkpt>
      <trkpt lat="45.88446" lon="3.00098">
        <ele>576</ele>
        <time>2021-08-10T19:00:05Z</time>
      </trkpt>
      <trkpt lat="45.88447" lon="3.00099">
        <ele>576</ele>
        <time>2021-08-10T19:00:06Z</time>
      </trkpt>
      <trkpt lat="45.88449" lon="3.001">
        <ele>576</ele>
        <time>2021-08-10T19:00:07Z</time>
      </trkpt>
      <trkpt lat="45.8845" lon="3.00101">
        <ele>576</ele>
        <time>2021-08-10T19:00:09Z</time>
      </trkpt>
      <trkpt lat="45.88456" lon="3.00108">
        <ele>576</ele>
        <time>2021-08-10T19:00:10Z</time>
      </trkpt>
      <trkpt lat="45.88457" lon="3.00109">
        <ele>576</ele>
        <time>2021-08-10T19:00:12Z</time>
      </trkpt>
      <trkpt lat="45.8846" lon="3.00111">
        <ele>576</ele>
        <time>2021-08-10T19:00:13Z</time>
      </trkpt>
      <trkpt lat="45.8846" lon="3.00111">
        <ele>576</ele>
        <time>2021-08-10T19:00:14Z</time>
      </trkpt>
      <trkpt lat="45.88461" lon="3.00112">
        <ele>576</ele>
        <time>2021-08-10T19:00:15Z</time>
      </trkpt>
      <trkpt lat="45.88462" lon="3.00113">
        <ele>576</ele>
        <time>2021-08-10T19:00:17Z</time>
      </trkpt>
      <trkpt lat="45.88468" lon="3.00119">
        <ele>576</ele>
        <time>2021-08-10T19:00:18Z</time>
      </trkpt>
      <trkpt lat="45.88469" lon="3.00119">
        <ele>576</ele>
        <time>2021-08-10T19:00:20Z</time>
      </trkpt>
      <trkpt lat="45.88472" lon="3.00121">
        <ele>576</ele>
        <time>2021-08-10T19:00:21Z</time>
      </trkpt>
      <trkpt lat="45.88472" lon="3.00121">
        <ele>576</ele>
        <time>2021-08-10T19:00:23Z</time>
      </trkpt>
      <trkpt lat="45.88476" lon="3.00124">
        <ele>576</ele>
        <time>2021-08-10T19:00:24Z</time>
      </trkpt>
      <trkpt lat="45.88477" lon="3.00125">
        <ele>576</ele>
        <time>2021-08-10T19:00:25Z</time>
      </trkpt>
      <trkpt lat="45.88477" lon="3.00126">
        <ele>576</ele>
        <time>2021-08-10T19:00:26Z</time>
      </trkpt>
      <trkpt lat="45.88478" lon="3.00127">
        <ele>576</ele>
        <time>2021-08-10T19:00:27Z</time>
      </trkpt>
      <trkpt lat="45.88479" lon="3.00128">
        <ele>576</ele>
        <time>2021-08-10T19:00:28Z</time>
      </trkpt>
      <trkpt lat="45.8848" lon="3.00129">
        <ele>576</ele>
        <time>2021-08-10T19:00:29Z</time>
      </trkpt>
      <trkpt lat="45.8848" lon="3.0013">
        <ele>576</ele>
        <time>2021-08-10T19:00:31Z</time>
      </trkpt>
      <trkpt lat="45.88485" lon="3.00134">
        <ele>576</ele>
        <time>2021-08-10T19:00:32Z</time>
      </trkpt>
      <trkpt lat="45.88485" lon="3.00135">
        <ele>576</ele>
        <time>2021-08-10T19:00:33Z</time>
      </trkpt>
      <trkpt lat="45.88486" lon="3.00135">
        <ele>576</ele>
        <time>2021-08-10T19:00:34Z</time>
      </trkpt>
      <trkpt lat="45.88487" lon="3.00136">
        <ele>576</ele>
        <time>2021-08-10T19:00:35Z</time>
      </trkpt>
      <trkpt lat="45.88489" lon="3.00137">
        <ele>576</ele>
        <time>2021-08-10T19:00:36Z</time>
      </trkpt>
      <trkpt lat="45.8849" lon="3.00138">
        <ele>576</ele>
        <time>2021-08-10T19:00:37Z</time>
      </trkpt>
      <trkpt lat="45.88491" lon="3.00139">
        <ele>576</ele>
        <time>2021-08-10T19:00:38Z</time>
      </trkpt>
      <trkpt lat="45.88492" lon="3.0014">
        <ele>576</ele>
        <time>2021-08-10T19:00:39Z</time>
      </trkpt>
      <trkpt lat="45.88493" lon="3.00141">
        <ele>576</ele>
        <time>2021-08-10T19:00:41Z</time>
      </trkpt>
      <trkpt lat="45.88499" lon="3.00148">
        <ele>576</ele>
        <time>2021-08-10T19:00:42Z</time>
      </trkpt>
      <trkpt lat="45.885" lon="3.00148">
        <ele>576</ele>
        <time>2021-08-10T19:00:43Z</time>
      </trkpt>
      <trkpt lat="45.885" lon="3.00149">
        <ele>576</ele>
        <time>2021-08-10T19:00:45Z</time>
      </trkpt>
      <trkpt lat="45.88504" lon="3.00151">
        <ele>576</ele>
        <time>2021-08-10T19:00:47Z</time>
      </trkpt>
      <trkpt lat="45.88504" lon="3.00152">
        <ele>576</ele>
        <time>2021-08-10T19:00:48Z</time>
      </trkpt>
      <trkpt lat="45.88505" lon="3.00153">
        <ele>576</ele>
        <time>2021-08-10T19:00:49Z</time>
      </trkpt>
      <trkpt lat="45.8851" lon="3.00157">
        <ele>576</ele>
        <time>2021-08-10T19:00:50Z</time>
      </trkpt>
      <trkpt lat="45.88511" lon="3.00158">
        <ele>576</ele>
        <time>2021-08-10T19:00:51Z</time>
      </trkpt>
      <trkpt lat="45.88511" lon="3.00158">
        <ele>576</ele>
        <time>2021-08-10T19:00:53Z</time>
      </trkpt>
      <trkpt lat="45.88516" lon="3.00162">
        <ele>576</ele>
        <time>2021-08-10T19:00:54Z</time>
      </trkpt>
      <trkpt lat="45.88516" lon="3.00162">
        <ele>576</ele>
        <time>2021-08-10T19:00:55Z</time>
      </trkpt>
      <trkpt lat="45.88517" lon="3.00163">
        <ele>576</ele>
        <time>2021-08-10T19:00:56Z</time>
      </trkpt>
      <trkpt lat="45.88518" lon="3.00164">
        <ele>576</ele>
        <time>2021-08-10T19:00:57Z</time>
      </trkpt>
      <trkpt lat="45.88519" lon="3.00166">
        <ele>576</ele>
        <time>2021-08-10T19:00:59Z</time>
      </trkpt>
      <trkpt lat="45.88527" lon="3.00173">
        <ele>576</ele>
        <time>2021-08-10T19:01:00Z</time>
      </trkpt>
      <trkpt lat="45.88527" lon="3.00173">
        <ele>576</ele>
        <time>2021-08-10T19:01:01Z</time>
      </trkpt>
      <trkpt lat="45.88528" lon="3.00174">
        <ele>576</ele>
        <time>2021-08-10T19:01:03Z</time>
      </trkpt>
      <trkpt lat="45.88533" lon="3.00177">
        <ele>576</ele>
        <time>2021-08-10T19:01:05Z</time>
      </trkpt>
      <trkpt lat="45.88536" lon="3.0018">
        <ele>576</ele>
        <time>2021-08-10T19:01:06Z</time>
      </trkpt>
      <trkpt lat="45.88537" lon="3.00181">
        <ele>576</ele>
        <time>2021-08-10T19:01:07Z</time>
      </trkpt>
      <trkpt lat="45.88537" lon="3.00181">
        <ele>576</ele>
        <time>2021-08-10T19:01:08Z</time>
      </trkpt>
      <trkpt lat="45.88538" lon="3.00182">
        <ele>576</ele>
        <time>2021-08-10T19:01:09Z</time>
      </trkpt>
      <trkpt lat="45.88539" lon="3.00183">
        <ele>576</ele>
        <time>2021-08-10T19:01:11Z</time>
      </trkpt>
      <trkpt lat="45.88544" lon="3.00188">
        <ele>576</ele>
        <time>2021-08-10T19:01:12Z</time>
      </trkpt>
      <trkpt lat="45.88545" lon="3.00188">
        <ele>576</ele>
        <time>2021-08-10T19:01:14Z</time>
      </trkpt>
      <trkpt lat="45.88549" lon="3.00193">
        <ele>576</ele>
        <time>2021-08-10T19:01:15Z</time>
      </trkpt>
      <trkpt lat="45.8855" lon="3.00193">
        <ele>576</ele>
        <time>2021-08-10T19:01:16Z</time>
      </trkpt>
      <trkpt lat="45.8855" lon="3.00193">
        <ele>576</ele>
        <time>2021-08-10T19:01:17Z</time>
      </trkpt>
      <trkpt lat="45.88552" lon="3.00194">
        <ele>576</ele>
        <time>2021-08-10T19:01:19Z</time>
      </trkpt>
      <trkpt lat="45.88559" lon="3.00199">
        <ele>576</ele>
        <time>2021-08-10T19:01:20Z</time>
      </trkpt>
      <trkpt lat="45.88559" lon="3.00199">
        <ele>576</ele>
        <time>2021-08-10T19:01:22Z</time>
      </trkpt>
      <trkpt lat="45.88564" lon="3.00203">
        <ele>576</ele>
        <time>2021-08-10T19:01:23Z</time>
      </trkpt>
      <trkpt lat="45.88564" lon="3.00203">
        <ele>576</ele>
        <time>2021-08-10T19:01:24Z</time>
      </trkpt>
      <trkpt lat="45.88564" lon="3.00204">
        <ele>576</ele>
        <time>2021-08-10T19:01:25Z</time>
      </trkpt>
      <trkpt lat="45.88565" lon="3.00205">
        <ele>576</ele>
        <time>2021-08-10T19:01:27Z</time>
      </trkpt>
      <trkpt lat="45.88571" lon="3.0021">
        <ele>576</ele>
        <time>2021-08-10T19:01:28Z</time>
      </trkpt>
      <trkpt lat="45.88571" lon="3.0021">
        <ele>576</ele>
        <time>2021-08-10T19:01:29Z</time>
      </trkpt>
      <trkpt lat="45.88572" lon="3.00211">
        <ele>576</ele>
        <time>2021-08-10T19:01:30Z</time>
      </trkpt>
      <trkpt lat="45.88573" lon="3.00212">
        <ele>576</ele>
        <time>2021-08-10T19:01:31Z</time>
      </trkpt>
      <trkpt lat="45.88574" lon="3.00212">
        <ele>576</ele>
        <time>2021-08-10T19:01:33Z</time>
      </trkpt>
      <trkpt lat="45.88579" lon="3.00217">
        <ele>576</ele>
        <time>2021-08-10T19:01:35Z</time>
      </trkpt>
      <trkpt lat="45.88583" lon="3.0022">
        <ele>576</ele>
        <time>2021-08-10T19:01:36Z</time>
      </trkpt>
      <trkpt lat="45.88583" lon="3.0022">
        <ele>576</ele>
        <time>2021-08-10T19:01:37Z</time>
      </trkpt>
      <trkpt lat="45.88583" lon="3.00221">
        <ele>576</ele>
        <time>2021-08-10T19:01:38Z</time>
      </trkpt>
      <trkpt lat="45.88585" lon="3.00221">
        <ele>576</ele>
        <time>2021-08-10T19:01:39Z</time>
      </trkpt>
      <trkpt lat="45.88585" lon="3.00222">
        <ele>576</ele>
        <time>2021-08-10T19:01:41Z</time>
      </trkpt>
      <trkpt lat="45.8859" lon="3.00225">
        <ele>576</ele>
        <time>2021-08-10T19:01:42Z</time>
      </trkpt>
      <trkpt lat="45.8859" lon="3.00225">
        <ele>576</ele>
        <time>2021-08-10T19:01:43Z</time>
      </trkpt>
      <trkpt lat="45.88591" lon="3.00225">
        <ele>576</ele>
        <time>2021-08-10T19:01:44Z</time>
      </trkpt>
      <trkpt lat="45.88592" lon="3.00226">
        <ele>576</ele>
        <time>2021-08-10T19:01:45Z</time>
      </trkpt>
      <trkpt lat="45.88594" lon="3.00226">
        <ele>576</ele>
        <time>2021-08-10T19:01:47Z</time>
      </trkpt>
      <trkpt lat="45.88595" lon="3.00227">
        <ele>576</ele>
        <time>2021-08-10T19:01:48Z</time>
      </trkpt>
      <trkpt lat="45.88597" lon="3.00228">
        <ele>576</ele>
        <time>2021-08-10T19:01:49Z</time>
      </trkpt>
      <trkpt lat="45.88604" lon="3.00233">
        <ele>576</ele>
        <time>2021-08-10T19:01:51Z</time>
      </trkpt>
      <trkpt lat="45.88608" lon="3.00236">
        <ele>576</ele>
        <time>2021-08-10T19:01:52Z</time>
      </trkpt>
      <trkpt lat="45.88609" lon="3.00237">
        <ele>576</ele>
        <time>2021-08-10T19:01:54Z</time>
      </trkpt>
      <trkpt lat="45.88612" lon="3.00241">
        <ele>576</ele>
        <time>2021-08-10T19:01:55Z</time>
      </trkpt>
      <trkpt lat="45.88612" lon="3.00241">
        <ele>576</ele>
        <time>2021-08-10T19:01:56Z</time>
      </trkpt>
      <trkpt lat="45.88613" lon="3.00242">
        <ele>576</ele>
        <time>2021-08-10T19:01:57Z</time>
      </trkpt>
      <trkpt lat="45.88614" lon="3.00243">
        <ele>576</ele>
        <time>2021-08-10T19:01:59Z</time>
      </trkpt>
      <trkpt lat="45.88618" lon="3.00249">
        <ele>576</ele>
        <time>2021-08-10T19:02:00Z</time>
      </trkpt>
      <trkpt lat="45.88619" lon="3.0025">
        <ele>576</ele>
        <time>2021-08-10T19:02:01Z</time>
      </trkpt>
      <trkpt lat="45.88619" lon="3.0025">
        <ele>576</ele>
        <time>2021-08-10T19:02:01Z</time>
      </trkpt>
      <trkpt lat="45.8862" lon="3.00251">
        <ele>576</ele>
        <time>2021-08-10T19:02:02Z</time>
      </trkpt>
      <trkpt lat="45.88621" lon="3.00252">
        <ele>576</ele>
        <time>2021-08-10T19:02:04Z</time>
      </trkpt>
      <trkpt lat="45.88626" lon="3.00258">
        <ele>576</ele>
        <time>2021-08-10T19:02:05Z</time>
      </trkpt>
      <trkpt lat="45.88627" lon="3.00259">
        <ele>576</ele>
        <time>2021-08-10T19:02:06Z</time>
      </trkpt>
      <trkpt lat="45.88628" lon="3.0026">
        <ele>576</ele>
        <time>2021-08-10T19:02:07Z</time>
      </trkpt>
      <trkpt lat="45.88628" lon="3.00261">
        <ele>576</ele>
        <time>2021-08-10T19:02:08Z</time>
      </trkpt>
      <trkpt lat="45.8863" lon="3.00262">
        <ele>576</ele>
        <time>2021-08-10T19:02:09Z</time>
      </trkpt>
      <trkpt lat="45.88631" lon="3.00263">
        <ele>576</ele>
        <time>2021-08-10T19:02:10Z</time>
      </trkpt>
      <trkpt lat="45.88633" lon="3.00264">
        <ele>576</ele>
        <time>2021-08-10T19:02:12Z</time>
      </trkpt>
      <trkpt lat="45.88634" lon="3.00265">
        <ele>576</ele>
        <time>2021-08-10T19:02:13Z</time>
      </trkpt>
      <trkpt lat="45.88639" lon="3.0027">
        <ele>576</ele>
        <time>2021-08-10T19:02:14Z</time>
      </trkpt>
      <trkpt lat="45.88639" lon="3.0027">
        <ele>576</ele>
        <time>2021-08-10T19:02:15Z</time>
      </trkpt>
      <trkpt lat="45.88639" lon="3.00271">
        <ele>576</ele>
        <time>2021-08-10T19:02:16Z</time>
      </trkpt>
      <trkpt lat="45.8864" lon="3.00272">
        <ele>576</ele>
        <time>2021-08-10T19:02:18Z</time>
      </trkpt>
      <trkpt lat="45.88644" lon="3.00277">
        <ele>576</ele>
        <time>2021-08-10T19:02:19Z</time>
      </trkpt>
      <trkpt lat="45.88645" lon="3.00277">
        <ele>576</ele>
        <time>2021-08-10T19:02:21Z</time>
      </trkpt>
      <trkpt lat="45.88651" lon="3.00282">
        <ele>576</ele>
        <time>2021-08-10T19:02:22Z</time>
      </trkpt>
      <trkpt lat="45.88651" lon="3.00283">
        <ele>576</ele>
        <time>2021-08-10T19:02:23Z</time>
      </trkpt>
      <trkpt lat="45.88652" lon="3.00284">
        <ele>576</ele>
        <time>2021-08-10T19:02:24Z</time>
      </trkpt>
      <trkpt lat="45.88652" lon="3.00285">
        <ele>576</ele>
        <time>2021-08-10T19:02:26Z</time>
      </trkpt>
      <trkpt lat="45.88657" lon="3.00291">
        <ele>576</ele>
        <time>2021-08-10T19:02:27Z</time>
      </trkpt>
      <trkpt lat="45.88657" lon="3.00291">
        <ele>576</ele>
        <time>2021-08-10T19:02:28Z</time>
      </trkpt>
      <trkpt lat="45.88658" lon="3.00292">
        <ele>576</ele>
        <time>2021-08-10T19:02:29Z</time>
      </trkpt>
      <trkpt lat="45.8866" lon="3.00293">
        <ele>576</ele>
        <time>2021-08-10T19:02:30Z</time>
      </trkpt>
      <trkpt lat="45.88661" lon="3.00294">
        <ele>576</ele>
        <time>2021-08-10T19:02:32Z</time>
      </trkpt>
      <trkpt lat="45.88667" lon="3.00296">
        <ele>576</ele>
        <time>2021-08-10T19:02:34Z</time>
      </trkpt>
      <trkpt lat="45.8867" lon="3.00299">
        <ele>576</ele>
        <time>2021-08-10T19:02:35Z</time>
      </trkpt>
      <trkpt lat="45.8867" lon="3.00299">
        <ele>576</ele>
        <time>2021-08-10T19:02:36Z</time>
      </trkpt>
      <trkpt lat="45.88671" lon="3.003">
        <ele>576</ele>
        <time>2021-08-10T19:02:38Z</time>
      </trkpt>
      <trkpt lat="45.88677" lon="3.00304">
        <ele>576</ele>
        <time>2021-08-10T19:02:39Z</time>
      </trkpt>
      <trkpt lat="45.88677" lon="3.00304">
        <ele>576</ele>
        <time>2021-08-10T19:02:41Z</time>
      </trkpt>
      <trkpt lat="45.88681" lon="3.00308">
        <ele>576</ele>
        <time>2021-08-10T19:02:42Z</time>
      </trkpt>
      <trkpt lat="45.88681" lon="3.00308">
        <ele>576</ele>
        <time>2021-08-10T19:02:43Z</time>
      </trkpt>
      <trkpt lat="45.88682" lon="3.00309">
        <ele>576</ele>
        <time>2021-08-10T19:02:44Z</time>
      </trkpt>
      <trkpt lat="45.88683" lon="3.0031">
        <ele>576</ele>
        <time>2021-08-10T19:02:46Z</time>
      </trkpt>
      <trkpt lat="45.88685" lon="3.00311">
        <ele>576</ele>
        <time>2021-08-10T19:02:47Z</time>
      </trkpt>
      <trkpt lat="45.88686" lon="3.00312">
        <ele>576</ele>
        <time>2021-08-10T19:02:48Z</time>
      </trkpt>
      <trkpt lat="45.88691" lon="3.00316">
        <ele>576</ele>
        <time>2021-08-10T19:02:49Z</time>
      </trkpt>
      <trkpt lat="45.88691" lon="3.00316">
        <ele>576</ele>
        <time>2021-08-10T19:02:50Z</time>
      </trkpt>
      <trkpt lat="45.88691" lon="3.00317">
        <ele>576</ele>
        <time>2021-08-10T19:02:51Z</time>
      </trkpt>
      <trkpt lat="45.88693" lon="3.00318">
        <ele>576</ele>
        <time>2021-08-10T19:02:52Z</time>
      </trkpt>
      <trkpt lat="45.88694" lon="3.0032">
        <ele>576</ele>
        <time>2021-08-10T19:02:53Z</time>
      </trkpt>
      <trkpt lat="45.88696" lon="3.00321">
        <ele>576</ele>
        <time>2021-08-10T19:02:54Z</time>
      </trkpt>
      <trkpt lat="45.88697" lon="3.00322">
        <ele>576</ele>
        <time>2021-08-10T19:02:56Z</time>
      </trkpt>
      <trkpt lat="45.88703" lon="3.00327">
        <ele>576</ele>
        <time>2021-08-10T19:02:57Z</time>
      </trkpt>
      <trkpt lat="45.88703" lon="3.00327">
        <ele>576</ele>
        <time>2021-08-10T19:02:59Z</time>
      </trkpt>
      <trkpt lat="45.88706" lon="3.0033">
        <ele>576</ele>
        <time>2021-08-10T19:03:00Z</time>
      </trkpt>
      <trkpt lat="45.88706" lon="3.00331">
        <ele>576</ele>
        <time>2021-08-10T19:03:02Z</time>
      </trkpt>
      <trkpt lat="45.8871" lon="3.00335">
        <ele>576</ele>
        <time>2021-08-10T19:03:04Z</time>
      </trkpt>
      <trkpt lat="45.8871" lon="3.00335">
        <ele>576</ele>
        <time>2021-08-10T19:03:05Z</time>
      </trkpt>
      <trkpt lat="45.88715" lon="3.00337">
        <ele>576</ele>
        <time>2021-08-10T19:03:06Z</time>
      </trkpt>
      <trkpt lat="45.88715" lon="3.00337">
        <ele>576</ele>
        <time>2021-08-10T19:03:07Z</time>
      </trkpt>
      <trkpt lat="45.88716" lon="3.00338">
        <ele>576</ele>
        <time>2021-08-10T19:03:08Z</time>
      </trkpt>
      <trkpt lat="45.88717" lon="3.00338">
        <ele>576</ele>
        <time>2021-08-10T19:03:10Z</time>
      </trkpt>
      <trkpt lat="45.88723" lon="3.00338">
        <ele>576</ele>
        <time>2021-08-10T19:03:11Z</time>
      </trkpt>
      <trkpt lat="45.88723" lon="3.00338">
        <ele>576</ele>
        <time>2021-08-10T19:03:13Z</time>
      </trkpt>
      <trkpt lat="45.8873" lon="3.00339">
        <ele>576</ele>
        <time>2021-08-10T19:03:14Z</time>
      </trkpt>
      <trkpt lat="45.8873" lon="3.00339">
        <ele>576</ele>
        <time>2021-08-10T19:03:16Z</time>
      </trkpt>
      <trkpt lat="45.88735" lon="3.00339">
        <ele>576</ele>
        <time>2021-08-10T19:03:18Z</time>
      </trkpt>
      <trkpt lat="45.88738" lon="3.0034">
        <ele>576</ele>
        <time>2021-08-10T19:03:19Z</time>
      </trkpt>
      <trkpt lat="45.88738" lon="3.0034">
        <ele>576</ele>
        <time>2021-08-10T19:03:20Z</time>
      </trkpt>
      <trkpt lat="45.88738" lon="3.0034">
        <ele>576</ele>
        <time>2021-08-10T19:03:21Z</time>
      </trkpt>
      <trkpt lat="45.88739" lon="3.0034">
        <ele>576</ele>
        <time>2021-08-10T19:03:22Z</time>
      </trkpt>
      <trkpt lat="45.8874" lon="3.0034">
        <ele>576</ele>
        <time>2021-08-10T19:03:24Z</time>
      </trkpt>
      <trkpt lat="45.88746" lon="3.00342">
        <ele>576</ele>
        <time>2021-08-10T19:03:25Z</time>
      </trkpt>
      <trkpt lat="45.88746" lon="3.00342">
        <ele>576</ele>
        <time>2021-08-10T19:03:26Z</time>
      </trkpt>
      <trkpt lat="45.88747" lon="3.00341">
        <ele>576</ele>
        <time>2021-08-10T19:03:27Z</time>
      </trkpt>
      <trkpt lat="45.88749" lon="3.00341">
        <ele>576</ele>
        <time>2021-08-10T19:03:28Z</time>
      </trkpt>
      <trkpt lat="45.88751" lon="3.00341">
        <ele>576</ele>
        <time>2021-08-10T19:03:30Z</time>
      </trkpt>
      <trkpt lat="45.88755" lon="3.0034">
        <ele>576</ele>
        <time>2021-08-10T19:03:31Z</time>
      </trkpt>
      <trkpt lat="45.88756" lon="3.0034">
        <ele>576</ele>
        <time>2021-08-10T19:03:33Z</time>
      </trkpt>
      <trkpt lat="45.88761" lon="3.0034">
        <ele>576</ele>
        <time>2021-08-10T19:03:34Z</time>
      </trkpt>
      <trkpt lat="45.88762" lon="3.0034">
        <ele>576</ele>
        <time>2021-08-10T19:03:35Z</time>
      </trkpt>
      <trkpt lat="45.88763" lon="3.0034">
        <ele>576</ele>
        <time>2021-08-10T19:03:36Z</time>
      </trkpt>
      <trkpt lat="45.88764" lon="3.0034">
        <ele>576</ele>
        <time>2021-08-10T19:03:38Z</time>
      </trkpt>
      <trkpt lat="45.88766" lon="3.00341">
        <ele>576</ele>
        <time>2021-08-10T19:03:39Z</time>
      </trkpt>
      <trkpt lat="45.88773" lon="3.00341">
        <ele>576</ele>
        <time>2021-08-10T19:03:40Z</time>
      </trkpt>
      <trkpt lat="45.88773" lon="3.00341">
        <ele>576</ele>
        <time>2021-08-10T19:03:42Z</time>
      </trkpt>
      <trkpt lat="45.88779" lon="3.00341">
        <ele>576</ele>
        <time>2021-08-10T19:03:43Z</time>
      </trkpt>
      <trkpt lat="45.8878" lon="3.00341">
        <ele>576</ele>
        <time>2021-08-10T19:03:44Z</time>
      </trkpt>
      <trkpt lat="45.88781" lon="3.00341">
        <ele>576</ele>
        <time>2021-08-10T19:03:46Z</time>
      </trkpt>
      <trkpt lat="45.88782" lon="3.00341">
        <ele>576</ele>
        <time>2021-08-10T19:03:47Z</time>
      </trkpt>
      <trkpt lat="45.88784" lon="3.00341">
        <ele>576</ele>
        <time>2021-08-10T19:03:48Z</time>
      </trkpt>
      <trkpt lat="45.88788" lon="3.00341">
        <ele>576</ele>
        <time>2021-08-10T19:03:50Z</time>
      </trkpt>
      <trkpt lat="45.88793" lon="3.00341">
        <ele>576</ele>
        <time>2021-08-10T19:03:51Z</time>
      </trkpt>
      <trkpt lat="45.88793" lon="3.00341">
        <ele>576</ele>
        <time>2021-08-10T19:03:53Z</time>
      </trkpt>
      <trkpt lat="45.888" lon="3.00342">
        <ele>576</ele>
        <time>2021-08-10T19:03:54Z</time>
      </trkpt>
      <trkpt lat="45.888" lon="3.00342">
        <ele>576</ele>
        <time>2021-08-10T19:03:55Z</time>
      </trkpt>
      <trkpt lat="45.88801" lon="3.00342">
        <ele>576</ele>
        <time>2021-08-10T19:03:56Z</time>
      </trkpt>
      <trkpt lat="45.88802" lon="3.00342">
        <ele>576</ele>
        <time>2021-08-10T19:03:58Z</time>
      </trkpt>
      <trkpt lat="45.88805" lon="3.00342">
        <ele>576</ele>
        <time>2021-08-10T19:03:59Z</time>
      </trkpt>
      <trkpt lat="45.88806" lon="3.00342">
        <ele>576</ele>
        <time>2021-08-10T19:04:00Z</time>
      </trkpt>
      <trkpt lat="45.88807" lon="3.00342">
        <ele>576</ele>
        <time>2021-08-10T19:04:01Z</time>
      </trkpt>
      <trkpt lat="45.88809" lon="3.00342">
        <ele>576</ele>
        <time>2021-08-10T19:04:02Z</time>
      </trkpt>
      <trkpt lat="45.8881" lon="3.00343">
        <ele>576</ele>
        <time>2021-08-10T19:04:04Z</time>
      </trkpt>
      <trkpt lat="45.88817" lon="3.00343">
        <ele>576</ele>
        <time>2021-08-10T19:04:06Z</time>
      </trkpt>
      <trkpt lat="45.88818" lon="3.00345">
        <ele>576</ele>
        <time>2021-08-10T19:04:18Z</time>
      </trkpt>
      <trkpt lat="45.88818" lon="3.00345">
        <ele>576</ele>
        <time>2021-08-10T19:04:20Z</time>
      </trkpt>
      <trkpt lat="45.8882" lon="3.00348">
        <ele>576</ele>
        <time>2021-08-10T19:04:21Z</time>
      </trkpt>
      <trkpt lat="45.8882" lon="3.00349">
        <ele>576</ele>
        <time>2021-08-10T19:04:23Z</time>
      </trkpt>
      <trkpt lat="45.88823" lon="3.00355">
        <ele>576</ele>
        <time>2021-08-10T19:04:24Z</time>
      </trkpt>
      <trkpt lat="45.88824" lon="3.00356">
        <ele>576</ele>
        <time>2021-08-10T19:04:26Z</time>
      </trkpt>
      <trkpt lat="45.88827" lon="3.00363">
        <ele>576</ele>
        <time>2021-08-10T19:04:28Z</time>
      </trkpt>
      <trkpt lat="45.88828" lon="3.00367">
        <ele>576</ele>
        <time>2021-08-10T19:04:29Z</time>
      </trkpt>
      <trkpt lat="45.88828" lon="3.00367">
        <ele>576</ele>
        <time>2021-08-10T19:04:30Z</time>
      </trkpt>
      <trkpt lat="45.88828" lon="3.00368">
        <ele>576</ele>
        <time>2021-08-10T19:04:31Z</time>
      </trkpt>
      <trkpt lat="45.88829" lon="3.0037">
        <ele>576</ele>
        <time>2021-08-10T19:04:32Z</time>
      </trkpt>
      <trkpt lat="45.8883" lon="3.00372">
        <ele>576</ele>
        <time>2021-08-10T19:04:34Z</time>
      </trkpt>
      <trkpt lat="45.88833" lon="3.00379">
        <ele>576</ele>
        <time>2021-08-10T19:04:35Z</time>
      </trkpt>
      <trkpt lat="45.88833" lon="3.00379">
        <ele>576</ele>
        <time>2021-08-10T19:04:37Z</time>
      </trkpt>
      <trkpt lat="45.88835" lon="3.00385">
        <ele>576</ele>
        <time>2021-08-10T19:04:38Z</time>
      </trkpt>
      <trkpt lat="45.88836" lon="3.00386">
        <ele>576</ele>
        <time>2021-08-10T19:04:40Z</time>
      </trkpt>
      <trkpt lat="45.88838" lon="3.00392">
        <ele>576</ele>
        <time>2021-08-10T19:04:41Z</time>
      </trkpt>
      <trkpt lat="45.88838" lon="3.00392">
        <ele>576</ele>
        <time>2021-08-10T19:04:42Z</time>
      </trkpt>
      <trkpt lat="45.88839" lon="3.00394">
        <ele>576</ele>
        <time>2021-08-10T19:04:43Z</time>
      </trkpt>
      <trkpt lat="45.88839" lon="3.00395">
        <ele>576</ele>
        <time>2021-08-10T19:04:44Z</time>
      </trkpt>
      <trkpt lat="45.8884" lon="3.00398">
        <ele>576</ele>
        <time>2021-08-10T19:04:45Z</time>
      </trkpt>
      <trkpt lat="45.88841" lon="3.004">
        <ele>576</ele>
        <time>2021-08-10T19:04:47Z</time>
      </trkpt>
      <trkpt lat="45.88842" lon="3.00403">
        <ele>576</ele>
        <time>2021-08-10T19:04:48Z</time>
      </trkpt>
      <trkpt lat="45.88845" lon="3.00413">
        <ele>576</ele>
        <time>2021-08-10T19:04:49Z</time>
      </trkpt>
      <trkpt lat="45.88845" lon="3.00413">
        <ele>576</ele>
        <time>2021-08-10T19:04:50Z</time>
      </trkpt>
      <trkpt lat="45.88845" lon="3.00414">
        <ele>576</ele>
        <time>2021-08-10T19:04:51Z</time>
      </trkpt>
      <trkpt lat="45.88845" lon="3.00417">
        <ele>576</ele>
        <time>2021-08-10T19:04:52Z</time>
      </trkpt>
      <trkpt lat="45.88846" lon="3.00419">
        <ele>576</ele>
        <time>2021-08-10T19:04:53Z</time>
      </trkpt>
      <trkpt lat="45.88847" lon="3.00422">
        <ele>576</ele>
        <time>2021-08-10T19:04:54Z</time>
      </trkpt>
      <trkpt lat="45.88848" lon="3.00424">
        <ele>576</ele>
        <time>2021-08-10T19:04:56Z</time>
      </trkpt>
      <trkpt lat="45.88851" lon="3.0043">
        <ele>576</ele>
        <time>2021-08-10T19:04:57Z</time>
      </trkpt>
      <trkpt lat="45.88851" lon="3.0043">
        <ele>576</ele>
        <time>2021-08-10T19:04:59Z</time>
      </trkpt>
      <trkpt lat="45.88853" lon="3.00437">
        <ele>576</ele>
        <time>2021-08-10T19:05:00Z</time>
      </trkpt>
      <trkpt lat="45.88853" lon="3.00438">
        <ele>576</ele>
        <time>2021-08-10T19:05:01Z</time>
      </trkpt>
      <trkpt lat="45.88853" lon="3.00439">
        <ele>576</ele>
        <time>2021-08-10T19:05:02Z</time>
      </trkpt>
      <trkpt lat="45.88854" lon="3.0044">
        <ele>576</ele>
        <time>2021-08-10T19:05:04Z</time>
      </trkpt>
      <trkpt lat="45.88855" lon="3.00445">
        <ele>576</ele>
        <time>2021-08-10T19:05:05Z</time>
      </trkpt>
      <trkpt lat="45.88856" lon="3.00446">
        <ele>576</ele>
        <time>2021-08-10T19:05:06Z</time>
      </trkpt>
      <trkpt lat="45.88857" lon="3.00447">
        <ele>576</ele>
        <time>2021-08-10T19:05:07Z</time>
      </trkpt>
      <trkpt lat="45.88857" lon="3.00449">
        <ele>576</ele>
        <time>2021-08-10T19:05:08Z</time>
      </trkpt>
      <trkpt lat="45.88858" lon="3.00451">
        <ele>576</ele>
        <time>2021-08-10T19:05:10Z</time>
      </trkpt>
      <trkpt lat="45.88863" lon="3.00458">
        <ele>576</ele>
        <time>2021-08-10T19:05:11Z</time>
      </trkpt>
      <trkpt lat="45.88863" lon="3.00458">
        <ele>576</ele>
        <time>2021-08-10T19:05:12Z</time>
      </trkpt>
      <trkpt lat="45.88863" lon="3.00459">
        <ele>576</ele>
        <time>2021-08-10T19:05:13Z</time>
      </trkpt>
      <trkpt lat="45.88865" lon="3.0046">
        <ele>576</ele>
        <time>2021-08-10T19:05:14Z</time>
      </trkpt>
      <trkpt lat="45.88866" lon="3.00462">
        <ele>576</ele>
        <time>2021-08-10T19:05:16Z</time>
      </trkpt>
      <trkpt lat="45.8887" lon="3.00467">
        <ele>576</ele>
        <time>2021-08-10T19:05:18Z</time>
      </trkpt>
      <trkpt lat="45.88872" lon="3.0047">
        <ele>576</ele>
        <time>2021-08-10T19:05:19Z</time>
      </trkpt>
      <trkpt lat="45.88873" lon="3.00471">
        <ele>576</ele>
        <time>2021-08-10T19:05:20Z</time>
      </trkpt>
      <trkpt lat="45.88873" lon="3.00472">
        <ele>576</ele>
        <time>2021-08-10T19:05:21Z</time>
      </trkpt>
      <trkpt lat="45.88874" lon="3.00473">
        <ele>576</ele>
        <time>2021-08-10T19:05:22Z</time>
      </trkpt>
      <trkpt lat="45.88875" lon="3.00474">
        <ele>576</ele>
        <time>2021-08-10T19:05:24Z</time>
      </trkpt>
      <trkpt lat="45.88876" lon="3.00475">
        <ele>576</ele>
        <time>2021-08-10T19:05:25Z</time>
      </trkpt>
      <trkpt lat="45.88879" lon="3.00481">
        <ele>576</ele>
        <time>2021-08-10T19:05:26Z</time>
      </trkpt>
      <trkpt lat="45.88879" lon="3.00481">
        <ele>576</ele>
        <time>2021-08-10T19:05:27Z</time>
      </trkpt>
      <trkpt lat="45.8888" lon="3.00482">
        <ele>576</ele>
        <time>2021-08-10T19:05:28Z</time>
      </trkpt>
      <trkpt lat="45.88881" lon="3.00484">
        <ele>576</ele>
        <time>2021-08-10T19:05:30Z</time>
      </trkpt>
      <trkpt lat="45.88884" lon="3.00491">
        <ele>576</ele>
        <time>2021-08-10T19:05:31Z</time>
      </trkpt>
      <trkpt lat="45.88884" lon="3.00491">
        <ele>576</ele>
        <time>2021-08-10T19:05:33Z</time>
      </trkpt>
      <trkpt lat="45.88889" lon="3.00497">
        <ele>576</ele>
        <time>2021-08-10T19:05:34Z</time>
      </trkpt>
      <trkpt lat="45.88889" lon="3.00498">
        <ele>576</ele>
        <time>2021-08-10T19:05:36Z</time>
      </trkpt>
      <trkpt lat="45.88891" lon="3.00503">
        <ele>576</ele>
        <time>2021-08-10T19:05:38Z</time>
      </trkpt>
      <trkpt lat="45.88894" lon="3.00508">
        <ele>576</ele>
        <time>2021-08-10T19:05:39Z</time>
      </trkpt>
      <trkpt lat="45.88894" lon="3.00509">
        <ele>576</ele>
        <time>2021-08-10T19:05:40Z</time>
      </trkpt>
      <trkpt lat="45.88894" lon="3.0051">
        <ele>576</ele>
        <time>2021-08-10T19:05:41Z</time>
      </trkpt>
      <trkpt lat="45.88895" lon="3.00511">
        <ele>576</ele>
        <time>2021-08-10T19:05:42Z</time>
      </trkpt>
      <trkpt lat="45.88896" lon="3.00513">
        <ele>576</ele>
        <time>2021-08-10T19:05:44Z</time>
      </trkpt>
      <trkpt lat="45.88899" lon="3.00521">
        <ele>576</ele>
        <time>2021-08-10T19:05:45Z</time>
      </trkpt>
      <trkpt lat="45.88899" lon="3.00522">
        <ele>576</ele>
        <time>2021-08-10T19:05:47Z</time>
      </trkpt>
      <trkpt lat="45.88899" lon="3.00523">
        <ele>576</ele>
        <time>2021-08-10T19:05:48Z</time>
      </trkpt>
      <trkpt lat="45.88902" lon="3.0053">
        <ele>576</ele>
        <time>2021-08-10T19:05:49Z</time>
      </trkpt>
      <trkpt lat="45.88902" lon="3.00531">
        <ele>576</ele>
        <time>2021-08-10T19:05:51Z</time>
      </trkpt>
      <trkpt lat="45.88905" lon="3.00534">
        <ele>576</ele>
        <time>2021-08-10T19:05:52Z</time>
      </trkpt>
      <trkpt lat="45.88905" lon="3.00535">
        <ele>576</ele>
        <time>2021-08-10T19:05:53Z</time>
      </trkpt>
      <trkpt lat="45.88905" lon="3.00535">
        <ele>576</ele>
        <time>2021-08-10T19:05:54Z</time>
      </trkpt>
      <trkpt lat="45.88906" lon="3.00537">
        <ele>576</ele>
        <time>2021-08-10T19:05:56Z</time>
      </trkpt>
      <trkpt lat="45.8891" lon="3.00543">
        <ele>576</ele>
        <time>2021-08-10T19:05:57Z</time>
      </trkpt>
      <trkpt lat="45.88911" lon="3.00543">
        <ele>576</ele>
        <time>2021-08-10T19:05:58Z</time>
      </trkpt>
      <trkpt lat="45.88911" lon="3.00544">
        <ele>576</ele>
        <time>2021-08-10T19:05:59Z</time>
      </trkpt>
      <trkpt lat="45.88911" lon="3.00545">
        <ele>576</ele>
        <time>2021-08-10T19:06:00Z</time>
      </trkpt>
      <trkpt lat="45.88913" lon="3.00547">
        <ele>576</ele>
        <time>2021-08-10T19:06:02Z</time>
      </trkpt>
      <trkpt lat="45.88917" lon="3.00553">
        <ele>576</ele>
        <time>2021-08-10T19:06:03Z</time>
      </trkpt>
      <trkpt lat="45.88918" lon="3.00553">
        <ele>576</ele>
        <time>2021-08-10T19:06:04Z</time>
      </trkpt>
      <trkpt lat="45.88918" lon="3.00554">
        <ele>576</ele>
        <time>2021-08-10T19:06:05Z</time>
      </trkpt>
      <trkpt lat="45.88919" lon="3.00555">
        <ele>576</ele>
        <time>2021-08-10T19:06:06Z</time>
      </trkpt>
      <trkpt lat="45.8892" lon="3.00556">
        <ele>576</ele>
        <time>2021-08-10T19:06:07Z</time>
      </trkpt>
      <trkpt lat="45.88921" lon="3.00557">
        <ele>576</ele>
        <time>2021-08-10T19:06:08Z</time>
      </trkpt>
      <trkpt lat="45.88922" lon="3.00559">
        <ele>576</ele>
        <time>2021-08-10T19:06:10Z</time>
      </trkpt>
      <trkpt lat="45.88926" lon="3.00567">
        <ele>576</ele>
        <time>2021-08-10T19:06:11Z</time>
      </trkpt>
      <trkpt lat="45.88926" lon="3.00568">
        <ele>576</ele>
        <time>2021-08-10T19:06:13Z</time>
      </trkpt>
      <trkpt lat="45.88929" lon="3.00574">
        <ele>576</ele>
        <time>2021-08-10T19:06:14Z</time>
      </trkpt>
      <trkpt lat="45.8893" lon="3.00574">
        <ele>576</ele>
        <time>2021-08-10T19:06:15Z</time>
      </trkpt>
      <trkpt lat="45.88931" lon="3.00575">
        <ele>576</ele>
        <time>2021-08-10T19:06:16Z</time>
      </trkpt>
      <trkpt lat="45.88932" lon="3.00577">
        <ele>576</ele>
        <time>2021-08-10T19:06:17Z</time>
      </trkpt>
      <trkpt lat="45.88937" lon="3.00584">
        <ele>576</ele>
        <time>2021-08-10T19:06:18Z</time>
      </trkpt>
      <trkpt lat="45.88937" lon="3.00585">
        <ele>576</ele>
        <time>2021-08-10T19:06:20Z</time>
      </trkpt>
      <trkpt lat="45.8894" lon="3.00589">
        <ele>576</ele>
        <time>2021-08-10T19:06:21Z</time>
      </trkpt>
      <trkpt lat="45.88941" lon="3.00589">
        <ele>576</ele>
        <time>2021-08-10T19:06:22Z</time>
      </trkpt>
      <trkpt lat="45.88941" lon="3.0059">
        <ele>576</ele>
        <time>2021-08-10T19:06:23Z</time>
      </trkpt>
      <trkpt lat="45.88942" lon="3.00591">
        <ele>576</ele>
        <time>2021-08-10T19:06:25Z</time>
      </trkpt>
      <trkpt lat="45.88945" lon="3.00599">
        <ele>576</ele>
        <time>2021-08-10T19:06:26Z</time>
      </trkpt>
      <trkpt lat="45.88945" lon="3.00599">
        <ele>576</ele>
        <time>2021-08-10T19:06:27Z</time>
      </trkpt>
      <trkpt lat="45.88946" lon="3.00601">
        <ele>576</ele>
        <time>2021-08-10T19:06:28Z</time>
      </trkpt>
      <trkpt lat="45.88947" lon="3.00603">
        <ele>576</ele>
        <time>2021-08-10T19:06:29Z</time>
      </trkpt>
      <trkpt lat="45.88947" lon="3.00605">
        <ele>576</ele>
        <time>2021-08-10T19:06:31Z</time>
      </trkpt>
      <trkpt lat="45.8895" lon="3.00613">
        <ele>576</ele>
        <time>2021-08-10T19:06:32Z</time>
      </trkpt>
      <trkpt lat="45.88951" lon="3.00614">
        <ele>576</ele>
        <time>2021-08-10T19:06:33Z</time>
      </trkpt>
      <trkpt lat="45.88952" lon="3.00616">
        <ele>576</ele>
        <time>2021-08-10T19:06:34Z</time>
      </trkpt>
      <trkpt lat="45.88953" lon="3.00617">
        <ele>576</ele>
        <time>2021-08-10T19:06:35Z</time>
      </trkpt>
      <trkpt lat="45.88954" lon="3.00619">
        <ele>576</ele>
        <time>2021-08-10T19:06:36Z</time>
      </trkpt>
      <trkpt lat="45.88955" lon="3.00622">
        <ele>576</ele>
        <time>2021-08-10T19:06:37Z</time>
      </trkpt>
      <trkpt lat="45.88956" lon="3.00624">
        <ele>576</ele>
        <time>2021-08-10T19:06:39Z</time>
      </trkpt>
      <trkpt lat="45.8896" lon="3.00634">
        <ele>576</ele>
        <time>2021-08-10T19:06:40Z</time>
      </trkpt>
      <trkpt lat="45.8896" lon="3.00634">
        <ele>576</ele>
        <time>2021-08-10T19:06:42Z</time>
      </trkpt>
      <trkpt lat="45.88962" lon="3.00641">
        <ele>576</ele>
        <time>2021-08-10T19:06:43Z</time>
      </trkpt>
      <trkpt lat="45.88962" lon="3.00641">
        <ele>576</ele>
        <time>2021-08-10T19:06:45Z</time>
      </trkpt>
      <trkpt lat="45.88963" lon="3.00643">
        <ele>576</ele>
        <time>2021-08-10T19:06:46Z</time>
      </trkpt>
      <trkpt lat="45.88964" lon="3.00645">
        <ele>576</ele>
        <time>2021-08-10T19:06:47Z</time>
      </trkpt>
      <trkpt lat="45.88967" lon="3.00654">
        <ele>576</ele>
        <time>2021-08-10T19:06:49Z</time>
      </trkpt>
      <trkpt lat="45.88968" lon="3.00659">
        <ele>576</ele>
        <time>2021-08-10T19:06:50Z</time>
      </trkpt>
      <trkpt lat="45.88968" lon="3.0066">
        <ele>576</ele>
        <time>2021-08-10T19:06:51Z</time>
      </trkpt>
      <trkpt lat="45.88968" lon="3.00661">
        <ele>576</ele>
        <time>2021-08-10T19:06:52Z</time>
      </trkpt>
      <trkpt lat="45.88968" lon="3.00663">
        <ele>576</ele>
        <time>2021-08-10T19:06:53Z</time>
      </trkpt>
      <trkpt lat="45.88969" lon="3.00665">
        <ele>576</ele>
        <time>2021-08-10T19:06:55Z</time>
      </trkpt>
      <trkpt lat="45.88971" lon="3.00675">
        <ele>576</ele>
        <time>2021-08-10T19:06:56Z</time>
      </trkpt>
      <trkpt lat="45.88971" lon="3.00675">
        <ele>576</ele>
        <time>2021-08-10T19:06:57Z</time>
      </trkpt>
      <trkpt lat="45.88971" lon="3.00677">
        <ele>576</ele>
        <time>2021-08-10T19:06:58Z</time>
      </trkpt>
      <trkpt lat="45.88971" lon="3.00679">
        <ele>576</ele>
        <time>2021-08-10T19:06:59Z</time>
      </trkpt>
      <trkpt lat="45.88972" lon="3.00681">
        <ele>576</ele>
        <time>2021-08-10T19:07:01Z</time>
      </trkpt>
      <trkpt lat="45.88972" lon="3.00683">
        <ele>576</ele>
        <time>2021-08-10T19:07:02Z</time>
      </trkpt>
      <trkpt lat="45.88971" lon="3.00694">
        <ele>576</ele>
        <time>2021-08-10T19:07:03Z</time>
      </trkpt>
      <trkpt lat="45.8897" lon="3.00695">
        <ele>576</ele>
        <time>2021-08-10T19:07:04Z</time>
      </trkpt>
      <trkpt lat="45.88969" lon="3.00696">
        <ele>576</ele>
        <time>2021-08-10T19:07:05Z</time>
      </trkpt>
      <trkpt lat="45.88969" lon="3.00698">
        <ele>576</ele>
        <time>2021-08-10T19:07:07Z</time>
      </trkpt>
      <trkpt lat="45.88965" lon="3.00704">
        <ele>576</ele>
        <time>2021-08-10T19:07:08Z</time>
      </trkpt>
      <trkpt lat="45.88965" lon="3.00705">
        <ele>576</ele>
        <time>2021-08-10T19:07:10Z</time>
      </trkpt>
      <trkpt lat="45.8896" lon="3.0071">
        <ele>576</ele>
        <time>2021-08-10T19:07:11Z</time>
      </trkpt>
      <trkpt lat="45.8896" lon="3.0071">
        <ele>576</ele>
        <time>2021-08-10T19:07:13Z</time>
      </trkpt>
      <trkpt lat="45.88958" lon="3.00713">
        <ele>576</ele>
        <time>2021-08-10T19:07:14Z</time>
      </trkpt>
      <trkpt lat="45.88958" lon="3.00713">
        <ele>576</ele>
        <time>2021-08-10T19:07:16Z</time>
      </trkpt>
      <trkpt lat="45.88956" lon="3.00717">
        <ele>576</ele>
        <time>2021-08-10T19:07:17Z</time>
      </trkpt>
      <trkpt lat="45.88956" lon="3.00717">
        <ele>576</ele>
        <time>2021-08-10T19:07:19Z</time>
      </trkpt>
      <trkpt lat="45.88954" lon="3.00722">
        <ele>576</ele>
        <time>2021-08-10T19:07:20Z</time>
      </trkpt>
      <trkpt lat="45.88954" lon="3.00723">
        <ele>576</ele>
        <time>2021-08-10T19:07:21Z</time>
      </trkpt>
      <trkpt lat="45.88953" lon="3.00724">
        <ele>576</ele>
        <time>2021-08-10T19:07:22Z</time>
      </trkpt>
      <trkpt lat="45.88953" lon="3.00725">
        <ele>576</ele>
        <time>2021-08-10T19:07:23Z</time>
      </trkpt>
      <trkpt lat="45.88952" lon="3.00727">
        <ele>576</ele>
        <time>2021-08-10T19:07:24Z</time>
      </trkpt>
      <trkpt lat="45.88952" lon="3.00729">
        <ele>576</ele>
        <time>2021-08-10T19:07:25Z</time>
      </trkpt>
      <trkpt lat="45.88952" lon="3.00731">
        <ele>576</ele>
        <time>2021-08-10T19:07:27Z</time>
      </trkpt>
      <trkpt lat="45.88951" lon="3.00742">
        <ele>576</ele>
        <time>2021-08-10T19:07:28Z</time>
      </trkpt>
      <trkpt lat="45.88951" lon="3.00743">
        <ele>576</ele>
        <time>2021-08-10T19:07:30Z</time>
      </trkpt>
      <trkpt lat="45.88952" lon="3.00753">
        <ele>576</ele>
        <time>2021-08-10T19:07:31Z</time>
      </trkpt>
      <trkpt lat="45.88952" lon="3.00754">
        <ele>576</ele>
        <time>2021-08-10T19:07:32Z</time>
      </trkpt>
      <trkpt lat="45.88952" lon="3.00755">
        <ele>576</ele>
        <time>2021-08-10T19:07:33Z</time>
      </trkpt>
      <trkpt lat="45.88952" lon="3.00757">
        <ele>576</ele>
        <time>2021-08-10T19:07:35Z</time>
      </trkpt>
      <trkpt lat="45.88954" lon="3.00768">
        <ele>576</ele>
        <time>2021-08-10T19:07:36Z</time>
      </trkpt>
      <trkpt lat="45.88954" lon="3.00769">
        <ele>576</ele>
        <time>2021-08-10T19:07:37Z</time>
      </trkpt>
      <trkpt lat="45.88955" lon="3.0077">
        <ele>576</ele>
        <time>2021-08-10T19:07:38Z</time>
      </trkpt>
      <trkpt lat="45.88955" lon="3.00772">
        <ele>576</ele>
        <time>2021-08-10T19:07:39Z</time>
      </trkpt>
      <trkpt lat="45.88956" lon="3.00774">
        <ele>576</ele>
        <time>2021-08-10T19:07:40Z</time>
      </trkpt>
      <trkpt lat="45.88956" lon="3.00776">
        <ele>576</ele>
        <time>2021-08-10T19:07:41Z</time>
      </trkpt>
      <trkpt lat="45.88957" lon="3.00778">
        <ele>576</ele>
        <time>2021-08-10T19:07:43Z</time>
      </trkpt>
      <trkpt lat="45.88961" lon="3.00788">
        <ele>576</ele>
        <time>2021-08-10T19:07:45Z</time>
      </trkpt>
      <trkpt lat="45.88961" lon="3.00788">
        <ele>576</ele>
        <time>2021-08-10T19:07:46Z</time>
      </trkpt>
      <trkpt lat="45.88961" lon="3.00788">
        <ele>576</ele>
        <time>2021-08-10T19:07:47Z</time>
      </trkpt>
      <trkpt lat="45.88961" lon="3.00789">
        <ele>576</ele>
        <time>2021-08-10T19:07:50Z</time>
      </trkpt>
      <trkpt lat="45.88962" lon="3.00792">
        <ele>576</ele>
        <time>2021-08-10T19:07:51Z</time>
      </trkpt>
      <trkpt lat="45.88962" lon="3.00792">
        <ele>576</ele>
        <time>2021-08-10T19:07:52Z</time>
      </trkpt>
      <trkpt lat="45.88962" lon="3.00793">
        <ele>576</ele>
        <time>2021-08-10T19:07:53Z</time>
      </trkpt>
      <trkpt lat="45.88963" lon="3.00795">
        <ele>576</ele>
        <time>2021-08-10T19:07:55Z</time>
      </trkpt>
      <trkpt lat="45.88966" lon="3.00803">
        <ele>576</ele>
        <time>2021-08-10T19:07:56Z</time>
      </trkpt>
      <trkpt lat="45.88966" lon="3.00804">
        <ele>576</ele>
        <time>2021-08-10T19:07:57Z</time>
      </trkpt>
      <trkpt lat="45.88967" lon="3.00805">
        <ele>576</ele>
        <time>2021-08-10T19:07:58Z</time>
      </trkpt>
      <trkpt lat="45.88968" lon="3.00806">
        <ele>576</ele>
        <time>2021-08-10T19:07:59Z</time>
      </trkpt>
      <trkpt lat="45.88968" lon="3.00809">
        <ele>576</ele>
        <time>2021-08-10T19:08:01Z</time>
      </trkpt>
      <trkpt lat="45.88974" lon="3.00818">
        <ele>576</ele>
        <time>2021-08-10T19:08:02Z</time>
      </trkpt>
      <trkpt lat="45.88974" lon="3.00818">
        <ele>576</ele>
        <time>2021-08-10T19:08:03Z</time>
      </trkpt>
      <trkpt lat="45.88974" lon="3.00819">
        <ele>576</ele>
        <time>2021-08-10T19:08:04Z</time>
      </trkpt>
      <trkpt lat="45.88975" lon="3.00821">
        <ele>576</ele>
        <time>2021-08-10T19:08:05Z</time>
      </trkpt>
      <trkpt lat="45.88976" lon="3.00822">
        <ele>576</ele>
        <time>2021-08-10T19:08:07Z</time>
      </trkpt>
      <trkpt lat="45.8898" lon="3.00832">
        <ele>576</ele>
        <time>2021-08-10T19:08:08Z</time>
      </trkpt>
      <trkpt lat="45.8898" lon="3.00833">
        <ele>576</ele>
        <time>2021-08-10T19:08:09Z</time>
      </trkpt>
      <trkpt lat="45.88981" lon="3.00833">
        <ele>576</ele>
        <time>2021-08-10T19:08:10Z</time>
      </trkpt>
      <trkpt lat="45.88981" lon="3.00835">
        <ele>576</ele>
        <time>2021-08-10T19:08:11Z</time>
      </trkpt>
      <trkpt lat="45.88982" lon="3.00836">
        <ele>576</ele>
        <time>2021-08-10T19:08:12Z</time>
      </trkpt>
      <trkpt lat="45.88982" lon="3.00839">
        <ele>576</ele>
        <time>2021-08-10T19:08:13Z</time>
      </trkpt>
      <trkpt lat="45.88983" lon="3.00841">
        <ele>576</ele>
        <time>2021-08-10T19:08:15Z</time>
      </trkpt>
      <trkpt lat="45.88988" lon="3.00851">
        <ele>576</ele>
        <time>2021-08-10T19:08:16Z</time>
      </trkpt>
      <trkpt lat="45.88988" lon="3.00852">
        <ele>576</ele>
        <time>2021-08-10T19:08:18Z</time>
      </trkpt>
      <trkpt lat="45.88992" lon="3.00857">
        <ele>576</ele>
        <time>2021-08-10T19:08:19Z</time>
      </trkpt>
      <trkpt lat="45.88992" lon="3.00858">
        <ele>576</ele>
        <time>2021-08-10T19:08:20Z</time>
      </trkpt>
      <trkpt lat="45.88993" lon="3.00859">
        <ele>576</ele>
        <time>2021-08-10T19:08:21Z</time>
      </trkpt>
      <trkpt lat="45.88993" lon="3.0086">
        <ele>576</ele>
        <time>2021-08-10T19:08:23Z</time>
      </trkpt>
      <trkpt lat="45.88995" lon="3.00867">
        <ele>576</ele>
        <time>2021-08-10T19:08:24Z</time>
      </trkpt>
      <trkpt lat="45.88996" lon="3.00868">
        <ele>576</ele>
        <time>2021-08-10T19:08:26Z</time>
      </trkpt>
      <trkpt lat="45.88999" lon="3.00875">
        <ele>576</ele>
        <time>2021-08-10T19:08:27Z</time>
      </trkpt>
      <trkpt lat="45.88999" lon="3.00876">
        <ele>576</ele>
        <time>2021-08-10T19:08:28Z</time>
      </trkpt>
      <trkpt lat="45.89" lon="3.00877">
        <ele>576</ele>
        <time>2021-08-10T19:08:29Z</time>
      </trkpt>
      <trkpt lat="45.89" lon="3.00878">
        <ele>576</ele>
        <time>2021-08-10T19:08:31Z</time>
      </trkpt>
      <trkpt lat="45.89002" lon="3.00886">
        <ele>576</ele>
        <time>2021-08-10T19:08:32Z</time>
      </trkpt>
      <trkpt lat="45.89002" lon="3.00887">
        <ele>576</ele>
        <time>2021-08-10T19:08:33Z</time>
      </trkpt>
      <trkpt lat="45.89002" lon="3.00888">
        <ele>576</ele>
        <time>2021-08-10T19:08:34Z</time>
      </trkpt>
      <trkpt lat="45.89002" lon="3.00889">
        <ele>576</ele>
        <time>2021-08-10T19:08:35Z</time>
      </trkpt>
      <trkpt lat="45.89003" lon="3.00891">
        <ele>576</ele>
        <time>2021-08-10T19:08:36Z</time>
      </trkpt>
      <trkpt lat="45.89003" lon="3.00893">
        <ele>576</ele>
        <time>2021-08-10T19:08:37Z</time>
      </trkpt>
      <trkpt lat="45.89004" lon="3.00896">
        <ele>576</ele>
        <time>2021-08-10T19:08:38Z</time>
      </trkpt>
      <trkpt lat="45.89004" lon="3.00898">
        <ele>576</ele>
        <time>2021-08-10T19:08:39Z</time>
      </trkpt>
      <trkpt lat="45.89005" lon="3.00901">
        <ele>576</ele>
        <time>2021-08-10T19:08:40Z</time>
      </trkpt>
      <trkpt lat="45.89005" lon="3.00903">
        <ele>576</ele>
        <time>2021-08-10T19:08:41Z</time>
      </trkpt>
      <trkpt lat="45.89005" lon="3.00904">
        <ele>576</ele>
        <time>2021-08-10T19:08:43Z</time>
      </trkpt>
      <trkpt lat="45.89007" lon="3.00913">
        <ele>576</ele>
        <time>2021-08-10T19:08:45Z</time>
      </trkpt>
      <trkpt lat="45.89007" lon="3.00914">
        <ele>576</ele>
        <time>2021-08-10T19:08:46Z</time>
      </trkpt>
      <trkpt lat="45.89008" lon="3.00915">
        <ele>576</ele>
        <time>2021-08-10T19:08:47Z</time>
      </trkpt>
      <trkpt lat="45.8901" lon="3.00922">
        <ele>576</ele>
        <time>2021-08-10T19:08:48Z</time>
      </trkpt>
      <trkpt lat="45.8901" lon="3.00923">
        <ele>576</ele>
        <time>2021-08-10T19:08:49Z</time>
      </trkpt>
      <trkpt lat="45.89011" lon="3.00924">
        <ele>576</ele>
        <time>2021-08-10T19:08:51Z</time>
      </trkpt>
      <trkpt lat="45.89014" lon="3.00933">
        <ele>576</ele>
        <time>2021-08-10T19:08:52Z</time>
      </trkpt>
      <trkpt lat="45.89014" lon="3.00934">
        <ele>576</ele>
        <time>2021-08-10T19:08:54Z</time>
      </trkpt>
      <trkpt lat="45.89016" lon="3.00939">
        <ele>576</ele>
        <time>2021-08-10T19:08:55Z</time>
      </trkpt>
      <trkpt lat="45.89016" lon="3.00939">
        <ele>576</ele>
        <time>2021-08-10T19:08:56Z</time>
      </trkpt>
      <trkpt lat="45.89017" lon="3.0094">
        <ele>576</ele>
        <time>2021-08-10T19:08:57Z</time>
      </trkpt>
      <trkpt lat="45.89017" lon="3.00942">
        <ele>576</ele>
        <time>2021-08-10T19:08:59Z</time>
      </trkpt>
      <trkpt lat="45.89021" lon="3.00951">
        <ele>576</ele>
        <time>2021-08-10T19:09:00Z</time>
      </trkpt>
      <trkpt lat="45.89021" lon="3.00951">
        <ele>576</ele>
        <time>2021-08-10T19:09:02Z</time>
      </trkpt>
      <trkpt lat="45.89022" lon="3.00955">
        <ele>576</ele>
        <time>2021-08-10T19:09:03Z</time>
      </trkpt>
      <trkpt lat="45.89022" lon="3.00956">
        <ele>576</ele>
        <time>2021-08-10T19:09:04Z</time>
      </trkpt>
      <trkpt lat="45.89023" lon="3.00957">
        <ele>576</ele>
        <time>2021-08-10T19:09:05Z</time>
      </trkpt>
      <trkpt lat="45.89024" lon="3.00959">
        <ele>576</ele>
        <time>2021-08-10T19:09:07Z</time>
      </trkpt>
      <trkpt lat="45.89028" lon="3.00968">
        <ele>576</ele>
        <time>2021-08-10T19:09:08Z</time>
      </trkpt>
      <trkpt lat="45.89029" lon="3.00968">
        <ele>576</ele>
        <time>2021-08-10T19:09:09Z</time>
      </trkpt>
      <trkpt lat="45.89029" lon="3.00969">
        <ele>576</ele>
        <time>2021-08-10T19:09:10Z</time>
      </trkpt>
      <trkpt lat="45.89029" lon="3.0097">
        <ele>576</ele>
        <time>2021-08-10T19:09:11Z</time>
      </trkpt>
      <trkpt lat="45.89031" lon="3.00971">
        <ele>576</ele>
        <time>2021-08-10T19:09:13Z</time>
      </trkpt>
      <trkpt lat="45.89035" lon="3.00979">
        <ele>576</ele>
        <time>2021-08-10T19:09:14Z</time>
      </trkpt>
      <trkpt lat="45.89035" lon="3.00979">
        <ele>576</ele>
        <time>2021-08-10T19:09:15Z</time>
      </trkpt>
      <trkpt lat="45.89035" lon="3.0098">
        <ele>576</ele>
        <time>2021-08-10T19:09:16Z</time>
      </trkpt>
      <trkpt lat="45.89037" lon="3.00981">
        <ele>576</ele>
        <time>2021-08-10T19:09:17Z</time>
      </trkpt>
      <trkpt lat="45.89037" lon="3.00983">
        <ele>576</ele>
        <time>2021-08-10T19:09:18Z</time>
      </trkpt>
      <trkpt lat="45.89038" lon="3.00984">
        <ele>576</ele>
        <time>2021-08-10T19:09:19Z</time>
      </trkpt>
      <trkpt lat="45.89038" lon="3.00985">
        <ele>576</ele>
        <time>2021-08-10T19:09:21Z</time>
      </trkpt>
      <trkpt lat="45.89042" lon="3.00994">
        <ele>576</ele>
        <time>2021-08-10T19:09:22Z</time>
      </trkpt>
      <trkpt lat="45.89042" lon="3.00994">
        <ele>576</ele>
        <time>2021-08-10T19:09:24Z</time>
      </trkpt>
      <trkpt lat="45.89045" lon="3.01">
        <ele>576</ele>
        <time>2021-08-10T19:09:25Z</time>
      </trkpt>
      <trkpt lat="45.89045" lon="3.01">
        <ele>576</ele>
        <time>2021-08-10T19:09:26Z</time>
      </trkpt>
      <trkpt lat="45.89045" lon="3.01001">
        <ele>576</ele>
        <time>2021-08-10T19:09:27Z</time>
      </trkpt>
      <trkpt lat="45.89046" lon="3.01003">
        <ele>576</ele>
        <time>2021-08-10T19:09:29Z</time>
      </trkpt>
      <trkpt lat="45.8905" lon="3.0101">
        <ele>576</ele>
        <time>2021-08-10T19:09:30Z</time>
      </trkpt>
      <trkpt lat="45.8905" lon="3.01011">
        <ele>576</ele>
        <time>2021-08-10T19:09:32Z</time>
      </trkpt>
      <trkpt lat="45.8905" lon="3.01017">
        <ele>576</ele>
        <time>2021-08-10T19:09:33Z</time>
      </trkpt>
      <trkpt lat="45.8905" lon="3.01017">
        <ele>576</ele>
        <time>2021-08-10T19:09:34Z</time>
      </trkpt>
      <trkpt lat="45.89051" lon="3.01019">
        <ele>576</ele>
        <time>2021-08-10T19:09:35Z</time>
      </trkpt>
      <trkpt lat="45.89052" lon="3.0102">
        <ele>576</ele>
        <time>2021-08-10T19:09:37Z</time>
      </trkpt>
      <trkpt lat="45.89056" lon="3.01029">
        <ele>576</ele>
        <time>2021-08-10T19:09:38Z</time>
      </trkpt>
      <trkpt lat="45.89056" lon="3.01029">
        <ele>576</ele>
        <time>2021-08-10T19:09:39Z</time>
      </trkpt>
      <trkpt lat="45.89056" lon="3.0103">
        <ele>576</ele>
        <time>2021-08-10T19:09:40Z</time>
      </trkpt>
      <trkpt lat="45.89057" lon="3.01032">
        <ele>576</ele>
        <time>2021-08-10T19:09:41Z</time>
      </trkpt>
      <trkpt lat="45.89058" lon="3.01033">
        <ele>576</ele>
        <time>2021-08-10T19:09:43Z</time>
      </trkpt>
      <trkpt lat="45.89061" lon="3.01041">
        <ele>576</ele>
        <time>2021-08-10T19:09:45Z</time>
      </trkpt>
      <trkpt lat="45.89061" lon="3.01042">
        <ele>576</ele>
        <time>2021-08-10T19:09:46Z</time>
      </trkpt>
      <trkpt lat="45.89062" lon="3.01043">
        <ele>576</ele>
        <time>2021-08-10T19:09:47Z</time>
      </trkpt>
      <trkpt lat="45.89064" lon="3.0105">
        <ele>576</ele>
        <time>2021-08-10T19:09:48Z</time>
      </trkpt>
      <trkpt lat="45.89064" lon="3.0105">
        <ele>576</ele>
        <time>2021-08-10T19:09:49Z</time>
      </trkpt>
      <trkpt lat="45.89065" lon="3.01052">
        <ele>576</ele>
        <time>2021-08-10T19:09:50Z</time>
      </trkpt>
      <trkpt lat="45.89065" lon="3.01054">
        <ele>576</ele>
        <time>2021-08-10T19:09:51Z</time>
      </trkpt>
      <trkpt lat="45.89066" lon="3.01056">
        <ele>576</ele>
        <time>2021-08-10T19:09:52Z</time>
      </trkpt>
      <trkpt lat="45.89066" lon="3.01059">
        <ele>576</ele>
        <time>2021-08-10T19:09:53Z</time>
      </trkpt>
      <trkpt lat="45.89067" lon="3.01061">
        <ele>576</ele>
        <time>2021-08-10T19:09:55Z</time>
      </trkpt>
      <trkpt lat="45.89068" lon="3.01069">
        <ele>576</ele>
        <time>2021-08-10T19:09:56Z</time>
      </trkpt>
      <trkpt lat="45.89069" lon="3.0107">
        <ele>576</ele>
        <time>2021-08-10T19:09:58Z</time>
      </trkpt>
      <trkpt lat="45.89072" lon="3.01077">
        <ele>576</ele>
        <time>2021-08-10T19:09:59Z</time>
      </trkpt>
      <trkpt lat="45.89072" lon="3.01077">
        <ele>576</ele>
        <time>2021-08-10T19:10:00Z</time>
      </trkpt>
      <trkpt lat="45.89072" lon="3.01078">
        <ele>576</ele>
        <time>2021-08-10T19:10:01Z</time>
      </trkpt>
      <trkpt lat="45.89072" lon="3.0108">
        <ele>576</ele>
        <time>2021-08-10T19:10:02Z</time>
      </trkpt>
      <trkpt lat="45.89073" lon="3.01082">
        <ele>576</ele>
        <time>2021-08-10T19:10:03Z</time>
      </trkpt>
      <trkpt lat="45.89074" lon="3.01084">
        <ele>576</ele>
        <time>2021-08-10T19:10:04Z</time>
      </trkpt>
      <trkpt lat="45.89074" lon="3.01087">
        <ele>576</ele>
        <time>2021-08-10T19:10:05Z</time>
      </trkpt>
      <trkpt lat="45.89074" lon="3.01089">
        <ele>576</ele>
        <time>2021-08-10T19:10:06Z</time>
      </trkpt>
      <trkpt lat="45.89074" lon="3.01092">
        <ele>576</ele>
        <time>2021-08-10T19:10:07Z</time>
      </trkpt>
      <trkpt lat="45.89074" lon="3.01094">
        <ele>576</ele>
        <time>2021-08-10T19:10:09Z</time>
      </trkpt>
      <trkpt lat="45.89075" lon="3.01105">
        <ele>576</ele>
        <time>2021-08-10T19:10:10Z</time>
      </trkpt>
      <trkpt lat="45.89075" lon="3.01106">
        <ele>576</ele>
        <time>2021-08-10T19:10:12Z</time>
      </trkpt>
      <trkpt lat="45.89077" lon="3.01113">
        <ele>576</ele>
        <time>2021-08-10T19:10:13Z</time>
      </trkpt>
      <trkpt lat="45.89077" lon="3.01113">
        <ele>576</ele>
        <time>2021-08-10T19:10:14Z</time>
      </trkpt>
      <trkpt lat="45.89077" lon="3.01114">
        <ele>576</ele>
        <time>2021-08-10T19:10:15Z</time>
      </trkpt>
      <trkpt lat="45.89077" lon="3.01116">
        <ele>576</ele>
        <time>2021-08-10T19:10:17Z</time>
      </trkpt>
      <trkpt lat="45.89077" lon="3.01119">
        <ele>576</ele>
        <time>2021-08-10T19:10:18Z</time>
      </trkpt>
      <trkpt lat="45.89077" lon="3.01129">
        <ele>576</ele>
        <time>2021-08-10T19:10:19Z</time>
      </trkpt>
      <trkpt lat="45.89077" lon="3.0113">
        <ele>576</ele>
        <time>2021-08-10T19:10:20Z</time>
      </trkpt>
      <trkpt lat="45.89077" lon="3.01131">
        <ele>576</ele>
        <time>2021-08-10T19:10:21Z</time>
      </trkpt>
      <trkpt lat="45.89078" lon="3.01132">
        <ele>576</ele>
        <time>2021-08-10T19:10:22Z</time>
      </trkpt>
      <trkpt lat="45.89078" lon="3.01134">
        <ele>576</ele>
        <time>2021-08-10T19:10:24Z</time>
      </trkpt>
      <trkpt lat="45.89079" lon="3.01144">
        <ele>576</ele>
        <time>2021-08-10T19:10:25Z</time>
      </trkpt>
      <trkpt lat="45.89079" lon="3.01144">
        <ele>576</ele>
        <time>2021-08-10T19:10:27Z</time>
      </trkpt>
      <trkpt lat="45.8908" lon="3.01151">
        <ele>576</ele>
        <time>2021-08-10T19:10:29Z</time>
      </trkpt>
      <trkpt lat="45.8908" lon="3.01151">
        <ele>576</ele>
        <time>2021-08-10T19:10:30Z</time>
      </trkpt>
      <trkpt lat="45.8908" lon="3.0116">
        <ele>576</ele>
        <time>2021-08-10T19:10:31Z</time>
      </trkpt>
      <trkpt lat="45.8908" lon="3.01161">
        <ele>576</ele>
        <time>2021-08-10T19:10:31Z</time>
      </trkpt>
      <trkpt lat="45.8908" lon="3.01162">
        <ele>576</ele>
        <time>2021-08-10T19:10:32Z</time>
      </trkpt>
      <trkpt lat="45.8908" lon="3.01163">
        <ele>576</ele>
        <time>2021-08-10T19:10:34Z</time>
      </trkpt>
      <trkpt lat="45.8908" lon="3.01173">
        <ele>576</ele>
        <time>2021-08-10T19:10:35Z</time>
      </trkpt>
      <trkpt lat="45.8908" lon="3.01174">
        <ele>576</ele>
        <time>2021-08-10T19:10:37Z</time>
      </trkpt>
      <trkpt lat="45.89079" lon="3.0118">
        <ele>576</ele>
        <time>2021-08-10T19:10:38Z</time>
      </trkpt>
      <trkpt lat="45.89079" lon="3.0118">
        <ele>576</ele>
        <time>2021-08-10T19:10:40Z</time>
      </trkpt>
      <trkpt lat="45.89077" lon="3.01188">
        <ele>576</ele>
        <time>2021-08-10T19:10:42Z</time>
      </trkpt>
      <trkpt lat="45.89077" lon="3.01194">
        <ele>576</ele>
        <time>2021-08-10T19:10:43Z</time>
      </trkpt>
      <trkpt lat="45.89077" lon="3.01194">
        <ele>576</ele>
        <time>2021-08-10T19:10:44Z</time>
      </trkpt>
      <trkpt lat="45.89077" lon="3.01195">
        <ele>576</ele>
        <time>2021-08-10T19:10:46Z</time>
      </trkpt>
      <trkpt lat="45.89076" lon="3.01201">
        <ele>576</ele>
        <time>2021-08-10T19:10:47Z</time>
      </trkpt>
      <trkpt lat="45.89075" lon="3.01202">
        <ele>576</ele>
        <time>2021-08-10T19:10:48Z</time>
      </trkpt>
      <trkpt lat="45.89075" lon="3.01204">
        <ele>576</ele>
        <time>2021-08-10T19:10:50Z</time>
      </trkpt>
      <trkpt lat="45.89074" lon="3.01212">
        <ele>576</ele>
        <time>2021-08-10T19:10:51Z</time>
      </trkpt>
      <trkpt lat="45.89074" lon="3.01212">
        <ele>576</ele>
        <time>2021-08-10T19:10:52Z</time>
      </trkpt>
      <trkpt lat="45.89074" lon="3.01213">
        <ele>576</ele>
        <time>2021-08-10T19:10:53Z</time>
      </trkpt>
      <trkpt lat="45.89073" lon="3.01214">
        <ele>576</ele>
        <time>2021-08-10T19:10:54Z</time>
      </trkpt>
      <trkpt lat="45.89073" lon="3.01216">
        <ele>576</ele>
        <time>2021-08-10T19:10:56Z</time>
      </trkpt>
      <trkpt lat="45.89071" lon="3.01226">
        <ele>576</ele>
        <time>2021-08-10T19:10:57Z</time>
      </trkpt>
      <trkpt lat="45.89071" lon="3.01227">
        <ele>576</ele>
        <time>2021-08-10T19:10:58Z</time>
      </trkpt>
      <trkpt lat="45.89071" lon="3.01228">
        <ele>576</ele>
        <time>2021-08-10T19:11:00Z</time>
      </trkpt>
      <trkpt lat="45.8907" lon="3.01236">
        <ele>576</ele>
        <time>2021-08-10T19:11:01Z</time>
      </trkpt>
      <trkpt lat="45.8907" lon="3.01236">
        <ele>576</ele>
        <time>2021-08-10T19:11:02Z</time>
      </trkpt>
      <trkpt lat="45.8907" lon="3.01238">
        <ele>576</ele>
        <time>2021-08-10T19:11:03Z</time>
      </trkpt>
      <trkpt lat="45.8907" lon="3.0124">
        <ele>576</ele>
        <time>2021-08-10T19:11:05Z</time>
      </trkpt>
      <trkpt lat="45.8907" lon="3.01249">
        <ele>576</ele>
        <time>2021-08-10T19:11:06Z</time>
      </trkpt>
      <trkpt lat="45.8907" lon="3.01249">
        <ele>576</ele>
        <time>2021-08-10T19:11:08Z</time>
      </trkpt>
      <trkpt lat="45.89071" lon="3.01258">
        <ele>576</ele>
        <time>2021-08-10T19:11:09Z</time>
      </trkpt>
      <trkpt lat="45.89071" lon="3.01259">
        <ele>576</ele>
        <time>2021-08-10T19:11:11Z</time>
      </trkpt>
      <trkpt lat="45.89072" lon="3.01266">
        <ele>576</ele>
        <time>2021-08-10T19:11:12Z</time>
      </trkpt>
      <trkpt lat="45.89072" lon="3.01266">
        <ele>576</ele>
        <time>2021-08-10T19:11:13Z</time>
      </trkpt>
      <trkpt lat="45.89072" lon="3.01267">
        <ele>576</ele>
        <time>2021-08-10T19:11:14Z</time>
      </trkpt>
      <trkpt lat="45.89072" lon="3.01269">
        <ele>576</ele>
        <time>2021-08-10T19:11:16Z</time>
      </trkpt>
      <trkpt lat="45.89072" lon="3.01277">
        <ele>576</ele>
        <time>2021-08-10T19:11:17Z</time>
      </trkpt>
      <trkpt lat="45.89072" lon="3.01278">
        <ele>576</ele>
        <time>2021-08-10T19:11:19Z</time>
      </trkpt>
      <trkpt lat="45.89074" lon="3.01285">
        <ele>576</ele>
        <time>2021-08-10T19:11:20Z</time>
      </trkpt>
      <trkpt lat="45.89074" lon="3.01285">
        <ele>576</ele>
        <time>2021-08-10T19:11:21Z</time>
      </trkpt>
      <trkpt lat="45.89074" lon="3.01286">
        <ele>576</ele>
        <time>2021-08-10T19:11:22Z</time>
      </trkpt>
      <trkpt lat="45.89075" lon="3.01288">
        <ele>576</ele>
        <time>2021-08-10T19:11:24Z</time>
      </trkpt>
      <trkpt lat="45.89076" lon="3.01297">
        <ele>576</ele>
        <time>2021-08-10T19:11:25Z</time>
      </trkpt>
      <trkpt lat="45.89076" lon="3.01297">
        <ele>576</ele>
        <time>2021-08-10T19:11:27Z</time>
      </trkpt>
      <trkpt lat="45.89077" lon="3.01304">
        <ele>576</ele>
        <time>2021-08-10T19:11:28Z</time>
      </trkpt>
      <trkpt lat="45.89077" lon="3.01304">
        <ele>576</ele>
        <time>2021-08-10T19:11:30Z</time>
      </trkpt>
      <trkpt lat="45.89077" lon="3.0131">
        <ele>576</ele>
        <time>2021-08-10T19:11:31Z</time>
      </trkpt>
      <trkpt lat="45.89077" lon="3.01311">
        <ele>576</ele>
        <time>2021-08-10T19:11:32Z</time>
      </trkpt>
      <trkpt lat="45.89077" lon="3.01312">
        <ele>576</ele>
        <time>2021-08-10T19:11:33Z</time>
      </trkpt>
      <trkpt lat="45.89077" lon="3.01314">
        <ele>576</ele>
        <time>2021-08-10T19:11:34Z</time>
      </trkpt>
      <trkpt lat="45.89077" lon="3.01316">
        <ele>576</ele>
        <time>2021-08-10T19:11:35Z</time>
      </trkpt>
      <trkpt lat="45.89077" lon="3.01318">
        <ele>576</ele>
        <time>2021-08-10T19:11:36Z</time>
      </trkpt>
      <trkpt lat="45.89077" lon="3.01319">
        <ele>576</ele>
        <time>2021-08-10T19:11:38Z</time>
      </trkpt>
      <trkpt lat="45.89077" lon="3.0133">
        <ele>576</ele>
        <time>2021-08-10T19:11:39Z</time>
      </trkpt>
      <trkpt lat="45.89077" lon="3.01331">
        <ele>576</ele>
        <time>2021-08-10T19:11:41Z</time>
      </trkpt>
      <trkpt lat="45.89076" lon="3.01338">
        <ele>576</ele>
        <time>2021-08-10T19:11:42Z</time>
      </trkpt>
      <trkpt lat="45.89076" lon="3.01338">
        <ele>576</ele>
        <time>2021-08-10T19:11:44Z</time>
      </trkpt>
      <trkpt lat="45.89076" lon="3.01339">
        <ele>576</ele>
        <time>2021-08-10T19:11:45Z</time>
      </trkpt>
      <trkpt lat="45.89075" lon="3.0134">
        <ele>576</ele>
        <time>2021-08-10T19:11:46Z</time>
      </trkpt>
      <trkpt lat="45.89072" lon="3.01349">
        <ele>576</ele>
        <time>2021-08-10T19:11:48Z</time>
      </trkpt>
      <trkpt lat="45.89071" lon="3.01355">
        <ele>576</ele>
        <time>2021-08-10T19:11:49Z</time>
      </trkpt>
      <trkpt lat="45.89071" lon="3.01355">
        <ele>576</ele>
        <time>2021-08-10T19:11:50Z</time>
      </trkpt>
      <trkpt lat="45.89071" lon="3.01356">
        <ele>576</ele>
        <time>2021-08-10T19:11:51Z</time>
      </trkpt>
      <trkpt lat="45.89071" lon="3.01358">
        <ele>576</ele>
        <time>2021-08-10T19:11:52Z</time>
      </trkpt>
      <trkpt lat="45.89071" lon="3.01359">
        <ele>576</ele>
        <time>2021-08-10T19:11:54Z</time>
      </trkpt>
      <trkpt lat="45.89068" lon="3.01368">
        <ele>576</ele>
        <time>2021-08-10T19:11:55Z</time>
      </trkpt>
      <trkpt lat="45.89068" lon="3.01368">
        <ele>576</ele>
        <time>2021-08-10T19:11:56Z</time>
      </trkpt>
      <trkpt lat="45.89068" lon="3.01369">
        <ele>576</ele>
        <time>2021-08-10T19:11:57Z</time>
      </trkpt>
      <trkpt lat="45.89067" lon="3.0137">
        <ele>576</ele>
        <time>2021-08-10T19:11:58Z</time>
      </trkpt>
      <trkpt lat="45.89067" lon="3.01371">
        <ele>576</ele>
        <time>2021-08-10T19:12:00Z</time>
      </trkpt>
      <trkpt lat="45.89063" lon="3.01376">
        <ele>576</ele>
        <time>2021-08-10T19:12:01Z</time>
      </trkpt>
      <trkpt lat="45.89062" lon="3.01376">
        <ele>576</ele>
        <time>2021-08-10T19:12:02Z</time>
      </trkpt>
      <trkpt lat="45.89061" lon="3.01377">
        <ele>576</ele>
        <time>2021-08-10T19:12:03Z</time>
      </trkpt>
      <trkpt lat="45.8906" lon="3.01378">
        <ele>576</ele>
        <time>2021-08-10T19:12:04Z</time>
      </trkpt>
      <trkpt lat="45.89059" lon="3.01379">
        <ele>576</ele>
        <time>2021-08-10T19:12:06Z</time>
      </trkpt>
      <trkpt lat="45.89053" lon="3.01381">
        <ele>576</ele>
        <time>2021-08-10T19:12:07Z</time>
      </trkpt>
      <trkpt lat="45.89052" lon="3.01381">
        <ele>576</ele>
        <time>2021-08-10T19:12:08Z</time>
      </trkpt>
      <trkpt lat="45.89051" lon="3.01381">
        <ele>576</ele>
        <time>2021-08-10T19:12:09Z</time>
      </trkpt>
      <trkpt lat="45.8905" lon="3.01382">
        <ele>576</ele>
        <time>2021-08-10T19:12:10Z</time>
      </trkpt>
      <trkpt lat="45.89048" lon="3.01382">
        <ele>576</ele>
        <time>2021-08-10T19:12:11Z</time>
      </trkpt>
      <trkpt lat="45.89047" lon="3.01383">
        <ele>576</ele>
        <time>2021-08-10T19:12:12Z</time>
      </trkpt>
      <trkpt lat="45.89045" lon="3.01384">
        <ele>576</ele>
        <time>2021-08-10T19:12:14Z</time>
      </trkpt>
      <trkpt lat="45.89039" lon="3.01388">
        <ele>576</ele>
        <time>2021-08-10T19:12:15Z</time>
      </trkpt>
      <trkpt lat="45.89038" lon="3.01388">
        <ele>576</ele>
        <time>2021-08-10T19:12:17Z</time>
      </trkpt>
      <trkpt lat="45.89034" lon="3.01391">
        <ele>576</ele>
        <time>2021-08-10T19:12:18Z</time>
      </trkpt>
      <trkpt lat="45.89034" lon="3.01391">
        <ele>576</ele>
        <time>2021-08-10T19:12:19Z</time>
      </trkpt>
      <trkpt lat="45.89032" lon="3.01392">
        <ele>576</ele>
        <time>2021-08-10T19:12:20Z</time>
      </trkpt>
      <trkpt lat="45.89032" lon="3.01392">
        <ele>576</ele>
        <time>2021-08-10T19:12:21Z</time>
      </trkpt>
      <trkpt lat="45.89031" lon="3.01393">
        <ele>576</ele>
        <time>2021-08-10T19:12:22Z</time>
      </trkpt>
      <trkpt lat="45.89029" lon="3.01393">
        <ele>576</ele>
        <time>2021-08-10T19:12:23Z</time>
      </trkpt>
      <trkpt lat="45.89027" lon="3.01394">
        <ele>576</ele>
        <time>2021-08-10T19:12:24Z</time>
      </trkpt>
      <trkpt lat="45.89026" lon="3.01395">
        <ele>576</ele>
        <time>2021-08-10T19:12:26Z</time>
      </trkpt>
      <trkpt lat="45.8902" lon="3.01398">
        <ele>576</ele>
        <time>2021-08-10T19:12:27Z</time>
      </trkpt>
      <trkpt lat="45.89019" lon="3.01399">
        <ele>576</ele>
        <time>2021-08-10T19:12:28Z</time>
      </trkpt>
      <trkpt lat="45.89019" lon="3.01399">
        <ele>576</ele>
        <time>2021-08-10T19:12:29Z</time>
      </trkpt>
      <trkpt lat="45.89018" lon="3.01401">
        <ele>576</ele>
        <time>2021-08-10T19:12:30Z</time>
      </trkpt>
      <trkpt lat="45.89017" lon="3.01402">
        <ele>576</ele>
        <time>2021-08-10T19:12:32Z</time>
      </trkpt>
      <trkpt lat="45.89012" lon="3.01406">
        <ele>576</ele>
        <time>2021-08-10T19:12:33Z</time>
      </trkpt>
      <trkpt lat="45.89012" lon="3.01406">
        <ele>576</ele>
        <time>2021-08-10T19:12:34Z</time>
      </trkpt>
      <trkpt lat="45.89011" lon="3.01408">
        <ele>576</ele>
        <time>2021-08-10T19:12:35Z</time>
      </trkpt>
      <trkpt lat="45.89011" lon="3.0141">
        <ele>576</ele>
        <time>2021-08-10T19:12:36Z</time>
      </trkpt>
      <trkpt lat="45.8901" lon="3.01412">
        <ele>576</ele>
        <time>2021-08-10T19:12:38Z</time>
      </trkpt>
      <trkpt lat="45.89005" lon="3.01421">
        <ele>576</ele>
        <time>2021-08-10T19:12:39Z</time>
      </trkpt>
      <trkpt lat="45.89004" lon="3.01422">
        <ele>576</ele>
        <time>2021-08-10T19:12:40Z</time>
      </trkpt>
      <trkpt lat="45.89004" lon="3.01423">
        <ele>576</ele>
        <time>2021-08-10T19:12:41Z</time>
      </trkpt>
      <trkpt lat="45.89003" lon="3.01425">
        <ele>576</ele>
        <time>2021-08-10T19:12:42Z</time>
      </trkpt>
      <trkpt lat="45.89003" lon="3.01427">
        <ele>576</ele>
        <time>2021-08-10T19:12:44Z</time>
      </trkpt>
      <trkpt lat="45.89002" lon="3.0143">
        <ele>576</ele>
        <time>2021-08-10T19:12:45Z</time>
      </trkpt>
      <trkpt lat="45.89001" lon="3.01432">
        <ele>576</ele>
        <time>2021-08-10T19:12:46Z</time>
      </trkpt>
      <trkpt lat="45.88998" lon="3.01444">
        <ele>576</ele>
        <time>2021-08-10T19:12:48Z</time>
      </trkpt>
      <trkpt lat="45.88997" lon="3.01449">
        <ele>576</ele>
        <time>2021-08-10T19:12:49Z</time>
      </trkpt>
      <trkpt lat="45.88997" lon="3.0145">
        <ele>576</ele>
        <time>2021-08-10T19:12:50Z</time>
      </trkpt>
      <trkpt lat="45.88996" lon="3.01452">
        <ele>576</ele>
        <time>2021-08-10T19:12:51Z</time>
      </trkpt>
      <trkpt lat="45.88996" lon="3.01454">
        <ele>576</ele>
        <time>2021-08-10T19:12:52Z</time>
      </trkpt>
      <trkpt lat="45.88995" lon="3.01456">
        <ele>576</ele>
        <time>2021-08-10T19:12:54Z</time>
      </trkpt>
      <trkpt lat="45.88995" lon="3.01464">
        <ele>576</ele>
        <time>2021-08-10T19:12:55Z</time>
      </trkpt>
      <trkpt lat="45.88995" lon="3.01464">
        <ele>576</ele>
        <time>2021-08-10T19:12:56Z</time>
      </trkpt>
      <trkpt lat="45.88995" lon="3.01465">
        <ele>576</ele>
        <time>2021-08-10T19:12:57Z</time>
      </trkpt>
      <trkpt lat="45.88994" lon="3.01466">
        <ele>576</ele>
        <time>2021-08-10T19:12:58Z</time>
      </trkpt>
      <trkpt lat="45.88994" lon="3.01468">
        <ele>576</ele>
        <time>2021-08-10T19:12:59Z</time>
      </trkpt>
      <trkpt lat="45.88994" lon="3.01471">
        <ele>576</ele>
        <time>2021-08-10T19:13:00Z</time>
      </trkpt>
      <trkpt lat="45.88994" lon="3.01473">
        <ele>576</ele>
        <time>2021-08-10T19:13:01Z</time>
      </trkpt>
      <trkpt lat="45.88993" lon="3.01476">
        <ele>576</ele>
        <time>2021-08-10T19:13:03Z</time>
      </trkpt>
      <trkpt lat="45.88993" lon="3.01485">
        <ele>576</ele>
        <time>2021-08-10T19:13:04Z</time>
      </trkpt>
      <trkpt lat="45.88993" lon="3.01486">
        <ele>576</ele>
        <time>2021-08-10T19:13:05Z</time>
      </trkpt>
      <trkpt lat="45.88993" lon="3.01487">
        <ele>576</ele>
        <time>2021-08-10T19:13:06Z</time>
      </trkpt>
      <trkpt lat="45.88993" lon="3.01489">
        <ele>576</ele>
        <time>2021-08-10T19:13:08Z</time>
      </trkpt>
      <trkpt lat="45.88992" lon="3.01499">
        <ele>576</ele>
        <time>2021-08-10T19:13:09Z</time>
      </trkpt>
      <trkpt lat="45.88992" lon="3.015">
        <ele>576</ele>
        <time>2021-08-10T19:13:10Z</time>
      </trkpt>
      <trkpt lat="45.88992" lon="3.01501">
        <ele>576</ele>
        <time>2021-08-10T19:13:11Z</time>
      </trkpt>
      <trkpt lat="45.88992" lon="3.01502">
        <ele>576</ele>
        <time>2021-08-10T19:13:12Z</time>
      </trkpt>
      <trkpt lat="45.88992" lon="3.01504">
        <ele>576</ele>
        <time>2021-08-10T19:13:14Z</time>
      </trkpt>
      <trkpt lat="45.88989" lon="3.01513">
        <ele>576</ele>
        <time>2021-08-10T19:13:16Z</time>
      </trkpt>
      <trkpt lat="45.88989" lon="3.01519">
        <ele>576</ele>
        <time>2021-08-10T19:13:17Z</time>
      </trkpt>
      <trkpt lat="45.88988" lon="3.0152">
        <ele>576</ele>
        <time>2021-08-10T19:13:18Z</time>
      </trkpt>
      <trkpt lat="45.88987" lon="3.0152">
        <ele>576</ele>
        <time>2021-08-10T19:13:19Z</time>
      </trkpt>
      <trkpt lat="45.88987" lon="3.01522">
        <ele>576</ele>
        <time>2021-08-10T19:13:20Z</time>
      </trkpt>
      <trkpt lat="45.88987" lon="3.01523">
        <ele>576</ele>
        <time>2021-08-10T19:13:21Z</time>
      </trkpt>
      <trkpt lat="45.88986" lon="3.01524">
        <ele>576</ele>
        <time>2021-08-10T19:13:23Z</time>
      </trkpt>
      <trkpt lat="45.88984" lon="3.01534">
        <ele>576</ele>
        <time>2021-08-10T19:13:24Z</time>
      </trkpt>
      <trkpt lat="45.88984" lon="3.01535">
        <ele>576</ele>
        <time>2021-08-10T19:13:25Z</time>
      </trkpt>
      <trkpt lat="45.88983" lon="3.01536">
        <ele>576</ele>
        <time>2021-08-10T19:13:26Z</time>
      </trkpt>
      <trkpt lat="45.88983" lon="3.01538">
        <ele>576</ele>
        <time>2021-08-10T19:13:28Z</time>
      </trkpt>
      <trkpt lat="45.88983" lon="3.0154">
        <ele>576</ele>
        <time>2021-08-10T19:13:29Z</time>
      </trkpt>
      <trkpt lat="45.88981" lon="3.01547">
        <ele>576</ele>
        <time>2021-08-10T19:13:30Z</time>
      </trkpt>
      <trkpt lat="45.8898" lon="3.01548">
        <ele>576</ele>
        <time>2021-08-10T19:13:31Z</time>
      </trkpt>
      <trkpt lat="45.8898" lon="3.01549">
        <ele>576</ele>
        <time>2021-08-10T19:13:32Z</time>
      </trkpt>
      <trkpt lat="45.88979" lon="3.01551">
        <ele>576</ele>
        <time>2021-08-10T19:13:33Z</time>
      </trkpt>
      <trkpt lat="45.88979" lon="3.01553">
        <ele>576</ele>
        <time>2021-08-10T19:13:34Z</time>
      </trkpt>
      <trkpt lat="45.88978" lon="3.01555">
        <ele>576</ele>
        <time>2021-08-10T19:13:35Z</time>
      </trkpt>
      <trkpt lat="45.88977" lon="3.01557">
        <ele>576</ele>
        <time>2021-08-10T19:13:37Z</time>
      </trkpt>
      <trkpt lat="45.88973" lon="3.01565">
        <ele>576</ele>
        <time>2021-08-10T19:13:38Z</time>
      </trkpt>
      <trkpt lat="45.88973" lon="3.01565">
        <ele>576</ele>
        <time>2021-08-10T19:13:40Z</time>
      </trkpt>
      <trkpt lat="45.88969" lon="3.0157">
        <ele>576</ele>
        <time>2021-08-10T19:13:41Z</time>
      </trkpt>
      <trkpt lat="45.88969" lon="3.01571">
        <ele>576</ele>
        <time>2021-08-10T19:13:42Z</time>
      </trkpt>
      <trkpt lat="45.88969" lon="3.01572">
        <ele>576</ele>
        <time>2021-08-10T19:13:44Z</time>
      </trkpt>
      <trkpt lat="45.88968" lon="3.01574">
        <ele>576</ele>
        <time>2021-08-10T19:13:45Z</time>
      </trkpt>
      <trkpt lat="45.88966" lon="3.01575">
        <ele>576</ele>
        <time>2021-08-10T19:13:46Z</time>
      </trkpt>
      <trkpt lat="45.88961" lon="3.01581">
        <ele>576</ele>
        <time>2021-08-10T19:13:47Z</time>
      </trkpt>
      <trkpt lat="45.88961" lon="3.01581">
        <ele>576</ele>
        <time>2021-08-10T19:13:49Z</time>
      </trkpt>
      <trkpt lat="45.88958" lon="3.01585">
        <ele>576</ele>
        <time>2021-08-10T19:13:50Z</time>
      </trkpt>
      <trkpt lat="45.88957" lon="3.01585">
        <ele>576</ele>
        <time>2021-08-10T19:13:51Z</time>
      </trkpt>
      <trkpt lat="45.88957" lon="3.01586">
        <ele>576</ele>
        <time>2021-08-10T19:13:52Z</time>
      </trkpt>
      <trkpt lat="45.88956" lon="3.01586">
        <ele>576</ele>
        <time>2021-08-10T19:13:54Z</time>
      </trkpt>
      <trkpt lat="45.8895" lon="3.01589">
        <ele>576</ele>
        <time>2021-08-10T19:13:55Z</time>
      </trkpt>
      <trkpt lat="45.8895" lon="3.01589">
        <ele>576</ele>
        <time>2021-08-10T19:13:57Z</time>
      </trkpt>
      <trkpt lat="45.88945" lon="3.01592">
        <ele>576</ele>
        <time>2021-08-10T19:13:58Z</time>
      </trkpt>
      <trkpt lat="45.88944" lon="3.01593">
        <ele>576</ele>
        <time>2021-08-10T19:13:59Z</time>
      </trkpt>
      <trkpt lat="45.88944" lon="3.01593">
        <ele>576</ele>
        <time>2021-08-10T19:14:00Z</time>
      </trkpt>
      <trkpt lat="45.88942" lon="3.01594">
        <ele>576</ele>
        <time>2021-08-10T19:14:02Z</time>
      </trkpt>
      <trkpt lat="45.88941" lon="3.01594">
        <ele>576</ele>
        <time>2021-08-10T19:14:03Z</time>
      </trkpt>
      <trkpt lat="45.88934" lon="3.01596">
        <ele>576</ele>
        <time>2021-08-10T19:14:04Z</time>
      </trkpt>
      <trkpt lat="45.88934" lon="3.01596">
        <ele>576</ele>
        <time>2021-08-10T19:14:05Z</time>
      </trkpt>
      <trkpt lat="45.88932" lon="3.01597">
        <ele>576</ele>
        <time>2021-08-10T19:14:06Z</time>
      </trkpt>
      <trkpt lat="45.88931" lon="3.01597">
        <ele>576</ele>
        <time>2021-08-10T19:14:08Z</time>
      </trkpt>
      <trkpt lat="45.88924" lon="3.01599">
        <ele>576</ele>
        <time>2021-08-10T19:14:09Z</time>
      </trkpt>
      <trkpt lat="45.88923" lon="3.01599">
        <ele>576</ele>
        <time>2021-08-10T19:14:10Z</time>
      </trkpt>
      <trkpt lat="45.88923" lon="3.01599">
        <ele>576</ele>
        <time>2021-08-10T19:14:11Z</time>
      </trkpt>
      <trkpt lat="45.88922" lon="3.016">
        <ele>576</ele>
        <time>2021-08-10T19:14:12Z</time>
      </trkpt>
      <trkpt lat="45.8892" lon="3.016">
        <ele>576</ele>
        <time>2021-08-10T19:14:14Z</time>
      </trkpt>
      <trkpt lat="45.88913" lon="3.01601">
        <ele>576</ele>
        <time>2021-08-10T19:14:16Z</time>
      </trkpt>
      <trkpt lat="45.88909" lon="3.01602">
        <ele>576</ele>
        <time>2021-08-10T19:14:17Z</time>
      </trkpt>
      <trkpt lat="45.88908" lon="3.01602">
        <ele>576</ele>
        <time>2021-08-10T19:14:18Z</time>
      </trkpt>
      <trkpt lat="45.88908" lon="3.01602">
        <ele>576</ele>
        <time>2021-08-10T19:14:19Z</time>
      </trkpt>
      <trkpt lat="45.88907" lon="3.01602">
        <ele>576</ele>
        <time>2021-08-10T19:14:20Z</time>
      </trkpt>
      <trkpt lat="45.88905" lon="3.01602">
        <ele>576</ele>
        <time>2021-08-10T19:14:22Z</time>
      </trkpt>
      <trkpt lat="45.88899" lon="3.01603">
        <ele>576</ele>
        <time>2021-08-10T19:14:23Z</time>
      </trkpt>
      <trkpt lat="45.88898" lon="3.01603">
        <ele>576</ele>
        <time>2021-08-10T19:14:24Z</time>
      </trkpt>
      <trkpt lat="45.88896" lon="3.01603">
        <ele>576</ele>
        <time>2021-08-10T19:14:25Z</time>
      </trkpt>
      <trkpt lat="45.88895" lon="3.01603">
        <ele>576</ele>
        <time>2021-08-10T19:14:26Z</time>
      </trkpt>
      <trkpt lat="45.88893" lon="3.01603">
        <ele>576</ele>
        <time>2021-08-10T19:14:27Z</time>
      </trkpt>
      <trkpt lat="45.88892" lon="3.01603">
        <ele>576</ele>
        <time>2021-08-10T19:14:28Z</time>
      </trkpt>
      <trkpt lat="45.8889" lon="3.01603">
        <ele>576</ele>
        <time>2021-08-10T19:14:30Z</time>
      </trkpt>
      <trkpt lat="45.88889" lon="3.01604">
        <ele>576</ele>
        <time>2021-08-10T19:14:31Z</time>
      </trkpt>
      <trkpt lat="45.88881" lon="3.01606">
        <ele>576</ele>
        <time>2021-08-10T19:14:32Z</time>
      </trkpt>
      <trkpt lat="45.88881" lon="3.01606">
        <ele>576</ele>
        <time>2021-08-10T19:14:33Z</time>
      </trkpt>
      <trkpt lat="45.8888" lon="3.01606">
        <ele>576</ele>
        <time>2021-08-10T19:14:34Z</time>
      </trkpt>
      <trkpt lat="45.88879" lon="3.01606">
        <ele>576</ele>
        <time>2021-08-10T19:14:36Z</time>
      </trkpt>
      <trkpt lat="45.88873" lon="3.01608">
        <ele>576</ele>
        <time>2021-08-10T19:14:37Z</time>
      </trkpt>
      <trkpt lat="45.88873" lon="3.01608">
        <ele>576</ele>
        <time>2021-08-10T19:14:38Z</time>
      </trkpt>
      <trkpt lat="45.88871" lon="3.01608">
        <ele>576</ele>
        <time>2021-08-10T19:14:40Z</time>
      </trkpt>
      <trkpt lat="45.88864" lon="3.01609">
        <ele>576</ele>
        <time>2021-08-10T19:14:42Z</time>
      </trkpt>
      <trkpt lat="45.88861" lon="3.0161">
        <ele>576</ele>
        <time>2021-08-10T19:14:43Z</time>
      </trkpt>
      <trkpt lat="45.8886" lon="3.0161">
        <ele>576</ele>
        <time>2021-08-10T19:14:45Z</time>
      </trkpt>
      <trkpt lat="45.8886" lon="3.01611">
        <ele>576</ele>
        <time>2021-08-10T19:14:46Z</time>
      </trkpt>
      <trkpt lat="45.88852" lon="3.01612">
        <ele>576</ele>
        <time>2021-08-10T19:14:47Z</time>
      </trkpt>
      <trkpt lat="45.88848" lon="3.01613">
        <ele>576</ele>
        <time>2021-08-10T19:14:48Z</time>
      </trkpt>
      <trkpt lat="45.88848" lon="3.01613">
        <ele>576</ele>
        <time>2021-08-10T19:14:49Z</time>
      </trkpt>
      <trkpt lat="45.88847" lon="3.01613">
        <ele>576</ele>
        <time>2021-08-10T19:14:50Z</time>
      </trkpt>
      <trkpt lat="45.88845" lon="3.01613">
        <ele>576</ele>
        <time>2021-08-10T19:14:51Z</time>
      </trkpt>
      <trkpt lat="45.88845" lon="3.01613">
        <ele>576</ele>
        <time>2021-08-10T19:14:52Z</time>
      </trkpt>
      <trkpt lat="45.88844" lon="3.01614">
        <ele>576</ele>
        <time>2021-08-10T19:14:53Z</time>
      </trkpt>
      <trkpt lat="45.88842" lon="3.01614">
        <ele>576</ele>
        <time>2021-08-10T19:14:55Z</time>
      </trkpt>
      <trkpt lat="45.88835" lon="3.01617">
        <ele>576</ele>
        <time>2021-08-10T19:14:56Z</time>
      </trkpt>
      <trkpt lat="45.88835" lon="3.01617">
        <ele>576</ele>
        <time>2021-08-10T19:14:58Z</time>
      </trkpt>
      <trkpt lat="45.88831" lon="3.01619">
        <ele>576</ele>
        <time>2021-08-10T19:14:59Z</time>
      </trkpt>
      <trkpt lat="45.8883" lon="3.01619">
        <ele>576</ele>
        <time>2021-08-10T19:15:01Z</time>
      </trkpt>
      <trkpt lat="45.88825" lon="3.01621">
        <ele>576</ele>
        <time>2021-08-10T19:15:02Z</time>
      </trkpt>
      <trkpt lat="45.88824" lon="3.01621">
        <ele>576</ele>
        <time>2021-08-10T19:15:04Z</time>
      </trkpt>
      <trkpt lat="45.88821" lon="3.01622">
        <ele>576</ele>
        <time>2021-08-10T19:15:05Z</time>
      </trkpt>
      <trkpt lat="45.8882" lon="3.01622">
        <ele>576</ele>
        <time>2021-08-10T19:15:06Z</time>
      </trkpt>
      <trkpt lat="45.88819" lon="3.01622">
        <ele>576</ele>
        <time>2021-08-10T19:15:07Z</time>
      </trkpt>
      <trkpt lat="45.88818" lon="3.01623">
        <ele>576</ele>
        <time>2021-08-10T19:15:09Z</time>
      </trkpt>
      <trkpt lat="45.88811" lon="3.01625">
        <ele>576</ele>
        <time>2021-08-10T19:15:10Z</time>
      </trkpt>
      <trkpt lat="45.88811" lon="3.01625">
        <ele>576</ele>
        <time>2021-08-10T19:15:11Z</time>
      </trkpt>
      <trkpt lat="45.8881" lon="3.01625">
        <ele>576</ele>
        <time>2021-08-10T19:15:12Z</time>
      </trkpt>
      <trkpt lat="45.88809" lon="3.01625">
        <ele>576</ele>
        <time>2021-08-10T19:15:13Z</time>
      </trkpt>
      <trkpt lat="45.88808" lon="3.01625">
        <ele>576</ele>
        <time>2021-08-10T19:15:15Z</time>
      </trkpt>
      <trkpt lat="45.88802" lon="3.01627">
        <ele>576</ele>
        <time>2021-08-10T19:15:17Z</time>
      </trkpt>
      <trkpt lat="45.88801" lon="3.01627">
        <ele>576</ele>
        <time>2021-08-10T19:15:18Z</time>
      </trkpt>
      <trkpt lat="45.88797" lon="3.01627">
        <ele>576</ele>
        <time>2021-08-10T19:15:19Z</time>
      </trkpt>
      <trkpt lat="45.88796" lon="3.01627">
        <ele>576</ele>
        <time>2021-08-10T19:15:21Z</time>
      </trkpt>
      <trkpt lat="45.8879" lon="3.01627">
        <ele>576</ele>
        <time>2021-08-10T19:15:22Z</time>
      </trkpt>
      <trkpt lat="45.8879" lon="3.01627">
        <ele>576</ele>
        <time>2021-08-10T19:15:24Z</time>
      </trkpt>
      <trkpt lat="45.88785" lon="3.01627">
        <ele>576</ele>
        <time>2021-08-10T19:15:25Z</time>
      </trkpt>
      <trkpt lat="45.88785" lon="3.01627">
        <ele>576</ele>
        <time>2021-08-10T19:15:27Z</time>
      </trkpt>
      <trkpt lat="45.88779" lon="3.01626">
        <ele>576</ele>
        <time>2021-08-10T19:15:28Z</time>
      </trkpt>
      <trkpt lat="45.88778" lon="3.01626">
        <ele>576</ele>
        <time>2021-08-10T19:15:30Z</time>
      </trkpt>
      <trkpt lat="45.88773" lon="3.01625">
        <ele>576</ele>
        <time>2021-08-10T19:15:31Z</time>
      </trkpt>
      <trkpt lat="45.88773" lon="3.01625">
        <ele>576</ele>
        <time>2021-08-10T19:15:33Z</time>
      </trkpt>
      <trkpt lat="45.88768" lon="3.01624">
        <ele>576</ele>
        <time>2021-08-10T19:15:35Z</time>
      </trkpt>
      <trkpt lat="45.88764" lon="3.01624">
        <ele>576</ele>
        <time>2021-08-10T19:15:36Z</time>
      </trkpt>
      <trkpt lat="45.88763" lon="3.01624">
        <ele>576</ele>
        <time>2021-08-10T19:15:37Z</time>
      </trkpt>
      <trkpt lat="45.88763" lon="3.01624">
        <ele>576</ele>
        <time>2021-08-10T19:15:39Z</time>
      </trkpt>
      <trkpt lat="45.88757" lon="3.01624">
        <ele>576</ele>
        <time>2021-08-10T19:15:41Z</time>
      </trkpt>
      <trkpt lat="45.88752" lon="3.01623">
        <ele>576</ele>
        <time>2021-08-10T19:15:43Z</time>
      </trkpt>
      <trkpt lat="45.88751" lon="3.01623">
        <ele>576</ele>
        <time>2021-08-10T19:15:44Z</time>
      </trkpt>
      <trkpt lat="45.88751" lon="3.01623">
        <ele>576</ele>
        <time>2021-08-10T19:15:45Z</time>
      </trkpt>
      <trkpt lat="45.88749" lon="3.01623">
        <ele>576</ele>
        <time>2021-08-10T19:15:46Z</time>
      </trkpt>
      <trkpt lat="45.88744" lon="3.01623">
        <ele>576</ele>
        <time>2021-08-10T19:15:47Z</time>
      </trkpt>
      <trkpt lat="45.88743" lon="3.01622">
        <ele>576</ele>
        <time>2021-08-10T19:15:49Z</time>
      </trkpt>
      <trkpt lat="45.88738" lon="3.01622">
        <ele>576</ele>
        <time>2021-08-10T19:15:50Z</time>
      </trkpt>
      <trkpt lat="45.88738" lon="3.01622">
        <ele>576</ele>
        <time>2021-08-10T19:15:51Z</time>
      </trkpt>
      <trkpt lat="45.88736" lon="3.01622">
        <ele>576</ele>
        <time>2021-08-10T19:15:52Z</time>
      </trkpt>
      <trkpt lat="45.88736" lon="3.01622">
        <ele>576</ele>
        <time>2021-08-10T19:15:53Z</time>
      </trkpt>
      <trkpt lat="45.88734" lon="3.01622">
        <ele>576</ele>
        <time>2021-08-10T19:15:55Z</time>
      </trkpt>
      <trkpt lat="45.88727" lon="3.01622">
        <ele>576</ele>
        <time>2021-08-10T19:15:57Z</time>
      </trkpt>
      <trkpt lat="45.88723" lon="3.01622">
        <ele>576</ele>
        <time>2021-08-10T19:15:58Z</time>
      </trkpt>
      <trkpt lat="45.88723" lon="3.01622">
        <ele>576</ele>
        <time>2021-08-10T19:15:59Z</time>
      </trkpt>
      <trkpt lat="45.88722" lon="3.01622">
        <ele>576</ele>
        <time>2021-08-10T19:16:00Z</time>
      </trkpt>
      <trkpt lat="45.88721" lon="3.01622">
        <ele>576</ele>
        <time>2021-08-10T19:16:01Z</time>
      </trkpt>
      <trkpt lat="45.8872" lon="3.01622">
        <ele>576</ele>
        <time>2021-08-10T19:16:03Z</time>
      </trkpt>
      <trkpt lat="45.88713" lon="3.01622">
        <ele>576</ele>
        <time>2021-08-10T19:16:04Z</time>
      </trkpt>
      <trkpt lat="45.88712" lon="3.01622">
        <ele>576</ele>
        <time>2021-08-10T19:16:06Z</time>
      </trkpt>
      <trkpt lat="45.88709" lon="3.01623">
        <ele>576</ele>
        <time>2021-08-10T19:16:07Z</time>
      </trkpt>
      <trkpt lat="45.88709" lon="3.01623">
        <ele>576</ele>
        <time>2021-08-10T19:16:09Z</time>
      </trkpt>
      <trkpt lat="45.88703" lon="3.01623">
        <ele>576</ele>
        <time>2021-08-10T19:16:10Z</time>
      </trkpt>
      <trkpt lat="45.88702" lon="3.01624">
        <ele>576</ele>
        <time>2021-08-10T19:16:11Z</time>
      </trkpt>
      <trkpt lat="45.88701" lon="3.01624">
        <ele>576</ele>
        <time>2021-08-10T19:16:12Z</time>
      </trkpt>
      <trkpt lat="45.88699" lon="3.01624">
        <ele>576</ele>
        <time>2021-08-10T19:16:13Z</time>
      </trkpt>
      <trkpt lat="45.88697" lon="3.01624">
        <ele>576</ele>
        <time>2021-08-10T19:16:15Z</time>
      </trkpt>
      <trkpt lat="45.88691" lon="3.01626">
        <ele>576</ele>
        <time>2021-08-10T19:16:16Z</time>
      </trkpt>
      <trkpt lat="45.88691" lon="3.01626">
        <ele>576</ele>
        <time>2021-08-10T19:16:17Z</time>
      </trkpt>
      <trkpt lat="45.8869" lon="3.01627">
        <ele>576</ele>
        <time>2021-08-10T19:16:18Z</time>
      </trkpt>
      <trkpt lat="45.88688" lon="3.01627">
        <ele>576</ele>
        <time>2021-08-10T19:16:19Z</time>
      </trkpt>
      <trkpt lat="45.88687" lon="3.01628">
        <ele>576</ele>
        <time>2021-08-10T19:16:21Z</time>
      </trkpt>
      <trkpt lat="45.88682" lon="3.01631">
        <ele>576</ele>
        <time>2021-08-10T19:16:22Z</time>
      </trkpt>
      <trkpt lat="45.88682" lon="3.01631">
        <ele>576</ele>
        <time>2021-08-10T19:16:23Z</time>
      </trkpt>
      <trkpt lat="45.88681" lon="3.01632">
        <ele>576</ele>
        <time>2021-08-10T19:16:24Z</time>
      </trkpt>
      <trkpt lat="45.8868" lon="3.01632">
        <ele>576</ele>
        <time>2021-08-10T19:16:25Z</time>
      </trkpt>
      <trkpt lat="45.88679" lon="3.01633">
        <ele>576</ele>
        <time>2021-08-10T19:16:27Z</time>
      </trkpt>
      <trkpt lat="45.88672" lon="3.01637">
        <ele>576</ele>
        <time>2021-08-10T19:16:28Z</time>
      </trkpt>
      <trkpt lat="45.88672" lon="3.01637">
        <ele>576</ele>
        <time>2021-08-10T19:16:29Z</time>
      </trkpt>
      <trkpt lat="45.88671" lon="3.01637">
        <ele>576</ele>
        <time>2021-08-10T19:16:30Z</time>
      </trkpt>
      <trkpt lat="45.8867" lon="3.01637">
        <ele>576</ele>
        <time>2021-08-10T19:16:31Z</time>
      </trkpt>
      <trkpt lat="45.88669" lon="3.01637">
        <ele>576</ele>
        <time>2021-08-10T19:16:33Z</time>
      </trkpt>
      <trkpt lat="45.88662" lon="3.01637">
        <ele>576</ele>
        <time>2021-08-10T19:16:35Z</time>
      </trkpt>
      <trkpt lat="45.88659" lon="3.01638">
        <ele>576</ele>
        <time>2021-08-10T19:16:36Z</time>
      </trkpt>
      <trkpt lat="45.88658" lon="3.01638">
        <ele>576</ele>
        <time>2021-08-10T19:16:37Z</time>
      </trkpt>
      <trkpt lat="45.88658" lon="3.01638">
        <ele>576</ele>
        <time>2021-08-10T19:16:38Z</time>
      </trkpt>
      <trkpt lat="45.88657" lon="3.01638">
        <ele>576</ele>
        <time>2021-08-10T19:16:39Z</time>
      </trkpt>
      <trkpt lat="45.88656" lon="3.01639">
        <ele>576</ele>
        <time>2021-08-10T19:16:41Z</time>
      </trkpt>
      <trkpt lat="45.88651" lon="3.0164">
        <ele>576</ele>
        <time>2021-08-10T19:16:43Z</time>
      </trkpt>
      <trkpt lat="45.88651" lon="3.0164">
        <ele>576</ele>
        <time>2021-08-10T19:16:44Z</time>
      </trkpt>
      <trkpt lat="45.88649" lon="3.01641">
        <ele>576</ele>
        <time>2021-08-10T19:16:45Z</time>
      </trkpt>
      <trkpt lat="45.88644" lon="3.01643">
        <ele>576</ele>
        <time>2021-08-10T19:16:47Z</time>
      </trkpt>
      <trkpt lat="45.88642" lon="3.01644">
        <ele>576</ele>
        <time>2021-08-10T19:16:48Z</time>
      </trkpt>
      <trkpt lat="45.88642" lon="3.01644">
        <ele>576</ele>
        <time>2021-08-10T19:16:50Z</time>
      </trkpt>
      <trkpt lat="45.88637" lon="3.01648">
        <ele>576</ele>
        <time>2021-08-10T19:16:51Z</time>
      </trkpt>
      <trkpt lat="45.88636" lon="3.01648">
        <ele>576</ele>
        <time>2021-08-10T19:16:53Z</time>
      </trkpt>
      <trkpt lat="45.88631" lon="3.01652">
        <ele>576</ele>
        <time>2021-08-10T19:16:54Z</time>
      </trkpt>
      <trkpt lat="45.88631" lon="3.01652">
        <ele>576</ele>
        <time>2021-08-10T19:16:56Z</time>
      </trkpt>
      <trkpt lat="45.88629" lon="3.01655">
        <ele>576</ele>
        <time>2021-08-10T19:16:57Z</time>
      </trkpt>
      <trkpt lat="45.88629" lon="3.01656">
        <ele>576</ele>
        <time>2021-08-10T19:16:58Z</time>
      </trkpt>
      <trkpt lat="45.88628" lon="3.01656">
        <ele>576</ele>
        <time>2021-08-10T19:16:59Z</time>
      </trkpt>
      <trkpt lat="45.88627" lon="3.01657">
        <ele>576</ele>
        <time>2021-08-10T19:17:01Z</time>
      </trkpt>
      <trkpt lat="45.88621" lon="3.01661">
        <ele>576</ele>
        <time>2021-08-10T19:17:02Z</time>
      </trkpt>
      <trkpt lat="45.88621" lon="3.01661">
        <ele>576</ele>
        <time>2021-08-10T19:17:03Z</time>
      </trkpt>
      <trkpt lat="45.8862" lon="3.01662">
        <ele>576</ele>
        <time>2021-08-10T19:17:05Z</time>
      </trkpt>
      <trkpt lat="45.88616" lon="3.01665">
        <ele>576</ele>
        <time>2021-08-10T19:17:07Z</time>
      </trkpt>
      <trkpt lat="45.88612" lon="3.01668">
        <ele>576</ele>
        <time>2021-08-10T19:17:08Z</time>
      </trkpt>
      <trkpt lat="45.88611" lon="3.01668">
        <ele>576</ele>
        <time>2021-08-10T19:17:09Z</time>
      </trkpt>
      <trkpt lat="45.8861" lon="3.01668">
        <ele>576</ele>
        <time>2021-08-10T19:17:10Z</time>
      </trkpt>
      <trkpt lat="45.88609" lon="3.01669">
        <ele>576</ele>
        <time>2021-08-10T19:17:11Z</time>
      </trkpt>
      <trkpt lat="45.88607" lon="3.01669">
        <ele>576</ele>
        <time>2021-08-10T19:17:13Z</time>
      </trkpt>
      <trkpt lat="45.88601" lon="3.01669">
        <ele>576</ele>
        <time>2021-08-10T19:17:14Z</time>
      </trkpt>
      <trkpt lat="45.88601" lon="3.01669">
        <ele>576</ele>
        <time>2021-08-10T19:17:16Z</time>
      </trkpt>
      <trkpt lat="45.88595" lon="3.01671">
        <ele>576</ele>
        <time>2021-08-10T19:17:17Z</time>
      </trkpt>
      <trkpt lat="45.88595" lon="3.0167">
        <ele>576</ele>
        <time>2021-08-10T19:17:18Z</time>
      </trkpt>
      <trkpt lat="45.88594" lon="3.0167">
        <ele>576</ele>
        <time>2021-08-10T19:17:19Z</time>
      </trkpt>
      <trkpt lat="45.88593" lon="3.0167">
        <ele>576</ele>
        <time>2021-08-10T19:17:21Z</time>
      </trkpt>
      <trkpt lat="45.88584" lon="3.01668">
        <ele>576</ele>
        <time>2021-08-10T19:17:22Z</time>
      </trkpt>
      <trkpt lat="45.88583" lon="3.01667">
        <ele>576</ele>
        <time>2021-08-10T19:17:23Z</time>
      </trkpt>
      <trkpt lat="45.88582" lon="3.01668">
        <ele>576</ele>
        <time>2021-08-10T19:17:24Z</time>
      </trkpt>
      <trkpt lat="45.88581" lon="3.01668">
        <ele>576</ele>
        <time>2021-08-10T19:17:25Z</time>
      </trkpt>
      <trkpt lat="45.8858" lon="3.01667">
        <ele>576</ele>
        <time>2021-08-10T19:17:27Z</time>
      </trkpt>
      <trkpt lat="45.88575" lon="3.01666">
        <ele>576</ele>
        <time>2021-08-10T19:17:28Z</time>
      </trkpt>
      <trkpt lat="45.88574" lon="3.01666">
        <ele>576</ele>
        <time>2021-08-10T19:17:29Z</time>
      </trkpt>
      <trkpt lat="45.88573" lon="3.01665">
        <ele>576</ele>
        <time>2021-08-10T19:17:30Z</time>
      </trkpt>
      <trkpt lat="45.88572" lon="3.01664">
        <ele>576</ele>
        <time>2021-08-10T19:17:31Z</time>
      </trkpt>
      <trkpt lat="45.88571" lon="3.01663">
        <ele>576</ele>
        <time>2021-08-10T19:17:33Z</time>
      </trkpt>
      <trkpt lat="45.88564" lon="3.01658">
        <ele>576</ele>
        <time>2021-08-10T19:17:34Z</time>
      </trkpt>
      <trkpt lat="45.88564" lon="3.01658">
        <ele>576</ele>
        <time>2021-08-10T19:17:36Z</time>
      </trkpt>
      <trkpt lat="45.8856" lon="3.01656">
        <ele>576</ele>
        <time>2021-08-10T19:17:37Z</time>
      </trkpt>
      <trkpt lat="45.88559" lon="3.01656">
        <ele>576</ele>
        <time>2021-08-10T19:17:39Z</time>
      </trkpt>
      <trkpt lat="45.88555" lon="3.01651">
        <ele>576</ele>
        <time>2021-08-10T19:17:40Z</time>
      </trkpt>
      <trkpt lat="45.88555" lon="3.01651">
        <ele>576</ele>
        <time>2021-08-10T19:17:42Z</time>
      </trkpt>
      <trkpt lat="45.88551" lon="3.01646">
        <ele>576</ele>
        <time>2021-08-10T19:17:44Z</time>
      </trkpt>
      <trkpt lat="45.8855" lon="3.01646">
        <ele>576</ele>
        <time>2021-08-10T19:17:45Z</time>
      </trkpt>
      <trkpt lat="45.88547" lon="3.01645">
        <ele>576</ele>
        <time>2021-08-10T19:17:47Z</time>
      </trkpt>
      <trkpt lat="45.88544" lon="3.01643">
        <ele>576</ele>
        <time>2021-08-10T19:17:48Z</time>
      </trkpt>
      <trkpt lat="45.88543" lon="3.01643">
        <ele>576</ele>
        <time>2021-08-10T19:17:49Z</time>
      </trkpt>
      <trkpt lat="45.88543" lon="3.01641">
        <ele>576</ele>
        <time>2021-08-10T19:17:51Z</time>
      </trkpt>
      <trkpt lat="45.88537" lon="3.01633">
        <ele>576</ele>
        <time>2021-08-10T19:17:53Z</time>
      </trkpt>
      <trkpt lat="45.88537" lon="3.01633">
        <ele>576</ele>
        <time>2021-08-10T19:17:54Z</time>
      </trkpt>
      <trkpt lat="45.88535" lon="3.0163">
        <ele>576</ele>
        <time>2021-08-10T19:17:55Z</time>
      </trkpt>
      <trkpt lat="45.88535" lon="3.01629">
        <ele>576</ele>
        <time>2021-08-10T19:17:57Z</time>
      </trkpt>
      <trkpt lat="45.88534" lon="3.01622">
        <ele>576</ele>
        <time>2021-08-10T19:17:59Z</time>
      </trkpt>
      <trkpt lat="45.88532" lon="3.01616">
        <ele>576</ele>
        <time>2021-08-10T19:18:00Z</time>
      </trkpt>
      <trkpt lat="45.88532" lon="3.01616">
        <ele>576</ele>
        <time>2021-08-10T19:18:01Z</time>
      </trkpt>
      <trkpt lat="45.88532" lon="3.01615">
        <ele>576</ele>
        <time>2021-08-10T19:18:02Z</time>
      </trkpt>
      <trkpt lat="45.88532" lon="3.01614">
        <ele>576</ele>
        <time>2021-08-10T19:18:03Z</time>
      </trkpt>
      <trkpt lat="45.88531" lon="3.01613">
        <ele>576</ele>
        <time>2021-08-10T19:18:05Z</time>
      </trkpt>
      <trkpt lat="45.8853" lon="3.01606">
        <ele>576</ele>
        <time>2021-08-10T19:18:06Z</time>
      </trkpt>
      <trkpt lat="45.8853" lon="3.01605">
        <ele>576</ele>
        <time>2021-08-10T19:18:07Z</time>
      </trkpt>
      <trkpt lat="45.8853" lon="3.01603">
        <ele>576</ele>
        <time>2021-08-10T19:18:08Z</time>
      </trkpt>
      <trkpt lat="45.8853" lon="3.01601">
        <ele>576</ele>
        <time>2021-08-10T19:18:09Z</time>
      </trkpt>
      <trkpt lat="45.8853" lon="3.01599">
        <ele>576</ele>
        <time>2021-08-10T19:18:10Z</time>
      </trkpt>
      <trkpt lat="45.8853" lon="3.01598">
        <ele>576</ele>
        <time>2021-08-10T19:18:11Z</time>
      </trkpt>
      <trkpt lat="45.88529" lon="3.01596">
        <ele>576</ele>
        <time>2021-08-10T19:18:13Z</time>
      </trkpt>
      <trkpt lat="45.88528" lon="3.01586">
        <ele>576</ele>
        <time>2021-08-10T19:18:14Z</time>
      </trkpt>
      <trkpt lat="45.88527" lon="3.01585">
        <ele>576</ele>
        <time>2021-08-10T19:18:16Z</time>
      </trkpt>
      <trkpt lat="45.88525" lon="3.01578">
        <ele>576</ele>
        <time>2021-08-10T19:18:17Z</time>
      </trkpt>
      <trkpt lat="45.88525" lon="3.01577">
        <ele>576</ele>
        <time>2021-08-10T19:18:19Z</time>
      </trkpt>
      <trkpt lat="45.88524" lon="3.01572">
        <ele>576</ele>
        <time>2021-08-10T19:18:21Z</time>
      </trkpt>
      <trkpt lat="45.88524" lon="3.01571">
        <ele>576</ele>
        <time>2021-08-10T19:18:22Z</time>
      </trkpt>
      <trkpt lat="45.88522" lon="3.01562">
        <ele>576</ele>
        <time>2021-08-10T19:18:23Z</time>
      </trkpt>
      <trkpt lat="45.88522" lon="3.01561">
        <ele>576</ele>
        <time>2021-08-10T19:18:24Z</time>
      </trkpt>
      <trkpt lat="45.88522" lon="3.0156">
        <ele>576</ele>
        <time>2021-08-10T19:18:25Z</time>
      </trkpt>
      <trkpt lat="45.88521" lon="3.01558">
        <ele>576</ele>
        <time>2021-08-10T19:18:27Z</time>
      </trkpt>
      <trkpt lat="45.88519" lon="3.01548">
        <ele>576</ele>
        <time>2021-08-10T19:18:28Z</time>
      </trkpt>
      <trkpt lat="45.88518" lon="3.01547">
        <ele>576</ele>
        <time>2021-08-10T19:18:30Z</time>
      </trkpt>
      <trkpt lat="45.88516" lon="3.0154">
        <ele>576</ele>
        <time>2021-08-10T19:18:31Z</time>
      </trkpt>
      <trkpt lat="45.88515" lon="3.01539">
        <ele>576</ele>
        <time>2021-08-10T19:18:33Z</time>
      </trkpt>
      <trkpt lat="45.88512" lon="3.01536">
        <ele>576</ele>
        <time>2021-08-10T19:18:35Z</time>
      </trkpt>
      <trkpt lat="45.88509" lon="3.01533">
        <ele>576</ele>
        <time>2021-08-10T19:18:36Z</time>
      </trkpt>
      <trkpt lat="45.88509" lon="3.01533">
        <ele>576</ele>
        <time>2021-08-10T19:18:37Z</time>
      </trkpt>
      <trkpt lat="45.88508" lon="3.01532">
        <ele>576</ele>
        <time>2021-08-10T19:18:38Z</time>
      </trkpt>
      <trkpt lat="45.88507" lon="3.01531">
        <ele>576</ele>
        <time>2021-08-10T19:18:39Z</time>
      </trkpt>
      <trkpt lat="45.88505" lon="3.0153">
        <ele>576</ele>
        <time>2021-08-10T19:18:41Z</time>
      </trkpt>
      <trkpt lat="45.88498" lon="3.01527">
        <ele>576</ele>
        <time>2021-08-10T19:18:42Z</time>
      </trkpt>
      <trkpt lat="45.88498" lon="3.01527">
        <ele>576</ele>
        <time>2021-08-10T19:18:44Z</time>
      </trkpt>
      <trkpt lat="45.88496" lon="3.01526">
        <ele>576</ele>
        <time>2021-08-10T19:18:45Z</time>
      </trkpt>
      <trkpt lat="45.88489" lon="3.01526">
        <ele>576</ele>
        <time>2021-08-10T19:18:46Z</time>
      </trkpt>
      <trkpt lat="45.88489" lon="3.01526">
        <ele>576</ele>
        <time>2021-08-10T19:18:47Z</time>
      </trkpt>
      <trkpt lat="45.88488" lon="3.01527">
        <ele>576</ele>
        <time>2021-08-10T19:18:48Z</time>
      </trkpt>
      <trkpt lat="45.88487" lon="3.01527">
        <ele>576</ele>
        <time>2021-08-10T19:18:49Z</time>
      </trkpt>
      <trkpt lat="45.88485" lon="3.01528">
        <ele>576</ele>
        <time>2021-08-10T19:18:51Z</time>
      </trkpt>
      <trkpt lat="45.88479" lon="3.01531">
        <ele>576</ele>
        <time>2021-08-10T19:18:52Z</time>
      </trkpt>
      <trkpt lat="45.88478" lon="3.01532">
        <ele>576</ele>
        <time>2021-08-10T19:18:53Z</time>
      </trkpt>
      <trkpt lat="45.88477" lon="3.01532">
        <ele>576</ele>
        <time>2021-08-10T19:18:54Z</time>
      </trkpt>
      <trkpt lat="45.88477" lon="3.01533">
        <ele>576</ele>
        <time>2021-08-10T19:18:55Z</time>
      </trkpt>
      <trkpt lat="45.88475" lon="3.01534">
        <ele>576</ele>
        <time>2021-08-10T19:18:57Z</time>
      </trkpt>
      <trkpt lat="45.88469" lon="3.01543">
        <ele>576</ele>
        <time>2021-08-10T19:18:58Z</time>
      </trkpt>
      <trkpt lat="45.88469" lon="3.01544">
        <ele>576</ele>
        <time>2021-08-10T19:19:00Z</time>
      </trkpt>
      <trkpt lat="45.88466" lon="3.01549">
        <ele>576</ele>
        <time>2021-08-10T19:19:01Z</time>
      </trkpt>
      <trkpt lat="45.88466" lon="3.0155">
        <ele>576</ele>
        <time>2021-08-10T19:19:02Z</time>
      </trkpt>
      <trkpt lat="45.88464" lon="3.01558">
        <ele>576</ele>
        <time>2021-08-10T19:19:04Z</time>
      </trkpt>
      <trkpt lat="45.88463" lon="3.01559">
        <ele>576</ele>
        <time>2021-08-10T19:19:05Z</time>
      </trkpt>
      <trkpt lat="45.88462" lon="3.01566">
        <ele>576</ele>
        <time>2021-08-10T19:19:06Z</time>
      </trkpt>
      <trkpt lat="45.88462" lon="3.01566">
        <ele>576</ele>
        <time>2021-08-10T19:19:08Z</time>
      </trkpt>
      <trkpt lat="45.88461" lon="3.01573">
        <ele>576</ele>
        <time>2021-08-10T19:19:10Z</time>
      </trkpt>
      <trkpt lat="45.88462" lon="3.01579">
        <ele>576</ele>
        <time>2021-08-10T19:19:11Z</time>
      </trkpt>
      <trkpt lat="45.88462" lon="3.01579">
        <ele>576</ele>
        <time>2021-08-10T19:19:12Z</time>
      </trkpt>
      <trkpt lat="45.88462" lon="3.0158">
        <ele>576</ele>
        <time>2021-08-10T19:19:13Z</time>
      </trkpt>
      <trkpt lat="45.88463" lon="3.01582">
        <ele>576</ele>
        <time>2021-08-10T19:19:14Z</time>
      </trkpt>
      <trkpt lat="45.88464" lon="3.01583">
        <ele>576</ele>
        <time>2021-08-10T19:19:15Z</time>
      </trkpt>
      <trkpt lat="45.88464" lon="3.01585">
        <ele>576</ele>
        <time>2021-08-10T19:19:17Z</time>
      </trkpt>
      <trkpt lat="45.88466" lon="3.01595">
        <ele>576</ele>
        <time>2021-08-10T19:19:18Z</time>
      </trkpt>
      <trkpt lat="45.88466" lon="3.01595">
        <ele>576</ele>
        <time>2021-08-10T19:19:20Z</time>
      </trkpt>
      <trkpt lat="45.88468" lon="3.01602">
        <ele>576</ele>
        <time>2021-08-10T19:19:21Z</time>
      </trkpt>
      <trkpt lat="45.88468" lon="3.01603">
        <ele>576</ele>
        <time>2021-08-10T19:19:22Z</time>
      </trkpt>
      <trkpt lat="45.88468" lon="3.01604">
        <ele>576</ele>
        <time>2021-08-10T19:19:23Z</time>
      </trkpt>
      <trkpt lat="45.88468" lon="3.01605">
        <ele>576</ele>
        <time>2021-08-10T19:19:24Z</time>
      </trkpt>
      <trkpt lat="45.88469" lon="3.01607">
        <ele>576</ele>
        <time>2021-08-10T19:19:25Z</time>
      </trkpt>
      <trkpt lat="45.88469" lon="3.01609">
        <ele>576</ele>
        <time>2021-08-10T19:19:26Z</time>
      </trkpt>
      <trkpt lat="45.88471" lon="3.01612">
        <ele>576</ele>
        <time>2021-08-10T19:19:28Z</time>
      </trkpt>
      <trkpt lat="45.88474" lon="3.01623">
        <ele>576</ele>
        <time>2021-08-10T19:19:29Z</time>
      </trkpt>
      <trkpt lat="45.88474" lon="3.01624">
        <ele>576</ele>
        <time>2021-08-10T19:19:31Z</time>
      </trkpt>
      <trkpt lat="45.88474" lon="3.01631">
        <ele>576</ele>
        <time>2021-08-10T19:19:32Z</time>
      </trkpt>
      <trkpt lat="45.88474" lon="3.01632">
        <ele>576</ele>
        <time>2021-08-10T19:19:34Z</time>
      </trkpt>
      <trkpt lat="45.88474" lon="3.01633">
        <ele>576</ele>
        <time>2021-08-10T19:19:35Z</time>
      </trkpt>
      <trkpt lat="45.88477" lon="3.01643">
        <ele>576</ele>
        <time>2021-08-10T19:19:36Z</time>
      </trkpt>
      <trkpt lat="45.88477" lon="3.01644">
        <ele>576</ele>
        <time>2021-08-10T19:19:37Z</time>
      </trkpt>
      <trkpt lat="45.88477" lon="3.01645">
        <ele>576</ele>
        <time>2021-08-10T19:19:38Z</time>
      </trkpt>
      <trkpt lat="45.88477" lon="3.01646">
        <ele>576</ele>
        <time>2021-08-10T19:19:40Z</time>
      </trkpt>
      <trkpt lat="45.88477" lon="3.01647">
        <ele>576</ele>
        <time>2021-08-10T19:19:41Z</time>
      </trkpt>
      <trkpt lat="45.88478" lon="3.01649">
        <ele>576</ele>
        <time>2021-08-10T19:19:42Z</time>
      </trkpt>
      <trkpt lat="45.88479" lon="3.01651">
        <ele>576</ele>
        <time>2021-08-10T19:19:43Z</time>
      </trkpt>
      <trkpt lat="45.88479" lon="3.01653">
        <ele>576</ele>
        <time>2021-08-10T19:19:44Z</time>
      </trkpt>
      <trkpt lat="45.88481" lon="3.01662">
        <ele>576</ele>
        <time>2021-08-10T19:19:46Z</time>
      </trkpt>
      <trkpt lat="45.88482" lon="3.01668">
        <ele>576</ele>
        <time>2021-08-10T19:19:47Z</time>
      </trkpt>
      <trkpt lat="45.88482" lon="3.01669">
        <ele>576</ele>
        <time>2021-08-10T19:19:48Z</time>
      </trkpt>
      <trkpt lat="45.88482" lon="3.0167">
        <ele>576</ele>
        <time>2021-08-10T19:19:49Z</time>
      </trkpt>
      <trkpt lat="45.88483" lon="3.01672">
        <ele>576</ele>
        <time>2021-08-10T19:19:50Z</time>
      </trkpt>
      <trkpt lat="45.88483" lon="3.01674">
        <ele>576</ele>
        <time>2021-08-10T19:19:52Z</time>
      </trkpt>
      <trkpt lat="45.88487" lon="3.01684">
        <ele>576</ele>
        <time>2021-08-10T19:19:54Z</time>
      </trkpt>
      <trkpt lat="45.88489" lon="3.01689">
        <ele>576</ele>
        <time>2021-08-10T19:19:55Z</time>
      </trkpt>
      <trkpt lat="45.88489" lon="3.0169">
        <ele>576</ele>
        <time>2021-08-10T19:19:56Z</time>
      </trkpt>
      <trkpt lat="45.88489" lon="3.01691">
        <ele>576</ele>
        <time>2021-08-10T19:19:57Z</time>
      </trkpt>
      <trkpt lat="45.88489" lon="3.01693">
        <ele>576</ele>
        <time>2021-08-10T19:19:58Z</time>
      </trkpt>
      <trkpt lat="45.88489" lon="3.01694">
        <ele>576</ele>
        <time>2021-08-10T19:20:00Z</time>
      </trkpt>
      <trkpt lat="45.8849" lon="3.01704">
        <ele>576</ele>
        <time>2021-08-10T19:20:01Z</time>
      </trkpt>
      <trkpt lat="45.8849" lon="3.01704">
        <ele>576</ele>
        <time>2021-08-10T19:20:03Z</time>
      </trkpt>
      <trkpt lat="45.88492" lon="3.01711">
        <ele>576</ele>
        <time>2021-08-10T19:20:04Z</time>
      </trkpt>
      <trkpt lat="45.88492" lon="3.01711">
        <ele>576</ele>
        <time>2021-08-10T19:20:05Z</time>
      </trkpt>
      <trkpt lat="45.88493" lon="3.01713">
        <ele>576</ele>
        <time>2021-08-10T19:20:06Z</time>
      </trkpt>
      <trkpt lat="45.88493" lon="3.01714">
        <ele>576</ele>
        <time>2021-08-10T19:20:08Z</time>
      </trkpt>
      <trkpt lat="45.88496" lon="3.01722">
        <ele>576</ele>
        <time>2021-08-10T19:20:09Z</time>
      </trkpt>
      <trkpt lat="45.88496" lon="3.01722">
        <ele>576</ele>
        <time>2021-08-10T19:20:11Z</time>
      </trkpt>
      <trkpt lat="45.88497" lon="3.01729">
        <ele>576</ele>
        <time>2021-08-10T19:20:12Z</time>
      </trkpt>
      <trkpt lat="45.88498" lon="3.01729">
        <ele>576</ele>
        <time>2021-08-10T19:20:14Z</time>
      </trkpt>
      <trkpt lat="45.88498" lon="3.01737">
        <ele>576</ele>
        <time>2021-08-10T19:20:15Z</time>
      </trkpt>
      <trkpt lat="45.88498" lon="3.01737">
        <ele>576</ele>
        <time>2021-08-10T19:20:16Z</time>
      </trkpt>
      <trkpt lat="45.88498" lon="3.01738">
        <ele>576</ele>
        <time>2021-08-10T19:20:17Z</time>
      </trkpt>
      <trkpt lat="45.88498" lon="3.01738">
        <ele>576</ele>
        <time>2021-08-10T19:20:18Z</time>
      </trkpt>
      <trkpt lat="45.88498" lon="3.01738">
        <ele>576</ele>
        <time>2021-08-10T19:20:22Z</time>
      </trkpt>
      <trkpt lat="45.88497" lon="3.01739">
        <ele>576</ele>
        <time>2021-08-10T19:20:23Z</time>
      </trkpt>
      <trkpt lat="45.88497" lon="3.01739">
        <ele>576</ele>
        <time>2021-08-10T19:20:24Z</time>
      </trkpt>
      <trkpt lat="45.88496" lon="3.0174">
        <ele>576</ele>
        <time>2021-08-10T19:20:26Z</time>
      </trkpt>
      <trkpt lat="45.8849" lon="3.01741">
        <ele>576</ele>
        <time>2021-08-10T19:20:28Z</time>
      </trkpt>
      <trkpt lat="45.88487" lon="3.01741">
        <ele>576</ele>
        <time>2021-08-10T19:20:29Z</time>
      </trkpt>
      <trkpt lat="45.88486" lon="3.01741">
        <ele>576</ele>
        <time>2021-08-10T19:20:30Z</time>
      </trkpt>
      <trkpt lat="45.88485" lon="3.0174">
        <ele>576</ele>
        <time>2021-08-10T19:20:31Z</time>
      </trkpt>
      <trkpt lat="45.88484" lon="3.0174">
        <ele>576</ele>
        <time>2021-08-10T19:20:32Z</time>
      </trkpt>
      <trkpt lat="45.88483" lon="3.01739">
        <ele>576</ele>
        <time>2021-08-10T19:20:34Z</time>
      </trkpt>
      <trkpt lat="45.88475" lon="3.01737">
        <ele>576</ele>
        <time>2021-08-10T19:20:35Z</time>
      </trkpt>
      <trkpt lat="45.88475" lon="3.01737">
        <ele>576</ele>
        <time>2021-08-10T19:20:36Z</time>
      </trkpt>
      <trkpt lat="45.88474" lon="3.01737">
        <ele>576</ele>
        <time>2021-08-10T19:20:37Z</time>
      </trkpt>
      <trkpt lat="45.88474" lon="3.01737">
        <ele>576</ele>
        <time>2021-08-10T19:20:38Z</time>
      </trkpt>
      <trkpt lat="45.88472" lon="3.01737">
        <ele>576</ele>
        <time>2021-08-10T19:20:40Z</time>
      </trkpt>
      <trkpt lat="45.88466" lon="3.01738">
        <ele>576</ele>
        <time>2021-08-10T19:20:41Z</time>
      </trkpt>
      <trkpt lat="45.88466" lon="3.01738">
        <ele>576</ele>
        <time>2021-08-10T19:20:43Z</time>
      </trkpt>
      <trkpt lat="45.88465" lon="3.01738">
        <ele>576</ele>
        <time>2021-08-10T19:20:44Z</time>
      </trkpt>
      <trkpt lat="45.88464" lon="3.01738">
        <ele>576</ele>
        <time>2021-08-10T19:20:45Z</time>
      </trkpt>
      <trkpt lat="45.88462" lon="3.01738">
        <ele>576</ele>
        <time>2021-08-10T19:20:48Z</time>
      </trkpt>
      <trkpt lat="45.88462" lon="3.01738">
        <ele>576</ele>
        <time>2021-08-10T19:20:50Z</time>
      </trkpt>
      <trkpt lat="45.88459" lon="3.01739">
        <ele>576</ele>
        <time>2021-08-10T19:20:52Z</time>
      </trkpt>
      <trkpt lat="45.88454" lon="3.01739">
        <ele>576</ele>
        <time>2021-08-10T19:20:53Z</time>
      </trkpt>
      <trkpt lat="45.88453" lon="3.01739">
        <ele>576</ele>
        <time>2021-08-10T19:20:54Z</time>
      </trkpt>
      <trkpt lat="45.88452" lon="3.01739">
        <ele>576</ele>
        <time>2021-08-10T19:20:55Z</time>
      </trkpt>
      <trkpt lat="45.8845" lon="3.01739">
        <ele>576</ele>
        <time>2021-08-10T19:20:56Z</time>
      </trkpt>
      <trkpt lat="45.88448" lon="3.01738">
        <ele>576</ele>
        <time>2021-08-10T19:20:58Z</time>
      </trkpt>
      <trkpt lat="45.88438" lon="3.01736">
        <ele>576</ele>
        <time>2021-08-10T19:20:59Z</time>
      </trkpt>
      <trkpt lat="45.88438" lon="3.01736">
        <ele>576</ele>
        <time>2021-08-10T19:21:00Z</time>
      </trkpt>
      <trkpt lat="45.88437" lon="3.01736">
        <ele>576</ele>
        <time>2021-08-10T19:21:01Z</time>
      </trkpt>
      <trkpt lat="45.88435" lon="3.01735">
        <ele>576</ele>
        <time>2021-08-10T19:21:02Z</time>
      </trkpt>
      <trkpt lat="45.88434" lon="3.01734">
        <ele>576</ele>
        <time>2021-08-10T19:21:03Z</time>
      </trkpt>
      <trkpt lat="45.88432" lon="3.01734">
        <ele>576</ele>
        <time>2021-08-10T19:21:04Z</time>
      </trkpt>
      <trkpt lat="45.88429" lon="3.01733">
        <ele>576</ele>
        <time>2021-08-10T19:21:06Z</time>
      </trkpt>
      <trkpt lat="45.88427" lon="3.01732">
        <ele>576</ele>
        <time>2021-08-10T19:21:07Z</time>
      </trkpt>
      <trkpt lat="45.88416" lon="3.0173">
        <ele>576</ele>
        <time>2021-08-10T19:21:08Z</time>
      </trkpt>
      <trkpt lat="45.88416" lon="3.0173">
        <ele>576</ele>
        <time>2021-08-10T19:21:09Z</time>
      </trkpt>
      <trkpt lat="45.88414" lon="3.0173">
        <ele>576</ele>
        <time>2021-08-10T19:21:10Z</time>
      </trkpt>
      <trkpt lat="45.88413" lon="3.0173">
        <ele>576</ele>
        <time>2021-08-10T19:21:12Z</time>
      </trkpt>
      <trkpt lat="45.88405" lon="3.0173">
        <ele>576</ele>
        <time>2021-08-10T19:21:13Z</time>
      </trkpt>
      <trkpt lat="45.88404" lon="3.0173">
        <ele>576</ele>
        <time>2021-08-10T19:21:14Z</time>
      </trkpt>
      <trkpt lat="45.88404" lon="3.0173">
        <ele>576</ele>
        <time>2021-08-10T19:21:15Z</time>
      </trkpt>
      <trkpt lat="45.88403" lon="3.0173">
        <ele>576</ele>
        <time>2021-08-10T19:21:16Z</time>
      </trkpt>
      <trkpt lat="45.88402" lon="3.01729">
        <ele>576</ele>
        <time>2021-08-10T19:21:18Z</time>
      </trkpt>
      <trkpt lat="45.88394" lon="3.01728">
        <ele>576</ele>
        <time>2021-08-10T19:21:19Z</time>
      </trkpt>
      <trkpt lat="45.88393" lon="3.01728">
        <ele>576</ele>
        <time>2021-08-10T19:21:20Z</time>
      </trkpt>
      <trkpt lat="45.88392" lon="3.01728">
        <ele>576</ele>
        <time>2021-08-10T19:21:21Z</time>
      </trkpt>
      <trkpt lat="45.88389" lon="3.01727">
        <ele>576</ele>
        <time>2021-08-10T19:21:22Z</time>
      </trkpt>
      <trkpt lat="45.88387" lon="3.01727">
        <ele>576</ele>
        <time>2021-08-10T19:21:23Z</time>
      </trkpt>
      <trkpt lat="45.88385" lon="3.01726">
        <ele>576</ele>
        <time>2021-08-10T19:21:24Z</time>
      </trkpt>
      <trkpt lat="45.88382" lon="3.01725">
        <ele>576</ele>
        <time>2021-08-10T19:21:25Z</time>
      </trkpt>
      <trkpt lat="45.88379" lon="3.01725">
        <ele>576</ele>
        <time>2021-08-10T19:21:27Z</time>
      </trkpt>
      <trkpt lat="45.88367" lon="3.01723">
        <ele>576</ele>
        <time>2021-08-10T19:21:28Z</time>
      </trkpt>
      <trkpt lat="45.88366" lon="3.01723">
        <ele>576</ele>
        <time>2021-08-10T19:21:29Z</time>
      </trkpt>
      <trkpt lat="45.88364" lon="3.01723">
        <ele>576</ele>
        <time>2021-08-10T19:21:30Z</time>
      </trkpt>
      <trkpt lat="45.88362" lon="3.01723">
        <ele>576</ele>
        <time>2021-08-10T19:21:32Z</time>
      </trkpt>
      <trkpt lat="45.8836" lon="3.01723">
        <ele>576</ele>
        <time>2021-08-10T19:21:33Z</time>
      </trkpt>
      <trkpt lat="45.8835" lon="3.01723">
        <ele>576</ele>
        <time>2021-08-10T19:21:34Z</time>
      </trkpt>
      <trkpt lat="45.88349" lon="3.01723">
        <ele>576</ele>
        <time>2021-08-10T19:21:35Z</time>
      </trkpt>
      <trkpt lat="45.88347" lon="3.01723">
        <ele>576</ele>
        <time>2021-08-10T19:21:36Z</time>
      </trkpt>
      <trkpt lat="45.88346" lon="3.01723">
        <ele>576</ele>
        <time>2021-08-10T19:21:38Z</time>
      </trkpt>
      <trkpt lat="45.88336" lon="3.01722">
        <ele>576</ele>
        <time>2021-08-10T19:21:39Z</time>
      </trkpt>
      <trkpt lat="45.88336" lon="3.01722">
        <ele>576</ele>
        <time>2021-08-10T19:21:41Z</time>
      </trkpt>
      <trkpt lat="45.88335" lon="3.01723">
        <ele>576</ele>
        <time>2021-08-10T19:21:42Z</time>
      </trkpt>
      <trkpt lat="45.88329" lon="3.01724">
        <ele>576</ele>
        <time>2021-08-10T19:21:44Z</time>
      </trkpt>
      <trkpt lat="45.88328" lon="3.01724">
        <ele>576</ele>
        <time>2021-08-10T19:21:45Z</time>
      </trkpt>
      <trkpt lat="45.88322" lon="3.01725">
        <ele>576</ele>
        <time>2021-08-10T19:21:46Z</time>
      </trkpt>
      <trkpt lat="45.88321" lon="3.01725">
        <ele>576</ele>
        <time>2021-08-10T19:21:47Z</time>
      </trkpt>
      <trkpt lat="45.8832" lon="3.01725">
        <ele>576</ele>
        <time>2021-08-10T19:21:48Z</time>
      </trkpt>
      <trkpt lat="45.88318" lon="3.01725">
        <ele>576</ele>
        <time>2021-08-10T19:21:50Z</time>
      </trkpt>
      <trkpt lat="45.88311" lon="3.01725">
        <ele>576</ele>
        <time>2021-08-10T19:21:51Z</time>
      </trkpt>
      <trkpt lat="45.8831" lon="3.01725">
        <ele>576</ele>
        <time>2021-08-10T19:21:52Z</time>
      </trkpt>
      <trkpt lat="45.88309" lon="3.01725">
        <ele>576</ele>
        <time>2021-08-10T19:21:53Z</time>
      </trkpt>
      <trkpt lat="45.88307" lon="3.01725">
        <ele>576</ele>
        <time>2021-08-10T19:21:54Z</time>
      </trkpt>
      <trkpt lat="45.88305" lon="3.01725">
        <ele>576</ele>
        <time>2021-08-10T19:21:56Z</time>
      </trkpt>
      <trkpt lat="45.88294" lon="3.01723">
        <ele>576</ele>
        <time>2021-08-10T19:21:58Z</time>
      </trkpt>
      <trkpt lat="45.88289" lon="3.01722">
        <ele>576</ele>
        <time>2021-08-10T19:21:59Z</time>
      </trkpt>
      <trkpt lat="45.88288" lon="3.01722">
        <ele>576</ele>
        <time>2021-08-10T19:22:00Z</time>
      </trkpt>
      <trkpt lat="45.88287" lon="3.01722">
        <ele>576</ele>
        <time>2021-08-10T19:22:01Z</time>
      </trkpt>
      <trkpt lat="45.88285" lon="3.01722">
        <ele>576</ele>
        <time>2021-08-10T19:22:02Z</time>
      </trkpt>
      <trkpt lat="45.88283" lon="3.01721">
        <ele>576</ele>
        <time>2021-08-10T19:22:04Z</time>
      </trkpt>
      <trkpt lat="45.88273" lon="3.01721">
        <ele>576</ele>
        <time>2021-08-10T19:22:06Z</time>
      </trkpt>
      <trkpt lat="45.88272" lon="3.01721">
        <ele>576</ele>
        <time>2021-08-10T19:22:07Z</time>
      </trkpt>
      <trkpt lat="45.88263" lon="3.01721">
        <ele>576</ele>
        <time>2021-08-10T19:22:08Z</time>
      </trkpt>
      <trkpt lat="45.88263" lon="3.01721">
        <ele>576</ele>
        <time>2021-08-10T19:22:10Z</time>
      </trkpt>
      <trkpt lat="45.88254" lon="3.01721">
        <ele>576</ele>
        <time>2021-08-10T19:22:11Z</time>
      </trkpt>
      <trkpt lat="45.88253" lon="3.01721">
        <ele>576</ele>
        <time>2021-08-10T19:22:13Z</time>
      </trkpt>
      <trkpt lat="45.88247" lon="3.01719">
        <ele>576</ele>
        <time>2021-08-10T19:22:14Z</time>
      </trkpt>
      <trkpt lat="45.88247" lon="3.01719">
        <ele>576</ele>
        <time>2021-08-10T19:22:15Z</time>
      </trkpt>
      <trkpt lat="45.88246" lon="3.01719">
        <ele>576</ele>
        <time>2021-08-10T19:22:16Z</time>
      </trkpt>
      <trkpt lat="45.88246" lon="3.01719">
        <ele>576</ele>
        <time>2021-08-10T19:22:18Z</time>
      </trkpt>
      <trkpt lat="45.88243" lon="3.01719">
        <ele>576</ele>
        <time>2021-08-10T19:22:19Z</time>
      </trkpt>
      <trkpt lat="45.88243" lon="3.01719">
        <ele>576</ele>
        <time>2021-08-10T19:22:20Z</time>
      </trkpt>
      <trkpt lat="45.88242" lon="3.01718">
        <ele>576</ele>
        <time>2021-08-10T19:22:21Z</time>
      </trkpt>
      <trkpt lat="45.8824" lon="3.01718">
        <ele>576</ele>
        <time>2021-08-10T19:22:22Z</time>
      </trkpt>
      <trkpt lat="45.88239" lon="3.01717">
        <ele>576</ele>
        <time>2021-08-10T19:22:24Z</time>
      </trkpt>
      <trkpt lat="45.8823" lon="3.01714">
        <ele>576</ele>
        <time>2021-08-10T19:22:25Z</time>
      </trkpt>
      <trkpt lat="45.8823" lon="3.01714">
        <ele>576</ele>
        <time>2021-08-10T19:22:26Z</time>
      </trkpt>
      <trkpt lat="45.88228" lon="3.01714">
        <ele>576</ele>
        <time>2021-08-10T19:22:27Z</time>
      </trkpt>
      <trkpt lat="45.88227" lon="3.01714">
        <ele>576</ele>
        <time>2021-08-10T19:22:28Z</time>
      </trkpt>
      <trkpt lat="45.88225" lon="3.01714">
        <ele>576</ele>
        <time>2021-08-10T19:22:30Z</time>
      </trkpt>
      <trkpt lat="45.88219" lon="3.01714">
        <ele>576</ele>
        <time>2021-08-10T19:22:31Z</time>
      </trkpt>
      <trkpt lat="45.88219" lon="3.01714">
        <ele>576</ele>
        <time>2021-08-10T19:22:33Z</time>
      </trkpt>
      <trkpt lat="45.88213" lon="3.01715">
        <ele>576</ele>
        <time>2021-08-10T19:22:35Z</time>
      </trkpt>
      <trkpt lat="45.88209" lon="3.01716">
        <ele>576</ele>
        <time>2021-08-10T19:22:36Z</time>
      </trkpt>
      <trkpt lat="45.88209" lon="3.01716">
        <ele>576</ele>
        <time>2021-08-10T19:22:38Z</time>
      </trkpt>
      <trkpt lat="45.88203" lon="3.01717">
        <ele>576</ele>
        <time>2021-08-10T19:22:39Z</time>
      </trkpt>
      <trkpt lat="45.88202" lon="3.01718">
        <ele>576</ele>
        <time>2021-08-10T19:22:40Z</time>
      </trkpt>
      <trkpt lat="45.882" lon="3.01718">
        <ele>576</ele>
        <time>2021-08-10T19:22:42Z</time>
      </trkpt>
      <trkpt lat="45.88199" lon="3.01719">
        <ele>576</ele>
        <time>2021-08-10T19:22:43Z</time>
      </trkpt>
      <trkpt lat="45.88196" lon="3.01719">
        <ele>576</ele>
        <time>2021-08-10T19:22:44Z</time>
      </trkpt>
      <trkpt lat="45.88194" lon="3.0172">
        <ele>576</ele>
        <time>2021-08-10T19:22:45Z</time>
      </trkpt>
      <trkpt lat="45.88187" lon="3.01723">
        <ele>576</ele>
        <time>2021-08-10T19:22:46Z</time>
      </trkpt>
      <trkpt lat="45.88187" lon="3.01723">
        <ele>576</ele>
        <time>2021-08-10T19:22:47Z</time>
      </trkpt>
      <trkpt lat="45.88186" lon="3.01724">
        <ele>576</ele>
        <time>2021-08-10T19:22:48Z</time>
      </trkpt>
      <trkpt lat="45.88185" lon="3.01724">
        <ele>576</ele>
        <time>2021-08-10T19:22:49Z</time>
      </trkpt>
      <trkpt lat="45.88184" lon="3.01725">
        <ele>576</ele>
        <time>2021-08-10T19:22:50Z</time>
      </trkpt>
      <trkpt lat="45.88182" lon="3.01725">
        <ele>576</ele>
        <time>2021-08-10T19:22:51Z</time>
      </trkpt>
      <trkpt lat="45.88181" lon="3.01726">
        <ele>576</ele>
        <time>2021-08-10T19:22:52Z</time>
      </trkpt>
      <trkpt lat="45.88179" lon="3.01728">
        <ele>576</ele>
        <time>2021-08-10T19:22:54Z</time>
      </trkpt>
      <trkpt lat="45.88173" lon="3.01733">
        <ele>576</ele>
        <time>2021-08-10T19:22:55Z</time>
      </trkpt>
      <trkpt lat="45.88173" lon="3.01734">
        <ele>576</ele>
        <time>2021-08-10T19:22:56Z</time>
      </trkpt>
      <trkpt lat="45.88172" lon="3.01734">
        <ele>576</ele>
        <time>2021-08-10T19:22:57Z</time>
      </trkpt>
      <trkpt lat="45.88171" lon="3.01735">
        <ele>576</ele>
        <time>2021-08-10T19:22:58Z</time>
      </trkpt>
      <trkpt lat="45.88169" lon="3.01736">
        <ele>576</ele>
        <time>2021-08-10T19:22:59Z</time>
      </trkpt>
      <trkpt lat="45.88168" lon="3.01737">
        <ele>576</ele>
        <time>2021-08-10T19:23:00Z</time>
      </trkpt>
      <trkpt lat="45.88166" lon="3.01738">
        <ele>576</ele>
        <time>2021-08-10T19:23:01Z</time>
      </trkpt>
      <trkpt lat="45.88165" lon="3.0174">
        <ele>576</ele>
        <time>2021-08-10T19:23:02Z</time>
      </trkpt>
      <trkpt lat="45.88163" lon="3.01741">
        <ele>576</ele>
        <time>2021-08-10T19:23:03Z</time>
      </trkpt>
      <trkpt lat="45.88161" lon="3.01742">
        <ele>576</ele>
        <time>2021-08-10T19:23:04Z</time>
      </trkpt>
      <trkpt lat="45.8816" lon="3.01744">
        <ele>576</ele>
        <time>2021-08-10T19:23:06Z</time>
      </trkpt>
      <trkpt lat="45.88155" lon="3.0175">
        <ele>576</ele>
        <time>2021-08-10T19:23:07Z</time>
      </trkpt>
      <trkpt lat="45.88154" lon="3.01751">
        <ele>576</ele>
        <time>2021-08-10T19:23:09Z</time>
      </trkpt>
      <trkpt lat="45.88148" lon="3.01756">
        <ele>576</ele>
        <time>2021-08-10T19:23:10Z</time>
      </trkpt>
      <trkpt lat="45.88148" lon="3.01757">
        <ele>576</ele>
        <time>2021-08-10T19:23:11Z</time>
      </trkpt>
      <trkpt lat="45.88147" lon="3.01758">
        <ele>576</ele>
        <time>2021-08-10T19:23:12Z</time>
      </trkpt>
      <trkpt lat="45.88146" lon="3.01759">
        <ele>576</ele>
        <time>2021-08-10T19:23:13Z</time>
      </trkpt>
      <trkpt lat="45.88145" lon="3.0176">
        <ele>576</ele>
        <time>2021-08-10T19:23:14Z</time>
      </trkpt>
      <trkpt lat="45.88143" lon="3.01762">
        <ele>576</ele>
        <time>2021-08-10T19:23:15Z</time>
      </trkpt>
      <trkpt lat="45.88141" lon="3.01764">
        <ele>576</ele>
        <time>2021-08-10T19:23:16Z</time>
      </trkpt>
      <trkpt lat="45.8814" lon="3.01765">
        <ele>576</ele>
        <time>2021-08-10T19:23:16Z</time>
      </trkpt>
      <trkpt lat="45.88139" lon="3.01767">
        <ele>576</ele>
        <time>2021-08-10T19:23:17Z</time>
      </trkpt>
      <trkpt lat="45.88137" lon="3.01769">
        <ele>576</ele>
        <time>2021-08-10T19:23:19Z</time>
      </trkpt>
      <trkpt lat="45.88131" lon="3.01778">
        <ele>576</ele>
        <time>2021-08-10T19:23:20Z</time>
      </trkpt>
      <trkpt lat="45.88131" lon="3.01778">
        <ele>576</ele>
        <time>2021-08-10T19:23:22Z</time>
      </trkpt>
      <trkpt lat="45.88129" lon="3.01782">
        <ele>576</ele>
        <time>2021-08-10T19:23:23Z</time>
      </trkpt>
      <trkpt lat="45.88129" lon="3.01783">
        <ele>576</ele>
        <time>2021-08-10T19:23:24Z</time>
      </trkpt>
      <trkpt lat="45.88128" lon="3.01784">
        <ele>576</ele>
        <time>2021-08-10T19:23:25Z</time>
      </trkpt>
      <trkpt lat="45.88127" lon="3.01786">
        <ele>576</ele>
        <time>2021-08-10T19:23:27Z</time>
      </trkpt>
      <trkpt lat="45.88124" lon="3.01795">
        <ele>576</ele>
        <time>2021-08-10T19:23:28Z</time>
      </trkpt>
      <trkpt lat="45.88124" lon="3.01795">
        <ele>576</ele>
        <time>2021-08-10T19:23:30Z</time>
      </trkpt>
      <trkpt lat="45.88121" lon="3.018">
        <ele>576</ele>
        <time>2021-08-10T19:23:31Z</time>
      </trkpt>
      <trkpt lat="45.88121" lon="3.01801">
        <ele>576</ele>
        <time>2021-08-10T19:23:33Z</time>
      </trkpt>
      <trkpt lat="45.88119" lon="3.01808">
        <ele>576</ele>
        <time>2021-08-10T19:23:34Z</time>
      </trkpt>
      <trkpt lat="45.88119" lon="3.01808">
        <ele>576</ele>
        <time>2021-08-10T19:23:35Z</time>
      </trkpt>
      <trkpt lat="45.88119" lon="3.01809">
        <ele>576</ele>
        <time>2021-08-10T19:23:36Z</time>
      </trkpt>
      <trkpt lat="45.88119" lon="3.01811">
        <ele>576</ele>
        <time>2021-08-10T19:23:37Z</time>
      </trkpt>
      <trkpt lat="45.88119" lon="3.01814">
        <ele>576</ele>
        <time>2021-08-10T19:23:39Z</time>
      </trkpt>
      <trkpt lat="45.88117" lon="3.01826">
        <ele>576</ele>
        <time>2021-08-10T19:23:40Z</time>
      </trkpt>
      <trkpt lat="45.88117" lon="3.01827">
        <ele>576</ele>
        <time>2021-08-10T19:23:42Z</time>
      </trkpt>
      <trkpt lat="45.88117" lon="3.01828">
        <ele>576</ele>
        <time>2021-08-10T19:23:43Z</time>
      </trkpt>
      <trkpt lat="45.88117" lon="3.01836">
        <ele>576</ele>
        <time>2021-08-10T19:23:44Z</time>
      </trkpt>
      <trkpt lat="45.88117" lon="3.01836">
        <ele>576</ele>
        <time>2021-08-10T19:23:45Z</time>
      </trkpt>
      <trkpt lat="45.88117" lon="3.01838">
        <ele>576</ele>
        <time>2021-08-10T19:23:47Z</time>
      </trkpt>
      <trkpt lat="45.88118" lon="3.01846">
        <ele>576</ele>
        <time>2021-08-10T19:23:48Z</time>
      </trkpt>
      <trkpt lat="45.88118" lon="3.01847">
        <ele>576</ele>
        <time>2021-08-10T19:23:49Z</time>
      </trkpt>
      <trkpt lat="45.88118" lon="3.01849">
        <ele>576</ele>
        <time>2021-08-10T19:23:50Z</time>
      </trkpt>
      <trkpt lat="45.88119" lon="3.01851">
        <ele>576</ele>
        <time>2021-08-10T19:23:51Z</time>
      </trkpt>
      <trkpt lat="45.8812" lon="3.01853">
        <ele>576</ele>
        <time>2021-08-10T19:23:52Z</time>
      </trkpt>
      <trkpt lat="45.8812" lon="3.01856">
        <ele>576</ele>
        <time>2021-08-10T19:23:53Z</time>
      </trkpt>
      <trkpt lat="45.8812" lon="3.01859">
        <ele>576</ele>
        <time>2021-08-10T19:23:54Z</time>
      </trkpt>
      <trkpt lat="45.8812" lon="3.01861">
        <ele>576</ele>
        <time>2021-08-10T19:23:56Z</time>
      </trkpt>
      <trkpt lat="45.8812" lon="3.01864">
        <ele>576</ele>
        <time>2021-08-10T19:23:57Z</time>
      </trkpt>
      <trkpt lat="45.88118" lon="3.01866">
        <ele>576</ele>
        <time>2021-08-10T19:23:58Z</time>
      </trkpt>
      <trkpt lat="45.88118" lon="3.01868">
        <ele>576</ele>
        <time>2021-08-10T19:24:00Z</time>
      </trkpt>
      <trkpt lat="45.88118" lon="3.0187">
        <ele>576</ele>
        <time>2021-08-10T19:24:01Z</time>
      </trkpt>
      <trkpt lat="45.88115" lon="3.01879">
        <ele>576</ele>
        <time>2021-08-10T19:24:02Z</time>
      </trkpt>
      <trkpt lat="45.88114" lon="3.0188">
        <ele>576</ele>
        <time>2021-08-10T19:24:04Z</time>
      </trkpt>
      <trkpt lat="45.88112" lon="3.01885">
        <ele>576</ele>
        <time>2021-08-10T19:24:05Z</time>
      </trkpt>
      <trkpt lat="45.88112" lon="3.01885">
        <ele>576</ele>
        <time>2021-08-10T19:24:07Z</time>
      </trkpt>
      <trkpt lat="45.88107" lon="3.01887">
        <ele>576</ele>
        <time>2021-08-10T19:24:08Z</time>
      </trkpt>
      <trkpt lat="45.88107" lon="3.01887">
        <ele>576</ele>
        <time>2021-08-10T19:24:09Z</time>
      </trkpt>
      <trkpt lat="45.88106" lon="3.01887">
        <ele>576</ele>
        <time>2021-08-10T19:24:10Z</time>
      </trkpt>
      <trkpt lat="45.88105" lon="3.01887">
        <ele>576</ele>
        <time>2021-08-10T19:24:11Z</time>
      </trkpt>
      <trkpt lat="45.88105" lon="3.01887">
        <ele>576</ele>
        <time>2021-08-10T19:24:12Z</time>
      </trkpt>
      <trkpt lat="45.88104" lon="3.01887">
        <ele>576</ele>
        <time>2021-08-10T19:24:13Z</time>
      </trkpt>
      <trkpt lat="45.88103" lon="3.01887">
        <ele>576</ele>
        <time>2021-08-10T19:24:15Z</time>
      </trkpt>
      <trkpt lat="45.88099" lon="3.01888">
        <ele>576</ele>
        <time>2021-08-10T19:24:16Z</time>
      </trkpt>
      <trkpt lat="45.88099" lon="3.01887">
        <ele>576</ele>
        <time>2021-08-10T19:24:18Z</time>
      </trkpt>
      <trkpt lat="45.88095" lon="3.01886">
        <ele>576</ele>
        <time>2021-08-10T19:24:19Z</time>
      </trkpt>
      <trkpt lat="45.88094" lon="3.01886">
        <ele>576</ele>
        <time>2021-08-10T19:24:20Z</time>
      </trkpt>
      <trkpt lat="45.88094" lon="3.01885">
        <ele>576</ele>
        <time>2021-08-10T19:24:21Z</time>
      </trkpt>
      <trkpt lat="45.88092" lon="3.01885">
        <ele>576</ele>
        <time>2021-08-10T19:24:23Z</time>
      </trkpt>
      <trkpt lat="45.88084" lon="3.01882">
        <ele>576</ele>
        <time>2021-08-10T19:24:24Z</time>
      </trkpt>
      <trkpt lat="45.88083" lon="3.01883">
        <ele>576</ele>
        <time>2021-08-10T19:24:26Z</time>
      </trkpt>
      <trkpt lat="45.88076" lon="3.01881">
        <ele>576</ele>
        <time>2021-08-10T19:24:27Z</time>
      </trkpt>
      <trkpt lat="45.88076" lon="3.01881">
        <ele>576</ele>
        <time>2021-08-10T19:24:28Z</time>
      </trkpt>
      <trkpt lat="45.88075" lon="3.01881">
        <ele>576</ele>
        <time>2021-08-10T19:24:29Z</time>
      </trkpt>
      <trkpt lat="45.88074" lon="3.01881">
        <ele>576</ele>
        <time>2021-08-10T19:24:31Z</time>
      </trkpt>
      <trkpt lat="45.88068" lon="3.01882">
        <ele>576</ele>
        <time>2021-08-10T19:24:32Z</time>
      </trkpt>
      <trkpt lat="45.88068" lon="3.01882">
        <ele>576</ele>
        <time>2021-08-10T19:24:34Z</time>
      </trkpt>
      <trkpt lat="45.88063" lon="3.01884">
        <ele>576</ele>
        <time>2021-08-10T19:24:35Z</time>
      </trkpt>
      <trkpt lat="45.88063" lon="3.01885">
        <ele>576</ele>
        <time>2021-08-10T19:24:37Z</time>
      </trkpt>
      <trkpt lat="45.88058" lon="3.01888">
        <ele>576</ele>
        <time>2021-08-10T19:24:39Z</time>
      </trkpt>
      <trkpt lat="45.88054" lon="3.01889">
        <ele>576</ele>
        <time>2021-08-10T19:24:40Z</time>
      </trkpt>
      <trkpt lat="45.88053" lon="3.01889">
        <ele>576</ele>
        <time>2021-08-10T19:24:42Z</time>
      </trkpt>
      <trkpt lat="45.88052" lon="3.01889">
        <ele>576</ele>
        <time>2021-08-10T19:24:43Z</time>
      </trkpt>
      <trkpt lat="45.88046" lon="3.01891">
        <ele>576</ele>
        <time>2021-08-10T19:24:45Z</time>
      </trkpt>
      <trkpt lat="45.88042" lon="3.01893">
        <ele>576</ele>
        <time>2021-08-10T19:24:46Z</time>
      </trkpt>
      <trkpt lat="45.88042" lon="3.01893">
        <ele>576</ele>
        <time>2021-08-10T19:24:48Z</time>
      </trkpt>
      <trkpt lat="45.88036" lon="3.01896">
        <ele>576</ele>
        <time>2021-08-10T19:24:49Z</time>
      </trkpt>
      <trkpt lat="45.88034" lon="3.01896">
        <ele>576</ele>
        <time>2021-08-10T19:24:50Z</time>
      </trkpt>
      <trkpt lat="45.88033" lon="3.01897">
        <ele>576</ele>
        <time>2021-08-10T19:24:51Z</time>
      </trkpt>
      <trkpt lat="45.88031" lon="3.01897">
        <ele>576</ele>
        <time>2021-08-10T19:24:53Z</time>
      </trkpt>
      <trkpt lat="45.88023" lon="3.019">
        <ele>576</ele>
        <time>2021-08-10T19:24:54Z</time>
      </trkpt>
      <trkpt lat="45.88023" lon="3.019">
        <ele>576</ele>
        <time>2021-08-10T19:24:56Z</time>
      </trkpt>
      <trkpt lat="45.88016" lon="3.01904">
        <ele>576</ele>
        <time>2021-08-10T19:24:57Z</time>
      </trkpt>
      <trkpt lat="45.88015" lon="3.01904">
        <ele>576</ele>
        <time>2021-08-10T19:24:58Z</time>
      </trkpt>
      <trkpt lat="45.88015" lon="3.01905">
        <ele>576</ele>
        <time>2021-08-10T19:24:59Z</time>
      </trkpt>
      <trkpt lat="45.88014" lon="3.01906">
        <ele>576</ele>
        <time>2021-08-10T19:25:01Z</time>
      </trkpt>
      <trkpt lat="45.88008" lon="3.01911">
        <ele>576</ele>
        <time>2021-08-10T19:25:02Z</time>
      </trkpt>
      <trkpt lat="45.88007" lon="3.01911">
        <ele>576</ele>
        <time>2021-08-10T19:25:03Z</time>
      </trkpt>
      <trkpt lat="45.88007" lon="3.01912">
        <ele>576</ele>
        <time>2021-08-10T19:25:04Z</time>
      </trkpt>
      <trkpt lat="45.88006" lon="3.01912">
        <ele>576</ele>
        <time>2021-08-10T19:25:05Z</time>
      </trkpt>
      <trkpt lat="45.88005" lon="3.01913">
        <ele>576</ele>
        <time>2021-08-10T19:25:07Z</time>
      </trkpt>
      <trkpt lat="45.87998" lon="3.01917">
        <ele>576</ele>
        <time>2021-08-10T19:25:08Z</time>
      </trkpt>
      <trkpt lat="45.87998" lon="3.01918">
        <ele>576</ele>
        <time>2021-08-10T19:25:09Z</time>
      </trkpt>
      <trkpt lat="45.87997" lon="3.01918">
        <ele>576</ele>
        <time>2021-08-10T19:25:10Z</time>
      </trkpt>
      <trkpt lat="45.87996" lon="3.01919">
        <ele>576</ele>
        <time>2021-08-10T19:25:11Z</time>
      </trkpt>
      <trkpt lat="45.87994" lon="3.01919">
        <ele>576</ele>
        <time>2021-08-10T19:25:13Z</time>
      </trkpt>
      <trkpt lat="45.87986" lon="3.01924">
        <ele>576</ele>
        <time>2021-08-10T19:25:14Z</time>
      </trkpt>
      <trkpt lat="45.87985" lon="3.01925">
        <ele>576</ele>
        <time>2021-08-10T19:25:16Z</time>
      </trkpt>
      <trkpt lat="45.87981" lon="3.01929">
        <ele>576</ele>
        <time>2021-08-10T19:25:17Z</time>
      </trkpt>
      <trkpt lat="45.87981" lon="3.01929">
        <ele>576</ele>
        <time>2021-08-10T19:25:18Z</time>
      </trkpt>
      <trkpt lat="45.8798" lon="3.01929">
        <ele>576</ele>
        <time>2021-08-10T19:25:19Z</time>
      </trkpt>
      <trkpt lat="45.87979" lon="3.01931">
        <ele>576</ele>
        <time>2021-08-10T19:25:21Z</time>
      </trkpt>
      <trkpt lat="45.87977" lon="3.01932">
        <ele>576</ele>
        <time>2021-08-10T19:25:22Z</time>
      </trkpt>
      <trkpt lat="45.87971" lon="3.01939">
        <ele>576</ele>
        <time>2021-08-10T19:25:23Z</time>
      </trkpt>
      <trkpt lat="45.87971" lon="3.0194">
        <ele>576</ele>
        <time>2021-08-10T19:25:24Z</time>
      </trkpt>
      <trkpt lat="45.8797" lon="3.0194">
        <ele>576</ele>
        <time>2021-08-10T19:25:25Z</time>
      </trkpt>
      <trkpt lat="45.87969" lon="3.01941">
        <ele>576</ele>
        <time>2021-08-10T19:25:27Z</time>
      </trkpt>
      <trkpt lat="45.87964" lon="3.01946">
        <ele>576</ele>
        <time>2021-08-10T19:25:28Z</time>
      </trkpt>
      <trkpt lat="45.87964" lon="3.01946">
        <ele>576</ele>
        <time>2021-08-10T19:25:30Z</time>
      </trkpt>
      <trkpt lat="45.8796" lon="3.0195">
        <ele>576</ele>
        <time>2021-08-10T19:25:31Z</time>
      </trkpt>
      <trkpt lat="45.87955" lon="3.01966">
        <ele>576</ele>
        <time>2021-08-10T19:25:44Z</time>
      </trkpt>
      <trkpt lat="45.87955" lon="3.01966">
        <ele>576</ele>
        <time>2021-08-10T19:25:45Z</time>
      </trkpt>
      <trkpt lat="45.87954" lon="3.01967">
        <ele>576</ele>
        <time>2021-08-10T19:25:47Z</time>
      </trkpt>
      <trkpt lat="45.87951" lon="3.01974">
        <ele>576</ele>
        <time>2021-08-10T19:25:48Z</time>
      </trkpt>
      <trkpt lat="45.8795" lon="3.01975">
        <ele>576</ele>
        <time>2021-08-10T19:25:49Z</time>
      </trkpt>
      <trkpt lat="45.87949" lon="3.01976">
        <ele>576</ele>
        <time>2021-08-10T19:25:50Z</time>
      </trkpt>
      <trkpt lat="45.87948" lon="3.01978">
        <ele>576</ele>
        <time>2021-08-10T19:25:51Z</time>
      </trkpt>
      <trkpt lat="45.87947" lon="3.0198">
        <ele>576</ele>
        <time>2021-08-10T19:25:52Z</time>
      </trkpt>
      <trkpt lat="45.87946" lon="3.01982">
        <ele>576</ele>
        <time>2021-08-10T19:25:54Z</time>
      </trkpt>
      <trkpt lat="45.87943" lon="3.01992">
        <ele>576</ele>
        <time>2021-08-10T19:25:55Z</time>
      </trkpt>
      <trkpt lat="45.87942" lon="3.01992">
        <ele>576</ele>
        <time>2021-08-10T19:25:57Z</time>
      </trkpt>
      <trkpt lat="45.8794" lon="3.01998">
        <ele>576</ele>
        <time>2021-08-10T19:25:59Z</time>
      </trkpt>
      <trkpt lat="45.8794" lon="3.01998">
        <ele>576</ele>
        <time>2021-08-10T19:26:00Z</time>
      </trkpt>
      <trkpt lat="45.87936" lon="3.02003">
        <ele>576</ele>
        <time>2021-08-10T19:26:01Z</time>
      </trkpt>
      <trkpt lat="45.87935" lon="3.02004">
        <ele>576</ele>
        <time>2021-08-10T19:26:03Z</time>
      </trkpt>
      <trkpt lat="45.87932" lon="3.02007">
        <ele>576</ele>
        <time>2021-08-10T19:26:04Z</time>
      </trkpt>
      <trkpt lat="45.87932" lon="3.02008">
        <ele>576</ele>
        <time>2021-08-10T19:26:06Z</time>
      </trkpt>
      <trkpt lat="45.87928" lon="3.02012">
        <ele>576</ele>
        <time>2021-08-10T19:26:07Z</time>
      </trkpt>
      <trkpt lat="45.87927" lon="3.02012">
        <ele>576</ele>
        <time>2021-08-10T19:26:08Z</time>
      </trkpt>
      <trkpt lat="45.87927" lon="3.02013">
        <ele>576</ele>
        <time>2021-08-10T19:26:09Z</time>
      </trkpt>
      <trkpt lat="45.87925" lon="3.02014">
        <ele>576</ele>
        <time>2021-08-10T19:26:11Z</time>
      </trkpt>
      <trkpt lat="45.87925" lon="3.02015">
        <ele>576</ele>
        <time>2021-08-10T19:26:12Z</time>
      </trkpt>
      <trkpt lat="45.8792" lon="3.02022">
        <ele>576</ele>
        <time>2021-08-10T19:26:13Z</time>
      </trkpt>
      <trkpt lat="45.8792" lon="3.02022">
        <ele>576</ele>
        <time>2021-08-10T19:26:14Z</time>
      </trkpt>
      <trkpt lat="45.87919" lon="3.02024">
        <ele>576</ele>
        <time>2021-08-10T19:26:15Z</time>
      </trkpt>
      <trkpt lat="45.87919" lon="3.02025">
        <ele>576</ele>
        <time>2021-08-10T19:26:16Z</time>
      </trkpt>
      <trkpt lat="45.87919" lon="3.02026">
        <ele>576</ele>
        <time>2021-08-10T19:26:18Z</time>
      </trkpt>
      <trkpt lat="45.87916" lon="3.02034">
        <ele>576</ele>
        <time>2021-08-10T19:26:19Z</time>
      </trkpt>
      <trkpt lat="45.87915" lon="3.02035">
        <ele>576</ele>
        <time>2021-08-10T19:26:20Z</time>
      </trkpt>
      <trkpt lat="45.87915" lon="3.02036">
        <ele>576</ele>
        <time>2021-08-10T19:26:21Z</time>
      </trkpt>
      <trkpt lat="45.87915" lon="3.02037">
        <ele>576</ele>
        <time>2021-08-10T19:26:23Z</time>
      </trkpt>
      <trkpt lat="45.87912" lon="3.02046">
        <ele>576</ele>
        <time>2021-08-10T19:26:24Z</time>
      </trkpt>
      <trkpt lat="45.87912" lon="3.02047">
        <ele>576</ele>
        <time>2021-08-10T19:26:25Z</time>
      </trkpt>
      <trkpt lat="45.87911" lon="3.02048">
        <ele>576</ele>
        <time>2021-08-10T19:26:26Z</time>
      </trkpt>
      <trkpt lat="45.8791" lon="3.0205">
        <ele>576</ele>
        <time>2021-08-10T19:26:27Z</time>
      </trkpt>
      <trkpt lat="45.87908" lon="3.02052">
        <ele>576</ele>
        <time>2021-08-10T19:26:29Z</time>
      </trkpt>
      <trkpt lat="45.87903" lon="3.02062">
        <ele>576</ele>
        <time>2021-08-10T19:26:30Z</time>
      </trkpt>
      <trkpt lat="45.87902" lon="3.02063">
        <ele>576</ele>
        <time>2021-08-10T19:26:31Z</time>
      </trkpt>
      <trkpt lat="45.87901" lon="3.02064">
        <ele>576</ele>
        <time>2021-08-10T19:26:32Z</time>
      </trkpt>
      <trkpt lat="45.879" lon="3.02065">
        <ele>576</ele>
        <time>2021-08-10T19:26:33Z</time>
      </trkpt>
      <trkpt lat="45.87898" lon="3.02067">
        <ele>576</ele>
        <time>2021-08-10T19:26:34Z</time>
      </trkpt>
      <trkpt lat="45.87898" lon="3.02069">
        <ele>576</ele>
        <time>2021-08-10T19:26:35Z</time>
      </trkpt>
      <trkpt lat="45.87896" lon="3.0207">
        <ele>576</ele>
        <time>2021-08-10T19:26:37Z</time>
      </trkpt>
      <trkpt lat="45.87892" lon="3.02076">
        <ele>576</ele>
        <time>2021-08-10T19:26:39Z</time>
      </trkpt>
      <trkpt lat="45.87891" lon="3.02077">
        <ele>576</ele>
        <time>2021-08-10T19:26:40Z</time>
      </trkpt>
      <trkpt lat="45.87888" lon="3.02083">
        <ele>576</ele>
        <time>2021-08-10T19:26:42Z</time>
      </trkpt>
      <trkpt lat="45.87888" lon="3.02083">
        <ele>576</ele>
        <time>2021-08-10T19:26:43Z</time>
      </trkpt>
      <trkpt lat="45.87885" lon="3.0209">
        <ele>576</ele>
        <time>2021-08-10T19:26:44Z</time>
      </trkpt>
      <trkpt lat="45.87884" lon="3.02091">
        <ele>576</ele>
        <time>2021-08-10T19:26:45Z</time>
      </trkpt>
      <trkpt lat="45.87883" lon="3.02092">
        <ele>576</ele>
        <time>2021-08-10T19:26:47Z</time>
      </trkpt>
      <trkpt lat="45.8788" lon="3.02098">
        <ele>576</ele>
        <time>2021-08-10T19:26:48Z</time>
      </trkpt>
      <trkpt lat="45.8788" lon="3.02099">
        <ele>576</ele>
        <time>2021-08-10T19:26:49Z</time>
      </trkpt>
      <trkpt lat="45.8788" lon="3.021">
        <ele>576</ele>
        <time>2021-08-10T19:26:50Z</time>
      </trkpt>
      <trkpt lat="45.8788" lon="3.02102">
        <ele>576</ele>
        <time>2021-08-10T19:26:51Z</time>
      </trkpt>
      <trkpt lat="45.87878" lon="3.02104">
        <ele>576</ele>
        <time>2021-08-10T19:26:52Z</time>
      </trkpt>
      <trkpt lat="45.87877" lon="3.02106">
        <ele>576</ele>
        <time>2021-08-10T19:26:53Z</time>
      </trkpt>
      <trkpt lat="45.87876" lon="3.02108">
        <ele>576</ele>
        <time>2021-08-10T19:26:55Z</time>
      </trkpt>
      <trkpt lat="45.87871" lon="3.02117">
        <ele>576</ele>
        <time>2021-08-10T19:26:56Z</time>
      </trkpt>
      <trkpt lat="45.8787" lon="3.02118">
        <ele>576</ele>
        <time>2021-08-10T19:26:57Z</time>
      </trkpt>
      <trkpt lat="45.8787" lon="3.02119">
        <ele>576</ele>
        <time>2021-08-10T19:26:59Z</time>
      </trkpt>
      <trkpt lat="45.87865" lon="3.02126">
        <ele>576</ele>
        <time>2021-08-10T19:27:01Z</time>
      </trkpt>
      <trkpt lat="45.87864" lon="3.0213">
        <ele>576</ele>
        <time>2021-08-10T19:27:02Z</time>
      </trkpt>
      <trkpt lat="45.87864" lon="3.02131">
        <ele>576</ele>
        <time>2021-08-10T19:27:03Z</time>
      </trkpt>
      <trkpt lat="45.87863" lon="3.02132">
        <ele>576</ele>
        <time>2021-08-10T19:27:04Z</time>
      </trkpt>
      <trkpt lat="45.87862" lon="3.02133">
        <ele>576</ele>
        <time>2021-08-10T19:27:05Z</time>
      </trkpt>
      <trkpt lat="45.87861" lon="3.02134">
        <ele>576</ele>
        <time>2021-08-10T19:27:07Z</time>
      </trkpt>
      <trkpt lat="45.87856" lon="3.02139">
        <ele>576</ele>
        <time>2021-08-10T19:27:09Z</time>
      </trkpt>
      <trkpt lat="45.87853" lon="3.02142">
        <ele>576</ele>
        <time>2021-08-10T19:27:10Z</time>
      </trkpt>
      <trkpt lat="45.87852" lon="3.02143">
        <ele>576</ele>
        <time>2021-08-10T19:27:11Z</time>
      </trkpt>
      <trkpt lat="45.87851" lon="3.02143">
        <ele>576</ele>
        <time>2021-08-10T19:27:13Z</time>
      </trkpt>
      <trkpt lat="45.87844" lon="3.02147">
        <ele>576</ele>
        <time>2021-08-10T19:27:14Z</time>
      </trkpt>
      <trkpt lat="45.87844" lon="3.02147">
        <ele>576</ele>
        <time>2021-08-10T19:27:16Z</time>
      </trkpt>
      <trkpt lat="45.87838" lon="3.02151">
        <ele>576</ele>
        <time>2021-08-10T19:27:17Z</time>
      </trkpt>
      <trkpt lat="45.87838" lon="3.02151">
        <ele>576</ele>
        <time>2021-08-10T19:27:18Z</time>
      </trkpt>
      <trkpt lat="45.87838" lon="3.02152">
        <ele>576</ele>
        <time>2021-08-10T19:27:19Z</time>
      </trkpt>
      <trkpt lat="45.87837" lon="3.02153">
        <ele>576</ele>
        <time>2021-08-10T19:27:21Z</time>
      </trkpt>
      <trkpt lat="45.87832" lon="3.02158">
        <ele>576</ele>
        <time>2021-08-10T19:27:22Z</time>
      </trkpt>
      <trkpt lat="45.87832" lon="3.02158">
        <ele>576</ele>
        <time>2021-08-10T19:27:24Z</time>
      </trkpt>
      <trkpt lat="45.87828" lon="3.02163">
        <ele>576</ele>
        <time>2021-08-10T19:27:25Z</time>
      </trkpt>
      <trkpt lat="45.87827" lon="3.02163">
        <ele>576</ele>
        <time>2021-08-10T19:27:27Z</time>
      </trkpt>
      <trkpt lat="45.87825" lon="3.02166">
        <ele>576</ele>
        <time>2021-08-10T19:27:28Z</time>
      </trkpt>
      <trkpt lat="45.87824" lon="3.02167">
        <ele>576</ele>
        <time>2021-08-10T19:27:30Z</time>
      </trkpt>
      <trkpt lat="45.8782" lon="3.02171">
        <ele>576</ele>
        <time>2021-08-10T19:27:31Z</time>
      </trkpt>
      <trkpt lat="45.87819" lon="3.02172">
        <ele>576</ele>
        <time>2021-08-10T19:27:32Z</time>
      </trkpt>
      <trkpt lat="45.87815" lon="3.02175">
        <ele>576</ele>
        <time>2021-08-10T19:27:33Z</time>
      </trkpt>
      <trkpt lat="45.87814" lon="3.02176">
        <ele>576</ele>
        <time>2021-08-10T19:27:35Z</time>
      </trkpt>
      <trkpt lat="45.87808" lon="3.02181">
        <ele>576</ele>
        <time>2021-08-10T19:27:36Z</time>
      </trkpt>
      <trkpt lat="45.87808" lon="3.02181">
        <ele>576</ele>
        <time>2021-08-10T19:27:37Z</time>
      </trkpt>
      <trkpt lat="45.87807" lon="3.02182">
        <ele>576</ele>
        <time>2021-08-10T19:27:38Z</time>
      </trkpt>
      <trkpt lat="45.87806" lon="3.02183">
        <ele>576</ele>
        <time>2021-08-10T19:27:40Z</time>
      </trkpt>
      <trkpt lat="45.87805" lon="3.02183">
        <ele>576</ele>
        <time>2021-08-10T19:27:41Z</time>
      </trkpt>
      <trkpt lat="45.87804" lon="3.02184">
        <ele>576</ele>
        <time>2021-08-10T19:27:42Z</time>
      </trkpt>
      <trkpt lat="45.87799" lon="3.0219">
        <ele>576</ele>
        <time>2021-08-10T19:27:44Z</time>
      </trkpt>
      <trkpt lat="45.87796" lon="3.02192">
        <ele>576</ele>
        <time>2021-08-10T19:27:45Z</time>
      </trkpt>
      <trkpt lat="45.87796" lon="3.02192">
        <ele>576</ele>
        <time>2021-08-10T19:27:47Z</time>
      </trkpt>
      <trkpt lat="45.8779" lon="3.02196">
        <ele>576</ele>
        <time>2021-08-10T19:27:48Z</time>
      </trkpt>
      <trkpt lat="45.87789" lon="3.02197">
        <ele>576</ele>
        <time>2021-08-10T19:27:49Z</time>
      </trkpt>
      <trkpt lat="45.87788" lon="3.02197">
        <ele>576</ele>
        <time>2021-08-10T19:27:50Z</time>
      </trkpt>
      <trkpt lat="45.87787" lon="3.02197">
        <ele>576</ele>
        <time>2021-08-10T19:27:52Z</time>
      </trkpt>
      <trkpt lat="45.8778" lon="3.022">
        <ele>576</ele>
        <time>2021-08-10T19:27:53Z</time>
      </trkpt>
      <trkpt lat="45.8778" lon="3.022">
        <ele>576</ele>
        <time>2021-08-10T19:27:55Z</time>
      </trkpt>
      <trkpt lat="45.87775" lon="3.02202">
        <ele>576</ele>
        <time>2021-08-10T19:27:56Z</time>
      </trkpt>
      <trkpt lat="45.87775" lon="3.02202">
        <ele>576</ele>
        <time>2021-08-10T19:27:57Z</time>
      </trkpt>
      <trkpt lat="45.87774" lon="3.02203">
        <ele>576</ele>
        <time>2021-08-10T19:27:58Z</time>
      </trkpt>
      <trkpt lat="45.87774" lon="3.02203">
        <ele>576</ele>
        <time>2021-08-10T19:28:00Z</time>
      </trkpt>
      <trkpt lat="45.87768" lon="3.02206">
        <ele>576</ele>
        <time>2021-08-10T19:28:01Z</time>
      </trkpt>
      <trkpt lat="45.87767" lon="3.02206">
        <ele>576</ele>
        <time>2021-08-10T19:28:02Z</time>
      </trkpt>
      <trkpt lat="45.87767" lon="3.02206">
        <ele>576</ele>
        <time>2021-08-10T19:28:04Z</time>
      </trkpt>
      <trkpt lat="45.87762" lon="3.02207">
        <ele>576</ele>
        <time>2021-08-10T19:28:05Z</time>
      </trkpt>
      <trkpt lat="45.87761" lon="3.02207">
        <ele>576</ele>
        <time>2021-08-10T19:28:06Z</time>
      </trkpt>
      <trkpt lat="45.87761" lon="3.02207">
        <ele>576</ele>
        <time>2021-08-10T19:28:07Z</time>
      </trkpt>
      <trkpt lat="45.8776" lon="3.02207">
        <ele>576</ele>
        <time>2021-08-10T19:28:08Z</time>
      </trkpt>
      <trkpt lat="45.87759" lon="3.02207">
        <ele>576</ele>
        <time>2021-08-10T19:28:10Z</time>
      </trkpt>
      <trkpt lat="45.87753" lon="3.02207">
        <ele>576</ele>
        <time>2021-08-10T19:28:11Z</time>
      </trkpt>
      <trkpt lat="45.87751" lon="3.02207">
        <ele>576</ele>
        <time>2021-08-10T19:28:12Z</time>
      </trkpt>
      <trkpt lat="45.8775" lon="3.02207">
        <ele>576</ele>
        <time>2021-08-10T19:28:13Z</time>
      </trkpt>
      <trkpt lat="45.87749" lon="3.02207">
        <ele>576</ele>
        <time>2021-08-10T19:28:14Z</time>
      </trkpt>
      <trkpt lat="45.87747" lon="3.02207">
        <ele>576</ele>
        <time>2021-08-10T19:28:15Z</time>
      </trkpt>
      <trkpt lat="45.87745" lon="3.02207">
        <ele>576</ele>
        <time>2021-08-10T19:28:16Z</time>
      </trkpt>
      <trkpt lat="45.87743" lon="3.02208">
        <ele>576</ele>
        <time>2021-08-10T19:28:17Z</time>
      </trkpt>
      <trkpt lat="45.87741" lon="3.02208">
        <ele>576</ele>
        <time>2021-08-10T19:28:18Z</time>
      </trkpt>
      <trkpt lat="45.87739" lon="3.02209">
        <ele>576</ele>
        <time>2021-08-10T19:28:19Z</time>
      </trkpt>
      <trkpt lat="45.87737" lon="3.0221">
        <ele>576</ele>
        <time>2021-08-10T19:28:20Z</time>
      </trkpt>
      <trkpt lat="45.87735" lon="3.0221">
        <ele>576</ele>
        <time>2021-08-10T19:28:21Z</time>
      </trkpt>
      <trkpt lat="45.87733" lon="3.02211">
        <ele>576</ele>
        <time>2021-08-10T19:28:22Z</time>
      </trkpt>
      <trkpt lat="45.87732" lon="3.02211">
        <ele>576</ele>
        <time>2021-08-10T19:28:24Z</time>
      </trkpt>
      <trkpt lat="45.87724" lon="3.02211">
        <ele>576</ele>
        <time>2021-08-10T19:28:25Z</time>
      </trkpt>
      <trkpt lat="45.87723" lon="3.02212">
        <ele>576</ele>
        <time>2021-08-10T19:28:27Z</time>
      </trkpt>
      <trkpt lat="45.87718" lon="3.02212">
        <ele>576</ele>
        <time>2021-08-10T19:28:28Z</time>
      </trkpt>
      <trkpt lat="45.87717" lon="3.02212">
        <ele>576</ele>
        <time>2021-08-10T19:28:29Z</time>
      </trkpt>
      <trkpt lat="45.87716" lon="3.02212">
        <ele>576</ele>
        <time>2021-08-10T19:28:30Z</time>
      </trkpt>
      <trkpt lat="45.87714" lon="3.02212">
        <ele>576</ele>
        <time>2021-08-10T19:28:32Z</time>
      </trkpt>
      <trkpt lat="45.87708" lon="3.02213">
        <ele>576</ele>
        <time>2021-08-10T19:28:33Z</time>
      </trkpt>
      <trkpt lat="45.87708" lon="3.02214">
        <ele>576</ele>
        <time>2021-08-10T19:28:35Z</time>
      </trkpt>
      <trkpt lat="45.87702" lon="3.02214">
        <ele>576</ele>
        <time>2021-08-10T19:28:36Z</time>
      </trkpt>
      <trkpt lat="45.87701" lon="3.02214">
        <ele>576</ele>
        <time>2021-08-10T19:28:38Z</time>
      </trkpt>
      <trkpt lat="45.87695" lon="3.02216">
        <ele>576</ele>
        <time>2021-08-10T19:28:40Z</time>
      </trkpt>
      <trkpt lat="45.87691" lon="3.02218">
        <ele>576</ele>
        <time>2021-08-10T19:28:42Z</time>
      </trkpt>
      <trkpt lat="45.8769" lon="3.02218">
        <ele>576</ele>
        <time>2021-08-10T19:28:43Z</time>
      </trkpt>
      <trkpt lat="45.87685" lon="3.02219">
        <ele>576</ele>
        <time>2021-08-10T19:28:44Z</time>
      </trkpt>
      <trkpt lat="45.87685" lon="3.02219">
        <ele>576</ele>
        <time>2021-08-10T19:28:45Z</time>
      </trkpt>
      <trkpt lat="45.87684" lon="3.02219">
        <ele>576</ele>
        <time>2021-08-10T19:28:46Z</time>
      </trkpt>
      <trkpt lat="45.87683" lon="3.0222">
        <ele>576</ele>
        <time>2021-08-10T19:28:48Z</time>
      </trkpt>
      <trkpt lat="45.87675" lon="3.02223">
        <ele>576</ele>
        <time>2021-08-10T19:28:49Z</time>
      </trkpt>
      <trkpt lat="45.87675" lon="3.02223">
        <ele>576</ele>
        <time>2021-08-10T19:28:50Z</time>
      </trkpt>
      <trkpt lat="45.87674" lon="3.02223">
        <ele>576</ele>
        <time>2021-08-10T19:28:51Z</time>
      </trkpt>
      <trkpt lat="45.87672" lon="3.02224">
        <ele>576</ele>
        <time>2021-08-10T19:28:52Z</time>
      </trkpt>
      <trkpt lat="45.87672" lon="3.02225">
        <ele>576</ele>
        <time>2021-08-10T19:28:54Z</time>
      </trkpt>
      <trkpt lat="45.87666" lon="3.02229">
        <ele>576</ele>
        <time>2021-08-10T19:28:56Z</time>
      </trkpt>
      <trkpt lat="45.87663" lon="3.0223">
        <ele>576</ele>
        <time>2021-08-10T19:28:57Z</time>
      </trkpt>
      <trkpt lat="45.87663" lon="3.0223">
        <ele>576</ele>
        <time>2021-08-10T19:28:58Z</time>
      </trkpt>
      <trkpt lat="45.87663" lon="3.02231">
        <ele>576</ele>
        <time>2021-08-10T19:28:59Z</time>
      </trkpt>
      <trkpt lat="45.87661" lon="3.02232">
        <ele>576</ele>
        <time>2021-08-10T19:29:00Z</time>
      </trkpt>
      <trkpt lat="45.8766" lon="3.02233">
        <ele>576</ele>
        <time>2021-08-10T19:29:02Z</time>
      </trkpt>
      <trkpt lat="45.87654" lon="3.02237">
        <ele>576</ele>
        <time>2021-08-10T19:29:03Z</time>
      </trkpt>
      <trkpt lat="45.87654" lon="3.02237">
        <ele>576</ele>
        <time>2021-08-10T19:29:05Z</time>
      </trkpt>
      <trkpt lat="45.87651" lon="3.02241">
        <ele>576</ele>
        <time>2021-08-10T19:29:06Z</time>
      </trkpt>
      <trkpt lat="45.8765" lon="3.02241">
        <ele>576</ele>
        <time>2021-08-10T19:29:07Z</time>
      </trkpt>
      <trkpt lat="45.87649" lon="3.02242">
        <ele>576</ele>
        <time>2021-08-10T19:29:08Z</time>
      </trkpt>
      <trkpt lat="45.87648" lon="3.02243">
        <ele>576</ele>
        <time>2021-08-10T19:29:10Z</time>
      </trkpt>
      <trkpt lat="45.87642" lon="3.02248">
        <ele>576</ele>
        <time>2021-08-10T19:29:11Z</time>
      </trkpt>
      <trkpt lat="45.87642" lon="3.02249">
        <ele>576</ele>
        <time>2021-08-10T19:29:13Z</time>
      </trkpt>
      <trkpt lat="45.87638" lon="3.02255">
        <ele>576</ele>
        <time>2021-08-10T19:29:14Z</time>
      </trkpt>
      <trkpt lat="45.87638" lon="3.02255">
        <ele>576</ele>
        <time>2021-08-10T19:29:15Z</time>
      </trkpt>
      <trkpt lat="45.87637" lon="3.02256">
        <ele>576</ele>
        <time>2021-08-10T19:29:16Z</time>
      </trkpt>
      <trkpt lat="45.87636" lon="3.02258">
        <ele>576</ele>
        <time>2021-08-10T19:29:18Z</time>
      </trkpt>
      <trkpt lat="45.87632" lon="3.02265">
        <ele>576</ele>
        <time>2021-08-10T19:29:19Z</time>
      </trkpt>
      <trkpt lat="45.87631" lon="3.02266">
        <ele>576</ele>
        <time>2021-08-10T19:29:20Z</time>
      </trkpt>
      <trkpt lat="45.87631" lon="3.02267">
        <ele>576</ele>
        <time>2021-08-10T19:29:21Z</time>
      </trkpt>
      <trkpt lat="45.8763" lon="3.02269">
        <ele>576</ele>
        <time>2021-08-10T19:29:22Z</time>
      </trkpt>
      <trkpt lat="45.87629" lon="3.02271">
        <ele>576</ele>
        <time>2021-08-10T19:29:24Z</time>
      </trkpt>
      <trkpt lat="45.87624" lon="3.02279">
        <ele>576</ele>
        <time>2021-08-10T19:29:25Z</time>
      </trkpt>
      <trkpt lat="45.87624" lon="3.0228">
        <ele>576</ele>
        <time>2021-08-10T19:29:26Z</time>
      </trkpt>
      <trkpt lat="45.87624" lon="3.02281">
        <ele>576</ele>
        <time>2021-08-10T19:29:27Z</time>
      </trkpt>
      <trkpt lat="45.87623" lon="3.02283">
        <ele>576</ele>
        <time>2021-08-10T19:29:28Z</time>
      </trkpt>
      <trkpt lat="45.87623" lon="3.02284">
        <ele>576</ele>
        <time>2021-08-10T19:29:30Z</time>
      </trkpt>
      <trkpt lat="45.87619" lon="3.02292">
        <ele>576</ele>
        <time>2021-08-10T19:29:31Z</time>
      </trkpt>
      <trkpt lat="45.87619" lon="3.02293">
        <ele>576</ele>
        <time>2021-08-10T19:29:33Z</time>
      </trkpt>
      <trkpt lat="45.87617" lon="3.023">
        <ele>576</ele>
        <time>2021-08-10T19:29:34Z</time>
      </trkpt>
      <trkpt lat="45.87617" lon="3.023">
        <ele>576</ele>
        <time>2021-08-10T19:29:35Z</time>
      </trkpt>
      <trkpt lat="45.87616" lon="3.02301">
        <ele>576</ele>
        <time>2021-08-10T19:29:36Z</time>
      </trkpt>
      <trkpt lat="45.87616" lon="3.02303">
        <ele>576</ele>
        <time>2021-08-10T19:29:38Z</time>
      </trkpt>
      <trkpt lat="45.87614" lon="3.02312">
        <ele>576</ele>
        <time>2021-08-10T19:29:39Z</time>
      </trkpt>
      <trkpt lat="45.87614" lon="3.02313">
        <ele>576</ele>
        <time>2021-08-10T19:29:41Z</time>
      </trkpt>
      <trkpt lat="45.87614" lon="3.02315">
        <ele>576</ele>
        <time>2021-08-10T19:29:42Z</time>
      </trkpt>
      <trkpt lat="45.87614" lon="3.02322">
        <ele>576</ele>
        <time>2021-08-10T19:29:43Z</time>
      </trkpt>
      <trkpt lat="45.87614" lon="3.02323">
        <ele>576</ele>
        <time>2021-08-10T19:29:44Z</time>
      </trkpt>
      <trkpt lat="45.87613" lon="3.02324">
        <ele>576</ele>
        <time>2021-08-10T19:29:46Z</time>
      </trkpt>
      <trkpt lat="45.87613" lon="3.02335">
        <ele>576</ele>
        <time>2021-08-10T19:29:47Z</time>
      </trkpt>
      <trkpt lat="45.87612" lon="3.02335">
        <ele>576</ele>
        <time>2021-08-10T19:29:49Z</time>
      </trkpt>
      <trkpt lat="45.87612" lon="3.02341">
        <ele>576</ele>
        <time>2021-08-10T19:29:50Z</time>
      </trkpt>
      <trkpt lat="45.87612" lon="3.02342">
        <ele>576</ele>
        <time>2021-08-10T19:29:51Z</time>
      </trkpt>
      <trkpt lat="45.87612" lon="3.02343">
        <ele>576</ele>
        <time>2021-08-10T19:29:52Z</time>
      </trkpt>
      <trkpt lat="45.87612" lon="3.02345">
        <ele>576</ele>
        <time>2021-08-10T19:29:54Z</time>
      </trkpt>
      <trkpt lat="45.87611" lon="3.02356">
        <ele>576</ele>
        <time>2021-08-10T19:29:55Z</time>
      </trkpt>
      <trkpt lat="45.87611" lon="3.02356">
        <ele>576</ele>
        <time>2021-08-10T19:29:57Z</time>
      </trkpt>
      <trkpt lat="45.87611" lon="3.02364">
        <ele>576</ele>
        <time>2021-08-10T19:29:58Z</time>
      </trkpt>
      <trkpt lat="45.87611" lon="3.02365">
        <ele>576</ele>
        <time>2021-08-10T19:30:00Z</time>
      </trkpt>
      <trkpt lat="45.87611" lon="3.02373">
        <ele>576</ele>
        <time>2021-08-10T19:30:02Z</time>
      </trkpt>
      <trkpt lat="45.87611" lon="3.02377">
        <ele>576</ele>
        <time>2021-08-10T19:30:03Z</time>
      </trkpt>
      <trkpt lat="45.87611" lon="3.02377">
        <ele>576</ele>
        <time>2021-08-10T19:30:04Z</time>
      </trkpt>
      <trkpt lat="45.87611" lon="3.02379">
        <ele>576</ele>
        <time>2021-08-10T19:30:05Z</time>
      </trkpt>
      <trkpt lat="45.87611" lon="3.02381">
        <ele>576</ele>
        <time>2021-08-10T19:30:06Z</time>
      </trkpt>
      <trkpt lat="45.87611" lon="3.02384">
        <ele>576</ele>
        <time>2021-08-10T19:30:08Z</time>
      </trkpt>
      <trkpt lat="45.87609" lon="3.02392">
        <ele>576</ele>
        <time>2021-08-10T19:30:09Z</time>
      </trkpt>
      <trkpt lat="45.87609" lon="3.02392">
        <ele>576</ele>
        <time>2021-08-10T19:30:11Z</time>
      </trkpt>
      <trkpt lat="45.87609" lon="3.02398">
        <ele>576</ele>
        <time>2021-08-10T19:30:12Z</time>
      </trkpt>
      <trkpt lat="45.87609" lon="3.02399">
        <ele>576</ele>
        <time>2021-08-10T19:30:13Z</time>
      </trkpt>
      <trkpt lat="45.8761" lon="3.02401">
        <ele>576</ele>
        <time>2021-08-10T19:30:14Z</time>
      </trkpt>
      <trkpt lat="45.8761" lon="3.02403">
        <ele>576</ele>
        <time>2021-08-10T19:30:16Z</time>
      </trkpt>
      <trkpt lat="45.8761" lon="3.02412">
        <ele>576</ele>
        <time>2021-08-10T19:30:17Z</time>
      </trkpt>
      <trkpt lat="45.8761" lon="3.02413">
        <ele>576</ele>
        <time>2021-08-10T19:30:19Z</time>
      </trkpt>
      <trkpt lat="45.8761" lon="3.02422">
        <ele>576</ele>
        <time>2021-08-10T19:30:20Z</time>
      </trkpt>
      <trkpt lat="45.8761" lon="3.02423">
        <ele>576</ele>
        <time>2021-08-10T19:30:21Z</time>
      </trkpt>
      <trkpt lat="45.8761" lon="3.02424">
        <ele>576</ele>
        <time>2021-08-10T19:30:22Z</time>
      </trkpt>
      <trkpt lat="45.8761" lon="3.02426">
        <ele>576</ele>
        <time>2021-08-10T19:30:24Z</time>
      </trkpt>
      <trkpt lat="45.87609" lon="3.02435">
        <ele>576</ele>
        <time>2021-08-10T19:30:25Z</time>
      </trkpt>
      <trkpt lat="45.87609" lon="3.02436">
        <ele>576</ele>
        <time>2021-08-10T19:30:26Z</time>
      </trkpt>
      <trkpt lat="45.87609" lon="3.02438">
        <ele>576</ele>
        <time>2021-08-10T19:30:27Z</time>
      </trkpt>
      <trkpt lat="45.87609" lon="3.0244">
        <ele>576</ele>
        <time>2021-08-10T19:30:28Z</time>
      </trkpt>
      <trkpt lat="45.87609" lon="3.02441">
        <ele>576</ele>
        <time>2021-08-10T19:30:30Z</time>
      </trkpt>
      <trkpt lat="45.87609" lon="3.0245">
        <ele>576</ele>
        <time>2021-08-10T19:30:32Z</time>
      </trkpt>
      <trkpt lat="45.87609" lon="3.02456">
        <ele>576</ele>
        <time>2021-08-10T19:30:33Z</time>
      </trkpt>
      <trkpt lat="45.87609" lon="3.02457">
        <ele>576</ele>
        <time>2021-08-10T19:30:34Z</time>
      </trkpt>
      <trkpt lat="45.87609" lon="3.02458">
        <ele>576</ele>
        <time>2021-08-10T19:30:36Z</time>
      </trkpt>
      <trkpt lat="45.87609" lon="3.02465">
        <ele>576</ele>
        <time>2021-08-10T19:30:37Z</time>
      </trkpt>
      <trkpt lat="45.87609" lon="3.02465">
        <ele>576</ele>
        <time>2021-08-10T19:30:39Z</time>
      </trkpt>
      <trkpt lat="45.87609" lon="3.02467">
        <ele>576</ele>
        <time>2021-08-10T19:30:41Z</time>
      </trkpt>
      <trkpt lat="45.87609" lon="3.02477">
        <ele>576</ele>
        <time>2021-08-10T19:30:42Z</time>
      </trkpt>
      <trkpt lat="45.87609" lon="3.0248">
        <ele>576</ele>
        <time>2021-08-10T19:30:43Z</time>
      </trkpt>
      <trkpt lat="45.87609" lon="3.02481">
        <ele>576</ele>
        <time>2021-08-10T19:30:45Z</time>
      </trkpt>
      <trkpt lat="45.87607" lon="3.02489">
        <ele>576</ele>
        <time>2021-08-10T19:30:46Z</time>
      </trkpt>
      <trkpt lat="45.87607" lon="3.0249">
        <ele>576</ele>
        <time>2021-08-10T19:30:47Z</time>
      </trkpt>
      <trkpt lat="45.87606" lon="3.02491">
        <ele>576</ele>
        <time>2021-08-10T19:30:48Z</time>
      </trkpt>
      <trkpt lat="45.87606" lon="3.02493">
        <ele>576</ele>
        <time>2021-08-10T19:30:50Z</time>
      </trkpt>
      <trkpt lat="45.87605" lon="3.02501">
        <ele>576</ele>
        <time>2021-08-10T19:30:51Z</time>
      </trkpt>
      <trkpt lat="45.87605" lon="3.02502">
        <ele>576</ele>
        <time>2021-08-10T19:30:52Z</time>
      </trkpt>
      <trkpt lat="45.87605" lon="3.02504">
        <ele>576</ele>
        <time>2021-08-10T19:30:53Z</time>
      </trkpt>
      <trkpt lat="45.87604" lon="3.02506">
        <ele>576</ele>
        <time>2021-08-10T19:30:54Z</time>
      </trkpt>
      <trkpt lat="45.87604" lon="3.02508">
        <ele>576</ele>
        <time>2021-08-10T19:30:56Z</time>
      </trkpt>
      <trkpt lat="45.87603" lon="3.02518">
        <ele>576</ele>
        <time>2021-08-10T19:30:57Z</time>
      </trkpt>
      <trkpt lat="45.87603" lon="3.02518">
        <ele>576</ele>
        <time>2021-08-10T19:30:59Z</time>
      </trkpt>
      <trkpt lat="45.876" lon="3.02526">
        <ele>576</ele>
        <time>2021-08-10T19:31:00Z</time>
      </trkpt>
      <trkpt lat="45.876" lon="3.02526">
        <ele>576</ele>
        <time>2021-08-10T19:31:02Z</time>
      </trkpt>
      <trkpt lat="45.87598" lon="3.02531">
        <ele>576</ele>
        <time>2021-08-10T19:31:04Z</time>
      </trkpt>
      <trkpt lat="45.87595" lon="3.02535">
        <ele>576</ele>
        <time>2021-08-10T19:31:05Z</time>
      </trkpt>
      <trkpt lat="45.87595" lon="3.02536">
        <ele>576</ele>
        <time>2021-08-10T19:31:07Z</time>
      </trkpt>
      <trkpt lat="45.87594" lon="3.0254">
        <ele>576</ele>
        <time>2021-08-10T19:31:08Z</time>
      </trkpt>
      <trkpt lat="45.87594" lon="3.02541">
        <ele>576</ele>
        <time>2021-08-10T19:31:10Z</time>
      </trkpt>
      <trkpt lat="45.87591" lon="3.02546">
        <ele>576</ele>
        <time>2021-08-10T19:31:12Z</time>
      </trkpt>
      <trkpt lat="45.87589" lon="3.02551">
        <ele>576</ele>
        <time>2021-08-10T19:31:13Z</time>
      </trkpt>
      <trkpt lat="45.87588" lon="3.02552">
        <ele>576</ele>
        <time>2021-08-10T19:31:14Z</time>
      </trkpt>
      <trkpt lat="45.87588" lon="3.02553">
        <ele>576</ele>
        <time>2021-08-10T19:31:16Z</time>
      </trkpt>
      <trkpt lat="45.87584" lon="3.02558">
        <ele>576</ele>
        <time>2021-08-10T19:31:18Z</time>
      </trkpt>
      <trkpt lat="45.8758" lon="3.02563">
        <ele>576</ele>
        <time>2021-08-10T19:31:19Z</time>
      </trkpt>
      <trkpt lat="45.8758" lon="3.02563">
        <ele>576</ele>
        <time>2021-08-10T19:31:20Z</time>
      </trkpt>
      <trkpt lat="45.87579" lon="3.02564">
        <ele>576</ele>
        <time>2021-08-10T19:31:22Z</time>
      </trkpt>
      <trkpt lat="45.87577" lon="3.02568">
        <ele>576</ele>
        <time>2021-08-10T19:31:23Z</time>
      </trkpt>
      <trkpt lat="45.87576" lon="3.02569">
        <ele>576</ele>
        <time>2021-08-10T19:31:25Z</time>
      </trkpt>
      <trkpt lat="45.8757" lon="3.02575">
        <ele>576</ele>
        <time>2021-08-10T19:31:26Z</time>
      </trkpt>
      <trkpt lat="45.87569" lon="3.02575">
        <ele>576</ele>
        <time>2021-08-10T19:31:27Z</time>
      </trkpt>
      <trkpt lat="45.87569" lon="3.02576">
        <ele>576</ele>
        <time>2021-08-10T19:31:28Z</time>
      </trkpt>
      <trkpt lat="45.87568" lon="3.02577">
        <ele>576</ele>
        <time>2021-08-10T19:31:29Z</time>
      </trkpt>
      <trkpt lat="45.87567" lon="3.02578">
        <ele>576</ele>
        <time>2021-08-10T19:31:31Z</time>
      </trkpt>
      <trkpt lat="45.8756" lon="3.02583">
        <ele>576</ele>
        <time>2021-08-10T19:31:32Z</time>
      </trkpt>
      <trkpt lat="45.8756" lon="3.02584">
        <ele>576</ele>
        <time>2021-08-10T19:31:33Z</time>
      </trkpt>
      <trkpt lat="45.87558" lon="3.02584">
        <ele>576</ele>
        <time>2021-08-10T19:31:34Z</time>
      </trkpt>
      <trkpt lat="45.87557" lon="3.02585">
        <ele>576</ele>
        <time>2021-08-10T19:31:36Z</time>
      </trkpt>
      <trkpt lat="45.87556" lon="3.02586">
        <ele>576</ele>
        <time>2021-08-10T19:31:37Z</time>
      </trkpt>
      <trkpt lat="45.8755" lon="3.02589">
        <ele>576</ele>
        <time>2021-08-10T19:31:38Z</time>
      </trkpt>
      <trkpt lat="45.87549" lon="3.0259">
        <ele>576</ele>
        <time>2021-08-10T19:31:40Z</time>
      </trkpt>
      <trkpt lat="45.87549" lon="3.0259">
        <ele>576</ele>
        <time>2021-08-10T19:31:41Z</time>
      </trkpt>
      <trkpt lat="45.87547" lon="3.02591">
        <ele>576</ele>
        <time>2021-08-10T19:31:42Z</time>
      </trkpt>
      <trkpt lat="45.87546" lon="3.02592">
        <ele>576</ele>
        <time>2021-08-10T19:31:43Z</time>
      </trkpt>
      <trkpt lat="45.8754" lon="3.02596">
        <ele>576</ele>
        <time>2021-08-10T19:31:44Z</time>
      </trkpt>
      <trkpt lat="45.87539" lon="3.02596">
        <ele>576</ele>
        <time>2021-08-10T19:31:45Z</time>
      </trkpt>
      <trkpt lat="45.87539" lon="3.02597">
        <ele>576</ele>
        <time>2021-08-10T19:31:46Z</time>
      </trkpt>
      <trkpt lat="45.87537" lon="3.02598">
        <ele>576</ele>
        <time>2021-08-10T19:31:47Z</time>
      </trkpt>
      <trkpt lat="45.87536" lon="3.02598">
        <ele>576</ele>
        <time>2021-08-10T19:31:48Z</time>
      </trkpt>
      <trkpt lat="45.87531" lon="3.02601">
        <ele>576</ele>
        <time>2021-08-10T19:31:49Z</time>
      </trkpt>
      <trkpt lat="45.8753" lon="3.02601">
        <ele>576</ele>
        <time>2021-08-10T19:31:50Z</time>
      </trkpt>
      <trkpt lat="45.87529" lon="3.02601">
        <ele>576</ele>
        <time>2021-08-10T19:31:51Z</time>
      </trkpt>
      <trkpt lat="45.87528" lon="3.02602">
        <ele>576</ele>
        <time>2021-08-10T19:31:53Z</time>
      </trkpt>
      <trkpt lat="45.87524" lon="3.02606">
        <ele>576</ele>
        <time>2021-08-10T19:31:54Z</time>
      </trkpt>
      <trkpt lat="45.87524" lon="3.02606">
        <ele>576</ele>
        <time>2021-08-10T19:31:55Z</time>
      </trkpt>
      <trkpt lat="45.87523" lon="3.02607">
        <ele>576</ele>
        <time>2021-08-10T19:31:57Z</time>
      </trkpt>
      <trkpt lat="45.87518" lon="3.02612">
        <ele>576</ele>
        <time>2021-08-10T19:31:59Z</time>
      </trkpt>
      <trkpt lat="45.87515" lon="3.02614">
        <ele>576</ele>
        <time>2021-08-10T19:32:00Z</time>
      </trkpt>
      <trkpt lat="45.87514" lon="3.02614">
        <ele>576</ele>
        <time>2021-08-10T19:32:02Z</time>
      </trkpt>
      <trkpt lat="45.8751" lon="3.02616">
        <ele>576</ele>
        <time>2021-08-10T19:32:03Z</time>
      </trkpt>
      <trkpt lat="45.8751" lon="3.02617">
        <ele>576</ele>
        <time>2021-08-10T19:32:05Z</time>
      </trkpt>
      <trkpt lat="45.87505" lon="3.0262">
        <ele>576</ele>
        <time>2021-08-10T19:32:07Z</time>
      </trkpt>
      <trkpt lat="45.87503" lon="3.02623">
        <ele>576</ele>
        <time>2021-08-10T19:32:08Z</time>
      </trkpt>
      <trkpt lat="45.87503" lon="3.02623">
        <ele>576</ele>
        <time>2021-08-10T19:32:09Z</time>
      </trkpt>
      <trkpt lat="45.87502" lon="3.02624">
        <ele>576</ele>
        <time>2021-08-10T19:32:10Z</time>
      </trkpt>
      <trkpt lat="45.875" lon="3.02625">
        <ele>576</ele>
        <time>2021-08-10T19:32:11Z</time>
      </trkpt>
      <trkpt lat="45.875" lon="3.02627">
        <ele>576</ele>
        <time>2021-08-10T19:32:13Z</time>
      </trkpt>
      <trkpt lat="45.87495" lon="3.02635">
        <ele>576</ele>
        <time>2021-08-10T19:32:14Z</time>
      </trkpt>
      <trkpt lat="45.87494" lon="3.02635">
        <ele>576</ele>
        <time>2021-08-10T19:32:16Z</time>
      </trkpt>
      <trkpt lat="45.87491" lon="3.0264">
        <ele>576</ele>
        <time>2021-08-10T19:32:17Z</time>
      </trkpt>
      <trkpt lat="45.87491" lon="3.0264">
        <ele>576</ele>
        <time>2021-08-10T19:32:18Z</time>
      </trkpt>
      <trkpt lat="45.87491" lon="3.02642">
        <ele>576</ele>
        <time>2021-08-10T19:32:19Z</time>
      </trkpt>
      <trkpt lat="45.87489" lon="3.02643">
        <ele>576</ele>
        <time>2021-08-10T19:32:21Z</time>
      </trkpt>
      <trkpt lat="45.87486" lon="3.0265">
        <ele>576</ele>
        <time>2021-08-10T19:32:22Z</time>
      </trkpt>
      <trkpt lat="45.87486" lon="3.0265">
        <ele>576</ele>
        <time>2021-08-10T19:32:24Z</time>
      </trkpt>
      <trkpt lat="45.87482" lon="3.02656">
        <ele>576</ele>
        <time>2021-08-10T19:32:25Z</time>
      </trkpt>
      <trkpt lat="45.87482" lon="3.02657">
        <ele>576</ele>
        <time>2021-08-10T19:32:26Z</time>
      </trkpt>
      <trkpt lat="45.87481" lon="3.02658">
        <ele>576</ele>
        <time>2021-08-10T19:32:27Z</time>
      </trkpt>
      <trkpt lat="45.87481" lon="3.02659">
        <ele>576</ele>
        <time>2021-08-10T19:32:29Z</time>
      </trkpt>
      <trkpt lat="45.87477" lon="3.02665">
        <ele>576</ele>
        <time>2021-08-10T19:32:30Z</time>
      </trkpt>
      <trkpt lat="45.87476" lon="3.02665">
        <ele>576</ele>
        <time>2021-08-10T19:32:31Z</time>
      </trkpt>
      <trkpt lat="45.87476" lon="3.02667">
        <ele>576</ele>
        <time>2021-08-10T19:32:33Z</time>
      </trkpt>
      <trkpt lat="45.87472" lon="3.02675">
        <ele>576</ele>
        <time>2021-08-10T19:32:34Z</time>
      </trkpt>
      <trkpt lat="45.87471" lon="3.02675">
        <ele>576</ele>
        <time>2021-08-10T19:32:35Z</time>
      </trkpt>
      <trkpt lat="45.87471" lon="3.02676">
        <ele>576</ele>
        <time>2021-08-10T19:32:36Z</time>
      </trkpt>
      <trkpt lat="45.87471" lon="3.02677">
        <ele>576</ele>
        <time>2021-08-10T19:32:37Z</time>
      </trkpt>
      <trkpt lat="45.8747" lon="3.02679">
        <ele>576</ele>
        <time>2021-08-10T19:32:39Z</time>
      </trkpt>
      <trkpt lat="45.8747" lon="3.02681">
        <ele>576</ele>
        <time>2021-08-10T19:32:40Z</time>
      </trkpt>
      <trkpt lat="45.8747" lon="3.02683">
        <ele>576</ele>
        <time>2021-08-10T19:32:41Z</time>
      </trkpt>
      <trkpt lat="45.87467" lon="3.02694">
        <ele>576</ele>
        <time>2021-08-10T19:32:43Z</time>
      </trkpt>
      <trkpt lat="45.87467" lon="3.02698">
        <ele>576</ele>
        <time>2021-08-10T19:32:44Z</time>
      </trkpt>
      <trkpt lat="45.87467" lon="3.02698">
        <ele>576</ele>
        <time>2021-08-10T19:32:46Z</time>
      </trkpt>
      <trkpt lat="45.87465" lon="3.02705">
        <ele>576</ele>
        <time>2021-08-10T19:32:47Z</time>
      </trkpt>
      <trkpt lat="45.87465" lon="3.02706">
        <ele>576</ele>
        <time>2021-08-10T19:32:49Z</time>
      </trkpt>
      <trkpt lat="45.87466" lon="3.02713">
        <ele>576</ele>
        <time>2021-08-10T19:32:51Z</time>
      </trkpt>
      <trkpt lat="45.87465" lon="3.02717">
        <ele>576</ele>
        <time>2021-08-10T19:32:52Z</time>
      </trkpt>
      <trkpt lat="45.87465" lon="3.02717">
        <ele>576</ele>
        <time>2021-08-10T19:32:53Z</time>
      </trkpt>
      <trkpt lat="45.87465" lon="3.02719">
        <ele>576</ele>
        <time>2021-08-10T19:32:54Z</time>
      </trkpt>
      <trkpt lat="45.87465" lon="3.02721">
        <ele>576</ele>
        <time>2021-08-10T19:32:55Z</time>
      </trkpt>
      <trkpt lat="45.87465" lon="3.02723">
        <ele>576</ele>
        <time>2021-08-10T19:32:57Z</time>
      </trkpt>
      <trkpt lat="45.87464" lon="3.02734">
        <ele>576</ele>
        <time>2021-08-10T19:32:58Z</time>
      </trkpt>
      <trkpt lat="45.87464" lon="3.02734">
        <ele>576</ele>
        <time>2021-08-10T19:32:59Z</time>
      </trkpt>
      <trkpt lat="45.87465" lon="3.02735">
        <ele>576</ele>
        <time>2021-08-10T19:33:00Z</time>
      </trkpt>
      <trkpt lat="45.87465" lon="3.02737">
        <ele>576</ele>
        <time>2021-08-10T19:33:01Z</time>
      </trkpt>
      <trkpt lat="45.87465" lon="3.02739">
        <ele>576</ele>
        <time>2021-08-10T19:33:03Z</time>
      </trkpt>
      <trkpt lat="45.87466" lon="3.02751">
        <ele>576</ele>
        <time>2021-08-10T19:33:05Z</time>
      </trkpt>
      <trkpt lat="45.87466" lon="3.02752">
        <ele>576</ele>
        <time>2021-08-10T19:33:06Z</time>
      </trkpt>
      <trkpt lat="45.87467" lon="3.02757">
        <ele>576</ele>
        <time>2021-08-10T19:33:07Z</time>
      </trkpt>
      <trkpt lat="45.87467" lon="3.02758">
        <ele>576</ele>
        <time>2021-08-10T19:33:09Z</time>
      </trkpt>
      <trkpt lat="45.87468" lon="3.02765">
        <ele>576</ele>
        <time>2021-08-10T19:33:11Z</time>
      </trkpt>
      <trkpt lat="45.87469" lon="3.02771">
        <ele>576</ele>
        <time>2021-08-10T19:33:12Z</time>
      </trkpt>
      <trkpt lat="45.8747" lon="3.02772">
        <ele>576</ele>
        <time>2021-08-10T19:33:13Z</time>
      </trkpt>
      <trkpt lat="45.8747" lon="3.02773">
        <ele>576</ele>
        <time>2021-08-10T19:33:14Z</time>
      </trkpt>
      <trkpt lat="45.8747" lon="3.02774">
        <ele>576</ele>
        <time>2021-08-10T19:33:15Z</time>
      </trkpt>
      <trkpt lat="45.8747" lon="3.02776">
        <ele>576</ele>
        <time>2021-08-10T19:33:17Z</time>
      </trkpt>
      <trkpt lat="45.87473" lon="3.02785">
        <ele>576</ele>
        <time>2021-08-10T19:33:19Z</time>
      </trkpt>
      <trkpt lat="45.87474" lon="3.0279">
        <ele>576</ele>
        <time>2021-08-10T19:33:20Z</time>
      </trkpt>
      <trkpt lat="45.87474" lon="3.0279">
        <ele>576</ele>
        <time>2021-08-10T19:33:21Z</time>
      </trkpt>
      <trkpt lat="45.87475" lon="3.02791">
        <ele>576</ele>
        <time>2021-08-10T19:33:22Z</time>
      </trkpt>
      <trkpt lat="45.87476" lon="3.02792">
        <ele>576</ele>
        <time>2021-08-10T19:33:23Z</time>
      </trkpt>
      <trkpt lat="45.87476" lon="3.02794">
        <ele>576</ele>
        <time>2021-08-10T19:33:25Z</time>
      </trkpt>
      <trkpt lat="45.87481" lon="3.02801">
        <ele>576</ele>
        <time>2021-08-10T19:33:26Z</time>
      </trkpt>
      <trkpt lat="45.87482" lon="3.02802">
        <ele>576</ele>
        <time>2021-08-10T19:33:28Z</time>
      </trkpt>
      <trkpt lat="45.87485" lon="3.02807">
        <ele>576</ele>
        <time>2021-08-10T19:33:29Z</time>
      </trkpt>
      <trkpt lat="45.87485" lon="3.02808">
        <ele>576</ele>
        <time>2021-08-10T19:33:30Z</time>
      </trkpt>
      <trkpt lat="45.87486" lon="3.02809">
        <ele>576</ele>
        <time>2021-08-10T19:33:31Z</time>
      </trkpt>
      <trkpt lat="45.87486" lon="3.0281">
        <ele>576</ele>
        <time>2021-08-10T19:33:32Z</time>
      </trkpt>
      <trkpt lat="45.87487" lon="3.02811">
        <ele>576</ele>
        <time>2021-08-10T19:33:34Z</time>
      </trkpt>
      <trkpt lat="45.87491" lon="3.02819">
        <ele>576</ele>
        <time>2021-08-10T19:33:35Z</time>
      </trkpt>
      <trkpt lat="45.87491" lon="3.0282">
        <ele>576</ele>
        <time>2021-08-10T19:33:37Z</time>
      </trkpt>
      <trkpt lat="45.87494" lon="3.02825">
        <ele>576</ele>
        <time>2021-08-10T19:33:39Z</time>
      </trkpt>
      <trkpt lat="45.87494" lon="3.02825">
        <ele>576</ele>
        <time>2021-08-10T19:33:40Z</time>
      </trkpt>
      <trkpt lat="45.87494" lon="3.02826">
        <ele>576</ele>
        <time>2021-08-10T19:33:41Z</time>
      </trkpt>
      <trkpt lat="45.875" lon="3.02831">
        <ele>576</ele>
        <time>2021-08-10T19:33:42Z</time>
      </trkpt>
      <trkpt lat="45.875" lon="3.02832">
        <ele>576</ele>
        <time>2021-08-10T19:33:44Z</time>
      </trkpt>
      <trkpt lat="45.87503" lon="3.02837">
        <ele>576</ele>
        <time>2021-08-10T19:33:45Z</time>
      </trkpt>
      <trkpt lat="45.87503" lon="3.02837">
        <ele>576</ele>
        <time>2021-08-10T19:33:46Z</time>
      </trkpt>
      <trkpt lat="45.87503" lon="3.02839">
        <ele>576</ele>
        <time>2021-08-10T19:33:47Z</time>
      </trkpt>
      <trkpt lat="45.87504" lon="3.0284">
        <ele>576</ele>
        <time>2021-08-10T19:33:49Z</time>
      </trkpt>
      <trkpt lat="45.87508" lon="3.02847">
        <ele>576</ele>
        <time>2021-08-10T19:33:50Z</time>
      </trkpt>
      <trkpt lat="45.87508" lon="3.02847">
        <ele>576</ele>
        <time>2021-08-10T19:33:51Z</time>
      </trkpt>
      <trkpt lat="45.87509" lon="3.02848">
        <ele>576</ele>
        <time>2021-08-10T19:33:53Z</time>
      </trkpt>
      <trkpt lat="45.87511" lon="3.02855">
        <ele>576</ele>
        <time>2021-08-10T19:33:55Z</time>
      </trkpt>
      <trkpt lat="45.87513" lon="3.02859">
        <ele>576</ele>
        <time>2021-08-10T19:33:56Z</time>
      </trkpt>
      <trkpt lat="45.87513" lon="3.02859">
        <ele>576</ele>
        <time>2021-08-10T19:33:57Z</time>
      </trkpt>
      <trkpt lat="45.87513" lon="3.02861">
        <ele>576</ele>
        <time>2021-08-10T19:33:58Z</time>
      </trkpt>
      <trkpt lat="45.87514" lon="3.02862">
        <ele>576</ele>
        <time>2021-08-10T19:33:59Z</time>
      </trkpt>
      <trkpt lat="45.87515" lon="3.02865">
        <ele>576</ele>
        <time>2021-08-10T19:34:01Z</time>
      </trkpt>
      <trkpt lat="45.87516" lon="3.02873">
        <ele>576</ele>
        <time>2021-08-10T19:34:02Z</time>
      </trkpt>
      <trkpt lat="45.87517" lon="3.02873">
        <ele>576</ele>
        <time>2021-08-10T19:34:04Z</time>
      </trkpt>
      <trkpt lat="45.8752" lon="3.02878">
        <ele>576</ele>
        <time>2021-08-10T19:34:05Z</time>
      </trkpt>
      <trkpt lat="45.8752" lon="3.02878">
        <ele>576</ele>
        <time>2021-08-10T19:34:06Z</time>
      </trkpt>
      <trkpt lat="45.87521" lon="3.02879">
        <ele>576</ele>
        <time>2021-08-10T19:34:07Z</time>
      </trkpt>
      <trkpt lat="45.87521" lon="3.02881">
        <ele>576</ele>
        <time>2021-08-10T19:34:09Z</time>
      </trkpt>
      <trkpt lat="45.87525" lon="3.02887">
        <ele>576</ele>
        <time>2021-08-10T19:34:10Z</time>
      </trkpt>
      <trkpt lat="45.87526" lon="3.02888">
        <ele>576</ele>
        <time>2021-08-10T19:34:11Z</time>
      </trkpt>
      <trkpt lat="45.87526" lon="3.02889">
        <ele>576</ele>
        <time>2021-08-10T19:34:12Z</time>
      </trkpt>
      <trkpt lat="45.87526" lon="3.0289">
        <ele>576</ele>
        <time>2021-08-10T19:34:13Z</time>
      </trkpt>
      <trkpt lat="45.87527" lon="3.02891">
        <ele>576</ele>
        <time>2021-08-10T19:34:14Z</time>
      </trkpt>
      <trkpt lat="45.87527" lon="3.02893">
        <ele>576</ele>
        <time>2021-08-10T19:34:16Z</time>
      </trkpt>
      <trkpt lat="45.87531" lon="3.02901">
        <ele>576</ele>
        <time>2021-08-10T19:34:18Z</time>
      </trkpt>
      <trkpt lat="45.87533" lon="3.02905">
        <ele>576</ele>
        <time>2021-08-10T19:34:19Z</time>
      </trkpt>
      <trkpt lat="45.87533" lon="3.02905">
        <ele>576</ele>
        <time>2021-08-10T19:34:20Z</time>
      </trkpt>
      <trkpt lat="45.87533" lon="3.02906">
        <ele>576</ele>
        <time>2021-08-10T19:34:21Z</time>
      </trkpt>
      <trkpt lat="45.87534" lon="3.02908">
        <ele>576</ele>
        <time>2021-08-10T19:34:22Z</time>
      </trkpt>
      <trkpt lat="45.87534" lon="3.02909">
        <ele>576</ele>
        <time>2021-08-10T19:34:24Z</time>
      </trkpt>
      <trkpt lat="45.87538" lon="3.02918">
        <ele>576</ele>
        <time>2021-08-10T19:34:25Z</time>
      </trkpt>
      <trkpt lat="45.87538" lon="3.02918">
        <ele>576</ele>
        <time>2021-08-10T19:34:26Z</time>
      </trkpt>
      <trkpt lat="45.87539" lon="3.02919">
        <ele>576</ele>
        <time>2021-08-10T19:34:27Z</time>
      </trkpt>
      <trkpt lat="45.87539" lon="3.02921">
        <ele>576</ele>
        <time>2021-08-10T19:34:29Z</time>
      </trkpt>
      <trkpt lat="45.87542" lon="3.02928">
        <ele>576</ele>
        <time>2021-08-10T19:34:30Z</time>
      </trkpt>
      <trkpt lat="45.87542" lon="3.02929">
        <ele>576</ele>
        <time>2021-08-10T19:34:31Z</time>
      </trkpt>
      <trkpt lat="45.87542" lon="3.0293">
        <ele>576</ele>
        <time>2021-08-10T19:34:32Z</time>
      </trkpt>
      <trkpt lat="45.87543" lon="3.02932">
        <ele>576</ele>
        <time>2021-08-10T19:34:33Z</time>
      </trkpt>
      <trkpt lat="45.87544" lon="3.02933">
        <ele>576</ele>
        <time>2021-08-10T19:34:35Z</time>
      </trkpt>
      <trkpt lat="45.87547" lon="3.02943">
        <ele>576</ele>
        <time>2021-08-10T19:34:36Z</time>
      </trkpt>
      <trkpt lat="45.87547" lon="3.02944">
        <ele>576</ele>
        <time>2021-08-10T19:34:37Z</time>
      </trkpt>
      <trkpt lat="45.87547" lon="3.02945">
        <ele>576</ele>
        <time>2021-08-10T19:34:38Z</time>
      </trkpt>
      <trkpt lat="45.87547" lon="3.02947">
        <ele>576</ele>
        <time>2021-08-10T19:34:40Z</time>
      </trkpt>
      <trkpt lat="45.87548" lon="3.02949">
        <ele>576</ele>
        <time>2021-08-10T19:34:41Z</time>
      </trkpt>
      <trkpt lat="45.87551" lon="3.02957">
        <ele>576</ele>
        <time>2021-08-10T19:34:42Z</time>
      </trkpt>
      <trkpt lat="45.87551" lon="3.02958">
        <ele>576</ele>
        <time>2021-08-10T19:34:43Z</time>
      </trkpt>
      <trkpt lat="45.87551" lon="3.02959">
        <ele>576</ele>
        <time>2021-08-10T19:34:44Z</time>
      </trkpt>
      <trkpt lat="45.87551" lon="3.02961">
        <ele>576</ele>
        <time>2021-08-10T19:34:45Z</time>
      </trkpt>
      <trkpt lat="45.87552" lon="3.02963">
        <ele>576</ele>
        <time>2021-08-10T19:34:46Z</time>
      </trkpt>
      <trkpt lat="45.87552" lon="3.02965">
        <ele>576</ele>
        <time>2021-08-10T19:34:48Z</time>
      </trkpt>
      <trkpt lat="45.87553" lon="3.02975">
        <ele>576</ele>
        <time>2021-08-10T19:34:49Z</time>
      </trkpt>
      <trkpt lat="45.87554" lon="3.02975">
        <ele>576</ele>
        <time>2021-08-10T19:34:51Z</time>
      </trkpt>
      <trkpt lat="45.87555" lon="3.02982">
        <ele>576</ele>
        <time>2021-08-10T19:34:52Z</time>
      </trkpt>
      <trkpt lat="45.87555" lon="3.02983">
        <ele>576</ele>
        <time>2021-08-10T19:34:53Z</time>
      </trkpt>
      <trkpt lat="45.87555" lon="3.02984">
        <ele>576</ele>
        <time>2021-08-10T19:34:54Z</time>
      </trkpt>
      <trkpt lat="45.87555" lon="3.02986">
        <ele>576</ele>
        <time>2021-08-10T19:34:55Z</time>
      </trkpt>
      <trkpt lat="45.87555" lon="3.02988">
        <ele>576</ele>
        <time>2021-08-10T19:34:57Z</time>
      </trkpt>
      <trkpt lat="45.87555" lon="3.02998">
        <ele>576</ele>
        <time>2021-08-10T19:34:58Z</time>
      </trkpt>
      <trkpt lat="45.87556" lon="3.02999">
        <ele>576</ele>
        <time>2021-08-10T19:34:59Z</time>
      </trkpt>
      <trkpt lat="45.87556" lon="3.03">
        <ele>576</ele>
        <time>2021-08-10T19:35:00Z</time>
      </trkpt>
      <trkpt lat="45.87556" lon="3.03002">
        <ele>576</ele>
        <time>2021-08-10T19:35:01Z</time>
      </trkpt>
      <trkpt lat="45.87556" lon="3.03004">
        <ele>576</ele>
        <time>2021-08-10T19:35:02Z</time>
      </trkpt>
      <trkpt lat="45.87556" lon="3.03007">
        <ele>576</ele>
        <time>2021-08-10T19:35:03Z</time>
      </trkpt>
      <trkpt lat="45.87556" lon="3.03009">
        <ele>576</ele>
        <time>2021-08-10T19:35:05Z</time>
      </trkpt>
      <trkpt lat="45.87555" lon="3.0302">
        <ele>576</ele>
        <time>2021-08-10T19:35:07Z</time>
      </trkpt>
      <trkpt lat="45.87555" lon="3.03021">
        <ele>576</ele>
        <time>2021-08-10T19:35:08Z</time>
      </trkpt>
      <trkpt lat="45.87554" lon="3.03028">
        <ele>576</ele>
        <time>2021-08-10T19:35:09Z</time>
      </trkpt>
      <trkpt lat="45.87554" lon="3.03029">
        <ele>576</ele>
        <time>2021-08-10T19:35:10Z</time>
      </trkpt>
      <trkpt lat="45.87554" lon="3.0303">
        <ele>576</ele>
        <time>2021-08-10T19:35:11Z</time>
      </trkpt>
      <trkpt lat="45.87553" lon="3.03032">
        <ele>576</ele>
        <time>2021-08-10T19:35:13Z</time>
      </trkpt>
      <trkpt lat="45.87553" lon="3.03034">
        <ele>576</ele>
        <time>2021-08-10T19:35:14Z</time>
      </trkpt>
      <trkpt lat="45.87552" lon="3.03043">
        <ele>576</ele>
        <time>2021-08-10T19:35:15Z</time>
      </trkpt>
      <trkpt lat="45.87552" lon="3.03043">
        <ele>576</ele>
        <time>2021-08-10T19:35:17Z</time>
      </trkpt>
      <trkpt lat="45.87552" lon="3.0305">
        <ele>576</ele>
        <time>2021-08-10T19:35:19Z</time>
      </trkpt>
      <trkpt lat="45.87551" lon="3.03055">
        <ele>576</ele>
        <time>2021-08-10T19:35:20Z</time>
      </trkpt>
      <trkpt lat="45.87551" lon="3.03055">
        <ele>576</ele>
        <time>2021-08-10T19:35:21Z</time>
      </trkpt>
      <trkpt lat="45.8755" lon="3.03057">
        <ele>576</ele>
        <time>2021-08-10T19:35:23Z</time>
      </trkpt>
      <trkpt lat="45.87549" lon="3.03064">
        <ele>576</ele>
        <time>2021-08-10T19:35:25Z</time>
      </trkpt>
      <trkpt lat="45.87547" lon="3.03069">
        <ele>576</ele>
        <time>2021-08-10T19:35:26Z</time>
      </trkpt>
      <trkpt lat="45.87547" lon="3.0307">
        <ele>576</ele>
        <time>2021-08-10T19:35:27Z</time>
      </trkpt>
      <trkpt lat="45.87547" lon="3.03071">
        <ele>576</ele>
        <time>2021-08-10T19:35:28Z</time>
      </trkpt>
      <trkpt lat="45.87547" lon="3.03073">
        <ele>576</ele>
        <time>2021-08-10T19:35:29Z</time>
      </trkpt>
      <trkpt lat="45.87546" lon="3.03074">
        <ele>576</ele>
        <time>2021-08-10T19:35:31Z</time>
      </trkpt>
      <trkpt lat="45.87542" lon="3.03081">
        <ele>576</ele>
        <time>2021-08-10T19:35:32Z</time>
      </trkpt>
      <trkpt lat="45.87542" lon="3.03081">
        <ele>576</ele>
        <time>2021-08-10T19:35:34Z</time>
      </trkpt>
      <trkpt lat="45.87539" lon="3.03087">
        <ele>576</ele>
        <time>2021-08-10T19:35:35Z</time>
      </trkpt>
      <trkpt lat="45.87538" lon="3.03088">
        <ele>576</ele>
        <time>2021-08-10T19:35:36Z</time>
      </trkpt>
      <trkpt lat="45.87537" lon="3.03089">
        <ele>576</ele>
        <time>2021-08-10T19:35:37Z</time>
      </trkpt>
      <trkpt lat="45.87536" lon="3.03091">
        <ele>576</ele>
        <time>2021-08-10T19:35:39Z</time>
      </trkpt>
      <trkpt lat="45.87536" lon="3.03093">
        <ele>576</ele>
        <time>2021-08-10T19:35:40Z</time>
      </trkpt>
      <trkpt lat="45.87535" lon="3.03095">
        <ele>576</ele>
        <time>2021-08-10T19:35:41Z</time>
      </trkpt>
      <trkpt lat="45.8753" lon="3.03103">
        <ele>576</ele>
        <time>2021-08-10T19:35:43Z</time>
      </trkpt>
      <trkpt lat="45.87529" lon="3.03107">
        <ele>576</ele>
        <time>2021-08-10T19:35:44Z</time>
      </trkpt>
      <trkpt lat="45.87528" lon="3.03108">
        <ele>576</ele>
        <time>2021-08-10T19:35:46Z</time>
      </trkpt>
      <trkpt lat="45.87525" lon="3.03113">
        <ele>576</ele>
        <time>2021-08-10T19:35:47Z</time>
      </trkpt>
      <trkpt lat="45.87525" lon="3.03113">
        <ele>576</ele>
        <time>2021-08-10T19:35:49Z</time>
      </trkpt>
      <trkpt lat="45.87521" lon="3.03119">
        <ele>576</ele>
        <time>2021-08-10T19:35:50Z</time>
      </trkpt>
      <trkpt lat="45.87521" lon="3.03119">
        <ele>576</ele>
        <time>2021-08-10T19:35:51Z</time>
      </trkpt>
      <trkpt lat="45.87521" lon="3.0312">
        <ele>576</ele>
        <time>2021-08-10T19:35:52Z</time>
      </trkpt>
      <trkpt lat="45.8752" lon="3.03121">
        <ele>576</ele>
        <time>2021-08-10T19:35:53Z</time>
      </trkpt>
      <trkpt lat="45.87519" lon="3.03122">
        <ele>576</ele>
        <time>2021-08-10T19:35:54Z</time>
      </trkpt>
      <trkpt lat="45.87518" lon="3.03124">
        <ele>576</ele>
        <time>2021-08-10T19:35:55Z</time>
      </trkpt>
      <trkpt lat="45.87516" lon="3.03125">
        <ele>576</ele>
        <time>2021-08-10T19:35:57Z</time>
      </trkpt>
      <trkpt lat="45.87511" lon="3.03131">
        <ele>576</ele>
        <time>2021-08-10T19:35:59Z</time>
      </trkpt>
      <trkpt lat="45.87509" lon="3.03135">
        <ele>576</ele>
        <time>2021-08-10T19:36:00Z</time>
      </trkpt>
      <trkpt lat="45.87508" lon="3.03136">
        <ele>576</ele>
        <time>2021-08-10T19:36:01Z</time>
      </trkpt>
      <trkpt lat="45.87508" lon="3.03137">
        <ele>576</ele>
        <time>2021-08-10T19:36:01Z</time>
      </trkpt>
      <trkpt lat="45.87507" lon="3.03138">
        <ele>576</ele>
        <time>2021-08-10T19:36:02Z</time>
      </trkpt>
      <trkpt lat="45.87506" lon="3.0314">
        <ele>576</ele>
        <time>2021-08-10T19:36:04Z</time>
      </trkpt>
      <trkpt lat="45.875" lon="3.03146">
        <ele>576</ele>
        <time>2021-08-10T19:36:05Z</time>
      </trkpt>
      <trkpt lat="45.875" lon="3.03146">
        <ele>576</ele>
        <time>2021-08-10T19:36:06Z</time>
      </trkpt>
      <trkpt lat="45.87499" lon="3.03147">
        <ele>576</ele>
        <time>2021-08-10T19:36:07Z</time>
      </trkpt>
      <trkpt lat="45.87498" lon="3.03148">
        <ele>576</ele>
        <time>2021-08-10T19:36:08Z</time>
      </trkpt>
      <trkpt lat="45.87497" lon="3.03149">
        <ele>576</ele>
        <time>2021-08-10T19:36:10Z</time>
      </trkpt>
      <trkpt lat="45.87491" lon="3.03155">
        <ele>576</ele>
        <time>2021-08-10T19:36:11Z</time>
      </trkpt>
      <trkpt lat="45.87491" lon="3.03155">
        <ele>576</ele>
        <time>2021-08-10T19:36:12Z</time>
      </trkpt>
      <trkpt lat="45.8749" lon="3.03156">
        <ele>576</ele>
        <time>2021-08-10T19:36:13Z</time>
      </trkpt>
      <trkpt lat="45.87489" lon="3.03157">
        <ele>576</ele>
        <time>2021-08-10T19:36:14Z</time>
      </trkpt>
      <trkpt lat="45.87488" lon="3.03158">
        <ele>576</ele>
        <time>2021-08-10T19:36:16Z</time>
      </trkpt>
      <trkpt lat="45.87483" lon="3.03162">
        <ele>576</ele>
        <time>2021-08-10T19:36:17Z</time>
      </trkpt>
      <trkpt lat="45.87483" lon="3.03162">
        <ele>576</ele>
        <time>2021-08-10T19:36:18Z</time>
      </trkpt>
      <trkpt lat="45.87482" lon="3.03163">
        <ele>576</ele>
        <time>2021-08-10T19:36:19Z</time>
      </trkpt>
      <trkpt lat="45.87481" lon="3.03164">
        <ele>576</ele>
        <time>2021-08-10T19:36:20Z</time>
      </trkpt>
      <trkpt lat="45.87479" lon="3.03165">
        <ele>576</ele>
        <time>2021-08-10T19:36:21Z</time>
      </trkpt>
      <trkpt lat="45.87478" lon="3.03165">
        <ele>576</ele>
        <time>2021-08-10T19:36:22Z</time>
      </trkpt>
      <trkpt lat="45.87476" lon="3.03166">
        <ele>576</ele>
        <time>2021-08-10T19:36:24Z</time>
      </trkpt>
      <trkpt lat="45.8747" lon="3.0317">
        <ele>576</ele>
        <time>2021-08-10T19:36:25Z</time>
      </trkpt>
      <trkpt lat="45.8747" lon="3.0317">
        <ele>576</ele>
        <time>2021-08-10T19:36:27Z</time>
      </trkpt>
      <trkpt lat="45.87465" lon="3.03172">
        <ele>576</ele>
        <time>2021-08-10T19:36:28Z</time>
      </trkpt>
      <trkpt lat="45.87464" lon="3.03173">
        <ele>576</ele>
        <time>2021-08-10T19:36:29Z</time>
      </trkpt>
      <trkpt lat="45.87464" lon="3.03173">
        <ele>576</ele>
        <time>2021-08-10T19:36:30Z</time>
      </trkpt>
      <trkpt lat="45.87463" lon="3.03174">
        <ele>576</ele>
        <time>2021-08-10T19:36:32Z</time>
      </trkpt>
      <trkpt lat="45.87458" lon="3.03177">
        <ele>576</ele>
        <time>2021-08-10T19:36:33Z</time>
      </trkpt>
      <trkpt lat="45.87457" lon="3.03177">
        <ele>576</ele>
        <time>2021-08-10T19:36:35Z</time>
      </trkpt>
      <trkpt lat="45.87453" lon="3.0318">
        <ele>576</ele>
        <time>2021-08-10T19:36:36Z</time>
      </trkpt>
      <trkpt lat="45.87452" lon="3.0318">
        <ele>576</ele>
        <time>2021-08-10T19:36:38Z</time>
      </trkpt>
      <trkpt lat="45.87452" lon="3.0318">
        <ele>576</ele>
        <time>2021-08-10T19:36:39Z</time>
      </trkpt>
      <trkpt lat="45.8745" lon="3.03181">
        <ele>576</ele>
        <time>2021-08-10T19:36:40Z</time>
      </trkpt>
      <trkpt lat="45.87445" lon="3.03183">
        <ele>576</ele>
        <time>2021-08-10T19:36:41Z</time>
      </trkpt>
      <trkpt lat="45.87445" lon="3.03183">
        <ele>576</ele>
        <time>2021-08-10T19:36:42Z</time>
      </trkpt>
      <trkpt lat="45.87444" lon="3.03184">
        <ele>576</ele>
        <time>2021-08-10T19:36:44Z</time>
      </trkpt>
      <trkpt lat="45.87437" lon="3.03185">
        <ele>576</ele>
        <time>2021-08-10T19:36:45Z</time>
      </trkpt>
      <trkpt lat="45.87437" lon="3.03186">
        <ele>576</ele>
        <time>2021-08-10T19:36:47Z</time>
      </trkpt>
      <trkpt lat="45.87433" lon="3.03188">
        <ele>576</ele>
        <time>2021-08-10T19:36:48Z</time>
      </trkpt>
      <trkpt lat="45.87432" lon="3.03188">
        <ele>576</ele>
        <time>2021-08-10T19:36:49Z</time>
      </trkpt>
      <trkpt lat="45.87431" lon="3.03189">
        <ele>576</ele>
        <time>2021-08-10T19:36:50Z</time>
      </trkpt>
      <trkpt lat="45.87431" lon="3.0319">
        <ele>576</ele>
        <time>2021-08-10T19:36:52Z</time>
      </trkpt>
      <trkpt lat="45.87425" lon="3.03192">
        <ele>576</ele>
        <time>2021-08-10T19:36:53Z</time>
      </trkpt>
      <trkpt lat="45.87425" lon="3.03192">
        <ele>576</ele>
        <time>2021-08-10T19:36:55Z</time>
      </trkpt>
      <trkpt lat="45.87421" lon="3.03196">
        <ele>576</ele>
        <time>2021-08-10T19:36:56Z</time>
      </trkpt>
      <trkpt lat="45.8742" lon="3.03196">
        <ele>576</ele>
        <time>2021-08-10T19:36:58Z</time>
      </trkpt>
      <trkpt lat="45.87416" lon="3.03199">
        <ele>576</ele>
        <time>2021-08-10T19:37:00Z</time>
      </trkpt>
      <trkpt lat="45.87413" lon="3.032">
        <ele>576</ele>
        <time>2021-08-10T19:37:01Z</time>
      </trkpt>
      <trkpt lat="45.87412" lon="3.032">
        <ele>576</ele>
        <time>2021-08-10T19:37:02Z</time>
      </trkpt>
      <trkpt lat="45.87411" lon="3.03201">
        <ele>576</ele>
        <time>2021-08-10T19:37:03Z</time>
      </trkpt>
      <trkpt lat="45.8741" lon="3.03201">
        <ele>576</ele>
        <time>2021-08-10T19:37:04Z</time>
      </trkpt>
      <trkpt lat="45.87408" lon="3.03202">
        <ele>576</ele>
        <time>2021-08-10T19:37:06Z</time>
      </trkpt>
      <trkpt lat="45.87402" lon="3.03204">
        <ele>576</ele>
        <time>2021-08-10T19:37:07Z</time>
      </trkpt>
      <trkpt lat="45.87401" lon="3.03204">
        <ele>576</ele>
        <time>2021-08-10T19:37:09Z</time>
      </trkpt>
      <trkpt lat="45.87397" lon="3.03205">
        <ele>576</ele>
        <time>2021-08-10T19:37:10Z</time>
      </trkpt>
      <trkpt lat="45.87396" lon="3.03205">
        <ele>576</ele>
        <time>2021-08-10T19:37:12Z</time>
      </trkpt>
      <trkpt lat="45.87391" lon="3.03204">
        <ele>576</ele>
        <time>2021-08-10T19:37:13Z</time>
      </trkpt>
      <trkpt lat="45.87391" lon="3.03204">
        <ele>576</ele>
        <time>2021-08-10T19:37:14Z</time>
      </trkpt>
      <trkpt lat="45.87389" lon="3.03204">
        <ele>576</ele>
        <time>2021-08-10T19:37:15Z</time>
      </trkpt>
      <trkpt lat="45.87388" lon="3.03204">
        <ele>576</ele>
        <time>2021-08-10T19:37:16Z</time>
      </trkpt>
      <trkpt lat="45.87387" lon="3.03204">
        <ele>576</ele>
        <time>2021-08-10T19:37:18Z</time>
      </trkpt>
      <trkpt lat="45.87381" lon="3.03203">
        <ele>576</ele>
        <time>2021-08-10T19:37:19Z</time>
      </trkpt>
      <trkpt lat="45.8738" lon="3.03203">
        <ele>576</ele>
        <time>2021-08-10T19:37:20Z</time>
      </trkpt>
      <trkpt lat="45.8738" lon="3.03202">
        <ele>576</ele>
        <time>2021-08-10T19:37:21Z</time>
      </trkpt>
      <trkpt lat="45.87378" lon="3.03202">
        <ele>576</ele>
        <time>2021-08-10T19:37:22Z</time>
      </trkpt>
      <trkpt lat="45.87377" lon="3.03201">
        <ele>576</ele>
        <time>2021-08-10T19:37:24Z</time>
      </trkpt>
      <trkpt lat="45.87371" lon="3.03198">
        <ele>576</ele>
        <time>2021-08-10T19:37:25Z</time>
      </trkpt>
      <trkpt lat="45.87371" lon="3.03198">
        <ele>576</ele>
        <time>2021-08-10T19:37:27Z</time>
      </trkpt>
      <trkpt lat="45.87367" lon="3.03195">
        <ele>576</ele>
        <time>2021-08-10T19:37:28Z</time>
      </trkpt>
      <trkpt lat="45.87366" lon="3.03195">
        <ele>576</ele>
        <time>2021-08-10T19:37:29Z</time>
      </trkpt>
      <trkpt lat="45.87365" lon="3.03195">
        <ele>576</ele>
        <time>2021-08-10T19:37:30Z</time>
      </trkpt>
      <trkpt lat="45.87364" lon="3.03194">
        <ele>576</ele>
        <time>2021-08-10T19:37:32Z</time>
      </trkpt>
      <trkpt lat="45.87359" lon="3.03191">
        <ele>576</ele>
        <time>2021-08-10T19:37:33Z</time>
      </trkpt>
      <trkpt lat="45.87359" lon="3.03191">
        <ele>576</ele>
        <time>2021-08-10T19:37:35Z</time>
      </trkpt>
      <trkpt lat="45.87356" lon="3.03189">
        <ele>576</ele>
        <time>2021-08-10T19:37:36Z</time>
      </trkpt>
      <trkpt lat="45.87355" lon="3.03188">
        <ele>576</ele>
        <time>2021-08-10T19:37:37Z</time>
      </trkpt>
      <trkpt lat="45.87355" lon="3.03188">
        <ele>576</ele>
        <time>2021-08-10T19:37:39Z</time>
      </trkpt>
      <trkpt lat="45.87354" lon="3.03187">
        <ele>576</ele>
        <time>2021-08-10T19:37:40Z</time>
      </trkpt>
      <trkpt lat="45.87349" lon="3.03184">
        <ele>576</ele>
        <time>2021-08-10T19:37:42Z</time>
      </trkpt>
      <trkpt lat="45.87346" lon="3.03181">
        <ele>576</ele>
        <time>2021-08-10T19:37:44Z</time>
      </trkpt>
      <trkpt lat="45.87344" lon="3.03178">
        <ele>576</ele>
        <time>2021-08-10T19:37:45Z</time>
      </trkpt>
      <trkpt lat="45.87343" lon="3.03178">
        <ele>576</ele>
        <time>2021-08-10T19:37:46Z</time>
      </trkpt>
      <trkpt lat="45.87343" lon="3.03177">
        <ele>576</ele>
        <time>2021-08-10T19:37:48Z</time>
      </trkpt>
      <trkpt lat="45.87338" lon="3.03172">
        <ele>576</ele>
        <time>2021-08-10T19:37:50Z</time>
      </trkpt>
      <trkpt lat="45.87335" lon="3.03168">
        <ele>576</ele>
        <time>2021-08-10T19:37:51Z</time>
      </trkpt>
      <trkpt lat="45.87334" lon="3.03167">
        <ele>576</ele>
        <time>2021-08-10T19:37:52Z</time>
      </trkpt>
      <trkpt lat="45.87333" lon="3.03166">
        <ele>576</ele>
        <time>2021-08-10T19:37:53Z</time>
      </trkpt>
      <trkpt lat="45.87332" lon="3.03165">
        <ele>576</ele>
        <time>2021-08-10T19:37:54Z</time>
      </trkpt>
      <trkpt lat="45.87331" lon="3.03164">
        <ele>576</ele>
        <time>2021-08-10T19:37:56Z</time>
      </trkpt>
      <trkpt lat="45.87326" lon="3.03158">
        <ele>576</ele>
        <time>2021-08-10T19:37:58Z</time>
      </trkpt>
      <trkpt lat="45.87324" lon="3.03155">
        <ele>576</ele>
        <time>2021-08-10T19:37:59Z</time>
      </trkpt>
      <trkpt lat="45.87324" lon="3.03154">
        <ele>576</ele>
        <time>2021-08-10T19:38:00Z</time>
      </trkpt>
      <trkpt lat="45.87323" lon="3.03153">
        <ele>576</ele>
        <time>2021-08-10T19:38:01Z</time>
      </trkpt>
      <trkpt lat="45.87322" lon="3.03152">
        <ele>576</ele>
        <time>2021-08-10T19:38:02Z</time>
      </trkpt>
      <trkpt lat="45.87322" lon="3.0315">
        <ele>576</ele>
        <time>2021-08-10T19:38:04Z</time>
      </trkpt>
      <trkpt lat="45.87318" lon="3.03142">
        <ele>576</ele>
        <time>2021-08-10T19:38:05Z</time>
      </trkpt>
      <trkpt lat="45.87318" lon="3.03142">
        <ele>576</ele>
        <time>2021-08-10T19:38:07Z</time>
      </trkpt>
      <trkpt lat="45.87315" lon="3.03135">
        <ele>576</ele>
        <time>2021-08-10T19:38:08Z</time>
      </trkpt>
      <trkpt lat="45.87314" lon="3.03134">
        <ele>576</ele>
        <time>2021-08-10T19:38:09Z</time>
      </trkpt>
      <trkpt lat="45.87314" lon="3.03133">
        <ele>576</ele>
        <time>2021-08-10T19:38:10Z</time>
      </trkpt>
      <trkpt lat="45.87313" lon="3.03131">
        <ele>576</ele>
        <time>2021-08-10T19:38:12Z</time>
      </trkpt>
      <trkpt lat="45.8731" lon="3.03123">
        <ele>576</ele>
        <time>2021-08-10T19:38:13Z</time>
      </trkpt>
      <trkpt lat="45.8731" lon="3.03122">
        <ele>576</ele>
        <time>2021-08-10T19:38:15Z</time>
      </trkpt>
      <trkpt lat="45.87309" lon="3.03116">
        <ele>576</ele>
        <time>2021-08-10T19:38:16Z</time>
      </trkpt>
      <trkpt lat="45.87309" lon="3.03116">
        <ele>576</ele>
        <time>2021-08-10T19:38:18Z</time>
      </trkpt>
      <trkpt lat="45.87308" lon="3.03109">
        <ele>576</ele>
        <time>2021-08-10T19:38:19Z</time>
      </trkpt>
      <trkpt lat="45.87308" lon="3.03109">
        <ele>576</ele>
        <time>2021-08-10T19:38:20Z</time>
      </trkpt>
      <trkpt lat="45.87307" lon="3.03107">
        <ele>576</ele>
        <time>2021-08-10T19:38:21Z</time>
      </trkpt>
      <trkpt lat="45.87307" lon="3.03106">
        <ele>576</ele>
        <time>2021-08-10T19:38:23Z</time>
      </trkpt>
      <trkpt lat="45.87307" lon="3.03104">
        <ele>576</ele>
        <time>2021-08-10T19:38:24Z</time>
      </trkpt>
      <trkpt lat="45.87304" lon="3.03097">
        <ele>576</ele>
        <time>2021-08-10T19:38:25Z</time>
      </trkpt>
      <trkpt lat="45.87304" lon="3.03097">
        <ele>576</ele>
        <time>2021-08-10T19:38:27Z</time>
      </trkpt>
      <trkpt lat="45.87302" lon="3.0309">
        <ele>576</ele>
        <time>2021-08-10T19:38:28Z</time>
      </trkpt>
      <trkpt lat="45.87302" lon="3.03089">
        <ele>576</ele>
        <time>2021-08-10T19:38:29Z</time>
      </trkpt>
      <trkpt lat="45.87301" lon="3.03088">
        <ele>576</ele>
        <time>2021-08-10T19:38:30Z</time>
      </trkpt>
      <trkpt lat="45.87301" lon="3.03086">
        <ele>576</ele>
        <time>2021-08-10T19:38:32Z</time>
      </trkpt>
      <trkpt lat="45.87298" lon="3.0308">
        <ele>576</ele>
        <time>2021-08-10T19:38:33Z</time>
      </trkpt>
      <trkpt lat="45.87297" lon="3.0308">
        <ele>576</ele>
        <time>2021-08-10T19:38:35Z</time>
      </trkpt>
      <trkpt lat="45.87296" lon="3.03075">
        <ele>576</ele>
        <time>2021-08-10T19:38:36Z</time>
      </trkpt>
      <trkpt lat="45.87296" lon="3.03075">
        <ele>576</ele>
        <time>2021-08-10T19:38:38Z</time>
      </trkpt>
      <trkpt lat="45.87297" lon="3.03074">
        <ele>576</ele>
        <time>2021-08-10T19:38:39Z</time>
      </trkpt>
      <trkpt lat="45.87297" lon="3.03072">
        <ele>576</ele>
        <time>2021-08-10T19:38:40Z</time>
      </trkpt>
      <trkpt lat="45.87295" lon="3.03066">
        <ele>576</ele>
        <time>2021-08-10T19:38:41Z</time>
      </trkpt>
      <trkpt lat="45.87294" lon="3.03065">
        <ele>576</ele>
        <time>2021-08-10T19:38:43Z</time>
      </trkpt>
      <trkpt lat="45.87293" lon="3.03059">
        <ele>576</ele>
        <time>2021-08-10T19:38:44Z</time>
      </trkpt>
      <trkpt lat="45.87292" lon="3.03058">
        <ele>576</ele>
        <time>2021-08-10T19:38:46Z</time>
      </trkpt>
      <trkpt lat="45.8729" lon="3.03052">
        <ele>576</ele>
        <time>2021-08-10T19:38:48Z</time>
      </trkpt>
      <trkpt lat="45.87289" lon="3.03047">
        <ele>576</ele>
        <time>2021-08-10T19:38:49Z</time>
      </trkpt>
      <trkpt lat="45.87288" lon="3.03047">
        <ele>576</ele>
        <time>2021-08-10T19:38:50Z</time>
      </trkpt>
      <trkpt lat="45.87288" lon="3.03046">
        <ele>576</ele>
        <time>2021-08-10T19:38:51Z</time>
      </trkpt>
      <trkpt lat="45.87287" lon="3.03044">
        <ele>576</ele>
        <time>2021-08-10T19:38:52Z</time>
      </trkpt>
      <trkpt lat="45.87286" lon="3.03042">
        <ele>576</ele>
        <time>2021-08-10T19:38:54Z</time>
      </trkpt>
      <trkpt lat="45.87284" lon="3.03033">
        <ele>576</ele>
        <time>2021-08-10T19:38:55Z</time>
      </trkpt>
      <trkpt lat="45.87284" lon="3.03032">
        <ele>576</ele>
        <time>2021-08-10T19:38:57Z</time>
      </trkpt>
      <trkpt lat="45.87281" lon="3.03027">
        <ele>576</ele>
        <time>2021-08-10T19:38:58Z</time>
      </trkpt>
      <trkpt lat="45.87281" lon="3.03027">
        <ele>576</ele>
        <time>2021-08-10T19:39:00Z</time>
      </trkpt>
      <trkpt lat="45.8728" lon="3.03021">
        <ele>576</ele>
        <time>2021-08-10T19:39:01Z</time>
      </trkpt>
      <trkpt lat="45.87279" lon="3.03021">
        <ele>576</ele>
        <time>2021-08-10T19:39:03Z</time>
      </trkpt>
      <trkpt lat="45.87276" lon="3.03014">
        <ele>576</ele>
        <time>2021-08-10T19:39:04Z</time>
      </trkpt>
      <trkpt lat="45.87276" lon="3.03013">
        <ele>576</ele>
        <time>2021-08-10T19:39:05Z</time>
      </trkpt>
      <trkpt lat="45.87275" lon="3.03012">
        <ele>576</ele>
        <time>2021-08-10T19:39:06Z</time>
      </trkpt>
      <trkpt lat="45.87274" lon="3.03011">
        <ele>576</ele>
        <time>2021-08-10T19:39:08Z</time>
      </trkpt>
      <trkpt lat="45.87271" lon="3.03002">
        <ele>576</ele>
        <time>2021-08-10T19:39:09Z</time>
      </trkpt>
      <trkpt lat="45.87271" lon="3.03001">
        <ele>576</ele>
        <time>2021-08-10T19:39:11Z</time>
      </trkpt>
      <trkpt lat="45.87269" lon="3.02996">
        <ele>576</ele>
        <time>2021-08-10T19:39:12Z</time>
      </trkpt>
      <trkpt lat="45.87269" lon="3.02995">
        <ele>576</ele>
        <time>2021-08-10T19:39:14Z</time>
      </trkpt>
      <trkpt lat="45.87267" lon="3.0299">
        <ele>576</ele>
        <time>2021-08-10T19:39:15Z</time>
      </trkpt>
      <trkpt lat="45.87266" lon="3.0299">
        <ele>576</ele>
        <time>2021-08-10T19:39:17Z</time>
      </trkpt>
      <trkpt lat="45.87264" lon="3.02983">
        <ele>576</ele>
        <time>2021-08-10T19:39:18Z</time>
      </trkpt>
      <trkpt lat="45.87264" lon="3.02982">
        <ele>576</ele>
        <time>2021-08-10T19:39:19Z</time>
      </trkpt>
      <trkpt lat="45.87264" lon="3.02981">
        <ele>576</ele>
        <time>2021-08-10T19:39:20Z</time>
      </trkpt>
      <trkpt lat="45.87263" lon="3.02979">
        <ele>576</ele>
        <time>2021-08-10T19:39:22Z</time>
      </trkpt>
      <trkpt lat="45.87262" lon="3.02978">
        <ele>576</ele>
        <time>2021-08-10T19:39:23Z</time>
      </trkpt>
      <trkpt lat="45.8726" lon="3.0297">
        <ele>576</ele>
        <time>2021-08-10T19:39:24Z</time>
      </trkpt>
      <trkpt lat="45.8726" lon="3.02969">
        <ele>576</ele>
        <time>2021-08-10T19:39:25Z</time>
      </trkpt>
      <trkpt lat="45.87259" lon="3.02968">
        <ele>576</ele>
        <time>2021-08-10T19:39:26Z</time>
      </trkpt>
      <trkpt lat="45.87259" lon="3.02967">
        <ele>576</ele>
        <time>2021-08-10T19:39:27Z</time>
      </trkpt>
      <trkpt lat="45.87257" lon="3.02965">
        <ele>576</ele>
        <time>2021-08-10T19:39:28Z</time>
      </trkpt>
      <trkpt lat="45.87256" lon="3.02963">
        <ele>576</ele>
        <time>2021-08-10T19:39:30Z</time>
      </trkpt>
      <trkpt lat="45.87252" lon="3.02954">
        <ele>576</ele>
        <time>2021-08-10T19:39:31Z</time>
      </trkpt>
      <trkpt lat="45.87252" lon="3.02954">
        <ele>576</ele>
        <time>2021-08-10T19:39:33Z</time>
      </trkpt>
      <trkpt lat="45.8725" lon="3.02948">
        <ele>576</ele>
        <time>2021-08-10T19:39:34Z</time>
      </trkpt>
      <trkpt lat="45.87249" lon="3.02947">
        <ele>576</ele>
        <time>2021-08-10T19:39:36Z</time>
      </trkpt>
      <trkpt lat="45.87247" lon="3.02942">
        <ele>576</ele>
        <time>2021-08-10T19:39:38Z</time>
      </trkpt>
      <trkpt lat="45.87246" lon="3.02942">
        <ele>576</ele>
        <time>2021-08-10T19:39:39Z</time>
      </trkpt>
      <trkpt lat="45.87245" lon="3.02941">
        <ele>576</ele>
        <time>2021-08-10T19:39:40Z</time>
      </trkpt>
      <trkpt lat="45.87241" lon="3.02934">
        <ele>576</ele>
        <time>2021-08-10T19:39:42Z</time>
      </trkpt>
      <trkpt lat="45.87241" lon="3.02933">
        <ele>576</ele>
        <time>2021-08-10T19:39:43Z</time>
      </trkpt>
      <trkpt lat="45.87236" lon="3.02927">
        <ele>576</ele>
        <time>2021-08-10T19:39:44Z</time>
      </trkpt>
      <trkpt lat="45.87236" lon="3.02927">
        <ele>576</ele>
        <time>2021-08-10T19:39:46Z</time>
      </trkpt>
      <trkpt lat="45.87234" lon="3.02922">
        <ele>576</ele>
        <time>2021-08-10T19:39:47Z</time>
      </trkpt>
      <trkpt lat="45.87234" lon="3.02921">
        <ele>576</ele>
        <time>2021-08-10T19:39:49Z</time>
      </trkpt>
      <trkpt lat="45.87233" lon="3.02918">
        <ele>576</ele>
        <time>2021-08-10T19:39:50Z</time>
      </trkpt>
      <trkpt lat="45.87233" lon="3.02917">
        <ele>576</ele>
        <time>2021-08-10T19:39:51Z</time>
      </trkpt>
      <trkpt lat="45.87232" lon="3.02917">
        <ele>576</ele>
        <time>2021-08-10T19:39:52Z</time>
      </trkpt>
      <trkpt lat="45.87231" lon="3.02915">
        <ele>576</ele>
        <time>2021-08-10T19:39:54Z</time>
      </trkpt>
      <trkpt lat="45.8723" lon="3.02914">
        <ele>576</ele>
        <time>2021-08-10T19:39:55Z</time>
      </trkpt>
      <trkpt lat="45.87226" lon="3.0291">
        <ele>576</ele>
        <time>2021-08-10T19:39:56Z</time>
      </trkpt>
      <trkpt lat="45.87226" lon="3.0291">
        <ele>576</ele>
        <time>2021-08-10T19:39:57Z</time>
      </trkpt>
      <trkpt lat="45.87226" lon="3.02909">
        <ele>576</ele>
        <time>2021-08-10T19:39:58Z</time>
      </trkpt>
      <trkpt lat="45.87225" lon="3.02909">
        <ele>576</ele>
        <time>2021-08-10T19:39:59Z</time>
      </trkpt>
      <trkpt lat="45.87224" lon="3.02908">
        <ele>576</ele>
        <time>2021-08-10T19:40:01Z</time>
      </trkpt>
      <trkpt lat="45.87221" lon="3.02904">
        <ele>576</ele>
        <time>2021-08-10T19:40:02Z</time>
      </trkpt>
      <trkpt lat="45.8722" lon="3.02904">
        <ele>576</ele>
        <time>2021-08-10T19:40:03Z</time>
      </trkpt>
      <trkpt lat="45.8722" lon="3.02904">
        <ele>576</ele>
        <time>2021-08-10T19:40:04Z</time>
      </trkpt>
      <trkpt lat="45.87219" lon="3.02903">
        <ele>576</ele>
        <time>2021-08-10T19:40:06Z</time>
      </trkpt>
      <trkpt lat="45.87218" lon="3.02902">
        <ele>576</ele>
        <time>2021-08-10T19:40:07Z</time>
      </trkpt>
      <trkpt lat="45.87213" lon="3.02897">
        <ele>576</ele>
        <time>2021-08-10T19:40:08Z</time>
      </trkpt>
      <trkpt lat="45.87213" lon="3.02896">
        <ele>576</ele>
        <time>2021-08-10T19:40:09Z</time>
      </trkpt>
      <trkpt lat="45.87212" lon="3.02896">
        <ele>576</ele>
        <time>2021-08-10T19:40:10Z</time>
      </trkpt>
      <trkpt lat="45.87211" lon="3.02895">
        <ele>576</ele>
        <time>2021-08-10T19:40:12Z</time>
      </trkpt>
      <trkpt lat="45.87206" lon="3.0289">
        <ele>576</ele>
        <time>2021-08-10T19:40:13Z</time>
      </trkpt>
      <trkpt lat="45.87205" lon="3.0289">
        <ele>576</ele>
        <time>2021-08-10T19:40:15Z</time>
      </trkpt>
      <trkpt lat="45.87199" lon="3.02887">
        <ele>576</ele>
        <time>2021-08-10T19:40:16Z</time>
      </trkpt>
      <trkpt lat="45.87199" lon="3.02887">
        <ele>576</ele>
        <time>2021-08-10T19:40:17Z</time>
      </trkpt>
      <trkpt lat="45.87195" lon="3.02883">
        <ele>576</ele>
        <time>2021-08-10T19:40:18Z</time>
      </trkpt>
      <trkpt lat="45.87194" lon="3.02883">
        <ele>576</ele>
        <time>2021-08-10T19:40:20Z</time>
      </trkpt>
      <trkpt lat="45.87194" lon="3.02883">
        <ele>576</ele>
        <time>2021-08-10T19:40:21Z</time>
      </trkpt>
      <trkpt lat="45.8719" lon="3.0288">
        <ele>576</ele>
        <time>2021-08-10T19:40:23Z</time>
      </trkpt>
      <trkpt lat="45.87187" lon="3.02878">
        <ele>576</ele>
        <time>2021-08-10T19:40:24Z</time>
      </trkpt>
      <trkpt lat="45.87187" lon="3.02878">
        <ele>576</ele>
        <time>2021-08-10T19:40:26Z</time>
      </trkpt>
      <trkpt lat="45.87183" lon="3.02875">
        <ele>576</ele>
        <time>2021-08-10T19:40:27Z</time>
      </trkpt>
      <trkpt lat="45.87182" lon="3.02875">
        <ele>576</ele>
        <time>2021-08-10T19:40:29Z</time>
      </trkpt>
      <trkpt lat="45.87175" lon="3.0287">
        <ele>576</ele>
        <time>2021-08-10T19:40:31Z</time>
      </trkpt>
      <trkpt lat="45.8717" lon="3.02868">
        <ele>576</ele>
        <time>2021-08-10T19:40:32Z</time>
      </trkpt>
      <trkpt lat="45.8717" lon="3.02867">
        <ele>576</ele>
        <time>2021-08-10T19:40:34Z</time>
      </trkpt>
      <trkpt lat="45.87164" lon="3.02866">
        <ele>576</ele>
        <time>2021-08-10T19:40:35Z</time>
      </trkpt>
      <trkpt lat="45.87164" lon="3.02866">
        <ele>576</ele>
        <time>2021-08-10T19:40:37Z</time>
      </trkpt>
      <trkpt lat="45.87163" lon="3.02865">
        <ele>576</ele>
        <time>2021-08-10T19:40:38Z</time>
      </trkpt>
      <trkpt lat="45.87162" lon="3.02865">
        <ele>576</ele>
        <time>2021-08-10T19:40:39Z</time>
      </trkpt>
      <trkpt lat="45.87156" lon="3.02862">
        <ele>576</ele>
        <time>2021-08-10T19:40:40Z</time>
      </trkpt>
      <trkpt lat="45.87156" lon="3.02862">
        <ele>576</ele>
        <time>2021-08-10T19:40:41Z</time>
      </trkpt>
      <trkpt lat="45.87156" lon="3.02861">
        <ele>576</ele>
        <time>2021-08-10T19:40:42Z</time>
      </trkpt>
      <trkpt lat="45.87155" lon="3.02859">
        <ele>576</ele>
        <time>2021-08-10T19:40:43Z</time>
      </trkpt>
      <trkpt lat="45.87155" lon="3.02858">
        <ele>576</ele>
        <time>2021-08-10T19:40:44Z</time>
      </trkpt>
      <trkpt lat="45.87154" lon="3.02856">
        <ele>576</ele>
        <time>2021-08-10T19:40:45Z</time>
      </trkpt>
      <trkpt lat="45.87154" lon="3.02854">
        <ele>576</ele>
        <time>2021-08-10T19:40:46Z</time>
      </trkpt>
      <trkpt lat="45.87154" lon="3.02852">
        <ele>576</ele>
        <time>2021-08-10T19:40:47Z</time>
      </trkpt>
      <trkpt lat="45.87153" lon="3.0285">
        <ele>576</ele>
        <time>2021-08-10T19:40:48Z</time>
      </trkpt>
      <trkpt lat="45.87153" lon="3.02848">
        <ele>576</ele>
        <time>2021-08-10T19:40:49Z</time>
      </trkpt>
      <trkpt lat="45.87153" lon="3.02845">
        <ele>576</ele>
        <time>2021-08-10T19:40:51Z</time>
      </trkpt>
      <trkpt lat="45.87153" lon="3.02836">
        <ele>576</ele>
        <time>2021-08-10T19:40:52Z</time>
      </trkpt>
      <trkpt lat="45.87153" lon="3.02836">
        <ele>576</ele>
        <time>2021-08-10T19:40:53Z</time>
      </trkpt>
      <trkpt lat="45.87153" lon="3.02835">
        <ele>576</ele>
        <time>2021-08-10T19:40:54Z</time>
      </trkpt>
      <trkpt lat="45.87153" lon="3.02834">
        <ele>576</ele>
        <time>2021-08-10T19:40:55Z</time>
      </trkpt>
      <trkpt lat="45.87153" lon="3.02833">
        <ele>576</ele>
        <time>2021-08-10T19:40:56Z</time>
      </trkpt>
      <trkpt lat="45.87153" lon="3.02832">
        <ele>576</ele>
        <time>2021-08-10T19:40:57Z</time>
      </trkpt>
      <trkpt lat="45.87153" lon="3.0283">
        <ele>576</ele>
        <time>2021-08-10T19:40:59Z</time>
      </trkpt>
      <trkpt lat="45.87151" lon="3.02824">
        <ele>576</ele>
        <time>2021-08-10T19:41:00Z</time>
      </trkpt>
      <trkpt lat="45.87151" lon="3.02824">
        <ele>576</ele>
        <time>2021-08-10T19:41:02Z</time>
      </trkpt>
      <trkpt lat="45.87149" lon="3.0282">
        <ele>576</ele>
        <time>2021-08-10T19:41:03Z</time>
      </trkpt>
      <trkpt lat="45.87149" lon="3.0282">
        <ele>576</ele>
        <time>2021-08-10T19:41:04Z</time>
      </trkpt>
      <trkpt lat="45.87149" lon="3.0282">
        <ele>576</ele>
        <time>2021-08-10T19:41:05Z</time>
      </trkpt>
      <trkpt lat="45.87148" lon="3.02819">
        <ele>576</ele>
        <time>2021-08-10T19:41:07Z</time>
      </trkpt>
      <trkpt lat="45.87145" lon="3.02816">
        <ele>576</ele>
        <time>2021-08-10T19:41:08Z</time>
      </trkpt>
      <trkpt lat="45.87144" lon="3.02815">
        <ele>576</ele>
        <time>2021-08-10T19:41:10Z</time>
      </trkpt>
      <trkpt lat="45.8714" lon="3.02812">
        <ele>576</ele>
        <time>2021-08-10T19:41:11Z</time>
      </trkpt>
      <trkpt lat="45.8714" lon="3.02812">
        <ele>576</ele>
        <time>2021-08-10T19:41:13Z</time>
      </trkpt>
      <trkpt lat="45.87138" lon="3.0281">
        <ele>576</ele>
        <time>2021-08-10T19:41:15Z</time>
      </trkpt>
      <trkpt lat="45.87137" lon="3.02805">
        <ele>576</ele>
        <time>2021-08-10T19:41:16Z</time>
      </trkpt>
      <trkpt lat="45.87137" lon="3.02805">
        <ele>576</ele>
        <time>2021-08-10T19:41:17Z</time>
      </trkpt>
      <trkpt lat="45.87137" lon="3.02803">
        <ele>576</ele>
        <time>2021-08-10T19:41:18Z</time>
      </trkpt>
      <trkpt lat="45.87137" lon="3.02802">
        <ele>576</ele>
        <time>2021-08-10T19:41:19Z</time>
      </trkpt>
      <trkpt lat="45.87136" lon="3.028">
        <ele>576</ele>
        <time>2021-08-10T19:41:21Z</time>
      </trkpt>
      <trkpt lat="45.87135" lon="3.02792">
        <ele>576</ele>
        <time>2021-08-10T19:41:22Z</time>
      </trkpt>
      <trkpt lat="45.87135" lon="3.02791">
        <ele>576</ele>
        <time>2021-08-10T19:41:23Z</time>
      </trkpt>
      <trkpt lat="45.87135" lon="3.0279">
        <ele>576</ele>
        <time>2021-08-10T19:41:24Z</time>
      </trkpt>
      <trkpt lat="45.87135" lon="3.02788">
        <ele>576</ele>
        <time>2021-08-10T19:41:25Z</time>
      </trkpt>
      <trkpt lat="45.87134" lon="3.02787">
        <ele>576</ele>
        <time>2021-08-10T19:41:27Z</time>
      </trkpt>
      <trkpt lat="45.87133" lon="3.02781">
        <ele>576</ele>
        <time>2021-08-10T19:41:29Z</time>
      </trkpt>
      <trkpt lat="45.87132" lon="3.0278">
        <ele>576</ele>
        <time>2021-08-10T19:41:30Z</time>
      </trkpt>
      <trkpt lat="45.87132" lon="3.0278">
        <ele>576</ele>
        <time>2021-08-10T19:41:31Z</time>
      </trkpt>
    </trkseg>
  </trk>
</gpx>